<gpx xmlns="http://www.topografix.com/GPX/1/1" xmlns:xsi="http://www.w3.org/2001/XMLSchema-instance" version="1.1" xsi:schemaLocation="http://www.topografix.com/GPX/1/1 http://www.topografix.com/GPX/1/1/gpx.xsd" creator="MotionXGPSFull 24.1 Build 5049R64">
<trk>
<name>Goodna Loop Run</name>
<desc>2 Mar 2016  6:18 am</desc>
<trkseg>
<trkpt lat="-27.3566442" lon="152.9563964">
<ele>67.168</ele>
<time>2016-03-01T20:19:01.000Z</time>
</trkpt>
<trkpt lat="-27.3566442" lon="152.9563964">
<ele>67.137</ele>
<time>2016-03-01T20:19:05.000Z</time>
</trkpt>
<trkpt lat="-27.3566442" lon="152.9563964">
<ele>67.120</ele>
<time>2016-03-01T20:24:40.646Z</time>
</trkpt>
<trkpt lat="-27.3566366" lon="152.9565180">
<ele>67.101</ele>
<time>2016-03-01T20:24:43.912Z</time>
</trkpt>
<trkpt lat="-27.3565030" lon="152.9566287">
<ele>63.303</ele>
<time>2016-03-01T20:24:46.174Z</time>
</trkpt>
<trkpt lat="-27.3563352" lon="152.9567833">
<ele>53.354</ele>
<time>2016-03-01T20:24:48.514Z</time>
</trkpt>
<trkpt lat="-27.3560837" lon="152.9569619">
<ele>42.948</ele>
<time>2016-03-01T20:24:51.637Z</time>
</trkpt>
<trkpt lat="-27.3559311" lon="152.9570734">
<ele>37.508</ele>
<time>2016-03-01T20:24:53.535Z</time>
</trkpt>
<trkpt lat="-27.3556505" lon="152.9572206">
<ele>35.679</ele>
<time>2016-03-01T20:24:56.691Z</time>
</trkpt>
<trkpt lat="-27.3554553" lon="152.9572794">
<ele>35.207</ele>
<time>2016-03-01T20:24:58.846Z</time>
</trkpt>
<trkpt lat="-27.3552012" lon="152.9573079">
<ele>35.041</ele>
<time>2016-03-01T20:25:01.940Z</time>
</trkpt>
<trkpt lat="-27.3550596" lon="152.9572916">
<ele>34.675</ele>
<time>2016-03-01T20:25:04.230Z</time>
</trkpt>
<trkpt lat="-27.3549057" lon="152.9572476">
<ele>33.781</ele>
<time>2016-03-01T20:25:07.290Z</time>
</trkpt>
<trkpt lat="-27.3548448" lon="152.9574120">
<ele>32.592</ele>
<time>2016-03-01T20:25:10.181Z</time>
</trkpt>
<trkpt lat="-27.3548811" lon="152.9575645">
<ele>31.688</ele>
<time>2016-03-01T20:25:11.854Z</time>
</trkpt>
<trkpt lat="-27.3549126" lon="152.9579224">
<ele>31.318</ele>
<time>2016-03-01T20:25:15.019Z</time>
</trkpt>
<trkpt lat="-27.3549153" lon="152.9582022">
<ele>31.516</ele>
<time>2016-03-01T20:25:17.033Z</time>
</trkpt>
<trkpt lat="-27.3549289" lon="152.9586385">
<ele>32.330</ele>
<time>2016-03-01T20:25:20.058Z</time>
</trkpt>
<trkpt lat="-27.3549516" lon="152.9590975">
<ele>33.643</ele>
<time>2016-03-01T20:25:23.254Z</time>
</trkpt>
<trkpt lat="-27.3550190" lon="152.9594971">
<ele>34.979</ele>
<time>2016-03-01T20:25:26.160Z</time>
</trkpt>
<trkpt lat="-27.3551706" lon="152.9598939">
<ele>35.694</ele>
<time>2016-03-01T20:25:29.187Z</time>
</trkpt>
<trkpt lat="-27.3552852" lon="152.9601689">
<ele>35.579</ele>
<time>2016-03-01T20:25:31.297Z</time>
</trkpt>
<trkpt lat="-27.3553747" lon="152.9604377">
<ele>35.094</ele>
<time>2016-03-01T20:25:33.386Z</time>
</trkpt>
<trkpt lat="-27.3555361" lon="152.9607855">
<ele>34.653</ele>
<time>2016-03-01T20:25:36.468Z</time>
</trkpt>
<trkpt lat="-27.3555988" lon="152.9610221">
<ele>34.222</ele>
<time>2016-03-01T20:25:38.617Z</time>
</trkpt>
<trkpt lat="-27.3557016" lon="152.9613052">
<ele>33.518</ele>
<time>2016-03-01T20:25:41.328Z</time>
</trkpt>
<trkpt lat="-27.3558153" lon="152.9615164">
<ele>32.499</ele>
<time>2016-03-01T20:25:43.311Z</time>
</trkpt>
<trkpt lat="-27.3559395" lon="152.9617572">
<ele>31.576</ele>
<time>2016-03-01T20:25:45.308Z</time>
</trkpt>
<trkpt lat="-27.3561239" lon="152.9621798">
<ele>31.207</ele>
<time>2016-03-01T20:25:48.401Z</time>
</trkpt>
<trkpt lat="-27.3562654" lon="152.9624785">
<ele>31.510</ele>
<time>2016-03-01T20:25:50.499Z</time>
</trkpt>
<trkpt lat="-27.3564944" lon="152.9629161">
<ele>32.325</ele>
<time>2016-03-01T20:25:53.705Z</time>
</trkpt>
<trkpt lat="-27.3566416" lon="152.9631900">
<ele>33.338</ele>
<time>2016-03-01T20:25:55.893Z</time>
</trkpt>
<trkpt lat="-27.3566416" lon="152.9631900">
<ele>33.338</ele>
<time>2016-03-01T20:25:55.893Z</time>
</trkpt>
<trkpt lat="-27.3579838" lon="152.9683842">
<ele>36.479</ele>
<time>2016-03-01T20:26:32.886Z</time>
</trkpt>
<trkpt lat="-27.3578334" lon="152.9686983">
<ele>36.462</ele>
<time>2016-03-01T20:26:35.789Z</time>
</trkpt>
<trkpt lat="-27.3577692" lon="152.9688325">
<ele>36.056</ele>
<time>2016-03-01T20:26:37.321Z</time>
</trkpt>
<trkpt lat="-27.3577258" lon="152.9689272">
<ele>34.698</ele>
<time>2016-03-01T20:26:38.711Z</time>
</trkpt>
<trkpt lat="-27.3578106" lon="152.9689875">
<ele>32.615</ele>
<time>2016-03-01T20:26:40.644Z</time>
</trkpt>
<trkpt lat="-27.3580208" lon="152.9691007">
<ele>30.764</ele>
<time>2016-03-01T20:26:45.958Z</time>
</trkpt>
<trkpt lat="-27.3581478" lon="152.9691691">
<ele>29.812</ele>
<time>2016-03-01T20:26:48.267Z</time>
</trkpt>
<trkpt lat="-27.3582972" lon="152.9692495">
<ele>29.695</ele>
<time>2016-03-01T20:26:51.165Z</time>
</trkpt>
<trkpt lat="-27.3582982" lon="152.9693865">
<ele>29.837</ele>
<time>2016-03-01T20:26:54.133Z</time>
</trkpt>
<trkpt lat="-27.3582412" lon="152.9694803">
<ele>29.746</ele>
<time>2016-03-01T20:26:57.457Z</time>
</trkpt>
<trkpt lat="-27.3581727" lon="152.9695486">
<ele>29.400</ele>
<time>2016-03-01T20:27:01.000Z</time>
</trkpt>
<trkpt lat="-27.3581727" lon="152.9695486">
<ele>29.075</ele>
<time>2016-03-01T20:27:08.000Z</time>
</trkpt>
<trkpt lat="-27.3581727" lon="152.9695486">
<ele>28.936</ele>
<time>2016-03-01T20:35:45.872Z</time>
</trkpt>
<trkpt lat="-27.3581769" lon="152.9693769">
<ele>28.980</ele>
<time>2016-03-01T20:35:55.090Z</time>
</trkpt>
<trkpt lat="-27.3582685" lon="152.9693877">
<ele>29.131</ele>
<time>2016-03-01T20:35:58.684Z</time>
</trkpt>
<trkpt lat="-27.3583302" lon="152.9692948">
<ele>29.269</ele>
<time>2016-03-01T20:36:02.608Z</time>
</trkpt>
<trkpt lat="-27.3582633" lon="152.9692262">
<ele>29.341</ele>
<time>2016-03-01T20:36:04.676Z</time>
</trkpt>
<trkpt lat="-27.3581194" lon="152.9691538">
<ele>29.443</ele>
<time>2016-03-01T20:36:07.416Z</time>
</trkpt>
<trkpt lat="-27.3580198" lon="152.9691002">
<ele>29.687</ele>
<time>2016-03-01T20:36:09.161Z</time>
</trkpt>
<trkpt lat="-27.3579033" lon="152.9690375">
<ele>30.006</ele>
<time>2016-03-01T20:36:11.396Z</time>
</trkpt>
<trkpt lat="-27.3578104" lon="152.9689882">
<ele>30.107</ele>
<time>2016-03-01T20:36:13.958Z</time>
</trkpt>
<trkpt lat="-27.3577103" lon="152.9689595">
<ele>29.828</ele>
<time>2016-03-01T20:36:16.823Z</time>
</trkpt>
<trkpt lat="-27.3576627" lon="152.9690565">
<ele>29.357</ele>
<time>2016-03-01T20:36:20.110Z</time>
</trkpt>
<trkpt lat="-27.3576163" lon="152.9691550">
<ele>28.964</ele>
<time>2016-03-01T20:36:22.999Z</time>
</trkpt>
<trkpt lat="-27.3576163" lon="152.9691550">
<ele>28.755</ele>
<time>2016-03-01T20:36:26.999Z</time>
</trkpt>
<trkpt lat="-27.3576163" lon="152.9691550">
<ele>28.696</ele>
<time>2016-03-01T20:37:25.085Z</time>
</trkpt>
<trkpt lat="-27.3575395" lon="152.9693173">
<ele>28.729</ele>
<time>2016-03-01T20:37:30.379Z</time>
</trkpt>
<trkpt lat="-27.3574203" lon="152.9695729">
<ele>28.845</ele>
<time>2016-03-01T20:37:34.302Z</time>
</trkpt>
<trkpt lat="-27.3573814" lon="152.9698277">
<ele>29.038</ele>
<time>2016-03-01T20:37:37.013Z</time>
</trkpt>
<trkpt lat="-27.3577954" lon="152.9698098">
<ele>29.280</ele>
<time>2016-03-01T20:37:40.585Z</time>
</trkpt>
<trkpt lat="-27.3581691" lon="152.9699975">
<ele>29.684</ele>
<time>2016-03-01T20:37:43.492Z</time>
</trkpt>
<trkpt lat="-27.3585926" lon="152.9702650">
<ele>30.751</ele>
<time>2016-03-01T20:37:46.474Z</time>
</trkpt>
<trkpt lat="-27.3589013" lon="152.9704505">
<ele>32.702</ele>
<time>2016-03-01T20:37:48.345Z</time>
</trkpt>
<trkpt lat="-27.3594017" lon="152.9707920">
<ele>34.746</ele>
<time>2016-03-01T20:37:51.221Z</time>
</trkpt>
<trkpt lat="-27.3596976" lon="152.9709903">
<ele>36.158</ele>
<time>2016-03-01T20:37:52.890Z</time>
</trkpt>
<trkpt lat="-27.3601069" lon="152.9712941">
<ele>37.132</ele>
<time>2016-03-01T20:37:55.321Z</time>
</trkpt>
<trkpt lat="-27.3605415" lon="152.9715876">
<ele>38.431</ele>
<time>2016-03-01T20:37:57.949Z</time>
</trkpt>
<trkpt lat="-27.3607875" lon="152.9717491">
<ele>40.934</ele>
<time>2016-03-01T20:37:59.501Z</time>
</trkpt>
<trkpt lat="-27.3611384" lon="152.9719604">
<ele>44.314</ele>
<time>2016-03-01T20:38:01.652Z</time>
</trkpt>
<trkpt lat="-27.3616130" lon="152.9722355">
<ele>47.349</ele>
<time>2016-03-01T20:38:04.431Z</time>
</trkpt>
<trkpt lat="-27.3621150" lon="152.9725916">
<ele>49.855</ele>
<time>2016-03-01T20:38:07.325Z</time>
</trkpt>
<trkpt lat="-27.3624420" lon="152.9728603">
<ele>52.240</ele>
<time>2016-03-01T20:38:09.270Z</time>
</trkpt>
<trkpt lat="-27.3626544" lon="152.9730734">
<ele>54.199</ele>
<time>2016-03-01T20:38:10.735Z</time>
</trkpt>
<trkpt lat="-27.3629043" lon="152.9733021">
<ele>55.251</ele>
<time>2016-03-01T20:38:12.546Z</time>
</trkpt>
<trkpt lat="-27.3632381" lon="152.9735613">
<ele>55.426</ele>
<time>2016-03-01T20:38:15.001Z</time>
</trkpt>
<trkpt lat="-27.3639289" lon="152.9740036">
<ele>54.762</ele>
<time>2016-03-01T20:38:20.811Z</time>
</trkpt>
<trkpt lat="-27.3641275" lon="152.9741052">
<ele>54.001</ele>
<time>2016-03-01T20:38:22.999Z</time>
</trkpt>
<trkpt lat="-27.3641275" lon="152.9741052">
<ele>52.858</ele>
<time>2016-03-01T20:38:27.999Z</time>
</trkpt>
<trkpt lat="-27.3641275" lon="152.9741052">
<ele>52.063</ele>
<time>2016-03-01T20:38:51.191Z</time>
</trkpt>
<trkpt lat="-27.3643405" lon="152.9742693">
<ele>52.075</ele>
<time>2016-03-01T20:38:56.375Z</time>
</trkpt>
<trkpt lat="-27.3646360" lon="152.9744755">
<ele>52.463</ele>
<time>2016-03-01T20:38:59.500Z</time>
</trkpt>
<trkpt lat="-27.3648628" lon="152.9746647">
<ele>53.144</ele>
<time>2016-03-01T20:39:01.448Z</time>
</trkpt>
<trkpt lat="-27.3651051" lon="152.9749207">
<ele>54.394</ele>
<time>2016-03-01T20:39:03.579Z</time>
</trkpt>
<trkpt lat="-27.3654336" lon="152.9753415">
<ele>55.759</ele>
<time>2016-03-01T20:39:06.628Z</time>
</trkpt>
<trkpt lat="-27.3656557" lon="152.9756521">
<ele>56.024</ele>
<time>2016-03-01T20:39:08.662Z</time>
</trkpt>
<trkpt lat="-27.3659253" lon="152.9761451">
<ele>54.653</ele>
<time>2016-03-01T20:39:11.574Z</time>
</trkpt>
<trkpt lat="-27.3661887" lon="152.9764625">
<ele>52.243</ele>
<time>2016-03-01T20:39:13.735Z</time>
</trkpt>
<trkpt lat="-27.3664941" lon="152.9769400">
<ele>49.800</ele>
<time>2016-03-01T20:39:16.657Z</time>
</trkpt>
<trkpt lat="-27.3668049" lon="152.9774054">
<ele>47.695</ele>
<time>2016-03-01T20:39:19.533Z</time>
</trkpt>
<trkpt lat="-27.3671379" lon="152.9778994">
<ele>45.971</ele>
<time>2016-03-01T20:39:22.668Z</time>
</trkpt>
<trkpt lat="-27.3674711" lon="152.9782992">
<ele>44.920</ele>
<time>2016-03-01T20:39:25.708Z</time>
</trkpt>
<trkpt lat="-27.3676930" lon="152.9785060">
<ele>44.719</ele>
<time>2016-03-01T20:39:27.775Z</time>
</trkpt>
<trkpt lat="-27.3679028" lon="152.9786764">
<ele>44.750</ele>
<time>2016-03-01T20:39:29.761Z</time>
</trkpt>
<trkpt lat="-27.3682227" lon="152.9789050">
<ele>44.348</ele>
<time>2016-03-01T20:39:32.679Z</time>
</trkpt>
<trkpt lat="-27.3684533" lon="152.9790436">
<ele>43.338</ele>
<time>2016-03-01T20:39:34.661Z</time>
</trkpt>
<trkpt lat="-27.3688056" lon="152.9792286">
<ele>42.072</ele>
<time>2016-03-01T20:39:37.655Z</time>
</trkpt>
<trkpt lat="-27.3690356" lon="152.9793412">
<ele>40.743</ele>
<time>2016-03-01T20:39:39.718Z</time>
</trkpt>
<trkpt lat="-27.3692491" lon="152.9794407">
<ele>39.373</ele>
<time>2016-03-01T20:39:41.747Z</time>
</trkpt>
<trkpt lat="-27.3695466" lon="152.9795919">
<ele>38.285</ele>
<time>2016-03-01T20:39:44.688Z</time>
</trkpt>
<trkpt lat="-27.3697467" lon="152.9797043">
<ele>37.757</ele>
<time>2016-03-01T20:39:46.765Z</time>
</trkpt>
<trkpt lat="-27.3699395" lon="152.9797993">
<ele>37.821</ele>
<time>2016-03-01T20:39:48.718Z</time>
</trkpt>
<trkpt lat="-27.3702460" lon="152.9799409">
<ele>38.538</ele>
<time>2016-03-01T20:39:51.740Z</time>
</trkpt>
<trkpt lat="-27.3704461" lon="152.9800289">
<ele>39.951</ele>
<time>2016-03-01T20:39:53.663Z</time>
</trkpt>
<trkpt lat="-27.3707594" lon="152.9801578">
<ele>41.993</ele>
<time>2016-03-01T20:39:56.610Z</time>
</trkpt>
<trkpt lat="-27.3710842" lon="152.9802876">
<ele>44.493</ele>
<time>2016-03-01T20:39:59.579Z</time>
</trkpt>
<trkpt lat="-27.3714118" lon="152.9804445">
<ele>47.383</ele>
<time>2016-03-01T20:40:02.595Z</time>
</trkpt>
<trkpt lat="-27.3716332" lon="152.9805207">
<ele>50.415</ele>
<time>2016-03-01T20:40:04.548Z</time>
</trkpt>
<trkpt lat="-27.3718708" lon="152.9805631">
<ele>53.024</ele>
<time>2016-03-01T20:40:06.562Z</time>
</trkpt>
<trkpt lat="-27.3722056" lon="152.9806036">
<ele>55.052</ele>
<time>2016-03-01T20:40:09.408Z</time>
</trkpt>
<trkpt lat="-27.3725344" lon="152.9805560">
<ele>56.672</ele>
<time>2016-03-01T20:40:12.279Z</time>
</trkpt>
<trkpt lat="-27.3727618" lon="152.9805659">
<ele>57.932</ele>
<time>2016-03-01T20:40:14.284Z</time>
</trkpt>
<trkpt lat="-27.3731318" lon="152.9805660">
<ele>58.774</ele>
<time>2016-03-01T20:40:17.526Z</time>
</trkpt>
<trkpt lat="-27.3733563" lon="152.9805439">
<ele>59.180</ele>
<time>2016-03-01T20:40:19.458Z</time>
</trkpt>
<trkpt lat="-27.3737017" lon="152.9805098">
<ele>59.280</ele>
<time>2016-03-01T20:40:22.380Z</time>
</trkpt>
<trkpt lat="-27.3740658" lon="152.9804949">
<ele>59.229</ele>
<time>2016-03-01T20:40:25.423Z</time>
</trkpt>
<trkpt lat="-27.3744177" lon="152.9804922">
<ele>59.025</ele>
<time>2016-03-01T20:40:28.482Z</time>
</trkpt>
<trkpt lat="-27.3746241" lon="152.9804772">
<ele>58.479</ele>
<time>2016-03-01T20:40:30.482Z</time>
</trkpt>
<trkpt lat="-27.3749089" lon="152.9804436">
<ele>57.624</ele>
<time>2016-03-01T20:40:33.384Z</time>
</trkpt>
<trkpt lat="-27.3751045" lon="152.9804464">
<ele>56.909</ele>
<time>2016-03-01T20:40:35.385Z</time>
</trkpt>
<trkpt lat="-27.3753055" lon="152.9804558">
<ele>56.631</ele>
<time>2016-03-01T20:40:37.394Z</time>
</trkpt>
<trkpt lat="-27.3756135" lon="152.9804745">
<ele>56.852</ele>
<time>2016-03-01T20:40:40.446Z</time>
</trkpt>
<trkpt lat="-27.3759212" lon="152.9804940">
<ele>57.737</ele>
<time>2016-03-01T20:40:43.585Z</time>
</trkpt>
<trkpt lat="-27.3760969" lon="152.9805057">
<ele>59.335</ele>
<time>2016-03-01T20:40:45.595Z</time>
</trkpt>
<trkpt lat="-27.3763264" lon="152.9805225">
<ele>61.195</ele>
<time>2016-03-01T20:40:48.269Z</time>
</trkpt>
<trkpt lat="-27.3766028" lon="152.9805438">
<ele>62.649</ele>
<time>2016-03-01T20:40:51.340Z</time>
</trkpt>
<trkpt lat="-27.3768862" lon="152.9805709">
<ele>63.721</ele>
<time>2016-03-01T20:40:54.233Z</time>
</trkpt>
<trkpt lat="-27.3771034" lon="152.9805995">
<ele>64.929</ele>
<time>2016-03-01T20:40:56.284Z</time>
</trkpt>
<trkpt lat="-27.3774260" lon="152.9806482">
<ele>66.172</ele>
<time>2016-03-01T20:40:59.195Z</time>
</trkpt>
<trkpt lat="-27.3776610" lon="152.9806794">
<ele>66.956</ele>
<time>2016-03-01T20:41:01.237Z</time>
</trkpt>
<trkpt lat="-27.3780045" lon="152.9807178">
<ele>67.201</ele>
<time>2016-03-01T20:41:04.275Z</time>
</trkpt>
<trkpt lat="-27.3782176" lon="152.9807544">
<ele>66.945</ele>
<time>2016-03-01T20:41:06.304Z</time>
</trkpt>
<trkpt lat="-27.3784073" lon="152.9807804">
<ele>66.034</ele>
<time>2016-03-01T20:41:08.192Z</time>
</trkpt>
<trkpt lat="-27.3786971" lon="152.9808202">
<ele>64.599</ele>
<time>2016-03-01T20:41:11.087Z</time>
</trkpt>
<trkpt lat="-27.3789121" lon="152.9808561">
<ele>62.754</ele>
<time>2016-03-01T20:41:13.077Z</time>
</trkpt>
<trkpt lat="-27.3792634" lon="152.9809286">
<ele>60.483</ele>
<time>2016-03-01T20:41:16.118Z</time>
</trkpt>
<trkpt lat="-27.3795013" lon="152.9809816">
<ele>58.371</ele>
<time>2016-03-01T20:41:18.094Z</time>
</trkpt>
<trkpt lat="-27.3797385" lon="152.9810570">
<ele>57.003</ele>
<time>2016-03-01T20:41:20.095Z</time>
</trkpt>
<trkpt lat="-27.3799652" lon="152.9811555">
<ele>55.843</ele>
<time>2016-03-01T20:41:22.017Z</time>
</trkpt>
<trkpt lat="-27.3803164" lon="152.9813577">
<ele>54.158</ele>
<time>2016-03-01T20:41:24.963Z</time>
</trkpt>
<trkpt lat="-27.3806915" lon="152.9816262">
<ele>52.098</ele>
<time>2016-03-01T20:41:28.033Z</time>
</trkpt>
<trkpt lat="-27.3809194" lon="152.9818290">
<ele>50.364</ele>
<time>2016-03-01T20:41:30.007Z</time>
</trkpt>
<trkpt lat="-27.3812380" lon="152.9821525">
<ele>49.226</ele>
<time>2016-03-01T20:41:32.976Z</time>
</trkpt>
<trkpt lat="-27.3815383" lon="152.9824736">
<ele>48.407</ele>
<time>2016-03-01T20:41:35.919Z</time>
</trkpt>
<trkpt lat="-27.3817413" lon="152.9826828">
<ele>47.729</ele>
<time>2016-03-01T20:41:37.868Z</time>
</trkpt>
<trkpt lat="-27.3820945" lon="152.9829744">
<ele>47.482</ele>
<time>2016-03-01T20:41:40.874Z</time>
</trkpt>
<trkpt lat="-27.3823663" lon="152.9831270">
<ele>48.160</ele>
<time>2016-03-01T20:41:42.881Z</time>
</trkpt>
<trkpt lat="-27.3826549" lon="152.9832509">
<ele>49.782</ele>
<time>2016-03-01T20:41:44.868Z</time>
</trkpt>
<trkpt lat="-27.3831120" lon="152.9833843">
<ele>51.617</ele>
<time>2016-03-01T20:41:47.837Z</time>
</trkpt>
<trkpt lat="-27.3834222" lon="152.9834639">
<ele>53.587</ele>
<time>2016-03-01T20:41:49.799Z</time>
</trkpt>
<trkpt lat="-27.3838914" lon="152.9836028">
<ele>56.035</ele>
<time>2016-03-01T20:41:52.799Z</time>
</trkpt>
<trkpt lat="-27.3843320" lon="152.9837466">
<ele>58.826</ele>
<time>2016-03-01T20:41:55.718Z</time>
</trkpt>
<trkpt lat="-27.3847364" lon="152.9839389">
<ele>61.870</ele>
<time>2016-03-01T20:41:58.602Z</time>
</trkpt>
<trkpt lat="-27.3849981" lon="152.9841174">
<ele>65.117</ele>
<time>2016-03-01T20:42:00.614Z</time>
</trkpt>
<trkpt lat="-27.3852591" lon="152.9842856">
<ele>67.869</ele>
<time>2016-03-01T20:42:02.609Z</time>
</trkpt>
<trkpt lat="-27.3856092" lon="152.9845782">
<ele>69.407</ele>
<time>2016-03-01T20:42:05.597Z</time>
</trkpt>
<trkpt lat="-27.3858648" lon="152.9847145">
<ele>69.713</ele>
<time>2016-03-01T20:42:07.618Z</time>
</trkpt>
<trkpt lat="-27.3862353" lon="152.9848352">
<ele>69.440</ele>
<time>2016-03-01T20:42:10.573Z</time>
</trkpt>
<trkpt lat="-27.3864650" lon="152.9848654">
<ele>68.774</ele>
<time>2016-03-01T20:42:12.519Z</time>
</trkpt>
<trkpt lat="-27.3866561" lon="152.9848623">
<ele>67.482</ele>
<time>2016-03-01T20:42:14.301Z</time>
</trkpt>
<trkpt lat="-27.3869729" lon="152.9848447">
<ele>65.728</ele>
<time>2016-03-01T20:42:17.306Z</time>
</trkpt>
<trkpt lat="-27.3873349" lon="152.9848737">
<ele>64.162</ele>
<time>2016-03-01T20:42:20.494Z</time>
</trkpt>
<trkpt lat="-27.3875496" lon="152.9848933">
<ele>63.273</ele>
<time>2016-03-01T20:42:22.452Z</time>
</trkpt>
<trkpt lat="-27.3877397" lon="152.9849138">
<ele>62.952</ele>
<time>2016-03-01T20:42:24.347Z</time>
</trkpt>
<trkpt lat="-27.3880331" lon="152.9849550">
<ele>62.781</ele>
<time>2016-03-01T20:42:27.403Z</time>
</trkpt>
<trkpt lat="-27.3882286" lon="152.9849856">
<ele>62.727</ele>
<time>2016-03-01T20:42:29.373Z</time>
</trkpt>
<trkpt lat="-27.3885497" lon="152.9850554">
<ele>63.057</ele>
<time>2016-03-01T20:42:32.408Z</time>
</trkpt>
<trkpt lat="-27.3887863" lon="152.9851095">
<ele>64.072</ele>
<time>2016-03-01T20:42:34.465Z</time>
</trkpt>
<trkpt lat="-27.3890421" lon="152.9851378">
<ele>65.725</ele>
<time>2016-03-01T20:42:36.499Z</time>
</trkpt>
<trkpt lat="-27.3894350" lon="152.9851263">
<ele>67.496</ele>
<time>2016-03-01T20:42:39.353Z</time>
</trkpt>
<trkpt lat="-27.3899278" lon="152.9851607">
<ele>69.366</ele>
<time>2016-03-01T20:42:42.584Z</time>
</trkpt>
<trkpt lat="-27.3904141" lon="152.9852048">
<ele>71.793</ele>
<time>2016-03-01T20:42:45.634Z</time>
</trkpt>
<trkpt lat="-27.3908604" lon="152.9851894">
<ele>74.292</ele>
<time>2016-03-01T20:42:48.516Z</time>
</trkpt>
<trkpt lat="-27.3912909" lon="152.9851280">
<ele>76.184</ele>
<time>2016-03-01T20:42:51.442Z</time>
</trkpt>
<trkpt lat="-27.3915830" lon="152.9850748">
<ele>77.304</ele>
<time>2016-03-01T20:42:53.439Z</time>
</trkpt>
<trkpt lat="-27.3920258" lon="152.9849838">
<ele>77.533</ele>
<time>2016-03-01T20:42:56.445Z</time>
</trkpt>
<trkpt lat="-27.3923226" lon="152.9849567">
<ele>76.784</ele>
<time>2016-03-01T20:42:58.439Z</time>
</trkpt>
<trkpt lat="-27.3927565" lon="152.9850319">
<ele>74.892</ele>
<time>2016-03-01T20:43:01.470Z</time>
</trkpt>
<trkpt lat="-27.3931445" lon="152.9851873">
<ele>71.387</ele>
<time>2016-03-01T20:43:04.416Z</time>
</trkpt>
<trkpt lat="-27.3934141" lon="152.9853057">
<ele>66.760</ele>
<time>2016-03-01T20:43:06.471Z</time>
</trkpt>
<trkpt lat="-27.3936167" lon="152.9853951">
<ele>62.758</ele>
<time>2016-03-01T20:43:07.985Z</time>
</trkpt>
<trkpt lat="-27.3939718" lon="152.9855509">
<ele>61.202</ele>
<time>2016-03-01T20:43:10.536Z</time>
</trkpt>
<trkpt lat="-27.3942314" lon="152.9856847">
<ele>62.705</ele>
<time>2016-03-01T20:43:12.513Z</time>
</trkpt>
<trkpt lat="-27.3945820" lon="152.9858417">
<ele>65.935</ele>
<time>2016-03-01T20:43:15.343Z</time>
</trkpt>
<trkpt lat="-27.3948187" lon="152.9859432">
<ele>68.317</ele>
<time>2016-03-01T20:43:17.330Z</time>
</trkpt>
<trkpt lat="-27.3950596" lon="152.9860453">
<ele>68.364</ele>
<time>2016-03-01T20:43:19.348Z</time>
</trkpt>
<trkpt lat="-27.3952591" lon="152.9861351">
<ele>66.618</ele>
<time>2016-03-01T20:43:21.086Z</time>
</trkpt>
<trkpt lat="-27.3955786" lon="152.9862801">
<ele>64.110</ele>
<time>2016-03-01T20:43:24.143Z</time>
</trkpt>
<trkpt lat="-27.3957521" lon="152.9863577">
<ele>61.063</ele>
<time>2016-03-01T20:43:26.003Z</time>
</trkpt>
<trkpt lat="-27.3958879" lon="152.9864280">
<ele>57.585</ele>
<time>2016-03-01T20:43:27.758Z</time>
</trkpt>
<trkpt lat="-27.3961052" lon="152.9865228">
<ele>54.450</ele>
<time>2016-03-01T20:43:32.213Z</time>
</trkpt>
<trkpt lat="-27.3960001" lon="152.9864014">
<ele>52.419</ele>
<time>2016-03-01T20:43:38.999Z</time>
</trkpt>
<trkpt lat="-27.3960001" lon="152.9864014">
<ele>51.621</ele>
<time>2016-03-01T20:43:39.000Z</time>
</trkpt>
<trkpt lat="-27.3960001" lon="152.9864014">
<ele>51.638</ele>
<time>2016-03-01T20:43:41.022Z</time>
</trkpt>
<trkpt lat="-27.3961600" lon="152.9865583">
<ele>51.898</ele>
<time>2016-03-01T20:43:58.752Z</time>
</trkpt>
<trkpt lat="-27.3962656" lon="152.9866057">
<ele>52.158</ele>
<time>2016-03-01T20:44:00.575Z</time>
</trkpt>
<trkpt lat="-27.3964028" lon="152.9866673">
<ele>52.592</ele>
<time>2016-03-01T20:44:02.446Z</time>
</trkpt>
<trkpt lat="-27.3966521" lon="152.9867896">
<ele>53.552</ele>
<time>2016-03-01T20:44:05.233Z</time>
</trkpt>
<trkpt lat="-27.3968404" lon="152.9868734">
<ele>55.439</ele>
<time>2016-03-01T20:44:07.005Z</time>
</trkpt>
<trkpt lat="-27.3971478" lon="152.9870072">
<ele>58.240</ele>
<time>2016-03-01T20:44:09.784Z</time>
</trkpt>
<trkpt lat="-27.3973729" lon="152.9870915">
<ele>61.547</ele>
<time>2016-03-01T20:44:11.820Z</time>
</trkpt>
<trkpt lat="-27.3976176" lon="152.9870864">
<ele>64.919</ele>
<time>2016-03-01T20:44:14.045Z</time>
</trkpt>
<trkpt lat="-27.3978587" lon="152.9869691">
<ele>67.923</ele>
<time>2016-03-01T20:44:16.674Z</time>
</trkpt>
<trkpt lat="-27.3980809" lon="152.9867947">
<ele>70.072</ele>
<time>2016-03-01T20:44:19.361Z</time>
</trkpt>
<trkpt lat="-27.3983375" lon="152.9866016">
<ele>70.901</ele>
<time>2016-03-01T20:44:22.241Z</time>
</trkpt>
<trkpt lat="-27.3986109" lon="152.9864030">
<ele>70.347</ele>
<time>2016-03-01T20:44:25.092Z</time>
</trkpt>
<trkpt lat="-27.3988343" lon="152.9862978">
<ele>68.702</ele>
<time>2016-03-01T20:44:27.070Z</time>
</trkpt>
<trkpt lat="-27.3992086" lon="152.9862691">
<ele>66.177</ele>
<time>2016-03-01T20:44:29.983Z</time>
</trkpt>
<trkpt lat="-27.3994735" lon="152.9863235">
<ele>62.904</ele>
<time>2016-03-01T20:44:32.008Z</time>
</trkpt>
<trkpt lat="-27.3998059" lon="152.9863984">
<ele>59.226</ele>
<time>2016-03-01T20:44:34.900Z</time>
</trkpt>
<trkpt lat="-27.4000390" lon="152.9864507">
<ele>55.165</ele>
<time>2016-03-01T20:44:37.514Z</time>
</trkpt>
<trkpt lat="-27.4001321" lon="152.9864700">
<ele>50.513</ele>
<time>2016-03-01T20:44:39.000Z</time>
</trkpt>
<trkpt lat="-27.4001321" lon="152.9864700">
<ele>46.148</ele>
<time>2016-03-01T20:44:44.000Z</time>
</trkpt>
<trkpt lat="-27.4001321" lon="152.9864700">
<ele>43.928</ele>
<time>2016-03-01T20:44:59.185Z</time>
</trkpt>
<trkpt lat="-27.4003500" lon="152.9865146">
<ele>44.118</ele>
<time>2016-03-01T20:45:06.035Z</time>
</trkpt>
<trkpt lat="-27.4004720" lon="152.9865372">
<ele>44.864</ele>
<time>2016-03-01T20:45:08.134Z</time>
</trkpt>
<trkpt lat="-27.4006460" lon="152.9865767">
<ele>44.687</ele>
<time>2016-03-01T20:45:11.277Z</time>
</trkpt>
<trkpt lat="-27.4007526" lon="152.9866009">
<ele>43.848</ele>
<time>2016-03-01T20:45:13.429Z</time>
</trkpt>
<trkpt lat="-27.4008901" lon="152.9866418">
<ele>43.024</ele>
<time>2016-03-01T20:45:16.755Z</time>
</trkpt>
<trkpt lat="-27.4009938" lon="152.9866885">
<ele>42.383</ele>
<time>2016-03-01T20:45:20.171Z</time>
</trkpt>
<trkpt lat="-27.4010919" lon="152.9867454">
<ele>41.845</ele>
<time>2016-03-01T20:45:24.687Z</time>
</trkpt>
<trkpt lat="-27.4011784" lon="152.9868025">
<ele>41.248</ele>
<time>2016-03-01T20:45:28.874Z</time>
</trkpt>
<trkpt lat="-27.4012754" lon="152.9868679">
<ele>40.570</ele>
<time>2016-03-01T20:45:32.754Z</time>
</trkpt>
<trkpt lat="-27.4013771" lon="152.9869274">
<ele>39.985</ele>
<time>2016-03-01T20:45:35.917Z</time>
</trkpt>
<trkpt lat="-27.4014758" lon="152.9869673">
<ele>39.628</ele>
<time>2016-03-01T20:45:38.769Z</time>
</trkpt>
<trkpt lat="-27.4015842" lon="152.9869856">
<ele>39.382</ele>
<time>2016-03-01T20:45:41.734Z</time>
</trkpt>
<trkpt lat="-27.4016941" lon="152.9870009">
<ele>39.115</ele>
<time>2016-03-01T20:45:44.761Z</time>
</trkpt>
<trkpt lat="-27.4017996" lon="152.9870129">
<ele>38.778</ele>
<time>2016-03-01T20:45:47.820Z</time>
</trkpt>
<trkpt lat="-27.4018950" lon="152.9870232">
<ele>38.286</ele>
<time>2016-03-01T20:45:51.004Z</time>
</trkpt>
<trkpt lat="-27.4019949" lon="152.9870336">
<ele>37.657</ele>
<time>2016-03-01T20:45:55.112Z</time>
</trkpt>
<trkpt lat="-27.4020977" lon="152.9870377">
<ele>37.077</ele>
<time>2016-03-01T20:46:00.005Z</time>
</trkpt>
<trkpt lat="-27.4021912" lon="152.9870447">
<ele>36.652</ele>
<time>2016-03-01T20:46:05.000Z</time>
</trkpt>
<trkpt lat="-27.4021912" lon="152.9870447">
<ele>36.365</ele>
<time>2016-03-01T20:46:15.000Z</time>
</trkpt>
<trkpt lat="-27.4021912" lon="152.9870447">
<ele>36.221</ele>
<time>2016-03-01T20:46:45.549Z</time>
</trkpt>
<trkpt lat="-27.4023784" lon="152.9870819">
<ele>36.229</ele>
<time>2016-03-01T20:46:54.234Z</time>
</trkpt>
<trkpt lat="-27.4024751" lon="152.9871016">
<ele>36.302</ele>
<time>2016-03-01T20:46:56.248Z</time>
</trkpt>
<trkpt lat="-27.4025599" lon="152.9871354">
<ele>36.354</ele>
<time>2016-03-01T20:46:58.007Z</time>
</trkpt>
<trkpt lat="-27.4026969" lon="152.9872112">
<ele>36.308</ele>
<time>2016-03-01T20:47:01.065Z</time>
</trkpt>
<trkpt lat="-27.4028511" lon="152.9873232">
<ele>36.071</ele>
<time>2016-03-01T20:47:05.063Z</time>
</trkpt>
<trkpt lat="-27.4029411" lon="152.9873995">
<ele>35.649</ele>
<time>2016-03-01T20:47:07.988Z</time>
</trkpt>
<trkpt lat="-27.4030205" lon="152.9874681">
<ele>35.200</ele>
<time>2016-03-01T20:47:10.884Z</time>
</trkpt>
<trkpt lat="-27.4030934" lon="152.9875317">
<ele>34.899</ele>
<time>2016-03-01T20:47:13.648Z</time>
</trkpt>
<trkpt lat="-27.4031995" lon="152.9876208">
<ele>34.789</ele>
<time>2016-03-01T20:47:17.656Z</time>
</trkpt>
<trkpt lat="-27.4032778" lon="152.9876915">
<ele>34.726</ele>
<time>2016-03-01T20:47:21.544Z</time>
</trkpt>
<trkpt lat="-27.4033505" lon="152.9877627">
<ele>34.580</ele>
<time>2016-03-01T20:47:25.894Z</time>
</trkpt>
<trkpt lat="-27.4034310" lon="152.9878329">
<ele>34.364</ele>
<time>2016-03-01T20:47:32.000Z</time>
</trkpt>
<trkpt lat="-27.4034310" lon="152.9878329">
<ele>34.151</ele>
<time>2016-03-01T20:47:34.000Z</time>
</trkpt>
<trkpt lat="-27.4034310" lon="152.9878329">
<ele>34.023</ele>
<time>2016-03-01T20:47:42.575Z</time>
</trkpt>
<trkpt lat="-27.4035440" lon="152.9879234">
<ele>34.047</ele>
<time>2016-03-01T20:47:51.927Z</time>
</trkpt>
<trkpt lat="-27.4036155" lon="152.9879901">
<ele>34.241</ele>
<time>2016-03-01T20:47:57.548Z</time>
</trkpt>
<trkpt lat="-27.4036911" lon="152.9880515">
<ele>34.572</ele>
<time>2016-03-01T20:48:04.169Z</time>
</trkpt>
<trkpt lat="-27.4037694" lon="152.9881062">
<ele>34.901</ele>
<time>2016-03-01T20:48:10.000Z</time>
</trkpt>
<trkpt lat="-27.4037694" lon="152.9881062">
<ele>35.090</ele>
<time>2016-03-01T20:48:21.000Z</time>
</trkpt>
<trkpt lat="-27.4037694" lon="152.9881062">
<ele>35.133</ele>
<time>2016-03-01T20:48:30.220Z</time>
</trkpt>
<trkpt lat="-27.4038971" lon="152.9882307">
<ele>35.105</ele>
<time>2016-03-01T20:48:35.322Z</time>
</trkpt>
<trkpt lat="-27.4040786" lon="152.9883840">
<ele>35.244</ele>
<time>2016-03-01T20:48:38.776Z</time>
</trkpt>
<trkpt lat="-27.4041877" lon="152.9884761">
<ele>35.684</ele>
<time>2016-03-01T20:48:40.903Z</time>
</trkpt>
<trkpt lat="-27.4042821" lon="152.9885482">
<ele>36.101</ele>
<time>2016-03-01T20:48:42.724Z</time>
</trkpt>
<trkpt lat="-27.4044305" lon="152.9886663">
<ele>36.129</ele>
<time>2016-03-01T20:48:45.557Z</time>
</trkpt>
<trkpt lat="-27.4045293" lon="152.9887588">
<ele>35.851</ele>
<time>2016-03-01T20:48:47.347Z</time>
</trkpt>
<trkpt lat="-27.4046669" lon="152.9889669">
<ele>35.550</ele>
<time>2016-03-01T20:48:50.457Z</time>
</trkpt>
<trkpt lat="-27.4047757" lon="152.9891513">
<ele>35.394</ele>
<time>2016-03-01T20:48:53.241Z</time>
</trkpt>
<trkpt lat="-27.4048424" lon="152.9892669">
<ele>35.291</ele>
<time>2016-03-01T20:48:55.290Z</time>
</trkpt>
<trkpt lat="-27.4049226" lon="152.9894061">
<ele>35.061</ele>
<time>2016-03-01T20:48:58.169Z</time>
</trkpt>
<trkpt lat="-27.4049900" lon="152.9895117">
<ele>34.715</ele>
<time>2016-03-01T20:49:01.022Z</time>
</trkpt>
<trkpt lat="-27.4050491" lon="152.9896241">
<ele>34.386</ele>
<time>2016-03-01T20:49:04.392Z</time>
</trkpt>
<trkpt lat="-27.4051059" lon="152.9897108">
<ele>34.114</ele>
<time>2016-03-01T20:49:07.188Z</time>
</trkpt>
<trkpt lat="-27.4051744" lon="152.9898080">
<ele>33.910</ele>
<time>2016-03-01T20:49:10.178Z</time>
</trkpt>
<trkpt lat="-27.4052404" lon="152.9898970">
<ele>33.786</ele>
<time>2016-03-01T20:49:13.000Z</time>
</trkpt>
<trkpt lat="-27.4052404" lon="152.9898970">
<ele>33.717</ele>
<time>2016-03-01T20:49:18.000Z</time>
</trkpt>
<trkpt lat="-27.4052404" lon="152.9898970">
<ele>33.688</ele>
<time>2016-03-01T20:50:04.714Z</time>
</trkpt>
<trkpt lat="-27.4053820" lon="152.9900754">
<ele>33.683</ele>
<time>2016-03-01T20:50:12.024Z</time>
</trkpt>
<trkpt lat="-27.4054664" lon="152.9901825">
<ele>33.561</ele>
<time>2016-03-01T20:50:14.223Z</time>
</trkpt>
<trkpt lat="-27.4055838" lon="152.9903251">
<ele>33.194</ele>
<time>2016-03-01T20:50:17.216Z</time>
</trkpt>
<trkpt lat="-27.4056531" lon="152.9904213">
<ele>32.698</ele>
<time>2016-03-01T20:50:18.853Z</time>
</trkpt>
<trkpt lat="-27.4058013" lon="152.9905985">
<ele>32.293</ele>
<time>2016-03-01T20:50:21.789Z</time>
</trkpt>
<trkpt lat="-27.4059250" lon="152.9907207">
<ele>32.073</ele>
<time>2016-03-01T20:50:23.846Z</time>
</trkpt>
<trkpt lat="-27.4060158" lon="152.9908450">
<ele>32.015</ele>
<time>2016-03-01T20:50:25.458Z</time>
</trkpt>
<trkpt lat="-27.4063270" lon="152.9908557">
<ele>32.048</ele>
<time>2016-03-01T20:50:28.723Z</time>
</trkpt>
<trkpt lat="-27.4065351" lon="152.9908823">
<ele>32.124</ele>
<time>2016-03-01T20:50:30.710Z</time>
</trkpt>
<trkpt lat="-27.4067433" lon="152.9909055">
<ele>32.204</ele>
<time>2016-03-01T20:50:32.733Z</time>
</trkpt>
<trkpt lat="-27.4070336" lon="152.9909533">
<ele>32.244</ele>
<time>2016-03-01T20:50:36.108Z</time>
</trkpt>
<trkpt lat="-27.4071316" lon="152.9912284">
<ele>32.196</ele>
<time>2016-03-01T20:50:39.497Z</time>
</trkpt>
<trkpt lat="-27.4071051" lon="152.9914540">
<ele>32.071</ele>
<time>2016-03-01T20:50:41.443Z</time>
</trkpt>
<trkpt lat="-27.4070295" lon="152.9917544">
<ele>32.107</ele>
<time>2016-03-01T20:50:43.543Z</time>
</trkpt>
<trkpt lat="-27.4069480" lon="152.9920793">
<ele>32.518</ele>
<time>2016-03-01T20:50:45.562Z</time>
</trkpt>
<trkpt lat="-27.4069294" lon="152.9925749">
<ele>33.191</ele>
<time>2016-03-01T20:50:48.444Z</time>
</trkpt>
<trkpt lat="-27.4069679" lon="152.9929050">
<ele>33.855</ele>
<time>2016-03-01T20:50:50.311Z</time>
</trkpt>
<trkpt lat="-27.4070170" lon="152.9932629">
<ele>34.299</ele>
<time>2016-03-01T20:50:52.257Z</time>
</trkpt>
<trkpt lat="-27.4071025" lon="152.9938228">
<ele>34.477</ele>
<time>2016-03-01T20:50:55.261Z</time>
</trkpt>
<trkpt lat="-27.4071781" lon="152.9943637">
<ele>34.518</ele>
<time>2016-03-01T20:50:58.222Z</time>
</trkpt>
<trkpt lat="-27.4072478" lon="152.9947821">
<ele>34.195</ele>
<time>2016-03-01T20:51:00.604Z</time>
</trkpt>
<trkpt lat="-27.4073336" lon="152.9953890">
<ele>33.347</ele>
<time>2016-03-01T20:51:04.063Z</time>
</trkpt>
<trkpt lat="-27.4073944" lon="152.9957304">
<ele>32.429</ele>
<time>2016-03-01T20:51:06.025Z</time>
</trkpt>
<trkpt lat="-27.4074416" lon="152.9962359">
<ele>31.956</ele>
<time>2016-03-01T20:51:08.940Z</time>
</trkpt>
<trkpt lat="-27.4074254" lon="152.9965687">
<ele>31.989</ele>
<time>2016-03-01T20:51:10.935Z</time>
</trkpt>
<trkpt lat="-27.4073630" lon="152.9970275">
<ele>32.413</ele>
<time>2016-03-01T20:51:13.815Z</time>
</trkpt>
<trkpt lat="-27.4072909" lon="152.9974769">
<ele>33.000</ele>
<time>2016-03-01T20:51:16.820Z</time>
</trkpt>
<trkpt lat="-27.4072352" lon="152.9978450">
<ele>33.881</ele>
<time>2016-03-01T20:51:19.807Z</time>
</trkpt>
<trkpt lat="-27.4072007" lon="152.9980352">
<ele>35.257</ele>
<time>2016-03-01T20:51:22.000Z</time>
</trkpt>
<trkpt lat="-27.4072007" lon="152.9980352">
<ele>36.659</ele>
<time>2016-03-01T20:51:26.000Z</time>
</trkpt>
<trkpt lat="-27.4072007" lon="152.9980352">
<ele>37.338</ele>
<time>2016-03-01T20:52:14.239Z</time>
</trkpt>
<trkpt lat="-27.4071672" lon="152.9982815">
<ele>37.253</ele>
<time>2016-03-01T20:52:19.537Z</time>
</trkpt>
<trkpt lat="-27.4071723" lon="152.9984597">
<ele>37.903</ele>
<time>2016-03-01T20:52:21.245Z</time>
</trkpt>
<trkpt lat="-27.4073081" lon="152.9988092">
<ele>40.635</ele>
<time>2016-03-01T20:52:24.279Z</time>
</trkpt>
<trkpt lat="-27.4074373" lon="152.9990879">
<ele>44.488</ele>
<time>2016-03-01T20:52:26.340Z</time>
</trkpt>
<trkpt lat="-27.4075551" lon="152.9993958">
<ele>47.817</ele>
<time>2016-03-01T20:52:28.393Z</time>
</trkpt>
<trkpt lat="-27.4078242" lon="152.9998053">
<ele>50.461</ele>
<time>2016-03-01T20:52:31.452Z</time>
</trkpt>
<trkpt lat="-27.4079719" lon="153.0000910">
<ele>52.579</ele>
<time>2016-03-01T20:52:33.483Z</time>
</trkpt>
<trkpt lat="-27.4080911" lon="153.0003677">
<ele>53.800</ele>
<time>2016-03-01T20:52:35.421Z</time>
</trkpt>
<trkpt lat="-27.4081798" lon="153.0008210">
<ele>53.883</ele>
<time>2016-03-01T20:52:38.338Z</time>
</trkpt>
<trkpt lat="-27.4082290" lon="153.0011402">
<ele>53.146</ele>
<time>2016-03-01T20:52:40.335Z</time>
</trkpt>
<trkpt lat="-27.4083006" lon="153.0016217">
<ele>51.879</ele>
<time>2016-03-01T20:52:43.340Z</time>
</trkpt>
<trkpt lat="-27.4083507" lon="153.0019293">
<ele>50.484</ele>
<time>2016-03-01T20:52:45.294Z</time>
</trkpt>
<trkpt lat="-27.4084192" lon="153.0023978">
<ele>49.288</ele>
<time>2016-03-01T20:52:48.292Z</time>
</trkpt>
<trkpt lat="-27.4084675" lon="153.0027064">
<ele>47.949</ele>
<time>2016-03-01T20:52:50.248Z</time>
</trkpt>
<trkpt lat="-27.4085426" lon="153.0031935">
<ele>46.016</ele>
<time>2016-03-01T20:52:53.241Z</time>
</trkpt>
<trkpt lat="-27.4086176" lon="153.0037000">
<ele>43.828</ele>
<time>2016-03-01T20:52:56.227Z</time>
</trkpt>
<trkpt lat="-27.4086727" lon="153.0042279">
<ele>41.751</ele>
<time>2016-03-01T20:52:59.279Z</time>
</trkpt>
<trkpt lat="-27.4087246" lon="153.0045592">
<ele>39.913</ele>
<time>2016-03-01T20:53:01.330Z</time>
</trkpt>
<trkpt lat="-27.4087862" lon="153.0050099">
<ele>38.462</ele>
<time>2016-03-01T20:53:04.327Z</time>
</trkpt>
<trkpt lat="-27.4088247" lon="153.0052806">
<ele>37.107</ele>
<time>2016-03-01T20:53:06.284Z</time>
</trkpt>
<trkpt lat="-27.4089002" lon="153.0056718">
<ele>35.419</ele>
<time>2016-03-01T20:53:09.169Z</time>
</trkpt>
<trkpt lat="-27.4089483" lon="153.0059523">
<ele>33.682</ele>
<time>2016-03-01T20:53:11.157Z</time>
</trkpt>
<trkpt lat="-27.4090116" lon="153.0063986">
<ele>32.269</ele>
<time>2016-03-01T20:53:14.219Z</time>
</trkpt>
<trkpt lat="-27.4090570" lon="153.0066834">
<ele>31.132</ele>
<time>2016-03-01T20:53:16.224Z</time>
</trkpt>
<trkpt lat="-27.4091007" lon="153.0069494">
<ele>30.137</ele>
<time>2016-03-01T20:53:18.252Z</time>
</trkpt>
<trkpt lat="-27.4091560" lon="153.0073104">
<ele>29.173</ele>
<time>2016-03-01T20:53:21.209Z</time>
</trkpt>
<trkpt lat="-27.4091880" lon="153.0075329">
<ele>28.007</ele>
<time>2016-03-01T20:53:23.138Z</time>
</trkpt>
<trkpt lat="-27.4092181" lon="153.0077666">
<ele>26.657</ele>
<time>2016-03-01T20:53:25.119Z</time>
</trkpt>
<trkpt lat="-27.4092475" lon="153.0080084">
<ele>25.537</ele>
<time>2016-03-01T20:53:27.095Z</time>
</trkpt>
<trkpt lat="-27.4093006" lon="153.0083911">
<ele>24.968</ele>
<time>2016-03-01T20:53:30.190Z</time>
</trkpt>
<trkpt lat="-27.4093318" lon="153.0086249">
<ele>24.835</ele>
<time>2016-03-01T20:53:32.141Z</time>
</trkpt>
<trkpt lat="-27.4093767" lon="153.0089676">
<ele>24.848</ele>
<time>2016-03-01T20:53:35.210Z</time>
</trkpt>
<trkpt lat="-27.4094182" lon="153.0092504">
<ele>24.834</ele>
<time>2016-03-01T20:53:38.140Z</time>
</trkpt>
<trkpt lat="-27.4094522" lon="153.0094937">
<ele>24.618</ele>
<time>2016-03-01T20:53:40.868Z</time>
</trkpt>
<trkpt lat="-27.4094818" lon="153.0096906">
<ele>24.170</ele>
<time>2016-03-01T20:53:42.892Z</time>
</trkpt>
<trkpt lat="-27.4095090" lon="153.0099047">
<ele>23.815</ele>
<time>2016-03-01T20:53:44.886Z</time>
</trkpt>
<trkpt lat="-27.4095540" lon="153.0102452">
<ele>23.805</ele>
<time>2016-03-01T20:53:47.904Z</time>
</trkpt>
<trkpt lat="-27.4095871" lon="153.0104779">
<ele>23.989</ele>
<time>2016-03-01T20:53:49.903Z</time>
</trkpt>
<trkpt lat="-27.4096343" lon="153.0108276">
<ele>24.144</ele>
<time>2016-03-01T20:53:52.810Z</time>
</trkpt>
<trkpt lat="-27.4096965" lon="153.0112215">
<ele>24.193</ele>
<time>2016-03-01T20:53:55.887Z</time>
</trkpt>
<trkpt lat="-27.4097288" lon="153.0114853">
<ele>24.143</ele>
<time>2016-03-01T20:53:57.872Z</time>
</trkpt>
<trkpt lat="-27.4097872" lon="153.0118730">
<ele>24.037</ele>
<time>2016-03-01T20:54:00.782Z</time>
</trkpt>
<trkpt lat="-27.4098413" lon="153.0122800">
<ele>23.972</ele>
<time>2016-03-01T20:54:03.814Z</time>
</trkpt>
<trkpt lat="-27.4098805" lon="153.0125459">
<ele>24.077</ele>
<time>2016-03-01T20:54:05.855Z</time>
</trkpt>
<trkpt lat="-27.4099172" lon="153.0127957">
<ele>24.341</ele>
<time>2016-03-01T20:54:07.817Z</time>
</trkpt>
<trkpt lat="-27.4099690" lon="153.0131902">
<ele>24.585</ele>
<time>2016-03-01T20:54:10.890Z</time>
</trkpt>
<trkpt lat="-27.4100002" lon="153.0134341">
<ele>24.763</ele>
<time>2016-03-01T20:54:12.949Z</time>
</trkpt>
<trkpt lat="-27.4100387" lon="153.0137160">
<ele>24.955</ele>
<time>2016-03-01T20:54:15.739Z</time>
</trkpt>
<trkpt lat="-27.4100786" lon="153.0140333">
<ele>25.025</ele>
<time>2016-03-01T20:54:19.432Z</time>
</trkpt>
<trkpt lat="-27.4101112" lon="153.0142936">
<ele>24.849</ele>
<time>2016-03-01T20:54:22.319Z</time>
</trkpt>
<trkpt lat="-27.4101435" lon="153.0145386">
<ele>24.607</ele>
<time>2016-03-01T20:54:24.638Z</time>
</trkpt>
<trkpt lat="-27.4101931" lon="153.0149101">
<ele>24.483</ele>
<time>2016-03-01T20:54:27.799Z</time>
</trkpt>
<trkpt lat="-27.4102267" lon="153.0151633">
<ele>24.452</ele>
<time>2016-03-01T20:54:29.834Z</time>
</trkpt>
<trkpt lat="-27.4102824" lon="153.0155707">
<ele>24.408</ele>
<time>2016-03-01T20:54:32.868Z</time>
</trkpt>
<trkpt lat="-27.4103202" lon="153.0158407">
<ele>24.305</ele>
<time>2016-03-01T20:54:34.925Z</time>
</trkpt>
<trkpt lat="-27.4103479" lon="153.0160688">
<ele>24.157</ele>
<time>2016-03-01T20:54:37.037Z</time>
</trkpt>
<trkpt lat="-27.4103769" lon="153.0162908">
<ele>23.962</ele>
<time>2016-03-01T20:54:39.882Z</time>
</trkpt>
<trkpt lat="-27.4103901" lon="153.0163936">
<ele>23.677</ele>
<time>2016-03-01T20:54:42.000Z</time>
</trkpt>
<trkpt lat="-27.4103901" lon="153.0163936">
<ele>23.344</ele>
<time>2016-03-01T20:54:45.000Z</time>
</trkpt>
<trkpt lat="-27.4103901" lon="153.0163936">
<ele>23.131</ele>
<time>2016-03-01T20:56:14.732Z</time>
</trkpt>
<trkpt lat="-27.4103953" lon="153.0166197">
<ele>23.180</ele>
<time>2016-03-01T20:56:19.344Z</time>
</trkpt>
<trkpt lat="-27.4104183" lon="153.0168149">
<ele>23.719</ele>
<time>2016-03-01T20:56:21.311Z</time>
</trkpt>
<trkpt lat="-27.4104634" lon="153.0171722">
<ele>24.785</ele>
<time>2016-03-01T20:56:24.383Z</time>
</trkpt>
<trkpt lat="-27.4105074" lon="153.0174448">
<ele>25.823</ele>
<time>2016-03-01T20:56:26.410Z</time>
</trkpt>
<trkpt lat="-27.4105670" lon="153.0178703">
<ele>26.338</ele>
<time>2016-03-01T20:56:29.439Z</time>
</trkpt>
<trkpt lat="-27.4106125" lon="153.0181498">
<ele>26.286</ele>
<time>2016-03-01T20:56:31.388Z</time>
</trkpt>
<trkpt lat="-27.4106544" lon="153.0184370">
<ele>25.834</ele>
<time>2016-03-01T20:56:33.381Z</time>
</trkpt>
<trkpt lat="-27.4107035" lon="153.0187316">
<ele>25.572</ele>
<time>2016-03-01T20:56:35.433Z</time>
</trkpt>
<trkpt lat="-27.4107649" lon="153.0191645">
<ele>25.875</ele>
<time>2016-03-01T20:56:38.395Z</time>
</trkpt>
<trkpt lat="-27.4108034" lon="153.0194725">
<ele>26.352</ele>
<time>2016-03-01T20:56:40.469Z</time>
</trkpt>
<trkpt lat="-27.4108396" lon="153.0197679">
<ele>26.531</ele>
<time>2016-03-01T20:56:42.480Z</time>
</trkpt>
<trkpt lat="-27.4108752" lon="153.0200503">
<ele>26.136</ele>
<time>2016-03-01T20:56:44.338Z</time>
</trkpt>
<trkpt lat="-27.4109355" lon="153.0205322">
<ele>25.216</ele>
<time>2016-03-01T20:56:47.393Z</time>
</trkpt>
<trkpt lat="-27.4109632" lon="153.0208556">
<ele>24.278</ele>
<time>2016-03-01T20:56:49.418Z</time>
</trkpt>
<trkpt lat="-27.4110109" lon="153.0211580">
<ele>23.687</ele>
<time>2016-03-01T20:56:51.361Z</time>
</trkpt>
<trkpt lat="-27.4110758" lon="153.0216216">
<ele>23.412</ele>
<time>2016-03-01T20:56:54.366Z</time>
</trkpt>
<trkpt lat="-27.4111133" lon="153.0219093">
<ele>23.456</ele>
<time>2016-03-01T20:56:56.277Z</time>
</trkpt>
<trkpt lat="-27.4111710" lon="153.0223509">
<ele>23.782</ele>
<time>2016-03-01T20:56:59.189Z</time>
</trkpt>
<trkpt lat="-27.4112131" lon="153.0226633">
<ele>24.343</ele>
<time>2016-03-01T20:57:01.135Z</time>
</trkpt>
<trkpt lat="-27.4112559" lon="153.0229982">
<ele>25.223</ele>
<time>2016-03-01T20:57:03.155Z</time>
</trkpt>
<trkpt lat="-27.4113239" lon="153.0234824">
<ele>26.432</ele>
<time>2016-03-01T20:57:06.089Z</time>
</trkpt>
<trkpt lat="-27.4113898" lon="153.0239717">
<ele>27.666</ele>
<time>2016-03-01T20:57:09.088Z</time>
</trkpt>
<trkpt lat="-27.4114354" lon="153.0242967">
<ele>28.594</ele>
<time>2016-03-01T20:57:11.070Z</time>
</trkpt>
<trkpt lat="-27.4115032" lon="153.0247872">
<ele>29.168</ele>
<time>2016-03-01T20:57:14.044Z</time>
</trkpt>
<trkpt lat="-27.4115438" lon="153.0251156">
<ele>29.931</ele>
<time>2016-03-01T20:57:16.044Z</time>
</trkpt>
<trkpt lat="-27.4115838" lon="153.0254354">
<ele>31.262</ele>
<time>2016-03-01T20:57:18.051Z</time>
</trkpt>
<trkpt lat="-27.4116446" lon="153.0258953">
<ele>32.627</ele>
<time>2016-03-01T20:57:21.123Z</time>
</trkpt>
<trkpt lat="-27.4116694" lon="153.0260921">
<ele>33.660</ele>
<time>2016-03-01T20:57:22.661Z</time>
</trkpt>
<trkpt lat="-27.4117028" lon="153.0263611">
<ele>34.548</ele>
<time>2016-03-01T20:57:25.419Z</time>
</trkpt>
<trkpt lat="-27.4117180" lon="153.0264986">
<ele>35.079</ele>
<time>2016-03-01T20:57:27.123Z</time>
</trkpt>
<trkpt lat="-27.4117305" lon="153.0266270">
<ele>34.945</ele>
<time>2016-03-01T20:57:30.000Z</time>
</trkpt>
<trkpt lat="-27.4117305" lon="153.0266270">
<ele>34.398</ele>
<time>2016-03-01T20:57:35.000Z</time>
</trkpt>
<trkpt lat="-27.4117305" lon="153.0266270">
<ele>33.994</ele>
<time>2016-03-01T20:57:42.362Z</time>
</trkpt>
<trkpt lat="-27.4117714" lon="153.0268395">
<ele>34.069</ele>
<time>2016-03-01T20:57:47.508Z</time>
</trkpt>
<trkpt lat="-27.4117924" lon="153.0270201">
<ele>34.572</ele>
<time>2016-03-01T20:57:49.453Z</time>
</trkpt>
<trkpt lat="-27.4118355" lon="153.0273568">
<ele>35.236</ele>
<time>2016-03-01T20:57:52.518Z</time>
</trkpt>
<trkpt lat="-27.4118705" lon="153.0276177">
<ele>35.753</ele>
<time>2016-03-01T20:57:54.548Z</time>
</trkpt>
<trkpt lat="-27.4119222" lon="153.0280340">
<ele>35.975</ele>
<time>2016-03-01T20:57:57.657Z</time>
</trkpt>
<trkpt lat="-27.4119572" lon="153.0283112">
<ele>35.859</ele>
<time>2016-03-01T20:57:59.669Z</time>
</trkpt>
<trkpt lat="-27.4120141" lon="153.0287330">
<ele>35.356</ele>
<time>2016-03-01T20:58:02.711Z</time>
</trkpt>
<trkpt lat="-27.4120517" lon="153.0290181">
<ele>34.554</ele>
<time>2016-03-01T20:58:04.783Z</time>
</trkpt>
<trkpt lat="-27.4120998" lon="153.0294337">
<ele>33.577</ele>
<time>2016-03-01T20:58:07.816Z</time>
</trkpt>
<trkpt lat="-27.4121358" lon="153.0297101">
<ele>32.199</ele>
<time>2016-03-01T20:58:09.798Z</time>
</trkpt>
<trkpt lat="-27.4121769" lon="153.0300035">
<ele>30.240</ele>
<time>2016-03-01T20:58:11.870Z</time>
</trkpt>
<trkpt lat="-27.4122120" lon="153.0302889">
<ele>28.243</ele>
<time>2016-03-01T20:58:13.890Z</time>
</trkpt>
<trkpt lat="-27.4122473" lon="153.0307220">
<ele>26.833</ele>
<time>2016-03-01T20:58:16.889Z</time>
</trkpt>
<trkpt lat="-27.4122532" lon="153.0310237">
<ele>25.425</ele>
<time>2016-03-01T20:58:18.842Z</time>
</trkpt>
<trkpt lat="-27.4122828" lon="153.0315098">
<ele>23.306</ele>
<time>2016-03-01T20:58:21.931Z</time>
</trkpt>
<trkpt lat="-27.4123325" lon="153.0319975">
<ele>20.868</ele>
<time>2016-03-01T20:58:24.994Z</time>
</trkpt>
<trkpt lat="-27.4123993" lon="153.0324876">
<ele>18.463</ele>
<time>2016-03-01T20:58:28.021Z</time>
</trkpt>
<trkpt lat="-27.4124809" lon="153.0329863">
<ele>15.994</ele>
<time>2016-03-01T20:58:30.980Z</time>
</trkpt>
<trkpt lat="-27.4126425" lon="153.0334954">
<ele>13.401</ele>
<time>2016-03-01T20:58:33.984Z</time>
</trkpt>
<trkpt lat="-27.4129054" lon="153.0339735">
<ele>10.376</ele>
<time>2016-03-01T20:58:36.908Z</time>
</trkpt>
<trkpt lat="-27.4129054" lon="153.0339735">
<ele>10.376</ele>
<time>2016-03-01T20:58:36.908Z</time>
</trkpt>
<trkpt lat="-27.4444410" lon="153.0321093">
<ele>14.247</ele>
<time>2016-03-01T21:01:37.193Z</time>
</trkpt>
<trkpt lat="-27.4448088" lon="153.0322849">
<ele>14.241</ele>
<time>2016-03-01T21:01:39.441Z</time>
</trkpt>
<trkpt lat="-27.4453729" lon="153.0325405">
<ele>14.238</ele>
<time>2016-03-01T21:01:42.629Z</time>
</trkpt>
<trkpt lat="-27.4459065" lon="153.0327488">
<ele>14.130</ele>
<time>2016-03-01T21:01:45.548Z</time>
</trkpt>
<trkpt lat="-27.4462898" lon="153.0328400">
<ele>13.616</ele>
<time>2016-03-01T21:01:47.583Z</time>
</trkpt>
<trkpt lat="-27.4468654" lon="153.0328624">
<ele>12.724</ele>
<time>2016-03-01T21:01:50.611Z</time>
</trkpt>
<trkpt lat="-27.4472558" lon="153.0328101">
<ele>11.968</ele>
<time>2016-03-01T21:01:52.675Z</time>
</trkpt>
<trkpt lat="-27.4476506" lon="153.0327663">
<ele>11.524</ele>
<time>2016-03-01T21:01:54.738Z</time>
</trkpt>
<trkpt lat="-27.4480552" lon="153.0327296">
<ele>10.648</ele>
<time>2016-03-01T21:01:56.816Z</time>
</trkpt>
<trkpt lat="-27.4486146" lon="153.0326796">
<ele>8.648</ele>
<time>2016-03-01T21:01:59.676Z</time>
</trkpt>
<trkpt lat="-27.4486146" lon="153.0326796">
<ele>8.648</ele>
<time>2016-03-01T21:01:59.676Z</time>
</trkpt>
<trkpt lat="-27.4930464" lon="153.0353022">
<ele>18.198</ele>
<time>2016-03-01T21:05:47.557Z</time>
</trkpt>
<trkpt lat="-27.4933135" lon="153.0356543">
<ele>18.190</ele>
<time>2016-03-01T21:05:49.661Z</time>
</trkpt>
<trkpt lat="-27.4937352" lon="153.0361621">
<ele>18.330</ele>
<time>2016-03-01T21:05:52.806Z</time>
</trkpt>
<trkpt lat="-27.4940397" lon="153.0364772">
<ele>18.977</ele>
<time>2016-03-01T21:05:54.877Z</time>
</trkpt>
<trkpt lat="-27.4945105" lon="153.0369027">
<ele>20.125</ele>
<time>2016-03-01T21:05:57.885Z</time>
</trkpt>
<trkpt lat="-27.4950215" lon="153.0373019">
<ele>21.177</ele>
<time>2016-03-01T21:06:00.972Z</time>
</trkpt>
<trkpt lat="-27.4953642" lon="153.0375538">
<ele>21.697</ele>
<time>2016-03-01T21:06:03.002Z</time>
</trkpt>
<trkpt lat="-27.4957099" lon="153.0378058">
<ele>21.837</ele>
<time>2016-03-01T21:06:05.042Z</time>
</trkpt>
<trkpt lat="-27.4960647" lon="153.0380683">
<ele>22.160</ele>
<time>2016-03-01T21:06:07.150Z</time>
</trkpt>
<trkpt lat="-27.4966315" lon="153.0384828">
<ele>23.301</ele>
<time>2016-03-01T21:06:10.514Z</time>
</trkpt>
<trkpt lat="-27.4970151" lon="153.0387627">
<ele>25.051</ele>
<time>2016-03-01T21:06:12.680Z</time>
</trkpt>
<trkpt lat="-27.4974052" lon="153.0390367">
<ele>26.564</ele>
<time>2016-03-01T21:06:14.801Z</time>
</trkpt>
<trkpt lat="-27.4980386" lon="153.0393997">
<ele>27.585</ele>
<time>2016-03-01T21:06:17.948Z</time>
</trkpt>
<trkpt lat="-27.4986896" lon="153.0396615">
<ele>28.288</ele>
<time>2016-03-01T21:06:20.937Z</time>
</trkpt>
<trkpt lat="-27.4991396" lon="153.0397890">
<ele>28.098</ele>
<time>2016-03-01T21:06:22.957Z</time>
</trkpt>
<trkpt lat="-27.4998117" lon="153.0398913">
<ele>26.676</ele>
<time>2016-03-01T21:06:25.948Z</time>
</trkpt>
<trkpt lat="-27.5002696" lon="153.0398996">
<ele>24.464</ele>
<time>2016-03-01T21:06:27.995Z</time>
</trkpt>
<trkpt lat="-27.5007283" lon="153.0398673">
<ele>21.849</ele>
<time>2016-03-01T21:06:30.046Z</time>
</trkpt>
<trkpt lat="-27.5014135" lon="153.0397561">
<ele>19.285</ele>
<time>2016-03-01T21:06:33.112Z</time>
</trkpt>
<trkpt lat="-27.5020828" lon="153.0396122">
<ele>17.554</ele>
<time>2016-03-01T21:06:36.111Z</time>
</trkpt>
<trkpt lat="-27.5025376" lon="153.0395362">
<ele>16.939</ele>
<time>2016-03-01T21:06:38.147Z</time>
</trkpt>
<trkpt lat="-27.5032304" lon="153.0394263">
<ele>17.142</ele>
<time>2016-03-01T21:06:41.253Z</time>
</trkpt>
<trkpt lat="-27.5036790" lon="153.0393567">
<ele>17.364</ele>
<time>2016-03-01T21:06:43.251Z</time>
</trkpt>
<trkpt lat="-27.5043808" lon="153.0392314">
<ele>17.105</ele>
<time>2016-03-01T21:06:46.382Z</time>
</trkpt>
<trkpt lat="-27.5050668" lon="153.0390941">
<ele>16.608</ele>
<time>2016-03-01T21:06:49.433Z</time>
</trkpt>
<trkpt lat="-27.5057496" lon="153.0389706">
<ele>16.290</ele>
<time>2016-03-01T21:06:52.438Z</time>
</trkpt>
<trkpt lat="-27.5064074" lon="153.0388340">
<ele>16.258</ele>
<time>2016-03-01T21:06:55.369Z</time>
</trkpt>
<trkpt lat="-27.5070997" lon="153.0387255">
<ele>16.578</ele>
<time>2016-03-01T21:06:58.447Z</time>
</trkpt>
<trkpt lat="-27.5075618" lon="153.0386954">
<ele>17.531</ele>
<time>2016-03-01T21:07:00.487Z</time>
</trkpt>
<trkpt lat="-27.5082565" lon="153.0387406">
<ele>19.008</ele>
<time>2016-03-01T21:07:03.562Z</time>
</trkpt>
<trkpt lat="-27.5087039" lon="153.0388304">
<ele>20.226</ele>
<time>2016-03-01T21:07:05.574Z</time>
</trkpt>
<trkpt lat="-27.5093462" lon="153.0390542">
<ele>20.613</ele>
<time>2016-03-01T21:07:08.567Z</time>
</trkpt>
<trkpt lat="-27.5097762" lon="153.0392631">
<ele>20.320</ele>
<time>2016-03-01T21:07:10.660Z</time>
</trkpt>
<trkpt lat="-27.5104722" lon="153.0396313">
<ele>19.862</ele>
<time>2016-03-01T21:07:13.982Z</time>
</trkpt>
<trkpt lat="-27.5111852" lon="153.0400083">
<ele>19.445</ele>
<time>2016-03-01T21:07:17.206Z</time>
</trkpt>
<trkpt lat="-27.5118798" lon="153.0403819">
<ele>18.721</ele>
<time>2016-03-01T21:07:20.284Z</time>
</trkpt>
<trkpt lat="-27.5125285" lon="153.0407945">
<ele>17.658</ele>
<time>2016-03-01T21:07:23.267Z</time>
</trkpt>
<trkpt lat="-27.5131291" lon="153.0413251">
<ele>16.496</ele>
<time>2016-03-01T21:07:26.335Z</time>
</trkpt>
<trkpt lat="-27.5134713" lon="153.0417498">
<ele>15.252</ele>
<time>2016-03-01T21:07:28.380Z</time>
</trkpt>
<trkpt lat="-27.5139067" lon="153.0424174">
<ele>14.157</ele>
<time>2016-03-01T21:07:31.333Z</time>
</trkpt>
<trkpt lat="-27.5142960" lon="153.0431460">
<ele>13.568</ele>
<time>2016-03-01T21:07:34.392Z</time>
</trkpt>
<trkpt lat="-27.5146466" lon="153.0438711">
<ele>13.256</ele>
<time>2016-03-01T21:07:37.399Z</time>
</trkpt>
<trkpt lat="-27.5148862" lon="153.0443619">
<ele>12.691</ele>
<time>2016-03-01T21:07:39.454Z</time>
</trkpt>
<trkpt lat="-27.5151297" lon="153.0448501">
<ele>11.805</ele>
<time>2016-03-01T21:07:41.502Z</time>
</trkpt>
<trkpt lat="-27.5153685" lon="153.0453304">
<ele>11.064</ele>
<time>2016-03-01T21:07:43.490Z</time>
</trkpt>
<trkpt lat="-27.5157269" lon="153.0460589">
<ele>10.749</ele>
<time>2016-03-01T21:07:46.500Z</time>
</trkpt>
<trkpt lat="-27.5159684" lon="153.0465630">
<ele>10.703</ele>
<time>2016-03-01T21:07:48.577Z</time>
</trkpt>
<trkpt lat="-27.5163342" lon="153.0473132">
<ele>11.010</ele>
<time>2016-03-01T21:07:51.663Z</time>
</trkpt>
<trkpt lat="-27.5165886" lon="153.0478224">
<ele>11.892</ele>
<time>2016-03-01T21:07:53.749Z</time>
</trkpt>
<trkpt lat="-27.5169751" lon="153.0485629">
<ele>13.089</ele>
<time>2016-03-01T21:07:56.789Z</time>
</trkpt>
<trkpt lat="-27.5172637" lon="153.0490473">
<ele>14.103</ele>
<time>2016-03-01T21:07:58.850Z</time>
</trkpt>
<trkpt lat="-27.5175667" lon="153.0495017">
<ele>15.003</ele>
<time>2016-03-01T21:08:00.864Z</time>
</trkpt>
<trkpt lat="-27.5178913" lon="153.0499352">
<ele>16.050</ele>
<time>2016-03-01T21:08:02.884Z</time>
</trkpt>
<trkpt lat="-27.5182381" lon="153.0503600">
<ele>17.037</ele>
<time>2016-03-01T21:08:04.940Z</time>
</trkpt>
<trkpt lat="-27.5186049" lon="153.0507480">
<ele>17.589</ele>
<time>2016-03-01T21:08:06.958Z</time>
</trkpt>
<trkpt lat="-27.5191796" lon="153.0512797">
<ele>17.798</ele>
<time>2016-03-01T21:08:09.947Z</time>
</trkpt>
<trkpt lat="-27.5198025" lon="153.0517806">
<ele>17.975</ele>
<time>2016-03-01T21:08:13.011Z</time>
</trkpt>
<trkpt lat="-27.5202047" lon="153.0521021">
<ele>18.191</ele>
<time>2016-03-01T21:08:14.986Z</time>
</trkpt>
<trkpt lat="-27.5208160" lon="153.0525900">
<ele>18.492</ele>
<time>2016-03-01T21:08:18.001Z</time>
</trkpt>
<trkpt lat="-27.5214350" lon="153.0531000">
<ele>18.952</ele>
<time>2016-03-01T21:08:21.070Z</time>
</trkpt>
<trkpt lat="-27.5218548" lon="153.0534457">
<ele>19.423</ele>
<time>2016-03-01T21:08:23.141Z</time>
</trkpt>
<trkpt lat="-27.5222731" lon="153.0537911">
<ele>19.972</ele>
<time>2016-03-01T21:08:25.206Z</time>
</trkpt>
<trkpt lat="-27.5228921" lon="153.0542782">
<ele>20.718</ele>
<time>2016-03-01T21:08:28.234Z</time>
</trkpt>
<trkpt lat="-27.5234425" lon="153.0547018">
<ele>21.571</ele>
<time>2016-03-01T21:08:30.947Z</time>
</trkpt>
<trkpt lat="-27.5241716" lon="153.0551971">
<ele>22.456</ele>
<time>2016-03-01T21:08:34.379Z</time>
</trkpt>
<trkpt lat="-27.5248666" lon="153.0555968">
<ele>23.176</ele>
<time>2016-03-01T21:08:37.440Z</time>
</trkpt>
<trkpt lat="-27.5255776" lon="153.0559492">
<ele>23.543</ele>
<time>2016-03-01T21:08:40.485Z</time>
</trkpt>
<trkpt lat="-27.5263079" lon="153.0562692">
<ele>24.079</ele>
<time>2016-03-01T21:08:43.562Z</time>
</trkpt>
<trkpt lat="-27.5270359" lon="153.0565424">
<ele>25.151</ele>
<time>2016-03-01T21:08:46.564Z</time>
</trkpt>
<trkpt lat="-27.5277626" lon="153.0567852">
<ele>26.188</ele>
<time>2016-03-01T21:08:49.543Z</time>
</trkpt>
<trkpt lat="-27.5284884" lon="153.0569729">
<ele>26.545</ele>
<time>2016-03-01T21:08:52.518Z</time>
</trkpt>
<trkpt lat="-27.5292391" lon="153.0571470">
<ele>26.225</ele>
<time>2016-03-01T21:08:55.616Z</time>
</trkpt>
<trkpt lat="-27.5297300" lon="153.0572459">
<ele>25.558</ele>
<time>2016-03-01T21:08:57.643Z</time>
</trkpt>
<trkpt lat="-27.5304525" lon="153.0573869">
<ele>24.991</ele>
<time>2016-03-01T21:09:00.643Z</time>
</trkpt>
<trkpt lat="-27.5311618" lon="153.0575508">
<ele>24.740</ele>
<time>2016-03-01T21:09:03.670Z</time>
</trkpt>
<trkpt lat="-27.5316257" lon="153.0576605">
<ele>24.725</ele>
<time>2016-03-01T21:09:05.698Z</time>
</trkpt>
<trkpt lat="-27.5320938" lon="153.0577657">
<ele>24.896</ele>
<time>2016-03-01T21:09:07.741Z</time>
</trkpt>
<trkpt lat="-27.5327909" lon="153.0578993">
<ele>25.308</ele>
<time>2016-03-01T21:09:10.742Z</time>
</trkpt>
<trkpt lat="-27.5332589" lon="153.0579976">
<ele>25.936</ele>
<time>2016-03-01T21:09:12.763Z</time>
</trkpt>
<trkpt lat="-27.5337140" lon="153.0580703">
<ele>26.721</ele>
<time>2016-03-01T21:09:14.732Z</time>
</trkpt>
<trkpt lat="-27.5344153" lon="153.0582192">
<ele>27.506</ele>
<time>2016-03-01T21:09:17.824Z</time>
</trkpt>
<trkpt lat="-27.5348805" lon="153.0583233">
<ele>28.371</ele>
<time>2016-03-01T21:09:19.881Z</time>
</trkpt>
<trkpt lat="-27.5355577" lon="153.0584683">
<ele>29.750</ele>
<time>2016-03-01T21:09:22.892Z</time>
</trkpt>
<trkpt lat="-27.5362583" lon="153.0586319">
<ele>31.423</ele>
<time>2016-03-01T21:09:26.004Z</time>
</trkpt>
<trkpt lat="-27.5369763" lon="153.0587905">
<ele>33.267</ele>
<time>2016-03-01T21:09:29.120Z</time>
</trkpt>
<trkpt lat="-27.5376801" lon="153.0589364">
<ele>35.648</ele>
<time>2016-03-01T21:09:32.153Z</time>
</trkpt>
<trkpt lat="-27.5381521" lon="153.0590440">
<ele>38.436</ele>
<time>2016-03-01T21:09:34.186Z</time>
</trkpt>
<trkpt lat="-27.5388447" lon="153.0592166">
<ele>41.348</ele>
<time>2016-03-01T21:09:37.198Z</time>
</trkpt>
<trkpt lat="-27.5395351" lon="153.0594153">
<ele>44.125</ele>
<time>2016-03-01T21:09:40.241Z</time>
</trkpt>
<trkpt lat="-27.5400060" lon="153.0595703">
<ele>46.193</ele>
<time>2016-03-01T21:09:42.307Z</time>
</trkpt>
<trkpt lat="-27.5407055" lon="153.0598429">
<ele>48.135</ele>
<time>2016-03-01T21:09:45.379Z</time>
</trkpt>
<trkpt lat="-27.5413930" lon="153.0601517">
<ele>50.860</ele>
<time>2016-03-01T21:09:48.447Z</time>
</trkpt>
<trkpt lat="-27.5418332" lon="153.0603692">
<ele>54.182</ele>
<time>2016-03-01T21:09:50.456Z</time>
</trkpt>
<trkpt lat="-27.5424724" lon="153.0607223">
<ele>57.177</ele>
<time>2016-03-01T21:09:53.474Z</time>
</trkpt>
<trkpt lat="-27.5431005" lon="153.0611340">
<ele>59.553</ele>
<time>2016-03-01T21:09:56.564Z</time>
</trkpt>
<trkpt lat="-27.5436982" lon="153.0615643">
<ele>61.732</ele>
<time>2016-03-01T21:09:59.552Z</time>
</trkpt>
<trkpt lat="-27.5442997" lon="153.0620412">
<ele>64.160</ele>
<time>2016-03-01T21:10:02.609Z</time>
</trkpt>
<trkpt lat="-27.5448769" lon="153.0625284">
<ele>67.135</ele>
<time>2016-03-01T21:10:05.608Z</time>
</trkpt>
<trkpt lat="-27.5454542" lon="153.0630154">
<ele>70.623</ele>
<time>2016-03-01T21:10:08.659Z</time>
</trkpt>
<trkpt lat="-27.5458329" lon="153.0633329">
<ele>73.526</ele>
<time>2016-03-01T21:10:10.690Z</time>
</trkpt>
<trkpt lat="-27.5463740" lon="153.0638056">
<ele>74.855</ele>
<time>2016-03-01T21:10:13.698Z</time>
</trkpt>
<trkpt lat="-27.5468959" lon="153.0642707">
<ele>74.824</ele>
<time>2016-03-01T21:10:16.752Z</time>
</trkpt>
<trkpt lat="-27.5472026" lon="153.0645842">
<ele>73.763</ele>
<time>2016-03-01T21:10:18.747Z</time>
</trkpt>
<trkpt lat="-27.5476651" lon="153.0650417">
<ele>71.151</ele>
<time>2016-03-01T21:10:21.840Z</time>
</trkpt>
<trkpt lat="-27.5480908" lon="153.0655182">
<ele>67.358</ele>
<time>2016-03-01T21:10:24.907Z</time>
</trkpt>
<trkpt lat="-27.5484717" lon="153.0660135">
<ele>63.972</ele>
<time>2016-03-01T21:10:27.952Z</time>
</trkpt>
<trkpt lat="-27.5487784" lon="153.0665669">
<ele>61.587</ele>
<time>2016-03-01T21:10:31.078Z</time>
</trkpt>
<trkpt lat="-27.5490441" lon="153.0670610">
<ele>59.528</ele>
<time>2016-03-01T21:10:34.174Z</time>
</trkpt>
<trkpt lat="-27.5492826" lon="153.0673883">
<ele>56.954</ele>
<time>2016-03-01T21:10:37.196Z</time>
</trkpt>
<trkpt lat="-27.5494580" lon="153.0675307">
<ele>53.027</ele>
<time>2016-03-01T21:10:39.929Z</time>
</trkpt>
<trkpt lat="-27.5495519" lon="153.0675820">
<ele>47.966</ele>
<time>2016-03-01T21:10:42.000Z</time>
</trkpt>
<trkpt lat="-27.5495519" lon="153.0675820">
<ele>43.513</ele>
<time>2016-03-01T21:10:46.000Z</time>
</trkpt>
<trkpt lat="-27.5495519" lon="153.0675820">
<ele>41.441</ele>
<time>2016-03-01T21:10:46.310Z</time>
</trkpt>
<trkpt lat="-27.5497629" lon="153.0676657">
<ele>41.655</ele>
<time>2016-03-01T21:10:51.459Z</time>
</trkpt>
<trkpt lat="-27.5499298" lon="153.0677201">
<ele>42.475</ele>
<time>2016-03-01T21:10:53.332Z</time>
</trkpt>
<trkpt lat="-27.5502409" lon="153.0678157">
<ele>42.649</ele>
<time>2016-03-01T21:10:56.358Z</time>
</trkpt>
<trkpt lat="-27.5504613" lon="153.0678801">
<ele>44.914</ele>
<time>2016-03-01T21:10:58.242Z</time>
</trkpt>
<trkpt lat="-27.5507113" lon="153.0679437">
<ele>51.332</ele>
<time>2016-03-01T21:11:00.233Z</time>
</trkpt>
<trkpt lat="-27.5509735" lon="153.0679871">
<ele>58.011</ele>
<time>2016-03-01T21:11:02.210Z</time>
</trkpt>
<trkpt lat="-27.5513785" lon="153.0679512">
<ele>61.068</ele>
<time>2016-03-01T21:11:05.228Z</time>
</trkpt>
<trkpt lat="-27.5517569" lon="153.0678876">
<ele>61.401</ele>
<time>2016-03-01T21:11:08.126Z</time>
</trkpt>
<trkpt lat="-27.5520408" lon="153.0678282">
<ele>60.808</ele>
<time>2016-03-01T21:11:10.331Z</time>
</trkpt>
<trkpt lat="-27.5522679" lon="153.0677791">
<ele>60.291</ele>
<time>2016-03-01T21:11:12.051Z</time>
</trkpt>
<trkpt lat="-27.5525365" lon="153.0677247">
<ele>59.912</ele>
<time>2016-03-01T21:11:14.042Z</time>
</trkpt>
<trkpt lat="-27.5528205" lon="153.0676724">
<ele>58.508</ele>
<time>2016-03-01T21:11:16.088Z</time>
</trkpt>
<trkpt lat="-27.5532575" lon="153.0675895">
<ele>55.616</ele>
<time>2016-03-01T21:11:19.136Z</time>
</trkpt>
<trkpt lat="-27.5535651" lon="153.0675277">
<ele>53.227</ele>
<time>2016-03-01T21:11:21.228Z</time>
</trkpt>
<trkpt lat="-27.5539874" lon="153.0674398">
<ele>53.174</ele>
<time>2016-03-01T21:11:24.128Z</time>
</trkpt>
<trkpt lat="-27.5544117" lon="153.0673347">
<ele>54.944</ele>
<time>2016-03-01T21:11:27.074Z</time>
</trkpt>
<trkpt lat="-27.5546968" lon="153.0672539">
<ele>57.755</ele>
<time>2016-03-01T21:11:29.024Z</time>
</trkpt>
<trkpt lat="-27.5549939" lon="153.0671773">
<ele>61.371</ele>
<time>2016-03-01T21:11:31.047Z</time>
</trkpt>
<trkpt lat="-27.5552673" lon="153.0671129">
<ele>65.176</ele>
<time>2016-03-01T21:11:32.968Z</time>
</trkpt>
<trkpt lat="-27.5556668" lon="153.0670329">
<ele>68.408</ele>
<time>2016-03-01T21:11:35.824Z</time>
</trkpt>
<trkpt lat="-27.5559655" lon="153.0669871">
<ele>70.923</ele>
<time>2016-03-01T21:11:37.886Z</time>
</trkpt>
<trkpt lat="-27.5564212" lon="153.0669283">
<ele>72.687</ele>
<time>2016-03-01T21:11:40.921Z</time>
</trkpt>
<trkpt lat="-27.5567248" lon="153.0668744">
<ele>73.504</ele>
<time>2016-03-01T21:11:42.917Z</time>
</trkpt>
<trkpt lat="-27.5570286" lon="153.0668213">
<ele>72.998</ele>
<time>2016-03-01T21:11:44.913Z</time>
</trkpt>
<trkpt lat="-27.5574809" lon="153.0667615">
<ele>71.227</ele>
<time>2016-03-01T21:11:47.912Z</time>
</trkpt>
<trkpt lat="-27.5577603" lon="153.0667366">
<ele>68.706</ele>
<time>2016-03-01T21:11:49.915Z</time>
</trkpt>
<trkpt lat="-27.5580976" lon="153.0667058">
<ele>65.874</ele>
<time>2016-03-01T21:11:52.730Z</time>
</trkpt>
<trkpt lat="-27.5583063" lon="153.0666686">
<ele>62.629</ele>
<time>2016-03-01T21:11:55.000Z</time>
</trkpt>
<trkpt lat="-27.5583063" lon="153.0666686">
<ele>59.310</ele>
<time>2016-03-01T21:12:00.000Z</time>
</trkpt>
<trkpt lat="-27.5583063" lon="153.0666686">
<ele>57.337</ele>
<time>2016-03-01T21:12:28.442Z</time>
</trkpt>
<trkpt lat="-27.5585746" lon="153.0666489">
<ele>57.526</ele>
<time>2016-03-01T21:12:34.393Z</time>
</trkpt>
<trkpt lat="-27.5588702" lon="153.0665824">
<ele>58.732</ele>
<time>2016-03-01T21:12:37.454Z</time>
</trkpt>
<trkpt lat="-27.5590692" lon="153.0665379">
<ele>59.817</ele>
<time>2016-03-01T21:12:39.306Z</time>
</trkpt>
<trkpt lat="-27.5592680" lon="153.0664834">
<ele>60.563</ele>
<time>2016-03-01T21:12:41.326Z</time>
</trkpt>
<trkpt lat="-27.5594295" lon="153.0664843">
<ele>60.963</ele>
<time>2016-03-01T21:12:42.984Z</time>
</trkpt>
<trkpt lat="-27.5596943" lon="153.0664064">
<ele>61.182</ele>
<time>2016-03-01T21:12:45.865Z</time>
</trkpt>
<trkpt lat="-27.5599479" lon="153.0663657">
<ele>61.858</ele>
<time>2016-03-01T21:12:48.545Z</time>
</trkpt>
<trkpt lat="-27.5601714" lon="153.0663243">
<ele>63.369</ele>
<time>2016-03-01T21:12:51.162Z</time>
</trkpt>
<trkpt lat="-27.5603192" lon="153.0662993">
<ele>65.336</ele>
<time>2016-03-01T21:12:53.867Z</time>
</trkpt>
<trkpt lat="-27.5603072" lon="153.0661689">
<ele>67.020</ele>
<time>2016-03-01T21:12:58.000Z</time>
</trkpt>
<trkpt lat="-27.5603072" lon="153.0661689">
<ele>67.889</ele>
<time>2016-03-01T21:12:59.000Z</time>
</trkpt>
<trkpt lat="-27.5603072" lon="153.0661689">
<ele>67.958</ele>
<time>2016-03-01T21:14:04.732Z</time>
</trkpt>
<trkpt lat="-27.5604910" lon="153.0661315">
<ele>67.756</ele>
<time>2016-03-01T21:14:10.433Z</time>
</trkpt>
<trkpt lat="-27.5607264" lon="153.0661524">
<ele>68.314</ele>
<time>2016-03-01T21:14:13.668Z</time>
</trkpt>
<trkpt lat="-27.5608357" lon="153.0661933">
<ele>70.077</ele>
<time>2016-03-01T21:14:15.008Z</time>
</trkpt>
<trkpt lat="-27.5609792" lon="153.0657269">
<ele>72.099</ele>
<time>2016-03-01T21:14:19.484Z</time>
</trkpt>
<trkpt lat="-27.5609341" lon="153.0653791">
<ele>73.581</ele>
<time>2016-03-01T21:14:22.362Z</time>
</trkpt>
<trkpt lat="-27.5608854" lon="153.0650292">
<ele>74.764</ele>
<time>2016-03-01T21:14:25.167Z</time>
</trkpt>
<trkpt lat="-27.5608392" lon="153.0647864">
<ele>75.746</ele>
<time>2016-03-01T21:14:27.049Z</time>
</trkpt>
<trkpt lat="-27.5607949" lon="153.0645322">
<ele>76.555</ele>
<time>2016-03-01T21:14:28.975Z</time>
</trkpt>
<trkpt lat="-27.5607388" lon="153.0641448">
<ele>77.345</ele>
<time>2016-03-01T21:14:31.755Z</time>
</trkpt>
<trkpt lat="-27.5606992" lon="153.0638726">
<ele>78.273</ele>
<time>2016-03-01T21:14:33.694Z</time>
</trkpt>
<trkpt lat="-27.5606583" lon="153.0635920">
<ele>79.476</ele>
<time>2016-03-01T21:14:35.748Z</time>
</trkpt>
<trkpt lat="-27.5606018" lon="153.0632093">
<ele>81.007</ele>
<time>2016-03-01T21:14:38.584Z</time>
</trkpt>
<trkpt lat="-27.5605646" lon="153.0629526">
<ele>82.500</ele>
<time>2016-03-01T21:14:40.345Z</time>
</trkpt>
<trkpt lat="-27.5604897" lon="153.0625057">
<ele>83.650</ele>
<time>2016-03-01T21:14:43.252Z</time>
</trkpt>
<trkpt lat="-27.5604540" lon="153.0620632">
<ele>84.458</ele>
<time>2016-03-01T21:14:46.088Z</time>
</trkpt>
<trkpt lat="-27.5604160" lon="153.0617617">
<ele>84.839</ele>
<time>2016-03-01T21:14:48.011Z</time>
</trkpt>
<trkpt lat="-27.5603504" lon="153.0612943">
<ele>84.444</ele>
<time>2016-03-01T21:14:50.880Z</time>
</trkpt>
<trkpt lat="-27.5602951" lon="153.0609517">
<ele>82.989</ele>
<time>2016-03-01T21:14:52.856Z</time>
</trkpt>
<trkpt lat="-27.5602128" lon="153.0604289">
<ele>80.607</ele>
<time>2016-03-01T21:14:55.820Z</time>
</trkpt>
<trkpt lat="-27.5601291" lon="153.0598959">
<ele>77.780</ele>
<time>2016-03-01T21:14:58.819Z</time>
</trkpt>
<trkpt lat="-27.5600776" lon="153.0595607">
<ele>74.297</ele>
<time>2016-03-01T21:15:00.653Z</time>
</trkpt>
<trkpt lat="-27.5599896" lon="153.0589497">
<ele>69.909</ele>
<time>2016-03-01T21:15:03.894Z</time>
</trkpt>
<trkpt lat="-27.5599059" lon="153.0583680">
<ele>65.260</ele>
<time>2016-03-01T21:15:06.890Z</time>
</trkpt>
<trkpt lat="-27.5598526" lon="153.0579976">
<ele>60.837</ele>
<time>2016-03-01T21:15:08.806Z</time>
</trkpt>
<trkpt lat="-27.5597634" lon="153.0574449">
<ele>56.774</ele>
<time>2016-03-01T21:15:11.717Z</time>
</trkpt>
<trkpt lat="-27.5597058" lon="153.0571012">
<ele>53.485</ele>
<time>2016-03-01T21:15:13.581Z</time>
</trkpt>
<trkpt lat="-27.5596478" lon="153.0567222">
<ele>51.320</ele>
<time>2016-03-01T21:15:15.622Z</time>
</trkpt>
<trkpt lat="-27.5595729" lon="153.0561583">
<ele>50.158</ele>
<time>2016-03-01T21:15:18.536Z</time>
</trkpt>
<trkpt lat="-27.5595096" lon="153.0557697">
<ele>49.559</ele>
<time>2016-03-01T21:15:20.491Z</time>
</trkpt>
<trkpt lat="-27.5594559" lon="153.0553766">
<ele>49.256</ele>
<time>2016-03-01T21:15:22.478Z</time>
</trkpt>
<trkpt lat="-27.5593683" lon="153.0548109">
<ele>49.241</ele>
<time>2016-03-01T21:15:25.349Z</time>
</trkpt>
<trkpt lat="-27.5592839" lon="153.0542249">
<ele>49.395</ele>
<time>2016-03-01T21:15:28.281Z</time>
</trkpt>
<trkpt lat="-27.5592262" lon="153.0538283">
<ele>50.074</ele>
<time>2016-03-01T21:15:30.269Z</time>
</trkpt>
<trkpt lat="-27.5591713" lon="153.0534473">
<ele>51.498</ele>
<time>2016-03-01T21:15:32.218Z</time>
</trkpt>
<trkpt lat="-27.5590861" lon="153.0528813">
<ele>52.786</ele>
<time>2016-03-01T21:15:35.139Z</time>
</trkpt>
<trkpt lat="-27.5590044" lon="153.0523112">
<ele>52.677</ele>
<time>2016-03-01T21:15:38.096Z</time>
</trkpt>
<trkpt lat="-27.5589554" lon="153.0519567">
<ele>50.745</ele>
<time>2016-03-01T21:15:40.084Z</time>
</trkpt>
<trkpt lat="-27.5588846" lon="153.0514870">
<ele>47.611</ele>
<time>2016-03-01T21:15:43.132Z</time>
</trkpt>
<trkpt lat="-27.5588499" lon="153.0512652">
<ele>44.066</ele>
<time>2016-03-01T21:15:45.218Z</time>
</trkpt>
<trkpt lat="-27.5588180" lon="153.0510597">
<ele>40.602</ele>
<time>2016-03-01T21:15:48.155Z</time>
</trkpt>
<trkpt lat="-27.5587987" lon="153.0509433">
<ele>37.883</ele>
<time>2016-03-01T21:15:51.000Z</time>
</trkpt>
<trkpt lat="-27.5587987" lon="153.0509433">
<ele>36.350</ele>
<time>2016-03-01T21:15:54.000Z</time>
</trkpt>
<trkpt lat="-27.5587987" lon="153.0509433">
<ele>35.829</ele>
<time>2016-03-01T21:17:01.605Z</time>
</trkpt>
<trkpt lat="-27.5587831" lon="153.0507436">
<ele>36.126</ele>
<time>2016-03-01T21:17:05.960Z</time>
</trkpt>
<trkpt lat="-27.5587259" lon="153.0502730">
<ele>37.827</ele>
<time>2016-03-01T21:17:09.794Z</time>
</trkpt>
<trkpt lat="-27.5586782" lon="153.0498793">
<ele>41.781</ele>
<time>2016-03-01T21:17:12.349Z</time>
</trkpt>
<trkpt lat="-27.5586303" lon="153.0495057">
<ele>46.769</ele>
<time>2016-03-01T21:17:14.593Z</time>
</trkpt>
<trkpt lat="-27.5585597" lon="153.0488869">
<ele>49.988</ele>
<time>2016-03-01T21:17:17.860Z</time>
</trkpt>
<trkpt lat="-27.5585110" lon="153.0484661">
<ele>50.343</ele>
<time>2016-03-01T21:17:19.931Z</time>
</trkpt>
<trkpt lat="-27.5584756" lon="153.0480894">
<ele>48.866</ele>
<time>2016-03-01T21:17:21.755Z</time>
</trkpt>
<trkpt lat="-27.5583973" lon="153.0474464">
<ele>46.942</ele>
<time>2016-03-01T21:17:24.775Z</time>
</trkpt>
<trkpt lat="-27.5583362" lon="153.0470302">
<ele>45.301</ele>
<time>2016-03-01T21:17:26.685Z</time>
</trkpt>
<trkpt lat="-27.5582609" lon="153.0465996">
<ele>43.771</ele>
<time>2016-03-01T21:17:28.609Z</time>
</trkpt>
<trkpt lat="-27.5582040" lon="153.0461500">
<ele>42.111</ele>
<time>2016-03-01T21:17:30.576Z</time>
</trkpt>
<trkpt lat="-27.5581410" lon="153.0456854">
<ele>40.728</ele>
<time>2016-03-01T21:17:32.639Z</time>
</trkpt>
<trkpt lat="-27.5580399" lon="153.0450176">
<ele>39.795</ele>
<time>2016-03-01T21:17:35.690Z</time>
</trkpt>
<trkpt lat="-27.5579763" lon="153.0445959">
<ele>38.643</ele>
<time>2016-03-01T21:17:37.645Z</time>
</trkpt>
<trkpt lat="-27.5578827" lon="153.0439623">
<ele>36.947</ele>
<time>2016-03-01T21:17:40.612Z</time>
</trkpt>
<trkpt lat="-27.5578570" lon="153.0433164">
<ele>35.366</ele>
<time>2016-03-01T21:17:43.602Z</time>
</trkpt>
<trkpt lat="-27.5579402" lon="153.0426660">
<ele>34.441</ele>
<time>2016-03-01T21:17:46.653Z</time>
</trkpt>
<trkpt lat="-27.5581545" lon="153.0420719">
<ele>33.976</ele>
<time>2016-03-01T21:17:49.706Z</time>
</trkpt>
<trkpt lat="-27.5583520" lon="153.0417114">
<ele>33.440</ele>
<time>2016-03-01T21:17:51.822Z</time>
</trkpt>
<trkpt lat="-27.5586356" lon="153.0412284">
<ele>32.243</ele>
<time>2016-03-01T21:17:55.247Z</time>
</trkpt>
<trkpt lat="-27.5587760" lon="153.0409301">
<ele>29.908</ele>
<time>2016-03-01T21:17:58.475Z</time>
</trkpt>
<trkpt lat="-27.5588638" lon="153.0407114">
<ele>26.609</ele>
<time>2016-03-01T21:18:02.091Z</time>
</trkpt>
<trkpt lat="-27.5589178" lon="153.0405406">
<ele>22.928</ele>
<time>2016-03-01T21:18:05.006Z</time>
</trkpt>
<trkpt lat="-27.5589548" lon="153.0404222">
<ele>19.174</ele>
<time>2016-03-01T21:18:06.397Z</time>
</trkpt>
<trkpt lat="-27.5590723" lon="153.0403041">
<ele>15.950</ele>
<time>2016-03-01T21:18:07.977Z</time>
</trkpt>
<trkpt lat="-27.5591206" lon="153.0398709">
<ele>14.475</ele>
<time>2016-03-01T21:18:10.970Z</time>
</trkpt>
<trkpt lat="-27.5592215" lon="153.0393949">
<ele>15.056</ele>
<time>2016-03-01T21:18:13.875Z</time>
</trkpt>
<trkpt lat="-27.5593284" lon="153.0388718">
<ele>16.711</ele>
<time>2016-03-01T21:18:16.913Z</time>
</trkpt>
<trkpt lat="-27.5593994" lon="153.0385385">
<ele>18.313</ele>
<time>2016-03-01T21:18:18.913Z</time>
</trkpt>
<trkpt lat="-27.5594434" lon="153.0380713">
<ele>19.320</ele>
<time>2016-03-01T21:18:21.584Z</time>
</trkpt>
<trkpt lat="-27.5594335" lon="153.0375125">
<ele>19.793</ele>
<time>2016-03-01T21:18:24.534Z</time>
</trkpt>
<trkpt lat="-27.5593972" lon="153.0370956">
<ele>20.167</ele>
<time>2016-03-01T21:18:26.583Z</time>
</trkpt>
<trkpt lat="-27.5593487" lon="153.0366949">
<ele>20.761</ele>
<time>2016-03-01T21:18:28.517Z</time>
</trkpt>
<trkpt lat="-27.5592368" lon="153.0360712">
<ele>21.473</ele>
<time>2016-03-01T21:18:31.540Z</time>
</trkpt>
<trkpt lat="-27.5591435" lon="153.0354455">
<ele>21.897</ele>
<time>2016-03-01T21:18:34.584Z</time>
</trkpt>
<trkpt lat="-27.5590506" lon="153.0348533">
<ele>21.307</ele>
<time>2016-03-01T21:18:37.505Z</time>
</trkpt>
<trkpt lat="-27.5589550" lon="153.0342506">
<ele>19.287</ele>
<time>2016-03-01T21:18:40.466Z</time>
</trkpt>
<trkpt lat="-27.5588592" lon="153.0336472">
<ele>16.583</ele>
<time>2016-03-01T21:18:43.405Z</time>
</trkpt>
<trkpt lat="-27.5587720" lon="153.0330277">
<ele>14.476</ele>
<time>2016-03-01T21:18:46.394Z</time>
</trkpt>
<trkpt lat="-27.5587128" lon="153.0326115">
<ele>13.465</ele>
<time>2016-03-01T21:18:48.392Z</time>
</trkpt>
<trkpt lat="-27.5586476" lon="153.0321952">
<ele>13.258</ele>
<time>2016-03-01T21:18:50.401Z</time>
</trkpt>
<trkpt lat="-27.5585590" lon="153.0315900">
<ele>13.368</ele>
<time>2016-03-01T21:18:53.340Z</time>
</trkpt>
<trkpt lat="-27.5585048" lon="153.0311820">
<ele>13.366</ele>
<time>2016-03-01T21:18:55.338Z</time>
</trkpt>
<trkpt lat="-27.5584267" lon="153.0305814">
<ele>12.980</ele>
<time>2016-03-01T21:18:58.287Z</time>
</trkpt>
<trkpt lat="-27.5583423" lon="153.0301834">
<ele>12.347</ele>
<time>2016-03-01T21:19:00.246Z</time>
</trkpt>
<trkpt lat="-27.5581830" lon="153.0295873">
<ele>11.832</ele>
<time>2016-03-01T21:19:03.217Z</time>
</trkpt>
<trkpt lat="-27.5580562" lon="153.0292102">
<ele>11.427</ele>
<time>2016-03-01T21:19:05.184Z</time>
</trkpt>
<trkpt lat="-27.5579312" lon="153.0288452">
<ele>10.784</ele>
<time>2016-03-01T21:19:07.189Z</time>
</trkpt>
<trkpt lat="-27.5577571" lon="153.0283437">
<ele>9.705</ele>
<time>2016-03-01T21:19:10.067Z</time>
</trkpt>
<trkpt lat="-27.5575848" lon="153.0278392">
<ele>8.368</ele>
<time>2016-03-01T21:19:13.025Z</time>
</trkpt>
<trkpt lat="-27.5574694" lon="153.0274984">
<ele>7.186</ele>
<time>2016-03-01T21:19:15.004Z</time>
</trkpt>
<trkpt lat="-27.5573456" lon="153.0269741">
<ele>6.501</ele>
<time>2016-03-01T21:19:17.946Z</time>
</trkpt>
<trkpt lat="-27.5572847" lon="153.0264374">
<ele>6.296</ele>
<time>2016-03-01T21:19:20.901Z</time>
</trkpt>
<trkpt lat="-27.5572734" lon="153.0260899">
<ele>6.373</ele>
<time>2016-03-01T21:19:22.843Z</time>
</trkpt>
<trkpt lat="-27.5572851" lon="153.0257526">
<ele>6.835</ele>
<time>2016-03-01T21:19:24.777Z</time>
</trkpt>
<trkpt lat="-27.5573536" lon="153.0252520">
<ele>7.839</ele>
<time>2016-03-01T21:19:27.735Z</time>
</trkpt>
<trkpt lat="-27.5574761" lon="153.0247646">
<ele>9.219</ele>
<time>2016-03-01T21:19:30.736Z</time>
</trkpt>
<trkpt lat="-27.5575924" lon="153.0244700">
<ele>10.584</ele>
<time>2016-03-01T21:19:32.675Z</time>
</trkpt>
<trkpt lat="-27.5577907" lon="153.0240284">
<ele>11.532</ele>
<time>2016-03-01T21:19:35.702Z</time>
</trkpt>
<trkpt lat="-27.5579163" lon="153.0237518">
<ele>11.581</ele>
<time>2016-03-01T21:19:37.639Z</time>
</trkpt>
<trkpt lat="-27.5580493" lon="153.0234693">
<ele>10.674</ele>
<time>2016-03-01T21:19:39.653Z</time>
</trkpt>
<trkpt lat="-27.5582402" lon="153.0230505">
<ele>9.309</ele>
<time>2016-03-01T21:19:42.650Z</time>
</trkpt>
<trkpt lat="-27.5583591" lon="153.0227962">
<ele>7.631</ele>
<time>2016-03-01T21:19:44.636Z</time>
</trkpt>
<trkpt lat="-27.5584899" lon="153.0224922">
<ele>5.537</ele>
<time>2016-03-01T21:19:47.424Z</time>
</trkpt>
<trkpt lat="-27.5585395" lon="153.0223633">
<ele>3.040</ele>
<time>2016-03-01T21:19:49.000Z</time>
</trkpt>
<trkpt lat="-27.5585395" lon="153.0223633">
<ele>0.416</ele>
<time>2016-03-01T21:19:55.000Z</time>
</trkpt>
<trkpt lat="-27.5585395" lon="153.0223633">
<ele>0.000</ele>
<time>2016-03-01T21:20:07.117Z</time>
</trkpt>
<trkpt lat="-27.5585950" lon="153.0221011">
<ele>0.000</ele>
<time>2016-03-01T21:20:14.062Z</time>
</trkpt>
<trkpt lat="-27.5586156" lon="153.0219490">
<ele>0.000</ele>
<time>2016-03-01T21:20:15.899Z</time>
</trkpt>
<trkpt lat="-27.5586331" lon="153.0217692">
<ele>0.000</ele>
<time>2016-03-01T21:20:17.734Z</time>
</trkpt>
<trkpt lat="-27.5586406" lon="153.0214454">
<ele>0.000</ele>
<time>2016-03-01T21:20:20.801Z</time>
</trkpt>
<trkpt lat="-27.5585974" lon="153.0211249">
<ele>0.000</ele>
<time>2016-03-01T21:20:23.549Z</time>
</trkpt>
<trkpt lat="-27.5585567" lon="153.0207270">
<ele>0.000</ele>
<time>2016-03-01T21:20:26.668Z</time>
</trkpt>
<trkpt lat="-27.5585381" lon="153.0204791">
<ele>0.000</ele>
<time>2016-03-01T21:20:28.660Z</time>
</trkpt>
<trkpt lat="-27.5584898" lon="153.0202570">
<ele>0.000</ele>
<time>2016-03-01T21:20:30.645Z</time>
</trkpt>
<trkpt lat="-27.5584395" lon="153.0199268">
<ele>0.000</ele>
<time>2016-03-01T21:20:33.598Z</time>
</trkpt>
<trkpt lat="-27.5583876" lon="153.0195898">
<ele>0.000</ele>
<time>2016-03-01T21:20:36.570Z</time>
</trkpt>
<trkpt lat="-27.5583402" lon="153.0192344">
<ele>0.000</ele>
<time>2016-03-01T21:20:39.698Z</time>
</trkpt>
<trkpt lat="-27.5583128" lon="153.0190157">
<ele>0.000</ele>
<time>2016-03-01T21:20:41.706Z</time>
</trkpt>
<trkpt lat="-27.5582811" lon="153.0188032">
<ele>0.000</ele>
<time>2016-03-01T21:20:43.944Z</time>
</trkpt>
<trkpt lat="-27.5582439" lon="153.0185512">
<ele>0.000</ele>
<time>2016-03-01T21:20:47.055Z</time>
</trkpt>
<trkpt lat="-27.5582270" lon="153.0184169">
<ele>0.000</ele>
<time>2016-03-01T21:20:48.831Z</time>
</trkpt>
<trkpt lat="-27.5582053" lon="153.0182564">
<ele>0.000</ele>
<time>2016-03-01T21:20:50.601Z</time>
</trkpt>
<trkpt lat="-27.5581527" lon="153.0179557">
<ele>0.000</ele>
<time>2016-03-01T21:20:53.551Z</time>
</trkpt>
<trkpt lat="-27.5580981" lon="153.0176039">
<ele>0.000</ele>
<time>2016-03-01T21:20:56.578Z</time>
</trkpt>
<trkpt lat="-27.5580446" lon="153.0172397">
<ele>0.000</ele>
<time>2016-03-01T21:20:59.511Z</time>
</trkpt>
<trkpt lat="-27.5580076" lon="153.0169737">
<ele>0.243</ele>
<time>2016-03-01T21:21:01.479Z</time>
</trkpt>
<trkpt lat="-27.5579539" lon="153.0166914">
<ele>1.246</ele>
<time>2016-03-01T21:21:03.509Z</time>
</trkpt>
<trkpt lat="-27.5578916" lon="153.0162702">
<ele>2.332</ele>
<time>2016-03-01T21:21:06.441Z</time>
</trkpt>
<trkpt lat="-27.5578187" lon="153.0158349">
<ele>3.369</ele>
<time>2016-03-01T21:21:09.394Z</time>
</trkpt>
<trkpt lat="-27.5577688" lon="153.0155290">
<ele>4.130</ele>
<time>2016-03-01T21:21:11.497Z</time>
</trkpt>
<trkpt lat="-27.5577292" lon="153.0152576">
<ele>4.623</ele>
<time>2016-03-01T21:21:13.466Z</time>
</trkpt>
<trkpt lat="-27.5576876" lon="153.0149851">
<ele>4.882</ele>
<time>2016-03-01T21:21:15.474Z</time>
</trkpt>
<trkpt lat="-27.5576236" lon="153.0145544">
<ele>4.868</ele>
<time>2016-03-01T21:21:18.498Z</time>
</trkpt>
<trkpt lat="-27.5575782" lon="153.0140864">
<ele>4.728</ele>
<time>2016-03-01T21:21:21.533Z</time>
</trkpt>
<trkpt lat="-27.5575211" lon="153.0136167">
<ele>4.839</ele>
<time>2016-03-01T21:21:24.537Z</time>
</trkpt>
<trkpt lat="-27.5574702" lon="153.0133112">
<ele>5.322</ele>
<time>2016-03-01T21:21:26.499Z</time>
</trkpt>
<trkpt lat="-27.5574233" lon="153.0130012">
<ele>5.731</ele>
<time>2016-03-01T21:21:28.413Z</time>
</trkpt>
<trkpt lat="-27.5573741" lon="153.0126606">
<ele>5.742</ele>
<time>2016-03-01T21:21:30.410Z</time>
</trkpt>
<trkpt lat="-27.5572965" lon="153.0121287">
<ele>5.531</ele>
<time>2016-03-01T21:21:33.428Z</time>
</trkpt>
<trkpt lat="-27.5572365" lon="153.0117779">
<ele>5.289</ele>
<time>2016-03-01T21:21:35.393Z</time>
</trkpt>
<trkpt lat="-27.5571462" lon="153.0112464">
<ele>4.821</ele>
<time>2016-03-01T21:21:38.390Z</time>
</trkpt>
<trkpt lat="-27.5570895" lon="153.0109070">
<ele>3.932</ele>
<time>2016-03-01T21:21:40.329Z</time>
</trkpt>
<trkpt lat="-27.5570643" lon="153.0107476">
<ele>2.927</ele>
<time>2016-03-01T21:21:41.235Z</time>
</trkpt>
<trkpt lat="-27.5569292" lon="153.0100058">
<ele>2.327</ele>
<time>2016-03-01T21:21:45.348Z</time>
</trkpt>
<trkpt lat="-27.5568676" lon="153.0096281">
<ele>2.298</ele>
<time>2016-03-01T21:21:47.369Z</time>
</trkpt>
<trkpt lat="-27.5568123" lon="153.0092593">
<ele>2.632</ele>
<time>2016-03-01T21:21:49.344Z</time>
</trkpt>
<trkpt lat="-27.5567465" lon="153.0088932">
<ele>3.026</ele>
<time>2016-03-01T21:21:51.342Z</time>
</trkpt>
<trkpt lat="-27.5567077" lon="153.0085320">
<ele>3.360</ele>
<time>2016-03-01T21:21:53.326Z</time>
</trkpt>
<trkpt lat="-27.5567166" lon="153.0081699">
<ele>3.691</ele>
<time>2016-03-01T21:21:55.415Z</time>
</trkpt>
<trkpt lat="-27.5568361" lon="153.0077107">
<ele>4.008</ele>
<time>2016-03-01T21:21:58.357Z</time>
</trkpt>
<trkpt lat="-27.5570254" lon="153.0073049">
<ele>4.158</ele>
<time>2016-03-01T21:22:01.334Z</time>
</trkpt>
<trkpt lat="-27.5571709" lon="153.0070261">
<ele>3.983</ele>
<time>2016-03-01T21:22:03.402Z</time>
</trkpt>
<trkpt lat="-27.5573197" lon="153.0067480">
<ele>3.479</ele>
<time>2016-03-01T21:22:05.418Z</time>
</trkpt>
<trkpt lat="-27.5574649" lon="153.0064641">
<ele>2.880</ele>
<time>2016-03-01T21:22:07.388Z</time>
</trkpt>
<trkpt lat="-27.5576806" lon="153.0059976">
<ele>2.439</ele>
<time>2016-03-01T21:22:10.502Z</time>
</trkpt>
<trkpt lat="-27.5578056" lon="153.0056996">
<ele>2.216</ele>
<time>2016-03-01T21:22:12.413Z</time>
</trkpt>
<trkpt lat="-27.5580060" lon="153.0052221">
<ele>2.150</ele>
<time>2016-03-01T21:22:15.383Z</time>
</trkpt>
<trkpt lat="-27.5581981" lon="153.0047099">
<ele>2.178</ele>
<time>2016-03-01T21:22:18.421Z</time>
</trkpt>
<trkpt lat="-27.5583258" lon="153.0043869">
<ele>2.264</ele>
<time>2016-03-01T21:22:20.375Z</time>
</trkpt>
<trkpt lat="-27.5585123" lon="153.0038863">
<ele>2.571</ele>
<time>2016-03-01T21:22:23.354Z</time>
</trkpt>
<trkpt lat="-27.5586428" lon="153.0035414">
<ele>3.194</ele>
<time>2016-03-01T21:22:25.336Z</time>
</trkpt>
<trkpt lat="-27.5587806" lon="153.0031770">
<ele>3.830</ele>
<time>2016-03-01T21:22:27.341Z</time>
</trkpt>
<trkpt lat="-27.5589731" lon="153.0026036">
<ele>4.265</ele>
<time>2016-03-01T21:22:30.371Z</time>
</trkpt>
<trkpt lat="-27.5590873" lon="153.0022204">
<ele>4.783</ele>
<time>2016-03-01T21:22:32.374Z</time>
</trkpt>
<trkpt lat="-27.5592020" lon="153.0018444">
<ele>5.490</ele>
<time>2016-03-01T21:22:34.333Z</time>
</trkpt>
<trkpt lat="-27.5593754" lon="153.0012511">
<ele>6.060</ele>
<time>2016-03-01T21:22:37.373Z</time>
</trkpt>
<trkpt lat="-27.5594851" lon="153.0008409">
<ele>6.243</ele>
<time>2016-03-01T21:22:39.444Z</time>
</trkpt>
<trkpt lat="-27.5596371" lon="153.0002678">
<ele>5.976</ele>
<time>2016-03-01T21:22:42.309Z</time>
</trkpt>
<trkpt lat="-27.5598087" lon="152.9996553">
<ele>5.311</ele>
<time>2016-03-01T21:22:45.325Z</time>
</trkpt>
<trkpt lat="-27.5599883" lon="152.9990426">
<ele>4.597</ele>
<time>2016-03-01T21:22:48.285Z</time>
</trkpt>
<trkpt lat="-27.5601853" lon="152.9984065">
<ele>4.338</ele>
<time>2016-03-01T21:22:51.293Z</time>
</trkpt>
<trkpt lat="-27.5604242" lon="152.9977836">
<ele>4.639</ele>
<time>2016-03-01T21:22:54.290Z</time>
</trkpt>
<trkpt lat="-27.5606026" lon="152.9973812">
<ele>5.097</ele>
<time>2016-03-01T21:22:56.260Z</time>
</trkpt>
<trkpt lat="-27.5608007" lon="152.9969648">
<ele>5.560</ele>
<time>2016-03-01T21:22:58.272Z</time>
</trkpt>
<trkpt lat="-27.5611108" lon="152.9963218">
<ele>6.339</ele>
<time>2016-03-01T21:23:01.334Z</time>
</trkpt>
<trkpt lat="-27.5614260" lon="152.9956816">
<ele>7.587</ele>
<time>2016-03-01T21:23:04.374Z</time>
</trkpt>
<trkpt lat="-27.5617346" lon="152.9950437">
<ele>8.948</ele>
<time>2016-03-01T21:23:07.363Z</time>
</trkpt>
<trkpt lat="-27.5619490" lon="152.9946102">
<ele>9.864</ele>
<time>2016-03-01T21:23:09.371Z</time>
</trkpt>
<trkpt lat="-27.5622823" lon="152.9939370">
<ele>10.346</ele>
<time>2016-03-01T21:23:12.501Z</time>
</trkpt>
<trkpt lat="-27.5625913" lon="152.9932821">
<ele>10.927</ele>
<time>2016-03-01T21:23:15.555Z</time>
</trkpt>
<trkpt lat="-27.5627957" lon="152.9928632">
<ele>11.676</ele>
<time>2016-03-01T21:23:17.585Z</time>
</trkpt>
<trkpt lat="-27.5630881" lon="152.9922546">
<ele>12.163</ele>
<time>2016-03-01T21:23:20.579Z</time>
</trkpt>
<trkpt lat="-27.5632922" lon="152.9918571">
<ele>12.058</ele>
<time>2016-03-01T21:23:22.560Z</time>
</trkpt>
<trkpt lat="-27.5634834" lon="152.9914493">
<ele>11.436</ele>
<time>2016-03-01T21:23:24.493Z</time>
</trkpt>
<trkpt lat="-27.5638031" lon="152.9907998">
<ele>10.645</ele>
<time>2016-03-01T21:23:27.531Z</time>
</trkpt>
<trkpt lat="-27.5640156" lon="152.9903616">
<ele>9.563</ele>
<time>2016-03-01T21:23:29.535Z</time>
</trkpt>
<trkpt lat="-27.5642850" lon="152.9896793">
<ele>7.786</ele>
<time>2016-03-01T21:23:32.592Z</time>
</trkpt>
<trkpt lat="-27.5644942" lon="152.9890099">
<ele>5.726</ele>
<time>2016-03-01T21:23:35.635Z</time>
</trkpt>
<trkpt lat="-27.5646302" lon="152.9883675">
<ele>3.951</ele>
<time>2016-03-01T21:23:38.549Z</time>
</trkpt>
<trkpt lat="-27.5647258" lon="152.9879109">
<ele>2.413</ele>
<time>2016-03-01T21:23:40.605Z</time>
</trkpt>
<trkpt lat="-27.5648671" lon="152.9872431">
<ele>1.205</ele>
<time>2016-03-01T21:23:43.569Z</time>
</trkpt>
<trkpt lat="-27.5649524" lon="152.9868079">
<ele>0.468</ele>
<time>2016-03-01T21:23:45.461Z</time>
</trkpt>
<trkpt lat="-27.5650982" lon="152.9861076">
<ele>0.342</ele>
<time>2016-03-01T21:23:48.427Z</time>
</trkpt>
<trkpt lat="-27.5652511" lon="152.9853719">
<ele>0.939</ele>
<time>2016-03-01T21:23:51.446Z</time>
</trkpt>
<trkpt lat="-27.5654051" lon="152.9846559">
<ele>1.825</ele>
<time>2016-03-01T21:23:54.409Z</time>
</trkpt>
<trkpt lat="-27.5654972" lon="152.9841801">
<ele>2.450</ele>
<time>2016-03-01T21:23:56.407Z</time>
</trkpt>
<trkpt lat="-27.5656308" lon="152.9834675">
<ele>2.736</ele>
<time>2016-03-01T21:23:59.376Z</time>
</trkpt>
<trkpt lat="-27.5657779" lon="152.9827359">
<ele>2.852</ele>
<time>2016-03-01T21:24:02.358Z</time>
</trkpt>
<trkpt lat="-27.5659249" lon="152.9819805">
<ele>3.008</ele>
<time>2016-03-01T21:24:05.352Z</time>
</trkpt>
<trkpt lat="-27.5660244" lon="152.9814752">
<ele>3.276</ele>
<time>2016-03-01T21:24:07.359Z</time>
</trkpt>
<trkpt lat="-27.5661702" lon="152.9807395">
<ele>3.623</ele>
<time>2016-03-01T21:24:10.344Z</time>
</trkpt>
<trkpt lat="-27.5662670" lon="152.9802690">
<ele>4.071</ele>
<time>2016-03-01T21:24:12.285Z</time>
</trkpt>
<trkpt lat="-27.5664117" lon="152.9795250">
<ele>4.721</ele>
<time>2016-03-01T21:24:15.315Z</time>
</trkpt>
<trkpt lat="-27.5665201" lon="152.9790212">
<ele>5.457</ele>
<time>2016-03-01T21:24:17.360Z</time>
</trkpt>
<trkpt lat="-27.5666647" lon="152.9783002">
<ele>6.217</ele>
<time>2016-03-01T21:24:20.278Z</time>
</trkpt>
<trkpt lat="-27.5668076" lon="152.9775491">
<ele>7.149</ele>
<time>2016-03-01T21:24:23.318Z</time>
</trkpt>
<trkpt lat="-27.5669295" lon="152.9768065">
<ele>8.619</ele>
<time>2016-03-01T21:24:26.345Z</time>
</trkpt>
<trkpt lat="-27.5670631" lon="152.9760962">
<ele>10.957</ele>
<time>2016-03-01T21:24:29.287Z</time>
</trkpt>
<trkpt lat="-27.5671610" lon="152.9756090">
<ele>14.169</ele>
<time>2016-03-01T21:24:31.320Z</time>
</trkpt>
<trkpt lat="-27.5672555" lon="152.9751251">
<ele>17.462</ele>
<time>2016-03-01T21:24:33.349Z</time>
</trkpt>
<trkpt lat="-27.5674059" lon="152.9744261">
<ele>19.742</ele>
<time>2016-03-01T21:24:36.296Z</time>
</trkpt>
<trkpt lat="-27.5675126" lon="152.9739469">
<ele>20.699</ele>
<time>2016-03-01T21:24:38.296Z</time>
</trkpt>
<trkpt lat="-27.5677158" lon="152.9732234">
<ele>21.001</ele>
<time>2016-03-01T21:24:41.334Z</time>
</trkpt>
<trkpt lat="-27.5678656" lon="152.9727526">
<ele>21.214</ele>
<time>2016-03-01T21:24:43.345Z</time>
</trkpt>
<trkpt lat="-27.5680867" lon="152.9720594">
<ele>21.504</ele>
<time>2016-03-01T21:24:46.348Z</time>
</trkpt>
<trkpt lat="-27.5682329" lon="152.9716143">
<ele>21.644</ele>
<time>2016-03-01T21:24:48.340Z</time>
</trkpt>
<trkpt lat="-27.5683755" lon="152.9711785">
<ele>21.492</ele>
<time>2016-03-01T21:24:50.351Z</time>
</trkpt>
<trkpt lat="-27.5685679" lon="152.9705304">
<ele>21.449</ele>
<time>2016-03-01T21:24:53.369Z</time>
</trkpt>
<trkpt lat="-27.5687012" lon="152.9701131">
<ele>21.912</ele>
<time>2016-03-01T21:24:55.345Z</time>
</trkpt>
<trkpt lat="-27.5689173" lon="152.9694888">
<ele>22.785</ele>
<time>2016-03-01T21:24:58.339Z</time>
</trkpt>
<trkpt lat="-27.5691089" lon="152.9688621">
<ele>23.697</ele>
<time>2016-03-01T21:25:01.277Z</time>
</trkpt>
<trkpt lat="-27.5693291" lon="152.9682153">
<ele>24.379</ele>
<time>2016-03-01T21:25:04.224Z</time>
</trkpt>
<trkpt lat="-27.5695500" lon="152.9675118">
<ele>24.676</ele>
<time>2016-03-01T21:25:07.257Z</time>
</trkpt>
<trkpt lat="-27.5697033" lon="152.9670474">
<ele>24.510</ele>
<time>2016-03-01T21:25:09.238Z</time>
</trkpt>
<trkpt lat="-27.5699200" lon="152.9663365">
<ele>23.978</ele>
<time>2016-03-01T21:25:12.249Z</time>
</trkpt>
<trkpt lat="-27.5701301" lon="152.9656405">
<ele>22.735</ele>
<time>2016-03-01T21:25:15.210Z</time>
</trkpt>
<trkpt lat="-27.5702589" lon="152.9651698">
<ele>20.540</ele>
<time>2016-03-01T21:25:17.168Z</time>
</trkpt>
<trkpt lat="-27.5703954" lon="152.9646786">
<ele>18.493</ele>
<time>2016-03-01T21:25:19.139Z</time>
</trkpt>
<trkpt lat="-27.5705482" lon="152.9641361">
<ele>18.251</ele>
<time>2016-03-01T21:25:21.259Z</time>
</trkpt>
<trkpt lat="-27.5707516" lon="152.9633758">
<ele>20.585</ele>
<time>2016-03-01T21:25:24.227Z</time>
</trkpt>
<trkpt lat="-27.5709645" lon="152.9626347">
<ele>24.498</ele>
<time>2016-03-01T21:25:27.194Z</time>
</trkpt>
<trkpt lat="-27.5711118" lon="152.9621437">
<ele>28.142</ele>
<time>2016-03-01T21:25:29.204Z</time>
</trkpt>
<trkpt lat="-27.5712562" lon="152.9616480">
<ele>30.666</ele>
<time>2016-03-01T21:25:31.230Z</time>
</trkpt>
<trkpt lat="-27.5714858" lon="152.9609045">
<ele>32.075</ele>
<time>2016-03-01T21:25:34.276Z</time>
</trkpt>
<trkpt lat="-27.5716628" lon="152.9604407">
<ele>32.611</ele>
<time>2016-03-01T21:25:36.223Z</time>
</trkpt>
<trkpt lat="-27.5718573" lon="152.9599769">
<ele>32.699</ele>
<time>2016-03-01T21:25:38.201Z</time>
</trkpt>
<trkpt lat="-27.5720375" lon="152.9595091">
<ele>32.677</ele>
<time>2016-03-01T21:25:40.177Z</time>
</trkpt>
<trkpt lat="-27.5723033" lon="152.9588050">
<ele>32.853</ele>
<time>2016-03-01T21:25:43.158Z</time>
</trkpt>
<trkpt lat="-27.5724924" lon="152.9583294">
<ele>33.235</ele>
<time>2016-03-01T21:25:45.195Z</time>
</trkpt>
<trkpt lat="-27.5727726" lon="152.9576175">
<ele>33.567</ele>
<time>2016-03-01T21:25:48.228Z</time>
</trkpt>
<trkpt lat="-27.5729530" lon="152.9571423">
<ele>33.805</ele>
<time>2016-03-01T21:25:50.214Z</time>
</trkpt>
<trkpt lat="-27.5731334" lon="152.9566644">
<ele>34.165</ele>
<time>2016-03-01T21:25:52.169Z</time>
</trkpt>
<trkpt lat="-27.5733100" lon="152.9561649">
<ele>34.710</ele>
<time>2016-03-01T21:25:54.169Z</time>
</trkpt>
<trkpt lat="-27.5735639" lon="152.9554002">
<ele>35.256</ele>
<time>2016-03-01T21:25:57.230Z</time>
</trkpt>
<trkpt lat="-27.5737289" lon="152.9549308">
<ele>35.601</ele>
<time>2016-03-01T21:25:59.152Z</time>
</trkpt>
<trkpt lat="-27.5738940" lon="152.9544477">
<ele>35.707</ele>
<time>2016-03-01T21:26:01.107Z</time>
</trkpt>
<trkpt lat="-27.5740624" lon="152.9539363">
<ele>35.679</ele>
<time>2016-03-01T21:26:03.180Z</time>
</trkpt>
<trkpt lat="-27.5743153" lon="152.9532160">
<ele>35.712</ele>
<time>2016-03-01T21:26:06.218Z</time>
</trkpt>
<trkpt lat="-27.5745444" lon="152.9525463">
<ele>35.899</ele>
<time>2016-03-01T21:26:09.135Z</time>
</trkpt>
<trkpt lat="-27.5746805" lon="152.9520888">
<ele>36.114</ele>
<time>2016-03-01T21:26:11.067Z</time>
</trkpt>
<trkpt lat="-27.5748276" lon="152.9515958">
<ele>36.388</ele>
<time>2016-03-01T21:26:13.082Z</time>
</trkpt>
<trkpt lat="-27.5749721" lon="152.9510908">
<ele>37.089</ele>
<time>2016-03-01T21:26:15.098Z</time>
</trkpt>
<trkpt lat="-27.5751856" lon="152.9503191">
<ele>38.162</ele>
<time>2016-03-01T21:26:18.148Z</time>
</trkpt>
<trkpt lat="-27.5753250" lon="152.9498182">
<ele>38.701</ele>
<time>2016-03-01T21:26:20.110Z</time>
</trkpt>
<trkpt lat="-27.5754718" lon="152.9493141">
<ele>37.926</ele>
<time>2016-03-01T21:26:22.035Z</time>
</trkpt>
<trkpt lat="-27.5757235" lon="152.9484672">
<ele>36.014</ele>
<time>2016-03-01T21:26:25.158Z</time>
</trkpt>
<trkpt lat="-27.5758931" lon="152.9479137">
<ele>33.793</ele>
<time>2016-03-01T21:26:27.161Z</time>
</trkpt>
<trkpt lat="-27.5760460" lon="152.9473642">
<ele>31.763</ele>
<time>2016-03-01T21:26:29.138Z</time>
</trkpt>
<trkpt lat="-27.5762908" lon="152.9465408">
<ele>29.665</ele>
<time>2016-03-01T21:26:32.116Z</time>
</trkpt>
<trkpt lat="-27.5765414" lon="152.9457173">
<ele>26.969</ele>
<time>2016-03-01T21:26:35.095Z</time>
</trkpt>
<trkpt lat="-27.5768144" lon="152.9449031">
<ele>23.822</ele>
<time>2016-03-01T21:26:38.097Z</time>
</trkpt>
<trkpt lat="-27.5771100" lon="152.9441284">
<ele>20.706</ele>
<time>2016-03-01T21:26:41.051Z</time>
</trkpt>
<trkpt lat="-27.5774085" lon="152.9433744">
<ele>17.954</ele>
<time>2016-03-01T21:26:44.024Z</time>
</trkpt>
<trkpt lat="-27.5776013" lon="152.9428746">
<ele>15.687</ele>
<time>2016-03-01T21:26:46.034Z</time>
</trkpt>
<trkpt lat="-27.5779079" lon="152.9421088">
<ele>14.038</ele>
<time>2016-03-01T21:26:49.052Z</time>
</trkpt>
<trkpt lat="-27.5781315" lon="152.9415758">
<ele>13.426</ele>
<time>2016-03-01T21:26:51.083Z</time>
</trkpt>
<trkpt lat="-27.5783651" lon="152.9410545">
<ele>14.097</ele>
<time>2016-03-01T21:26:53.076Z</time>
</trkpt>
<trkpt lat="-27.5786010" lon="152.9405331">
<ele>15.365</ele>
<time>2016-03-01T21:26:55.081Z</time>
</trkpt>
<trkpt lat="-27.5789614" lon="152.9397612">
<ele>16.482</ele>
<time>2016-03-01T21:26:58.095Z</time>
</trkpt>
<trkpt lat="-27.5793285" lon="152.9390166">
<ele>17.329</ele>
<time>2016-03-01T21:27:01.087Z</time>
</trkpt>
<trkpt lat="-27.5795703" lon="152.9385362">
<ele>17.994</ele>
<time>2016-03-01T21:27:03.077Z</time>
</trkpt>
<trkpt lat="-27.5798251" lon="152.9380731">
<ele>18.402</ele>
<time>2016-03-01T21:27:05.093Z</time>
</trkpt>
<trkpt lat="-27.5800567" lon="152.9376175">
<ele>18.492</ele>
<time>2016-03-01T21:27:07.067Z</time>
</trkpt>
<trkpt lat="-27.5804245" lon="152.9369460">
<ele>18.290</ele>
<time>2016-03-01T21:27:10.061Z</time>
</trkpt>
<trkpt lat="-27.5808082" lon="152.9362758">
<ele>17.893</ele>
<time>2016-03-01T21:27:13.057Z</time>
</trkpt>
<trkpt lat="-27.5811943" lon="152.9356018">
<ele>17.906</ele>
<time>2016-03-01T21:27:16.040Z</time>
</trkpt>
<trkpt lat="-27.5816048" lon="152.9349254">
<ele>18.928</ele>
<time>2016-03-01T21:27:19.040Z</time>
</trkpt>
<trkpt lat="-27.5820377" lon="152.9342524">
<ele>20.454</ele>
<time>2016-03-01T21:27:22.023Z</time>
</trkpt>
<trkpt lat="-27.5823501" lon="152.9338048">
<ele>21.520</ele>
<time>2016-03-01T21:27:24.044Z</time>
</trkpt>
<trkpt lat="-27.5826285" lon="152.9333461">
<ele>22.043</ele>
<time>2016-03-01T21:27:26.025Z</time>
</trkpt>
<trkpt lat="-27.5829281" lon="152.9329135">
<ele>22.420</ele>
<time>2016-03-01T21:27:27.992Z</time>
</trkpt>
<trkpt lat="-27.5832249" lon="152.9324649">
<ele>22.417</ele>
<time>2016-03-01T21:27:30.004Z</time>
</trkpt>
<trkpt lat="-27.5836516" lon="152.9317939">
<ele>21.750</ele>
<time>2016-03-01T21:27:32.991Z</time>
</trkpt>
<trkpt lat="-27.5839235" lon="152.9313542">
<ele>20.670</ele>
<time>2016-03-01T21:27:34.948Z</time>
</trkpt>
<trkpt lat="-27.5842329" lon="152.9309254">
<ele>19.526</ele>
<time>2016-03-01T21:27:36.964Z</time>
</trkpt>
<trkpt lat="-27.5847756" lon="152.9303747">
<ele>18.690</ele>
<time>2016-03-01T21:27:39.953Z</time>
</trkpt>
<trkpt lat="-27.5850829" lon="152.9299297">
<ele>18.027</ele>
<time>2016-03-01T21:27:42.004Z</time>
</trkpt>
<trkpt lat="-27.5854401" lon="152.9295575">
<ele>17.077</ele>
<time>2016-03-01T21:27:44.005Z</time>
</trkpt>
<trkpt lat="-27.5858019" lon="152.9291915">
<ele>15.953</ele>
<time>2016-03-01T21:27:45.994Z</time>
</trkpt>
<trkpt lat="-27.5861809" lon="152.9288402">
<ele>14.842</ele>
<time>2016-03-01T21:27:47.992Z</time>
</trkpt>
<trkpt lat="-27.5867773" lon="152.9283512">
<ele>13.769</ele>
<time>2016-03-01T21:27:51.022Z</time>
</trkpt>
<trkpt lat="-27.5871733" lon="152.9280580">
<ele>12.709</ele>
<time>2016-03-01T21:27:53.024Z</time>
</trkpt>
<trkpt lat="-27.5877503" lon="152.9276360">
<ele>11.300</ele>
<time>2016-03-01T21:27:55.995Z</time>
</trkpt>
<trkpt lat="-27.5881668" lon="152.9273774">
<ele>9.608</ele>
<time>2016-03-01T21:27:58.022Z</time>
</trkpt>
<trkpt lat="-27.5885776" lon="152.9270950">
<ele>8.257</ele>
<time>2016-03-01T21:28:00.019Z</time>
</trkpt>
<trkpt lat="-27.5889818" lon="152.9268091">
<ele>7.622</ele>
<time>2016-03-01T21:28:01.938Z</time>
</trkpt>
<trkpt lat="-27.5894463" lon="152.9265006">
<ele>7.597</ele>
<time>2016-03-01T21:28:04.027Z</time>
</trkpt>
<trkpt lat="-27.5901234" lon="152.9260165">
<ele>8.666</ele>
<time>2016-03-01T21:28:07.088Z</time>
</trkpt>
<trkpt lat="-27.5907887" lon="152.9255686">
<ele>11.157</ele>
<time>2016-03-01T21:28:10.079Z</time>
</trkpt>
<trkpt lat="-27.5914578" lon="152.9251176">
<ele>13.932</ele>
<time>2016-03-01T21:28:13.118Z</time>
</trkpt>
<trkpt lat="-27.5918830" lon="152.9248107">
<ele>15.676</ele>
<time>2016-03-01T21:28:15.092Z</time>
</trkpt>
<trkpt lat="-27.5925280" lon="152.9243638">
<ele>16.312</ele>
<time>2016-03-01T21:28:18.052Z</time>
</trkpt>
<trkpt lat="-27.5931970" lon="152.9239140">
<ele>16.392</ele>
<time>2016-03-01T21:28:21.090Z</time>
</trkpt>
<trkpt lat="-27.5938465" lon="152.9234727">
<ele>16.583</ele>
<time>2016-03-01T21:28:24.035Z</time>
</trkpt>
<trkpt lat="-27.5942936" lon="152.9232009">
<ele>17.218</ele>
<time>2016-03-01T21:28:25.998Z</time>
</trkpt>
<trkpt lat="-27.5947678" lon="152.9229463">
<ele>18.243</ele>
<time>2016-03-01T21:28:28.019Z</time>
</trkpt>
<trkpt lat="-27.5952420" lon="152.9226993">
<ele>19.282</ele>
<time>2016-03-01T21:28:30.017Z</time>
</trkpt>
<trkpt lat="-27.5957376" lon="152.9224529">
<ele>19.868</ele>
<time>2016-03-01T21:28:32.083Z</time>
</trkpt>
<trkpt lat="-27.5962193" lon="152.9222134">
<ele>19.912</ele>
<time>2016-03-01T21:28:34.099Z</time>
</trkpt>
<trkpt lat="-27.5969340" lon="152.9218851">
<ele>19.713</ele>
<time>2016-03-01T21:28:37.074Z</time>
</trkpt>
<trkpt lat="-27.5976680" lon="152.9215835">
<ele>19.523</ele>
<time>2016-03-01T21:28:40.099Z</time>
</trkpt>
<trkpt lat="-27.5984167" lon="152.9212951">
<ele>19.232</ele>
<time>2016-03-01T21:28:43.151Z</time>
</trkpt>
<trkpt lat="-27.5991654" lon="152.9210472">
<ele>18.680</ele>
<time>2016-03-01T21:28:46.176Z</time>
</trkpt>
<trkpt lat="-27.5998942" lon="152.9208103">
<ele>17.930</ele>
<time>2016-03-01T21:28:49.184Z</time>
</trkpt>
<trkpt lat="-27.6005865" lon="152.9205707">
<ele>17.102</ele>
<time>2016-03-01T21:28:52.110Z</time>
</trkpt>
<trkpt lat="-27.6013022" lon="152.9203284">
<ele>16.370</ele>
<time>2016-03-01T21:28:55.155Z</time>
</trkpt>
<trkpt lat="-27.6019822" lon="152.9200219">
<ele>16.090</ele>
<time>2016-03-01T21:28:58.209Z</time>
</trkpt>
<trkpt lat="-27.6026073" lon="152.9197401">
<ele>16.325</ele>
<time>2016-03-01T21:29:01.193Z</time>
</trkpt>
<trkpt lat="-27.6031567" lon="152.9194329">
<ele>16.818</ele>
<time>2016-03-01T21:29:04.099Z</time>
</trkpt>
<trkpt lat="-27.6036784" lon="152.9190718">
<ele>17.323</ele>
<time>2016-03-01T21:29:07.107Z</time>
</trkpt>
<trkpt lat="-27.6041648" lon="152.9186846">
<ele>17.866</ele>
<time>2016-03-01T21:29:10.093Z</time>
</trkpt>
<trkpt lat="-27.6046276" lon="152.9182830">
<ele>18.767</ele>
<time>2016-03-01T21:29:13.112Z</time>
</trkpt>
<trkpt lat="-27.6049154" lon="152.9180331">
<ele>19.995</ele>
<time>2016-03-01T21:29:15.136Z</time>
</trkpt>
<trkpt lat="-27.6052966" lon="152.9176627">
<ele>20.712</ele>
<time>2016-03-01T21:29:18.101Z</time>
</trkpt>
<trkpt lat="-27.6055042" lon="152.9173884">
<ele>20.298</ele>
<time>2016-03-01T21:29:20.069Z</time>
</trkpt>
<trkpt lat="-27.6056951" lon="152.9170990">
<ele>19.175</ele>
<time>2016-03-01T21:29:22.043Z</time>
</trkpt>
<trkpt lat="-27.6059563" lon="152.9166199">
<ele>18.229</ele>
<time>2016-03-01T21:29:25.092Z</time>
</trkpt>
<trkpt lat="-27.6061778" lon="152.9161180">
<ele>17.818</ele>
<time>2016-03-01T21:29:28.109Z</time>
</trkpt>
<trkpt lat="-27.6063173" lon="152.9157812">
<ele>17.654</ele>
<time>2016-03-01T21:29:30.132Z</time>
</trkpt>
<trkpt lat="-27.6064546" lon="152.9154575">
<ele>17.264</ele>
<time>2016-03-01T21:29:32.110Z</time>
</trkpt>
<trkpt lat="-27.6066691" lon="152.9149718">
<ele>16.511</ele>
<time>2016-03-01T21:29:35.102Z</time>
</trkpt>
<trkpt lat="-27.6068882" lon="152.9144737">
<ele>15.456</ele>
<time>2016-03-01T21:29:38.147Z</time>
</trkpt>
<trkpt lat="-27.6070867" lon="152.9139967">
<ele>13.995</ele>
<time>2016-03-01T21:29:41.091Z</time>
</trkpt>
<trkpt lat="-27.6072877" lon="152.9135443">
<ele>12.254</ele>
<time>2016-03-01T21:29:44.030Z</time>
</trkpt>
<trkpt lat="-27.6075243" lon="152.9131052">
<ele>10.476</ele>
<time>2016-03-01T21:29:47.059Z</time>
</trkpt>
<trkpt lat="-27.6076935" lon="152.9128317">
<ele>8.675</ele>
<time>2016-03-01T21:29:49.009Z</time>
</trkpt>
<trkpt lat="-27.6079453" lon="152.9123916">
<ele>7.196</ele>
<time>2016-03-01T21:29:51.988Z</time>
</trkpt>
<trkpt lat="-27.6081242" lon="152.9120397">
<ele>6.834</ele>
<time>2016-03-01T21:29:54.125Z</time>
</trkpt>
<trkpt lat="-27.6083542" lon="152.9114894">
<ele>8.190</ele>
<time>2016-03-01T21:29:57.210Z</time>
</trkpt>
<trkpt lat="-27.6084822" lon="152.9111292">
<ele>11.129</ele>
<time>2016-03-01T21:29:59.157Z</time>
</trkpt>
<trkpt lat="-27.6086227" lon="152.9107564">
<ele>14.581</ele>
<time>2016-03-01T21:30:01.205Z</time>
</trkpt>
<trkpt lat="-27.6088262" lon="152.9102288">
<ele>17.289</ele>
<time>2016-03-01T21:30:04.131Z</time>
</trkpt>
<trkpt lat="-27.6089482" lon="152.9098683">
<ele>18.851</ele>
<time>2016-03-01T21:30:06.101Z</time>
</trkpt>
<trkpt lat="-27.6091051" lon="152.9092997">
<ele>19.628</ele>
<time>2016-03-01T21:30:09.136Z</time>
</trkpt>
<trkpt lat="-27.6092253" lon="152.9087221">
<ele>19.653</ele>
<time>2016-03-01T21:30:12.124Z</time>
</trkpt>
<trkpt lat="-27.6093040" lon="152.9081312">
<ele>18.731</ele>
<time>2016-03-01T21:30:15.083Z</time>
</trkpt>
<trkpt lat="-27.6093537" lon="152.9077199">
<ele>16.844</ele>
<time>2016-03-01T21:30:17.112Z</time>
</trkpt>
<trkpt lat="-27.6093937" lon="152.9070915">
<ele>14.229</ele>
<time>2016-03-01T21:30:20.205Z</time>
</trkpt>
<trkpt lat="-27.6094384" lon="152.9064994">
<ele>11.453</ele>
<time>2016-03-01T21:30:23.182Z</time>
</trkpt>
<trkpt lat="-27.6094917" lon="152.9059106">
<ele>9.223</ele>
<time>2016-03-01T21:30:26.234Z</time>
</trkpt>
<trkpt lat="-27.6095562" lon="152.9053534">
<ele>7.854</ele>
<time>2016-03-01T21:30:29.301Z</time>
</trkpt>
<trkpt lat="-27.6096442" lon="152.9048716">
<ele>7.139</ele>
<time>2016-03-01T21:30:32.278Z</time>
</trkpt>
<trkpt lat="-27.6096797" lon="152.9046032">
<ele>6.617</ele>
<time>2016-03-01T21:30:34.233Z</time>
</trkpt>
<trkpt lat="-27.6096881" lon="152.9043695">
<ele>5.818</ele>
<time>2016-03-01T21:30:36.283Z</time>
</trkpt>
<trkpt lat="-27.6096746" lon="152.9041484">
<ele>4.431</ele>
<time>2016-03-01T21:30:38.501Z</time>
</trkpt>
<trkpt lat="-27.6096440" lon="152.9039467">
<ele>2.686</ele>
<time>2016-03-01T21:30:40.907Z</time>
</trkpt>
<trkpt lat="-27.6096209" lon="152.9037773">
<ele>1.200</ele>
<time>2016-03-01T21:30:42.885Z</time>
</trkpt>
<trkpt lat="-27.6095820" lon="152.9035981">
<ele>0.401</ele>
<time>2016-03-01T21:30:44.981Z</time>
</trkpt>
<trkpt lat="-27.6095585" lon="152.9033679">
<ele>0.284</ele>
<time>2016-03-01T21:30:47.613Z</time>
</trkpt>
<trkpt lat="-27.6095416" lon="152.9031531">
<ele>0.544</ele>
<time>2016-03-01T21:30:49.804Z</time>
</trkpt>
<trkpt lat="-27.6095200" lon="152.9027968">
<ele>1.010</ele>
<time>2016-03-01T21:30:52.868Z</time>
</trkpt>
<trkpt lat="-27.6095073" lon="152.9023771">
<ele>1.848</ele>
<time>2016-03-01T21:30:55.940Z</time>
</trkpt>
<trkpt lat="-27.6094946" lon="152.9020768">
<ele>3.320</ele>
<time>2016-03-01T21:30:57.949Z</time>
</trkpt>
<trkpt lat="-27.6094653" lon="152.9016158">
<ele>5.114</ele>
<time>2016-03-01T21:31:00.981Z</time>
</trkpt>
<trkpt lat="-27.6094158" lon="152.9011748">
<ele>6.495</ele>
<time>2016-03-01T21:31:03.889Z</time>
</trkpt>
<trkpt lat="-27.6093396" lon="152.9007005">
<ele>7.247</ele>
<time>2016-03-01T21:31:06.923Z</time>
</trkpt>
<trkpt lat="-27.6092776" lon="152.9003510">
<ele>8.065</ele>
<time>2016-03-01T21:31:09.019Z</time>
</trkpt>
<trkpt lat="-27.6092048" lon="152.9000180">
<ele>9.436</ele>
<time>2016-03-01T21:31:11.011Z</time>
</trkpt>
<trkpt lat="-27.6090746" lon="152.8995289">
<ele>10.842</ele>
<time>2016-03-01T21:31:14.021Z</time>
</trkpt>
<trkpt lat="-27.6090289" lon="152.8993302">
<ele>11.409</ele>
<time>2016-03-01T21:31:15.256Z</time>
</trkpt>
<trkpt lat="-27.6088347" lon="152.8987635">
<ele>10.932</ele>
<time>2016-03-01T21:31:18.965Z</time>
</trkpt>
<trkpt lat="-27.6087121" lon="152.8984663">
<ele>9.810</ele>
<time>2016-03-01T21:31:20.967Z</time>
</trkpt>
<trkpt lat="-27.6085690" lon="152.8981839">
<ele>8.675</ele>
<time>2016-03-01T21:31:22.950Z</time>
</trkpt>
<trkpt lat="-27.6083286" lon="152.8977715">
<ele>8.001</ele>
<time>2016-03-01T21:31:25.986Z</time>
</trkpt>
<trkpt lat="-27.6081702" lon="152.8974974">
<ele>7.858</ele>
<time>2016-03-01T21:31:28.147Z</time>
</trkpt>
<trkpt lat="-27.6079643" lon="152.8971451">
<ele>7.934</ele>
<time>2016-03-01T21:31:31.357Z</time>
</trkpt>
<trkpt lat="-27.6078838" lon="152.8969896">
<ele>7.848</ele>
<time>2016-03-01T21:31:33.566Z</time>
</trkpt>
<trkpt lat="-27.6078370" lon="152.8968500">
<ele>7.113</ele>
<time>2016-03-01T21:31:36.244Z</time>
</trkpt>
<trkpt lat="-27.6079331" lon="152.8967607">
<ele>5.754</ele>
<time>2016-03-01T21:31:39.730Z</time>
</trkpt>
<trkpt lat="-27.6080234" lon="152.8966909">
<ele>4.568</ele>
<time>2016-03-01T21:31:43.164Z</time>
</trkpt>
<trkpt lat="-27.6081066" lon="152.8966151">
<ele>4.102</ele>
<time>2016-03-01T21:31:47.563Z</time>
</trkpt>
<trkpt lat="-27.6080947" lon="152.8965103">
<ele>4.153</ele>
<time>2016-03-01T21:31:52.998Z</time>
</trkpt>
<trkpt lat="-27.6080947" lon="152.8965103">
<ele>4.367</ele>
<time>2016-03-01T21:31:55.998Z</time>
</trkpt>
<trkpt lat="-27.6080947" lon="152.8965103">
<ele>4.497</ele>
<time>2016-03-01T21:37:12.068Z</time>
</trkpt>
<trkpt lat="-27.6079393" lon="152.8966175">
<ele>4.487</ele>
<time>2016-03-01T21:37:54.999Z</time>
</trkpt>
<trkpt lat="-27.6079344" lon="152.8967209">
<ele>5.033</ele>
<time>2016-03-01T21:38:10.780Z</time>
</trkpt>
<trkpt lat="-27.6079344" lon="152.8967209">
<ele>5.033</ele>
<time>2016-03-01T21:38:10.780Z</time>
</trkpt>
<trkpt lat="-27.6080919" lon="152.8966152">
<ele>9.016</ele>
<time>2016-03-01T21:38:42.297Z</time>
</trkpt>
<trkpt lat="-27.6081619" lon="152.8965416">
<ele>9.012</ele>
<time>2016-03-01T21:38:59.999Z</time>
</trkpt>
<trkpt lat="-27.6081619" lon="152.8965416">
<ele>9.009</ele>
<time>2016-03-01T21:39:21.999Z</time>
</trkpt>
<trkpt lat="-27.6081619" lon="152.8965416">
<ele>9.005</ele>
<time>2016-03-01T21:39:22.099Z</time>
</trkpt>
<trkpt lat="-27.6080048" lon="152.8965420">
<ele>9.001</ele>
<time>2016-03-01T22:49:45.999Z</time>
</trkpt>
<trkpt lat="-27.6080048" lon="152.8965420">
<ele>8.999</ele>
<time>2016-03-01T22:49:48.999Z</time>
</trkpt>
<trkpt lat="-27.6080048" lon="152.8965420">
<ele>8.998</ele>
<time>2016-03-01T23:16:03.000Z</time>
</trkpt>
<trkpt lat="-27.6080408" lon="152.8964812">
<ele>15.235</ele>
<time>2016-03-01T23:17:56.000Z</time>
</trkpt>
<trkpt lat="-27.6080408" lon="152.8964812">
<ele>15.228</ele>
<time>2016-03-01T23:18:12.000Z</time>
</trkpt>
<trkpt lat="-27.6080408" lon="152.8964812">
<ele>15.224</ele>
<time>2016-03-01T23:29:37.765Z</time>
</trkpt>
<trkpt lat="-27.6081913" lon="152.8963536">
<ele>15.220</ele>
<time>2016-03-01T23:29:50.281Z</time>
</trkpt>
<trkpt lat="-27.6082937" lon="152.8963383">
<ele>14.272</ele>
<time>2016-03-01T23:29:55.447Z</time>
</trkpt>
<trkpt lat="-27.6083791" lon="152.8962595">
<ele>11.811</ele>
<time>2016-03-01T23:30:00.900Z</time>
</trkpt>
<trkpt lat="-27.6083584" lon="152.8961490">
<ele>9.395</ele>
<time>2016-03-01T23:30:05.505Z</time>
</trkpt>
<trkpt lat="-27.6083220" lon="152.8960435">
<ele>8.521</ele>
<time>2016-03-01T23:30:09.895Z</time>
</trkpt>
<trkpt lat="-27.6082799" lon="152.8959306">
<ele>8.783</ele>
<time>2016-03-01T23:30:14.616Z</time>
</trkpt>
<trkpt lat="-27.6082037" lon="152.8958630">
<ele>9.435</ele>
<time>2016-03-01T23:30:18.275Z</time>
</trkpt>
<trkpt lat="-27.6080638" lon="152.8958798">
<ele>10.096</ele>
<time>2016-03-01T23:30:21.497Z</time>
</trkpt>
<trkpt lat="-27.6078525" lon="152.8960705">
<ele>10.662</ele>
<time>2016-03-01T23:30:25.115Z</time>
</trkpt>
<trkpt lat="-27.6076219" lon="152.8962313">
<ele>11.104</ele>
<time>2016-03-01T23:30:28.644Z</time>
</trkpt>
<trkpt lat="-27.6074885" lon="152.8962695">
<ele>11.360</ele>
<time>2016-03-01T23:30:30.264Z</time>
</trkpt>
<trkpt lat="-27.6073829" lon="152.8962898">
<ele>11.355</ele>
<time>2016-03-01T23:30:31.476Z</time>
</trkpt>
<trkpt lat="-27.6071243" lon="152.8959428">
<ele>11.150</ele>
<time>2016-03-01T23:30:34.922Z</time>
</trkpt>
<trkpt lat="-27.6068446" lon="152.8956037">
<ele>11.341</ele>
<time>2016-03-01T23:30:37.753Z</time>
</trkpt>
<trkpt lat="-27.6065143" lon="152.8952509">
<ele>12.785</ele>
<time>2016-03-01T23:30:40.584Z</time>
</trkpt>
<trkpt lat="-27.6061385" lon="152.8948556">
<ele>15.344</ele>
<time>2016-03-01T23:30:43.553Z</time>
</trkpt>
<trkpt lat="-27.6057674" lon="152.8944309">
<ele>18.020</ele>
<time>2016-03-01T23:30:46.430Z</time>
</trkpt>
<trkpt lat="-27.6053960" lon="152.8939251">
<ele>20.185</ele>
<time>2016-03-01T23:30:49.399Z</time>
</trkpt>
<trkpt lat="-27.6051672" lon="152.8935429">
<ele>21.905</ele>
<time>2016-03-01T23:30:51.330Z</time>
</trkpt>
<trkpt lat="-27.6048155" lon="152.8928984">
<ele>23.509</ele>
<time>2016-03-01T23:30:54.376Z</time>
</trkpt>
<trkpt lat="-27.6044989" lon="152.8922413">
<ele>25.028</ele>
<time>2016-03-01T23:30:57.439Z</time>
</trkpt>
<trkpt lat="-27.6042217" lon="152.8916274">
<ele>26.099</ele>
<time>2016-03-01T23:31:00.339Z</time>
</trkpt>
<trkpt lat="-27.6040332" lon="152.8912072">
<ele>26.429</ele>
<time>2016-03-01T23:31:02.221Z</time>
</trkpt>
<trkpt lat="-27.6036934" lon="152.8905065">
<ele>26.156</ele>
<time>2016-03-01T23:31:05.152Z</time>
</trkpt>
<trkpt lat="-27.6033340" lon="152.8897123">
<ele>26.490</ele>
<time>2016-03-01T23:31:08.210Z</time>
</trkpt>
<trkpt lat="-27.6031100" lon="152.8891773">
<ele>28.722</ele>
<time>2016-03-01T23:31:10.215Z</time>
</trkpt>
<trkpt lat="-27.6029009" lon="152.8886508">
<ele>32.007</ele>
<time>2016-03-01T23:31:12.160Z</time>
</trkpt>
<trkpt lat="-27.6026861" lon="152.8880991">
<ele>34.354</ele>
<time>2016-03-01T23:31:14.183Z</time>
</trkpt>
<trkpt lat="-27.6023865" lon="152.8872747">
<ele>35.468</ele>
<time>2016-03-01T23:31:17.190Z</time>
</trkpt>
<trkpt lat="-27.6022848" lon="152.8869897">
<ele>36.184</ele>
<time>2016-03-01T23:31:18.217Z</time>
</trkpt>
<trkpt lat="-27.6019207" lon="152.8858656">
<ele>36.815</ele>
<time>2016-03-01T23:31:22.178Z</time>
</trkpt>
<trkpt lat="-27.6017582" lon="152.8852909">
<ele>37.272</ele>
<time>2016-03-01T23:31:24.158Z</time>
</trkpt>
<trkpt lat="-27.6015447" lon="152.8844158">
<ele>37.408</ele>
<time>2016-03-01T23:31:27.146Z</time>
</trkpt>
<trkpt lat="-27.6013820" lon="152.8835344">
<ele>37.004</ele>
<time>2016-03-01T23:31:30.110Z</time>
</trkpt>
<trkpt lat="-27.6012964" lon="152.8829276">
<ele>36.129</ele>
<time>2016-03-01T23:31:32.125Z</time>
</trkpt>
<trkpt lat="-27.6012426" lon="152.8823178">
<ele>35.195</ele>
<time>2016-03-01T23:31:34.169Z</time>
</trkpt>
<trkpt lat="-27.6011629" lon="152.8814314">
<ele>34.128</ele>
<time>2016-03-01T23:31:37.204Z</time>
</trkpt>
<trkpt lat="-27.6011308" lon="152.8808642">
<ele>31.337</ele>
<time>2016-03-01T23:31:39.169Z</time>
</trkpt>
<trkpt lat="-27.6011093" lon="152.8799941">
<ele>26.415</ele>
<time>2016-03-01T23:31:42.165Z</time>
</trkpt>
<trkpt lat="-27.6011221" lon="152.8794091">
<ele>21.565</ele>
<time>2016-03-01T23:31:44.174Z</time>
</trkpt>
<trkpt lat="-27.6011478" lon="152.8788211">
<ele>18.549</ele>
<time>2016-03-01T23:31:46.198Z</time>
</trkpt>
<trkpt lat="-27.6011701" lon="152.8782521">
<ele>17.524</ele>
<time>2016-03-01T23:31:48.165Z</time>
</trkpt>
<trkpt lat="-27.6012398" lon="152.8773835">
<ele>17.995</ele>
<time>2016-03-01T23:31:51.183Z</time>
</trkpt>
<trkpt lat="-27.6012825" lon="152.8768205">
<ele>18.757</ele>
<time>2016-03-01T23:31:53.155Z</time>
</trkpt>
<trkpt lat="-27.6013938" lon="152.8759850">
<ele>18.933</ele>
<time>2016-03-01T23:31:56.128Z</time>
</trkpt>
<trkpt lat="-27.6015013" lon="152.8754228">
<ele>18.429</ele>
<time>2016-03-01T23:31:58.162Z</time>
</trkpt>
<trkpt lat="-27.6016286" lon="152.8748833">
<ele>17.619</ele>
<time>2016-03-01T23:32:00.142Z</time>
</trkpt>
<trkpt lat="-27.6018431" lon="152.8740840">
<ele>17.000</ele>
<time>2016-03-01T23:32:03.107Z</time>
</trkpt>
<trkpt lat="-27.6020084" lon="152.8735464">
<ele>16.832</ele>
<time>2016-03-01T23:32:05.120Z</time>
</trkpt>
<trkpt lat="-27.6021914" lon="152.8730195">
<ele>17.169</ele>
<time>2016-03-01T23:32:07.115Z</time>
</trkpt>
<trkpt lat="-27.6024824" lon="152.8722442">
<ele>17.915</ele>
<time>2016-03-01T23:32:10.103Z</time>
</trkpt>
<trkpt lat="-27.6026813" lon="152.8717458">
<ele>18.950</ele>
<time>2016-03-01T23:32:12.081Z</time>
</trkpt>
<trkpt lat="-27.6028800" lon="152.8712430">
<ele>20.145</ele>
<time>2016-03-01T23:32:14.072Z</time>
</trkpt>
<trkpt lat="-27.6030722" lon="152.8707297">
<ele>21.168</ele>
<time>2016-03-01T23:32:16.056Z</time>
</trkpt>
<trkpt lat="-27.6033559" lon="152.8699503">
<ele>21.743</ele>
<time>2016-03-01T23:32:19.049Z</time>
</trkpt>
<trkpt lat="-27.6035422" lon="152.8694264">
<ele>22.101</ele>
<time>2016-03-01T23:32:21.056Z</time>
</trkpt>
<trkpt lat="-27.6038020" lon="152.8686323">
<ele>22.573</ele>
<time>2016-03-01T23:32:24.057Z</time>
</trkpt>
<trkpt lat="-27.6039749" lon="152.8680959">
<ele>23.280</ele>
<time>2016-03-01T23:32:26.078Z</time>
</trkpt>
<trkpt lat="-27.6041971" lon="152.8672861">
<ele>24.092</ele>
<time>2016-03-01T23:32:29.084Z</time>
</trkpt>
<trkpt lat="-27.6043839" lon="152.8664678">
<ele>24.713</ele>
<time>2016-03-01T23:32:32.108Z</time>
</trkpt>
<trkpt lat="-27.6044926" lon="152.8656560">
<ele>25.085</ele>
<time>2016-03-01T23:32:35.088Z</time>
</trkpt>
<trkpt lat="-27.6045144" lon="152.8651031">
<ele>25.484</ele>
<time>2016-03-01T23:32:37.112Z</time>
</trkpt>
<trkpt lat="-27.6044984" lon="152.8645599">
<ele>26.187</ele>
<time>2016-03-01T23:32:39.090Z</time>
</trkpt>
<trkpt lat="-27.6044037" lon="152.8637373">
<ele>27.322</ele>
<time>2016-03-01T23:32:42.080Z</time>
</trkpt>
<trkpt lat="-27.6042257" lon="152.8629163">
<ele>28.379</ele>
<time>2016-03-01T23:32:45.084Z</time>
</trkpt>
<trkpt lat="-27.6040574" lon="152.8623853">
<ele>28.681</ele>
<time>2016-03-01T23:32:47.050Z</time>
</trkpt>
<trkpt lat="-27.6038433" lon="152.8618631">
<ele>28.313</ele>
<time>2016-03-01T23:32:49.038Z</time>
</trkpt>
<trkpt lat="-27.6034637" lon="152.8611269">
<ele>27.672</ele>
<time>2016-03-01T23:32:51.990Z</time>
</trkpt>
<trkpt lat="-27.6031648" lon="152.8606637">
<ele>26.695</ele>
<time>2016-03-01T23:32:53.984Z</time>
</trkpt>
<trkpt lat="-27.6026604" lon="152.8600160">
<ele>25.345</ele>
<time>2016-03-01T23:32:56.994Z</time>
</trkpt>
<trkpt lat="-27.6021021" lon="152.8594276">
<ele>23.709</ele>
<time>2016-03-01T23:33:00.029Z</time>
</trkpt>
<trkpt lat="-27.6015564" lon="152.8588490">
<ele>21.636</ele>
<time>2016-03-01T23:33:03.041Z</time>
</trkpt>
<trkpt lat="-27.6011975" lon="152.8584598">
<ele>19.280</ele>
<time>2016-03-01T23:33:05.068Z</time>
</trkpt>
<trkpt lat="-27.6008518" lon="152.8580917">
<ele>17.136</ele>
<time>2016-03-01T23:33:06.983Z</time>
</trkpt>
<trkpt lat="-27.6002922" lon="152.8575033">
<ele>15.483</ele>
<time>2016-03-01T23:33:10.028Z</time>
</trkpt>
<trkpt lat="-27.5999231" lon="152.8571154">
<ele>14.658</ele>
<time>2016-03-01T23:33:12.029Z</time>
</trkpt>
<trkpt lat="-27.5993803" lon="152.8565278">
<ele>15.134</ele>
<time>2016-03-01T23:33:15.056Z</time>
</trkpt>
<trkpt lat="-27.5990583" lon="152.8561514">
<ele>16.669</ele>
<time>2016-03-01T23:33:16.987Z</time>
</trkpt>
<trkpt lat="-27.5985972" lon="152.8555258">
<ele>18.381</ele>
<time>2016-03-01T23:33:20.040Z</time>
</trkpt>
<trkpt lat="-27.5983434" lon="152.8550896">
<ele>19.834</ele>
<time>2016-03-01T23:33:22.048Z</time>
</trkpt>
<trkpt lat="-27.5981185" lon="152.8546430">
<ele>21.080</ele>
<time>2016-03-01T23:33:24.087Z</time>
</trkpt>
<trkpt lat="-27.5978535" lon="152.8539758">
<ele>22.118</ele>
<time>2016-03-01T23:33:27.062Z</time>
</trkpt>
<trkpt lat="-27.5976550" lon="152.8532873">
<ele>23.221</ele>
<time>2016-03-01T23:33:30.089Z</time>
</trkpt>
<trkpt lat="-27.5975590" lon="152.8528316">
<ele>24.614</ele>
<time>2016-03-01T23:33:32.103Z</time>
</trkpt>
<trkpt lat="-27.5974710" lon="152.8521546">
<ele>26.108</ele>
<time>2016-03-01T23:33:35.109Z</time>
</trkpt>
<trkpt lat="-27.5974470" lon="152.8517203">
<ele>27.569</ele>
<time>2016-03-01T23:33:37.039Z</time>
</trkpt>
<trkpt lat="-27.5974408" lon="152.8510207">
<ele>29.016</ele>
<time>2016-03-01T23:33:40.066Z</time>
</trkpt>
<trkpt lat="-27.5974260" lon="152.8505495">
<ele>30.455</ele>
<time>2016-03-01T23:33:42.019Z</time>
</trkpt>
<trkpt lat="-27.5974143" lon="152.8498184">
<ele>32.045</ele>
<time>2016-03-01T23:33:45.026Z</time>
</trkpt>
<trkpt lat="-27.5973760" lon="152.8493339">
<ele>34.016</ele>
<time>2016-03-01T23:33:47.003Z</time>
</trkpt>
<trkpt lat="-27.5973241" lon="152.8488300">
<ele>36.022</ele>
<time>2016-03-01T23:33:49.047Z</time>
</trkpt>
<trkpt lat="-27.5972492" lon="152.8481231">
<ele>37.329</ele>
<time>2016-03-01T23:33:51.887Z</time>
</trkpt>
<trkpt lat="-27.5971521" lon="152.8473529">
<ele>37.749</ele>
<time>2016-03-01T23:33:54.977Z</time>
</trkpt>
<trkpt lat="-27.5970839" lon="152.8468807">
<ele>37.674</ele>
<time>2016-03-01T23:33:56.941Z</time>
</trkpt>
<trkpt lat="-27.5970207" lon="152.8464089">
<ele>37.232</ele>
<time>2016-03-01T23:33:58.938Z</time>
</trkpt>
<trkpt lat="-27.5969408" lon="152.8456997">
<ele>36.347</ele>
<time>2016-03-01T23:34:01.946Z</time>
</trkpt>
<trkpt lat="-27.5969047" lon="152.8452143">
<ele>35.276</ele>
<time>2016-03-01T23:34:04.037Z</time>
</trkpt>
<trkpt lat="-27.5968532" lon="152.8445300">
<ele>34.506</ele>
<time>2016-03-01T23:34:07.019Z</time>
</trkpt>
<trkpt lat="-27.5968214" lon="152.8440755">
<ele>34.194</ele>
<time>2016-03-01T23:34:08.993Z</time>
</trkpt>
<trkpt lat="-27.5967767" lon="152.8433794">
<ele>34.184</ele>
<time>2016-03-01T23:34:12.016Z</time>
</trkpt>
<trkpt lat="-27.5967435" lon="152.8429252">
<ele>34.311</ele>
<time>2016-03-01T23:34:14.036Z</time>
</trkpt>
<trkpt lat="-27.5966354" lon="152.8422665">
<ele>34.530</ele>
<time>2016-03-01T23:34:17.038Z</time>
</trkpt>
<trkpt lat="-27.5964925" lon="152.8418602">
<ele>34.722</ele>
<time>2016-03-01T23:34:19.008Z</time>
</trkpt>
<trkpt lat="-27.5962990" lon="152.8414753">
<ele>34.975</ele>
<time>2016-03-01T23:34:21.029Z</time>
</trkpt>
<trkpt lat="-27.5959157" lon="152.8409900">
<ele>35.598</ele>
<time>2016-03-01T23:34:24.027Z</time>
</trkpt>
<trkpt lat="-27.5956090" lon="152.8407337">
<ele>36.582</ele>
<time>2016-03-01T23:34:26.013Z</time>
</trkpt>
<trkpt lat="-27.5952682" lon="152.8405169">
<ele>37.487</ele>
<time>2016-03-01T23:34:27.992Z</time>
</trkpt>
<trkpt lat="-27.5947241" lon="152.8402090">
<ele>37.991</ele>
<time>2016-03-01T23:34:30.995Z</time>
</trkpt>
<trkpt lat="-27.5943448" lon="152.8399979">
<ele>37.984</ele>
<time>2016-03-01T23:34:32.924Z</time>
</trkpt>
<trkpt lat="-27.5937497" lon="152.8395917">
<ele>37.600</ele>
<time>2016-03-01T23:34:35.945Z</time>
</trkpt>
<trkpt lat="-27.5933626" lon="152.8392601">
<ele>37.101</ele>
<time>2016-03-01T23:34:37.941Z</time>
</trkpt>
<trkpt lat="-27.5929863" lon="152.8388891">
<ele>36.541</ele>
<time>2016-03-01T23:34:39.973Z</time>
</trkpt>
<trkpt lat="-27.5924863" lon="152.8382507">
<ele>35.408</ele>
<time>2016-03-01T23:34:42.994Z</time>
</trkpt>
<trkpt lat="-27.5921988" lon="152.8377930">
<ele>32.804</ele>
<time>2016-03-01T23:34:44.986Z</time>
</trkpt>
<trkpt lat="-27.5918084" lon="152.8370761">
<ele>28.844</ele>
<time>2016-03-01T23:34:47.981Z</time>
</trkpt>
<trkpt lat="-27.5915939" lon="152.8365669">
<ele>25.250</ele>
<time>2016-03-01T23:34:50.029Z</time>
</trkpt>
<trkpt lat="-27.5913477" lon="152.8358081">
<ele>23.370</ele>
<time>2016-03-01T23:34:52.999Z</time>
</trkpt>
<trkpt lat="-27.5911624" lon="152.8350178">
<ele>23.197</ele>
<time>2016-03-01T23:34:55.996Z</time>
</trkpt>
<trkpt lat="-27.5910567" lon="152.8344757">
<ele>24.222</ele>
<time>2016-03-01T23:34:57.997Z</time>
</trkpt>
<trkpt lat="-27.5909237" lon="152.8336556">
<ele>25.748</ele>
<time>2016-03-01T23:35:01.016Z</time>
</trkpt>
<trkpt lat="-27.5907843" lon="152.8328542">
<ele>27.060</ele>
<time>2016-03-01T23:35:04.003Z</time>
</trkpt>
<trkpt lat="-27.5907023" lon="152.8323380">
<ele>27.870</ele>
<time>2016-03-01T23:35:05.947Z</time>
</trkpt>
<trkpt lat="-27.5906330" lon="152.8318054">
<ele>28.475</ele>
<time>2016-03-01T23:35:07.925Z</time>
</trkpt>
<trkpt lat="-27.5905657" lon="152.8312586">
<ele>29.287</ele>
<time>2016-03-01T23:35:09.915Z</time>
</trkpt>
<trkpt lat="-27.5904753" lon="152.8304203">
<ele>30.172</ele>
<time>2016-03-01T23:35:12.948Z</time>
</trkpt>
<trkpt lat="-27.5904131" lon="152.8298711">
<ele>30.687</ele>
<time>2016-03-01T23:35:14.921Z</time>
</trkpt>
<trkpt lat="-27.5903088" lon="152.8290343">
<ele>30.442</ele>
<time>2016-03-01T23:35:17.921Z</time>
</trkpt>
<trkpt lat="-27.5902309" lon="152.8284675">
<ele>29.455</ele>
<time>2016-03-01T23:35:19.923Z</time>
</trkpt>
<trkpt lat="-27.5901077" lon="152.8275971">
<ele>28.080</ele>
<time>2016-03-01T23:35:22.888Z</time>
</trkpt>
<trkpt lat="-27.5900239" lon="152.8269877">
<ele>26.718</ele>
<time>2016-03-01T23:35:24.919Z</time>
</trkpt>
<trkpt lat="-27.5898976" lon="152.8260945">
<ele>25.730</ele>
<time>2016-03-01T23:35:27.934Z</time>
</trkpt>
<trkpt lat="-27.5896949" lon="152.8252489">
<ele>25.330</ele>
<time>2016-03-01T23:35:30.927Z</time>
</trkpt>
<trkpt lat="-27.5895125" lon="152.8247181">
<ele>25.252</ele>
<time>2016-03-01T23:35:32.938Z</time>
</trkpt>
<trkpt lat="-27.5891645" lon="152.8239802">
<ele>25.147</ele>
<time>2016-03-01T23:35:35.921Z</time>
</trkpt>
<trkpt lat="-27.5888943" lon="152.8235105">
<ele>24.796</ele>
<time>2016-03-01T23:35:37.913Z</time>
</trkpt>
<trkpt lat="-27.5884006" lon="152.8228706">
<ele>24.087</ele>
<time>2016-03-01T23:35:40.895Z</time>
</trkpt>
<trkpt lat="-27.5880535" lon="152.8224441">
<ele>22.595</ele>
<time>2016-03-01T23:35:42.909Z</time>
</trkpt>
<trkpt lat="-27.5877126" lon="152.8220103">
<ele>20.388</ele>
<time>2016-03-01T23:35:44.914Z</time>
</trkpt>
<trkpt lat="-27.5873719" lon="152.8215834">
<ele>18.132</ele>
<time>2016-03-01T23:35:46.902Z</time>
</trkpt>
<trkpt lat="-27.5870264" lon="152.8211606">
<ele>16.338</ele>
<time>2016-03-01T23:35:48.898Z</time>
</trkpt>
<trkpt lat="-27.5865079" lon="152.8205158">
<ele>15.193</ele>
<time>2016-03-01T23:35:51.915Z</time>
</trkpt>
<trkpt lat="-27.5861668" lon="152.8200857">
<ele>14.667</ele>
<time>2016-03-01T23:35:53.911Z</time>
</trkpt>
<trkpt lat="-27.5856686" lon="152.8194535">
<ele>14.423</ele>
<time>2016-03-01T23:35:56.850Z</time>
</trkpt>
<trkpt lat="-27.5851546" lon="152.8188199">
<ele>14.617</ele>
<time>2016-03-01T23:35:59.859Z</time>
</trkpt>
<trkpt lat="-27.5846437" lon="152.8181905">
<ele>15.379</ele>
<time>2016-03-01T23:36:02.862Z</time>
</trkpt>
<trkpt lat="-27.5841462" lon="152.8175562">
<ele>16.209</ele>
<time>2016-03-01T23:36:05.845Z</time>
</trkpt>
<trkpt lat="-27.5838335" lon="152.8170898">
<ele>16.630</ele>
<time>2016-03-01T23:36:07.908Z</time>
</trkpt>
<trkpt lat="-27.5835666" lon="152.8166102">
<ele>16.846</ele>
<time>2016-03-01T23:36:09.915Z</time>
</trkpt>
<trkpt lat="-27.5832520" lon="152.8158389">
<ele>17.277</ele>
<time>2016-03-01T23:36:12.934Z</time>
</trkpt>
<trkpt lat="-27.5830875" lon="152.8153052">
<ele>17.791</ele>
<time>2016-03-01T23:36:14.944Z</time>
</trkpt>
<trkpt lat="-27.5828870" lon="152.8144853">
<ele>17.918</ele>
<time>2016-03-01T23:36:17.961Z</time>
</trkpt>
<trkpt lat="-27.5827482" lon="152.8139431">
<ele>17.581</ele>
<time>2016-03-01T23:36:19.956Z</time>
</trkpt>
<trkpt lat="-27.5825500" lon="152.8131324">
<ele>17.019</ele>
<time>2016-03-01T23:36:22.941Z</time>
</trkpt>
<trkpt lat="-27.5824185" lon="152.8126017">
<ele>16.501</ele>
<time>2016-03-01T23:36:24.933Z</time>
</trkpt>
<trkpt lat="-27.5822604" lon="152.8120912">
<ele>16.276</ele>
<time>2016-03-01T23:36:26.908Z</time>
</trkpt>
<trkpt lat="-27.5819531" lon="152.8113478">
<ele>16.342</ele>
<time>2016-03-01T23:36:29.902Z</time>
</trkpt>
<trkpt lat="-27.5816915" lon="152.8108807">
<ele>16.440</ele>
<time>2016-03-01T23:36:31.898Z</time>
</trkpt>
<trkpt lat="-27.5814029" lon="152.8104266">
<ele>16.149</ele>
<time>2016-03-01T23:36:33.886Z</time>
</trkpt>
<trkpt lat="-27.5809596" lon="152.8097308">
<ele>15.415</ele>
<time>2016-03-01T23:36:36.906Z</time>
</trkpt>
<trkpt lat="-27.5806559" lon="152.8092724">
<ele>14.716</ele>
<time>2016-03-01T23:36:38.915Z</time>
</trkpt>
<trkpt lat="-27.5801841" lon="152.8086028">
<ele>14.232</ele>
<time>2016-03-01T23:36:41.912Z</time>
</trkpt>
<trkpt lat="-27.5798802" lon="152.8081424">
<ele>14.024</ele>
<time>2016-03-01T23:36:43.910Z</time>
</trkpt>
<trkpt lat="-27.5794239" lon="152.8074529">
<ele>14.443</ele>
<time>2016-03-01T23:36:46.906Z</time>
</trkpt>
<trkpt lat="-27.5789596" lon="152.8067592">
<ele>15.325</ele>
<time>2016-03-01T23:36:49.923Z</time>
</trkpt>
<trkpt lat="-27.5784945" lon="152.8060728">
<ele>16.169</ele>
<time>2016-03-01T23:36:52.895Z</time>
</trkpt>
<trkpt lat="-27.5781650" lon="152.8055898">
<ele>16.825</ele>
<time>2016-03-01T23:36:54.955Z</time>
</trkpt>
<trkpt lat="-27.5778445" lon="152.8051056">
<ele>17.475</ele>
<time>2016-03-01T23:36:57.009Z</time>
</trkpt>
<trkpt lat="-27.5773869" lon="152.8044110">
<ele>18.265</ele>
<time>2016-03-01T23:36:59.982Z</time>
</trkpt>
<trkpt lat="-27.5770894" lon="152.8039579">
<ele>18.820</ele>
<time>2016-03-01T23:37:01.924Z</time>
</trkpt>
<trkpt lat="-27.5767963" lon="152.8034967">
<ele>18.765</ele>
<time>2016-03-01T23:37:03.842Z</time>
</trkpt>
<trkpt lat="-27.5765077" lon="152.8029993">
<ele>18.421</ele>
<time>2016-03-01T23:37:05.846Z</time>
</trkpt>
<trkpt lat="-27.5761555" lon="152.8022168">
<ele>18.191</ele>
<time>2016-03-01T23:37:08.825Z</time>
</trkpt>
<trkpt lat="-27.5759633" lon="152.8016765">
<ele>18.150</ele>
<time>2016-03-01T23:37:10.805Z</time>
</trkpt>
<trkpt lat="-27.5757898" lon="152.8011233">
<ele>18.289</ele>
<time>2016-03-01T23:37:12.793Z</time>
</trkpt>
<trkpt lat="-27.5755133" lon="152.8003068">
<ele>18.559</ele>
<time>2016-03-01T23:37:15.763Z</time>
</trkpt>
<trkpt lat="-27.5752414" lon="152.7994870">
<ele>19.153</ele>
<time>2016-03-01T23:37:18.756Z</time>
</trkpt>
<trkpt lat="-27.5750622" lon="152.7989460">
<ele>20.235</ele>
<time>2016-03-01T23:37:20.753Z</time>
</trkpt>
<trkpt lat="-27.5747857" lon="152.7981393">
<ele>21.475</ele>
<time>2016-03-01T23:37:23.752Z</time>
</trkpt>
<trkpt lat="-27.5746119" lon="152.7975966">
<ele>22.455</ele>
<time>2016-03-01T23:37:25.739Z</time>
</trkpt>
<trkpt lat="-27.5743320" lon="152.7967835">
<ele>23.043</ele>
<time>2016-03-01T23:37:28.738Z</time>
</trkpt>
<trkpt lat="-27.5741713" lon="152.7962319">
<ele>22.916</ele>
<time>2016-03-01T23:37:30.728Z</time>
</trkpt>
<trkpt lat="-27.5739523" lon="152.7953921">
<ele>21.932</ele>
<time>2016-03-01T23:37:33.742Z</time>
</trkpt>
<trkpt lat="-27.5738846" lon="152.7948363">
<ele>20.631</ele>
<time>2016-03-01T23:37:35.691Z</time>
</trkpt>
<trkpt lat="-27.5738514" lon="152.7942594">
<ele>19.380</ele>
<time>2016-03-01T23:37:37.714Z</time>
</trkpt>
<trkpt lat="-27.5738692" lon="152.7936869">
<ele>18.109</ele>
<time>2016-03-01T23:37:39.724Z</time>
</trkpt>
<trkpt lat="-27.5739712" lon="152.7928368">
<ele>17.299</ele>
<time>2016-03-01T23:37:42.739Z</time>
</trkpt>
<trkpt lat="-27.5740802" lon="152.7922896">
<ele>17.328</ele>
<time>2016-03-01T23:37:44.712Z</time>
</trkpt>
<trkpt lat="-27.5742732" lon="152.7914639">
<ele>17.730</ele>
<time>2016-03-01T23:37:47.708Z</time>
</trkpt>
<trkpt lat="-27.5744004" lon="152.7909087">
<ele>18.210</ele>
<time>2016-03-01T23:37:49.704Z</time>
</trkpt>
<trkpt lat="-27.5745993" lon="152.7900718">
<ele>19.043</ele>
<time>2016-03-01T23:37:52.727Z</time>
</trkpt>
<trkpt lat="-27.5747913" lon="152.7892489">
<ele>20.176</ele>
<time>2016-03-01T23:37:55.704Z</time>
</trkpt>
<trkpt lat="-27.5749229" lon="152.7886977">
<ele>21.160</ele>
<time>2016-03-01T23:37:57.693Z</time>
</trkpt>
<trkpt lat="-27.5751225" lon="152.7878576">
<ele>21.854</ele>
<time>2016-03-01T23:38:00.723Z</time>
</trkpt>
<trkpt lat="-27.5753189" lon="152.7870356">
<ele>22.613</ele>
<time>2016-03-01T23:38:03.713Z</time>
</trkpt>
<trkpt lat="-27.5755074" lon="152.7862201">
<ele>23.836</ele>
<time>2016-03-01T23:38:06.703Z</time>
</trkpt>
<trkpt lat="-27.5756337" lon="152.7856753">
<ele>25.540</ele>
<time>2016-03-01T23:38:08.698Z</time>
</trkpt>
<trkpt lat="-27.5757613" lon="152.7851266">
<ele>27.367</ele>
<time>2016-03-01T23:38:10.710Z</time>
</trkpt>
<trkpt lat="-27.5759605" lon="152.7843190">
<ele>28.856</ele>
<time>2016-03-01T23:38:13.695Z</time>
</trkpt>
<trkpt lat="-27.5760920" lon="152.7837857">
<ele>29.639</ele>
<time>2016-03-01T23:38:15.674Z</time>
</trkpt>
<trkpt lat="-27.5763309" lon="152.7829897">
<ele>29.605</ele>
<time>2016-03-01T23:38:18.658Z</time>
</trkpt>
<trkpt lat="-27.5765704" lon="152.7821989">
<ele>28.666</ele>
<time>2016-03-01T23:38:21.582Z</time>
</trkpt>
<trkpt lat="-27.5768207" lon="152.7813836">
<ele>26.907</ele>
<time>2016-03-01T23:38:24.583Z</time>
</trkpt>
<trkpt lat="-27.5770759" lon="152.7805731">
<ele>24.486</ele>
<time>2016-03-01T23:38:27.579Z</time>
</trkpt>
<trkpt lat="-27.5773288" lon="152.7797640">
<ele>21.287</ele>
<time>2016-03-01T23:38:30.561Z</time>
</trkpt>
<trkpt lat="-27.5775030" lon="152.7792187">
<ele>17.892</ele>
<time>2016-03-01T23:38:32.590Z</time>
</trkpt>
<trkpt lat="-27.5776791" lon="152.7786878">
<ele>15.376</ele>
<time>2016-03-01T23:38:34.585Z</time>
</trkpt>
<trkpt lat="-27.5779328" lon="152.7778818">
<ele>13.987</ele>
<time>2016-03-01T23:38:37.588Z</time>
</trkpt>
<trkpt lat="-27.5780918" lon="152.7773408">
<ele>14.035</ele>
<time>2016-03-01T23:38:39.575Z</time>
</trkpt>
<trkpt lat="-27.5782515" lon="152.7767979">
<ele>15.723</ele>
<time>2016-03-01T23:38:41.560Z</time>
</trkpt>
<trkpt lat="-27.5784738" lon="152.7759699">
<ele>18.144</ele>
<time>2016-03-01T23:38:44.551Z</time>
</trkpt>
<trkpt lat="-27.5786934" lon="152.7751451">
<ele>20.201</ele>
<time>2016-03-01T23:38:47.524Z</time>
</trkpt>
<trkpt lat="-27.5788471" lon="152.7745946">
<ele>21.427</ele>
<time>2016-03-01T23:38:49.536Z</time>
</trkpt>
<trkpt lat="-27.5789833" lon="152.7740643">
<ele>22.115</ele>
<time>2016-03-01T23:38:51.492Z</time>
</trkpt>
<trkpt lat="-27.5791918" lon="152.7732527">
<ele>23.045</ele>
<time>2016-03-01T23:38:54.522Z</time>
</trkpt>
<trkpt lat="-27.5793959" lon="152.7724634">
<ele>24.285</ele>
<time>2016-03-01T23:38:57.528Z</time>
</trkpt>
<trkpt lat="-27.5795351" lon="152.7719533">
<ele>25.366</ele>
<time>2016-03-01T23:38:59.534Z</time>
</trkpt>
<trkpt lat="-27.5796629" lon="152.7714558">
<ele>26.322</ele>
<time>2016-03-01T23:39:01.517Z</time>
</trkpt>
<trkpt lat="-27.5797809" lon="152.7709601">
<ele>27.345</ele>
<time>2016-03-01T23:39:03.466Z</time>
</trkpt>
<trkpt lat="-27.5798894" lon="152.7704293">
<ele>28.168</ele>
<time>2016-03-01T23:39:05.491Z</time>
</trkpt>
<trkpt lat="-27.5800855" lon="152.7696486">
<ele>28.581</ele>
<time>2016-03-01T23:39:08.474Z</time>
</trkpt>
<trkpt lat="-27.5802910" lon="152.7688607">
<ele>28.856</ele>
<time>2016-03-01T23:39:11.447Z</time>
</trkpt>
<trkpt lat="-27.5804551" lon="152.7680379">
<ele>29.997</ele>
<time>2016-03-01T23:39:14.448Z</time>
</trkpt>
<trkpt lat="-27.5805214" lon="152.7671983">
<ele>33.000</ele>
<time>2016-03-01T23:39:17.414Z</time>
</trkpt>
<trkpt lat="-27.5805691" lon="152.7666228">
<ele>37.119</ele>
<time>2016-03-01T23:39:19.432Z</time>
</trkpt>
<trkpt lat="-27.5806382" lon="152.7660531">
<ele>40.903</ele>
<time>2016-03-01T23:39:21.438Z</time>
</trkpt>
<trkpt lat="-27.5808096" lon="152.7652193">
<ele>43.794</ele>
<time>2016-03-01T23:39:24.427Z</time>
</trkpt>
<trkpt lat="-27.5809995" lon="152.7643871">
<ele>45.521</ele>
<time>2016-03-01T23:39:27.423Z</time>
</trkpt>
<trkpt lat="-27.5811949" lon="152.7635500">
<ele>46.029</ele>
<time>2016-03-01T23:39:30.427Z</time>
</trkpt>
<trkpt lat="-27.5813139" lon="152.7629869">
<ele>45.598</ele>
<time>2016-03-01T23:39:32.427Z</time>
</trkpt>
<trkpt lat="-27.5814404" lon="152.7624294">
<ele>44.579</ele>
<time>2016-03-01T23:39:34.411Z</time>
</trkpt>
<trkpt lat="-27.5816209" lon="152.7615841">
<ele>43.570</ele>
<time>2016-03-01T23:39:37.411Z</time>
</trkpt>
<trkpt lat="-27.5817099" lon="152.7610224">
<ele>42.997</ele>
<time>2016-03-01T23:39:39.378Z</time>
</trkpt>
<trkpt lat="-27.5817511" lon="152.7604352">
<ele>42.955</ele>
<time>2016-03-01T23:39:41.392Z</time>
</trkpt>
<trkpt lat="-27.5817722" lon="152.7595468">
<ele>43.582</ele>
<time>2016-03-01T23:39:44.426Z</time>
</trkpt>
<trkpt lat="-27.5817770" lon="152.7589761">
<ele>44.920</ele>
<time>2016-03-01T23:39:46.393Z</time>
</trkpt>
<trkpt lat="-27.5817704" lon="152.7581104">
<ele>46.661</ele>
<time>2016-03-01T23:39:49.377Z</time>
</trkpt>
<trkpt lat="-27.5816738" lon="152.7572450">
<ele>48.412</ele>
<time>2016-03-01T23:39:52.363Z</time>
</trkpt>
<trkpt lat="-27.5814733" lon="152.7563939">
<ele>49.924</ele>
<time>2016-03-01T23:39:55.367Z</time>
</trkpt>
<trkpt lat="-27.5812805" lon="152.7558473">
<ele>51.832</ele>
<time>2016-03-01T23:39:57.347Z</time>
</trkpt>
<trkpt lat="-27.5809555" lon="152.7550239">
<ele>54.681</ele>
<time>2016-03-01T23:40:00.377Z</time>
</trkpt>
<trkpt lat="-27.5807767" lon="152.7541938">
<ele>57.953</ele>
<time>2016-03-01T23:40:03.269Z</time>
</trkpt>
<trkpt lat="-27.5807030" lon="152.7535956">
<ele>61.109</ele>
<time>2016-03-01T23:40:05.313Z</time>
</trkpt>
<trkpt lat="-27.5806648" lon="152.7527168">
<ele>63.839</ele>
<time>2016-03-01T23:40:08.300Z</time>
</trkpt>
<trkpt lat="-27.5806365" lon="152.7518514">
<ele>65.442</ele>
<time>2016-03-01T23:40:11.276Z</time>
</trkpt>
<trkpt lat="-27.5805896" lon="152.7512765">
<ele>65.706</ele>
<time>2016-03-01T23:40:13.271Z</time>
</trkpt>
<trkpt lat="-27.5804401" lon="152.7504279">
<ele>64.886</ele>
<time>2016-03-01T23:40:16.257Z</time>
</trkpt>
<trkpt lat="-27.5802831" lon="152.7498731">
<ele>63.242</ele>
<time>2016-03-01T23:40:18.257Z</time>
</trkpt>
<trkpt lat="-27.5800795" lon="152.7493379">
<ele>61.281</ele>
<time>2016-03-01T23:40:20.247Z</time>
</trkpt>
<trkpt lat="-27.5798647" lon="152.7487978">
<ele>59.669</ele>
<time>2016-03-01T23:40:22.249Z</time>
</trkpt>
<trkpt lat="-27.5796672" lon="152.7482423">
<ele>57.978</ele>
<time>2016-03-01T23:40:24.236Z</time>
</trkpt>
<trkpt lat="-27.5794428" lon="152.7473493">
<ele>55.136</ele>
<time>2016-03-01T23:40:27.272Z</time>
</trkpt>
<trkpt lat="-27.5793823" lon="152.7464382">
<ele>51.719</ele>
<time>2016-03-01T23:40:30.252Z</time>
</trkpt>
<trkpt lat="-27.5793678" lon="152.7458439">
<ele>48.952</ele>
<time>2016-03-01T23:40:32.230Z</time>
</trkpt>
<trkpt lat="-27.5793582" lon="152.7452615">
<ele>46.622</ele>
<time>2016-03-01T23:40:34.198Z</time>
</trkpt>
<trkpt lat="-27.5793486" lon="152.7446726">
<ele>43.902</ele>
<time>2016-03-01T23:40:36.193Z</time>
</trkpt>
<trkpt lat="-27.5793310" lon="152.7438026">
<ele>40.813</ele>
<time>2016-03-01T23:40:39.148Z</time>
</trkpt>
<trkpt lat="-27.5793142" lon="152.7432133">
<ele>37.908</ele>
<time>2016-03-01T23:40:41.161Z</time>
</trkpt>
<trkpt lat="-27.5792948" lon="152.7423369">
<ele>35.748</ele>
<time>2016-03-01T23:40:44.157Z</time>
</trkpt>
<trkpt lat="-27.5792762" lon="152.7417592">
<ele>34.768</ele>
<time>2016-03-01T23:40:46.162Z</time>
</trkpt>
<trkpt lat="-27.5792529" lon="152.7409378">
<ele>34.888</ele>
<time>2016-03-01T23:40:49.068Z</time>
</trkpt>
<trkpt lat="-27.5792480" lon="152.7400904">
<ele>35.365</ele>
<time>2016-03-01T23:40:52.068Z</time>
</trkpt>
<trkpt lat="-27.5792699" lon="152.7395090">
<ele>35.648</ele>
<time>2016-03-01T23:40:54.088Z</time>
</trkpt>
<trkpt lat="-27.5793991" lon="152.7386602">
<ele>35.842</ele>
<time>2016-03-01T23:40:57.077Z</time>
</trkpt>
<trkpt lat="-27.5795306" lon="152.7381062">
<ele>36.486</ele>
<time>2016-03-01T23:40:59.083Z</time>
</trkpt>
<trkpt lat="-27.5797257" lon="152.7372860">
<ele>37.645</ele>
<time>2016-03-01T23:41:02.070Z</time>
</trkpt>
<trkpt lat="-27.5798488" lon="152.7367469">
<ele>38.587</ele>
<time>2016-03-01T23:41:04.042Z</time>
</trkpt>
<trkpt lat="-27.5800220" lon="152.7359092">
<ele>38.560</ele>
<time>2016-03-01T23:41:07.062Z</time>
</trkpt>
<trkpt lat="-27.5801565" lon="152.7353505">
<ele>37.674</ele>
<time>2016-03-01T23:41:09.058Z</time>
</trkpt>
<trkpt lat="-27.5803591" lon="152.7345181">
<ele>36.843</ele>
<time>2016-03-01T23:41:12.041Z</time>
</trkpt>
<trkpt lat="-27.5804907" lon="152.7339582">
<ele>36.794</ele>
<time>2016-03-01T23:41:14.071Z</time>
</trkpt>
<trkpt lat="-27.5806333" lon="152.7331280">
<ele>37.565</ele>
<time>2016-03-01T23:41:17.057Z</time>
</trkpt>
<trkpt lat="-27.5807325" lon="152.7322898">
<ele>38.899</ele>
<time>2016-03-01T23:41:20.042Z</time>
</trkpt>
<trkpt lat="-27.5807710" lon="152.7317261">
<ele>40.440</ele>
<time>2016-03-01T23:41:22.036Z</time>
</trkpt>
<trkpt lat="-27.5807834" lon="152.7311612">
<ele>41.762</ele>
<time>2016-03-01T23:41:24.053Z</time>
</trkpt>
<trkpt lat="-27.5807556" lon="152.7303466">
<ele>42.685</ele>
<time>2016-03-01T23:41:27.056Z</time>
</trkpt>
<trkpt lat="-27.5807148" lon="152.7298496">
<ele>43.613</ele>
<time>2016-03-01T23:41:29.000Z</time>
</trkpt>
<trkpt lat="-27.5806429" lon="152.7291019">
<ele>44.841</ele>
<time>2016-03-01T23:41:31.997Z</time>
</trkpt>
<trkpt lat="-27.5805718" lon="152.7283685">
<ele>46.241</ele>
<time>2016-03-01T23:41:34.971Z</time>
</trkpt>
<trkpt lat="-27.5805198" lon="152.7278819">
<ele>48.056</ele>
<time>2016-03-01T23:41:36.952Z</time>
</trkpt>
<trkpt lat="-27.5804483" lon="152.7271475">
<ele>50.962</ele>
<time>2016-03-01T23:41:39.935Z</time>
</trkpt>
<trkpt lat="-27.5804000" lon="152.7266587">
<ele>54.891</ele>
<time>2016-03-01T23:41:41.928Z</time>
</trkpt>
<trkpt lat="-27.5803297" lon="152.7259304">
<ele>58.728</ele>
<time>2016-03-01T23:41:44.913Z</time>
</trkpt>
<trkpt lat="-27.5802669" lon="152.7252054">
<ele>61.576</ele>
<time>2016-03-01T23:41:47.908Z</time>
</trkpt>
<trkpt lat="-27.5802096" lon="152.7244852">
<ele>63.351</ele>
<time>2016-03-01T23:41:50.905Z</time>
</trkpt>
<trkpt lat="-27.5801794" lon="152.7240115">
<ele>64.262</ele>
<time>2016-03-01T23:41:52.884Z</time>
</trkpt>
<trkpt lat="-27.5801765" lon="152.7235288">
<ele>64.606</ele>
<time>2016-03-01T23:41:54.904Z</time>
</trkpt>
<trkpt lat="-27.5801815" lon="152.7230558">
<ele>64.611</ele>
<time>2016-03-01T23:41:56.903Z</time>
</trkpt>
<trkpt lat="-27.5801454" lon="152.7223718">
<ele>64.394</ele>
<time>2016-03-01T23:41:59.855Z</time>
</trkpt>
<trkpt lat="-27.5801058" lon="152.7219285">
<ele>63.672</ele>
<time>2016-03-01T23:42:01.816Z</time>
</trkpt>
<trkpt lat="-27.5800397" lon="152.7212480">
<ele>62.237</ele>
<time>2016-03-01T23:42:04.823Z</time>
</trkpt>
<trkpt lat="-27.5800009" lon="152.7207893">
<ele>60.445</ele>
<time>2016-03-01T23:42:06.820Z</time>
</trkpt>
<trkpt lat="-27.5799606" lon="152.7203208">
<ele>58.351</ele>
<time>2016-03-01T23:42:08.846Z</time>
</trkpt>
<trkpt lat="-27.5798951" lon="152.7196437">
<ele>56.081</ele>
<time>2016-03-01T23:42:11.790Z</time>
</trkpt>
<trkpt lat="-27.5798300" lon="152.7189497">
<ele>53.560</ele>
<time>2016-03-01T23:42:14.815Z</time>
</trkpt>
<trkpt lat="-27.5797621" lon="152.7182683">
<ele>50.505</ele>
<time>2016-03-01T23:42:17.777Z</time>
</trkpt>
<trkpt lat="-27.5797235" lon="152.7178079">
<ele>47.406</ele>
<time>2016-03-01T23:42:19.774Z</time>
</trkpt>
<trkpt lat="-27.5796611" lon="152.7171203">
<ele>44.725</ele>
<time>2016-03-01T23:42:22.773Z</time>
</trkpt>
<trkpt lat="-27.5796390" lon="152.7166872">
<ele>41.810</ele>
<time>2016-03-01T23:42:24.704Z</time>
</trkpt>
<trkpt lat="-27.5795811" lon="152.7162603">
<ele>38.440</ele>
<time>2016-03-01T23:42:26.677Z</time>
</trkpt>
<trkpt lat="-27.5794724" lon="152.7156323">
<ele>35.450</ele>
<time>2016-03-01T23:42:29.615Z</time>
</trkpt>
<trkpt lat="-27.5793023" lon="152.7149819">
<ele>33.555</ele>
<time>2016-03-01T23:42:32.685Z</time>
</trkpt>
<trkpt lat="-27.5791821" lon="152.7145502">
<ele>32.468</ele>
<time>2016-03-01T23:42:34.723Z</time>
</trkpt>
<trkpt lat="-27.5789997" lon="152.7139159">
<ele>31.841</ele>
<time>2016-03-01T23:42:37.703Z</time>
</trkpt>
<trkpt lat="-27.5788113" lon="152.7132605">
<ele>31.565</ele>
<time>2016-03-01T23:42:40.712Z</time>
</trkpt>
<trkpt lat="-27.5786901" lon="152.7128230">
<ele>31.608</ele>
<time>2016-03-01T23:42:42.700Z</time>
</trkpt>
<trkpt lat="-27.5785057" lon="152.7121780">
<ele>31.975</ele>
<time>2016-03-01T23:42:45.653Z</time>
</trkpt>
<trkpt lat="-27.5783211" lon="152.7115102">
<ele>32.733</ele>
<time>2016-03-01T23:42:48.678Z</time>
</trkpt>
<trkpt lat="-27.5781933" lon="152.7110684">
<ele>34.188</ele>
<time>2016-03-01T23:42:50.660Z</time>
</trkpt>
<trkpt lat="-27.5780174" lon="152.7103823">
<ele>36.444</ele>
<time>2016-03-01T23:42:53.675Z</time>
</trkpt>
<trkpt lat="-27.5778603" lon="152.7096741">
<ele>39.054</ele>
<time>2016-03-01T23:42:56.714Z</time>
</trkpt>
<trkpt lat="-27.5777592" lon="152.7092003">
<ele>41.439</ele>
<time>2016-03-01T23:42:58.720Z</time>
</trkpt>
<trkpt lat="-27.5776670" lon="152.7087455">
<ele>43.330</ele>
<time>2016-03-01T23:43:00.643Z</time>
</trkpt>
<trkpt lat="-27.5775775" lon="152.7082773">
<ele>44.628</ele>
<time>2016-03-01T23:43:02.624Z</time>
</trkpt>
<trkpt lat="-27.5774350" lon="152.7075707">
<ele>45.298</ele>
<time>2016-03-01T23:43:05.600Z</time>
</trkpt>
<trkpt lat="-27.5773057" lon="152.7068260">
<ele>45.661</ele>
<time>2016-03-01T23:43:08.642Z</time>
</trkpt>
<trkpt lat="-27.5771892" lon="152.7060708">
<ele>46.233</ele>
<time>2016-03-01T23:43:11.686Z</time>
</trkpt>
<trkpt lat="-27.5771032" lon="152.7053751">
<ele>47.277</ele>
<time>2016-03-01T23:43:14.624Z</time>
</trkpt>
<trkpt lat="-27.5770521" lon="152.7049455">
<ele>48.755</ele>
<time>2016-03-01T23:43:16.577Z</time>
</trkpt>
<trkpt lat="-27.5769408" lon="152.7042969">
<ele>50.175</ele>
<time>2016-03-01T23:43:19.593Z</time>
</trkpt>
<trkpt lat="-27.5768634" lon="152.7038430">
<ele>51.047</ele>
<time>2016-03-01T23:43:21.636Z</time>
</trkpt>
<trkpt lat="-27.5767905" lon="152.7034008">
<ele>51.626</ele>
<time>2016-03-01T23:43:23.643Z</time>
</trkpt>
<trkpt lat="-27.5767395" lon="152.7027764">
<ele>52.240</ele>
<time>2016-03-01T23:43:26.600Z</time>
</trkpt>
<trkpt lat="-27.5766868" lon="152.7022125">
<ele>52.461</ele>
<time>2016-03-01T23:43:29.526Z</time>
</trkpt>
<trkpt lat="-27.5766093" lon="152.7018515">
<ele>51.667</ele>
<time>2016-03-01T23:43:31.517Z</time>
</trkpt>
<trkpt lat="-27.5764042" lon="152.7013182">
<ele>50.215</ele>
<time>2016-03-01T23:43:34.586Z</time>
</trkpt>
<trkpt lat="-27.5763003" lon="152.7007536">
<ele>49.128</ele>
<time>2016-03-01T23:43:37.701Z</time>
</trkpt>
<trkpt lat="-27.5762732" lon="152.7004220">
<ele>48.838</ele>
<time>2016-03-01T23:43:39.679Z</time>
</trkpt>
<trkpt lat="-27.5762706" lon="152.7000052">
<ele>48.996</ele>
<time>2016-03-01T23:43:42.452Z</time>
</trkpt>
<trkpt lat="-27.5763321" lon="152.6996509">
<ele>49.320</ele>
<time>2016-03-01T23:43:45.288Z</time>
</trkpt>
<trkpt lat="-27.5764491" lon="152.6994622">
<ele>49.829</ele>
<time>2016-03-01T23:43:47.286Z</time>
</trkpt>
<trkpt lat="-27.5767122" lon="152.6993479">
<ele>50.467</ele>
<time>2016-03-01T23:43:50.147Z</time>
</trkpt>
<trkpt lat="-27.5769060" lon="152.6994090">
<ele>51.160</ele>
<time>2016-03-01T23:43:52.233Z</time>
</trkpt>
<trkpt lat="-27.5771271" lon="152.6996186">
<ele>51.870</ele>
<time>2016-03-01T23:43:55.195Z</time>
</trkpt>
<trkpt lat="-27.5771925" lon="152.6998473">
<ele>52.545</ele>
<time>2016-03-01T23:43:57.334Z</time>
</trkpt>
<trkpt lat="-27.5770883" lon="152.7001741">
<ele>53.191</ele>
<time>2016-03-01T23:44:00.402Z</time>
</trkpt>
<trkpt lat="-27.5769382" lon="152.7003277">
<ele>53.830</ele>
<time>2016-03-01T23:44:02.365Z</time>
</trkpt>
<trkpt lat="-27.5765865" lon="152.7004024">
<ele>54.529</ele>
<time>2016-03-01T23:44:05.507Z</time>
</trkpt>
<trkpt lat="-27.5761814" lon="152.7003383">
<ele>55.624</ele>
<time>2016-03-01T23:44:08.672Z</time>
</trkpt>
<trkpt lat="-27.5757908" lon="152.7002340">
<ele>57.223</ele>
<time>2016-03-01T23:44:11.605Z</time>
</trkpt>
<trkpt lat="-27.5755073" lon="152.7001605">
<ele>58.849</ele>
<time>2016-03-01T23:44:13.630Z</time>
</trkpt>
<trkpt lat="-27.5750627" lon="152.6999209">
<ele>59.936</ele>
<time>2016-03-01T23:44:16.805Z</time>
</trkpt>
<trkpt lat="-27.5746548" lon="152.6996147">
<ele>60.371</ele>
<time>2016-03-01T23:44:19.773Z</time>
</trkpt>
<trkpt lat="-27.5742588" lon="152.6992313">
<ele>60.254</ele>
<time>2016-03-01T23:44:22.793Z</time>
</trkpt>
<trkpt lat="-27.5738428" lon="152.6987958">
<ele>59.739</ele>
<time>2016-03-01T23:44:25.887Z</time>
</trkpt>
<trkpt lat="-27.5734129" lon="152.6983669">
<ele>59.207</ele>
<time>2016-03-01T23:44:28.902Z</time>
</trkpt>
<trkpt lat="-27.5731277" lon="152.6980673">
<ele>59.049</ele>
<time>2016-03-01T23:44:30.919Z</time>
</trkpt>
<trkpt lat="-27.5726334" lon="152.6975610">
<ele>59.349</ele>
<time>2016-03-01T23:44:34.005Z</time>
</trkpt>
<trkpt lat="-27.5722318" lon="152.6971618">
<ele>60.527</ele>
<time>2016-03-01T23:44:36.192Z</time>
</trkpt>
<trkpt lat="-27.5718479" lon="152.6967806">
<ele>62.986</ele>
<time>2016-03-01T23:44:38.216Z</time>
</trkpt>
<trkpt lat="-27.5714698" lon="152.6964074">
<ele>66.311</ele>
<time>2016-03-01T23:44:40.178Z</time>
</trkpt>
<trkpt lat="-27.5708593" lon="152.6958277">
<ele>69.413</ele>
<time>2016-03-01T23:44:43.221Z</time>
</trkpt>
<trkpt lat="-27.5704341" lon="152.6954267">
<ele>72.153</ele>
<time>2016-03-01T23:44:45.258Z</time>
</trkpt>
<trkpt lat="-27.5700077" lon="152.6950155">
<ele>74.896</ele>
<time>2016-03-01T23:44:47.304Z</time>
</trkpt>
<trkpt lat="-27.5695878" lon="152.6946288">
<ele>76.101</ele>
<time>2016-03-01T23:44:49.314Z</time>
</trkpt>
<trkpt lat="-27.5689669" lon="152.6940760">
<ele>74.520</ele>
<time>2016-03-01T23:44:52.292Z</time>
</trkpt>
<trkpt lat="-27.5685593" lon="152.6937084">
<ele>72.350</ele>
<time>2016-03-01T23:44:54.269Z</time>
</trkpt>
<trkpt lat="-27.5681454" lon="152.6933355">
<ele>71.942</ele>
<time>2016-03-01T23:44:56.276Z</time>
</trkpt>
<trkpt lat="-27.5675401" lon="152.6927769">
<ele>73.238</ele>
<time>2016-03-01T23:44:59.256Z</time>
</trkpt>
<trkpt lat="-27.5671478" lon="152.6923977">
<ele>75.420</ele>
<time>2016-03-01T23:45:01.250Z</time>
</trkpt>
<trkpt lat="-27.5665047" lon="152.6919198">
<ele>77.882</ele>
<time>2016-03-01T23:45:04.230Z</time>
</trkpt>
<trkpt lat="-27.5660444" lon="152.6916306">
<ele>80.295</ele>
<time>2016-03-01T23:45:06.259Z</time>
</trkpt>
<trkpt lat="-27.5655919" lon="152.6913951">
<ele>82.664</ele>
<time>2016-03-01T23:45:08.189Z</time>
</trkpt>
<trkpt lat="-27.5648887" lon="152.6911251">
<ele>85.073</ele>
<time>2016-03-01T23:45:11.104Z</time>
</trkpt>
<trkpt lat="-27.5641797" lon="152.6909593">
<ele>87.275</ele>
<time>2016-03-01T23:45:14.009Z</time>
</trkpt>
<trkpt lat="-27.5637104" lon="152.6908817">
<ele>89.356</ele>
<time>2016-03-01T23:45:15.957Z</time>
</trkpt>
<trkpt lat="-27.5632363" lon="152.6907976">
<ele>91.488</ele>
<time>2016-03-01T23:45:17.930Z</time>
</trkpt>
<trkpt lat="-27.5625140" lon="152.6906836">
<ele>93.185</ele>
<time>2016-03-01T23:45:20.892Z</time>
</trkpt>
<trkpt lat="-27.5620161" lon="152.6906003">
<ele>94.403</ele>
<time>2016-03-01T23:45:22.882Z</time>
</trkpt>
<trkpt lat="-27.5612445" lon="152.6904714">
<ele>95.845</ele>
<time>2016-03-01T23:45:25.906Z</time>
</trkpt>
<trkpt lat="-27.5607197" lon="152.6903895">
<ele>97.347</ele>
<time>2016-03-01T23:45:27.940Z</time>
</trkpt>
<trkpt lat="-27.5602051" lon="152.6903114">
<ele>98.136</ele>
<time>2016-03-01T23:45:29.947Z</time>
</trkpt>
<trkpt lat="-27.5594382" lon="152.6901802">
<ele>98.077</ele>
<time>2016-03-01T23:45:32.978Z</time>
</trkpt>
<trkpt lat="-27.5589404" lon="152.6900740">
<ele>97.608</ele>
<time>2016-03-01T23:45:34.970Z</time>
</trkpt>
<trkpt lat="-27.5582231" lon="152.6898444">
<ele>97.115</ele>
<time>2016-03-01T23:45:37.944Z</time>
</trkpt>
<trkpt lat="-27.5575547" lon="152.6895269">
<ele>96.749</ele>
<time>2016-03-01T23:45:40.884Z</time>
</trkpt>
<trkpt lat="-27.5571154" lon="152.6892804">
<ele>96.825</ele>
<time>2016-03-01T23:45:42.885Z</time>
</trkpt>
<trkpt lat="-27.5566693" lon="152.6890408">
<ele>97.505</ele>
<time>2016-03-01T23:45:44.905Z</time>
</trkpt>
<trkpt lat="-27.5559997" lon="152.6887442">
<ele>98.290</ele>
<time>2016-03-01T23:45:47.868Z</time>
</trkpt>
<trkpt lat="-27.5555481" lon="152.6885561">
<ele>97.891</ele>
<time>2016-03-01T23:45:49.876Z</time>
</trkpt>
<trkpt lat="-27.5550995" lon="152.6883967">
<ele>95.839</ele>
<time>2016-03-01T23:45:51.862Z</time>
</trkpt>
<trkpt lat="-27.5546463" lon="152.6882401">
<ele>93.091</ele>
<time>2016-03-01T23:45:53.875Z</time>
</trkpt>
<trkpt lat="-27.5539586" lon="152.6880026">
<ele>90.588</ele>
<time>2016-03-01T23:45:56.908Z</time>
</trkpt>
<trkpt lat="-27.5535003" lon="152.6878346">
<ele>88.071</ele>
<time>2016-03-01T23:45:58.904Z</time>
</trkpt>
<trkpt lat="-27.5530221" lon="152.6876399">
<ele>85.045</ele>
<time>2016-03-01T23:46:00.969Z</time>
</trkpt>
<trkpt lat="-27.5523266" lon="152.6872899">
<ele>81.877</ele>
<time>2016-03-01T23:46:04.038Z</time>
</trkpt>
<trkpt lat="-27.5516880" lon="152.6869022">
<ele>79.301</ele>
<time>2016-03-01T23:46:07.023Z</time>
</trkpt>
<trkpt lat="-27.5512877" lon="152.6866544">
<ele>76.556</ele>
<time>2016-03-01T23:46:08.981Z</time>
</trkpt>
<trkpt lat="-27.5508856" lon="152.6864118">
<ele>72.759</ele>
<time>2016-03-01T23:46:11.030Z</time>
</trkpt>
<trkpt lat="-27.5503845" lon="152.6860473">
<ele>68.535</ele>
<time>2016-03-01T23:46:13.863Z</time>
</trkpt>
<trkpt lat="-27.5500447" lon="152.6858226">
<ele>64.583</ele>
<time>2016-03-01T23:46:15.810Z</time>
</trkpt>
<trkpt lat="-27.5496708" lon="152.6855662">
<ele>61.243</ele>
<time>2016-03-01T23:46:17.867Z</time>
</trkpt>
<trkpt lat="-27.5490664" lon="152.6851684">
<ele>59.599</ele>
<time>2016-03-01T23:46:20.933Z</time>
</trkpt>
<trkpt lat="-27.5486116" lon="152.6848536">
<ele>60.459</ele>
<time>2016-03-01T23:46:23.115Z</time>
</trkpt>
<trkpt lat="-27.5481910" lon="152.6845504">
<ele>62.851</ele>
<time>2016-03-01T23:46:25.122Z</time>
</trkpt>
<trkpt lat="-27.5475129" lon="152.6841245">
<ele>64.693</ele>
<time>2016-03-01T23:46:28.240Z</time>
</trkpt>
<trkpt lat="-27.5470858" lon="152.6838592">
<ele>64.986</ele>
<time>2016-03-01T23:46:30.207Z</time>
</trkpt>
<trkpt lat="-27.5466394" lon="152.6836163">
<ele>64.099</ele>
<time>2016-03-01T23:46:32.207Z</time>
</trkpt>
<trkpt lat="-27.5459802" lon="152.6832461">
<ele>62.532</ele>
<time>2016-03-01T23:46:35.172Z</time>
</trkpt>
<trkpt lat="-27.5453145" lon="152.6828650">
<ele>60.833</ele>
<time>2016-03-01T23:46:38.164Z</time>
</trkpt>
<trkpt lat="-27.5448665" lon="152.6826203">
<ele>59.404</ele>
<time>2016-03-01T23:46:40.152Z</time>
</trkpt>
<trkpt lat="-27.5442028" lon="152.6822338">
<ele>58.303</ele>
<time>2016-03-01T23:46:43.130Z</time>
</trkpt>
<trkpt lat="-27.5435334" lon="152.6818290">
<ele>57.295</ele>
<time>2016-03-01T23:46:46.143Z</time>
</trkpt>
<trkpt lat="-27.5428589" lon="152.6814195">
<ele>56.311</ele>
<time>2016-03-01T23:46:49.153Z</time>
</trkpt>
<trkpt lat="-27.5424068" lon="152.6811401">
<ele>55.772</ele>
<time>2016-03-01T23:46:51.175Z</time>
</trkpt>
<trkpt lat="-27.5417498" lon="152.6807369">
<ele>55.840</ele>
<time>2016-03-01T23:46:54.136Z</time>
</trkpt>
<trkpt lat="-27.5410935" lon="152.6803227">
<ele>56.115</ele>
<time>2016-03-01T23:46:57.141Z</time>
</trkpt>
<trkpt lat="-27.5404475" lon="152.6799193">
<ele>56.371</ele>
<time>2016-03-01T23:47:00.094Z</time>
</trkpt>
<trkpt lat="-27.5397932" lon="152.6795040">
<ele>56.528</ele>
<time>2016-03-01T23:47:03.092Z</time>
</trkpt>
<trkpt lat="-27.5393422" lon="152.6792434">
<ele>56.290</ele>
<time>2016-03-01T23:47:05.099Z</time>
</trkpt>
<trkpt lat="-27.5388394" lon="152.6790023">
<ele>55.062</ele>
<time>2016-03-01T23:47:07.245Z</time>
</trkpt>
<trkpt lat="-27.5383831" lon="152.6787602">
<ele>52.881</ele>
<time>2016-03-01T23:47:09.220Z</time>
</trkpt>
<trkpt lat="-27.5376842" lon="152.6784006">
<ele>50.754</ele>
<time>2016-03-01T23:47:12.232Z</time>
</trkpt>
<trkpt lat="-27.5369875" lon="152.6780436">
<ele>48.874</ele>
<time>2016-03-01T23:47:15.254Z</time>
</trkpt>
<trkpt lat="-27.5363139" lon="152.6777080">
<ele>46.634</ele>
<time>2016-03-01T23:47:18.202Z</time>
</trkpt>
<trkpt lat="-27.5358657" lon="152.6774667">
<ele>44.292</ele>
<time>2016-03-01T23:47:20.204Z</time>
</trkpt>
<trkpt lat="-27.5351868" lon="152.6771321">
<ele>42.432</ele>
<time>2016-03-01T23:47:23.192Z</time>
</trkpt>
<trkpt lat="-27.5347276" lon="152.6769162">
<ele>40.568</ele>
<time>2016-03-01T23:47:25.188Z</time>
</trkpt>
<trkpt lat="-27.5340086" lon="152.6766615">
<ele>38.443</ele>
<time>2016-03-01T23:47:28.194Z</time>
</trkpt>
<trkpt lat="-27.5335168" lon="152.6765280">
<ele>36.756</ele>
<time>2016-03-01T23:47:30.196Z</time>
</trkpt>
<trkpt lat="-27.5330163" lon="152.6764165">
<ele>36.129</ele>
<time>2016-03-01T23:47:32.207Z</time>
</trkpt>
<trkpt lat="-27.5322641" lon="152.6762555">
<ele>36.776</ele>
<time>2016-03-01T23:47:35.233Z</time>
</trkpt>
<trkpt lat="-27.5315289" lon="152.6760967">
<ele>38.391</ele>
<time>2016-03-01T23:47:38.227Z</time>
</trkpt>
<trkpt lat="-27.5308073" lon="152.6759457">
<ele>39.704</ele>
<time>2016-03-01T23:47:41.196Z</time>
</trkpt>
<trkpt lat="-27.5300859" lon="152.6757817">
<ele>39.941</ele>
<time>2016-03-01T23:47:44.196Z</time>
</trkpt>
<trkpt lat="-27.5296160" lon="152.6756713">
<ele>39.783</ele>
<time>2016-03-01T23:47:46.160Z</time>
</trkpt>
<trkpt lat="-27.5291240" lon="152.6755733">
<ele>40.081</ele>
<time>2016-03-01T23:47:48.194Z</time>
</trkpt>
<trkpt lat="-27.5283924" lon="152.6754121">
<ele>40.821</ele>
<time>2016-03-01T23:47:51.212Z</time>
</trkpt>
<trkpt lat="-27.5278936" lon="152.6753096">
<ele>41.525</ele>
<time>2016-03-01T23:47:53.238Z</time>
</trkpt>
<trkpt lat="-27.5271570" lon="152.6751512">
<ele>41.908</ele>
<time>2016-03-01T23:47:56.214Z</time>
</trkpt>
<trkpt lat="-27.5264206" lon="152.6749820">
<ele>41.716</ele>
<time>2016-03-01T23:47:59.182Z</time>
</trkpt>
<trkpt lat="-27.5256672" lon="152.6748188">
<ele>40.730</ele>
<time>2016-03-01T23:48:02.205Z</time>
</trkpt>
<trkpt lat="-27.5251746" lon="152.6747095">
<ele>39.358</ele>
<time>2016-03-01T23:48:04.199Z</time>
</trkpt>
<trkpt lat="-27.5246874" lon="152.6745979">
<ele>38.510</ele>
<time>2016-03-01T23:48:06.194Z</time>
</trkpt>
<trkpt lat="-27.5239575" lon="152.6744461">
<ele>38.505</ele>
<time>2016-03-01T23:48:09.188Z</time>
</trkpt>
<trkpt lat="-27.5234617" lon="152.6743529">
<ele>38.751</ele>
<time>2016-03-01T23:48:11.210Z</time>
</trkpt>
<trkpt lat="-27.5227191" lon="152.6742248">
<ele>38.712</ele>
<time>2016-03-01T23:48:14.210Z</time>
</trkpt>
<trkpt lat="-27.5222235" lon="152.6741425">
<ele>38.527</ele>
<time>2016-03-01T23:48:16.191Z</time>
</trkpt>
<trkpt lat="-27.5214683" lon="152.6740322">
<ele>38.680</ele>
<time>2016-03-01T23:48:19.219Z</time>
</trkpt>
<trkpt lat="-27.5207476" lon="152.6738871">
<ele>39.581</ele>
<time>2016-03-01T23:48:22.171Z</time>
</trkpt>
<trkpt lat="-27.5200316" lon="152.6736401">
<ele>41.098</ele>
<time>2016-03-01T23:48:25.190Z</time>
</trkpt>
<trkpt lat="-27.5195639" lon="152.6734287">
<ele>43.066</ele>
<time>2016-03-01T23:48:27.193Z</time>
</trkpt>
<trkpt lat="-27.5190999" lon="152.6731775">
<ele>45.513</ele>
<time>2016-03-01T23:48:29.220Z</time>
</trkpt>
<trkpt lat="-27.5184156" lon="152.6728037">
<ele>48.042</ele>
<time>2016-03-01T23:48:32.212Z</time>
</trkpt>
<trkpt lat="-27.5179655" lon="152.6725593">
<ele>50.178</ele>
<time>2016-03-01T23:48:34.191Z</time>
</trkpt>
<trkpt lat="-27.5173017" lon="152.6721969">
<ele>51.932</ele>
<time>2016-03-01T23:48:37.118Z</time>
</trkpt>
<trkpt lat="-27.5166141" lon="152.6718327">
<ele>53.887</ele>
<time>2016-03-01T23:48:40.123Z</time>
</trkpt>
<trkpt lat="-27.5161560" lon="152.6715885">
<ele>56.502</ele>
<time>2016-03-01T23:48:42.118Z</time>
</trkpt>
<trkpt lat="-27.5154721" lon="152.6712194">
<ele>59.456</ele>
<time>2016-03-01T23:48:45.112Z</time>
</trkpt>
<trkpt lat="-27.5150329" lon="152.6709672">
<ele>62.569</ele>
<time>2016-03-01T23:48:47.073Z</time>
</trkpt>
<trkpt lat="-27.5145673" lon="152.6707242">
<ele>65.729</ele>
<time>2016-03-01T23:48:49.115Z</time>
</trkpt>
<trkpt lat="-27.5138896" lon="152.6703583">
<ele>68.293</ele>
<time>2016-03-01T23:48:52.101Z</time>
</trkpt>
<trkpt lat="-27.5134270" lon="152.6701262">
<ele>70.560</ele>
<time>2016-03-01T23:48:54.125Z</time>
</trkpt>
<trkpt lat="-27.5127554" lon="152.6698317">
<ele>73.019</ele>
<time>2016-03-01T23:48:57.043Z</time>
</trkpt>
<trkpt lat="-27.5122927" lon="152.6696852">
<ele>74.924</ele>
<time>2016-03-01T23:48:59.002Z</time>
</trkpt>
<trkpt lat="-27.5115503" lon="152.6695268">
<ele>75.892</ele>
<time>2016-03-01T23:49:02.044Z</time>
</trkpt>
<trkpt lat="-27.5107873" lon="152.6694690">
<ele>76.610</ele>
<time>2016-03-01T23:49:05.087Z</time>
</trkpt>
<trkpt lat="-27.5102799" lon="152.6694905">
<ele>77.350</ele>
<time>2016-03-01T23:49:07.102Z</time>
</trkpt>
<trkpt lat="-27.5095182" lon="152.6695292">
<ele>77.917</ele>
<time>2016-03-01T23:49:10.108Z</time>
</trkpt>
<trkpt lat="-27.5087473" lon="152.6695657">
<ele>77.541</ele>
<time>2016-03-01T23:49:13.124Z</time>
</trkpt>
<trkpt lat="-27.5082415" lon="152.6695985">
<ele>75.558</ele>
<time>2016-03-01T23:49:15.109Z</time>
</trkpt>
<trkpt lat="-27.5077272" lon="152.6696255">
<ele>72.388</ele>
<time>2016-03-01T23:49:17.123Z</time>
</trkpt>
<trkpt lat="-27.5072131" lon="152.6696505">
<ele>69.038</ele>
<time>2016-03-01T23:49:19.136Z</time>
</trkpt>
<trkpt lat="-27.5064520" lon="152.6696892">
<ele>66.248</ele>
<time>2016-03-01T23:49:22.128Z</time>
</trkpt>
<trkpt lat="-27.5059436" lon="152.6697177">
<ele>63.885</ele>
<time>2016-03-01T23:49:24.134Z</time>
</trkpt>
<trkpt lat="-27.5051768" lon="152.6697639">
<ele>61.472</ele>
<time>2016-03-01T23:49:27.164Z</time>
</trkpt>
<trkpt lat="-27.5044212" lon="152.6698047">
<ele>59.004</ele>
<time>2016-03-01T23:49:30.173Z</time>
</trkpt>
<trkpt lat="-27.5036798" lon="152.6698400">
<ele>56.563</ele>
<time>2016-03-01T23:49:33.162Z</time>
</trkpt>
<trkpt lat="-27.5031855" lon="152.6698568">
<ele>54.448</ele>
<time>2016-03-01T23:49:35.167Z</time>
</trkpt>
<trkpt lat="-27.5024478" lon="152.6698910">
<ele>53.177</ele>
<time>2016-03-01T23:49:38.152Z</time>
</trkpt>
<trkpt lat="-27.5016922" lon="152.6699267">
<ele>52.777</ele>
<time>2016-03-01T23:49:41.195Z</time>
</trkpt>
<trkpt lat="-27.5011979" lon="152.6699610">
<ele>52.909</ele>
<time>2016-03-01T23:49:43.194Z</time>
</trkpt>
<trkpt lat="-27.5004609" lon="152.6700065">
<ele>53.151</ele>
<time>2016-03-01T23:49:46.189Z</time>
</trkpt>
<trkpt lat="-27.4997319" lon="152.6700465">
<ele>53.028</ele>
<time>2016-03-01T23:49:49.152Z</time>
</trkpt>
<trkpt lat="-27.4992329" lon="152.6700735">
<ele>52.347</ele>
<time>2016-03-01T23:49:51.170Z</time>
</trkpt>
<trkpt lat="-27.4984926" lon="152.6701177">
<ele>51.464</ele>
<time>2016-03-01T23:49:54.140Z</time>
</trkpt>
<trkpt lat="-27.4977237" lon="152.6701563">
<ele>50.368</ele>
<time>2016-03-01T23:49:57.173Z</time>
</trkpt>
<trkpt lat="-27.4969565" lon="152.6702037">
<ele>48.587</ele>
<time>2016-03-01T23:50:00.163Z</time>
</trkpt>
<trkpt lat="-27.4964431" lon="152.6702285">
<ele>45.895</ele>
<time>2016-03-01T23:50:02.162Z</time>
</trkpt>
<trkpt lat="-27.4956869" lon="152.6702556">
<ele>42.415</ele>
<time>2016-03-01T23:50:05.110Z</time>
</trkpt>
<trkpt lat="-27.4949176" lon="152.6702709">
<ele>38.870</ele>
<time>2016-03-01T23:50:08.120Z</time>
</trkpt>
<trkpt lat="-27.4944149" lon="152.6702314">
<ele>36.329</ele>
<time>2016-03-01T23:50:10.112Z</time>
</trkpt>
<trkpt lat="-27.4939226" lon="152.6701502">
<ele>35.128</ele>
<time>2016-03-01T23:50:12.090Z</time>
</trkpt>
<trkpt lat="-27.4934324" lon="152.6700388">
<ele>34.884</ele>
<time>2016-03-01T23:50:14.077Z</time>
</trkpt>
<trkpt lat="-27.4926879" lon="152.6698975">
<ele>35.169</ele>
<time>2016-03-01T23:50:17.069Z</time>
</trkpt>
<trkpt lat="-27.4919327" lon="152.6697472">
<ele>35.669</ele>
<time>2016-03-01T23:50:20.105Z</time>
</trkpt>
<trkpt lat="-27.4911950" lon="152.6695924">
<ele>36.064</ele>
<time>2016-03-01T23:50:23.096Z</time>
</trkpt>
<trkpt lat="-27.4907102" lon="152.6694987">
<ele>36.324</ele>
<time>2016-03-01T23:50:25.083Z</time>
</trkpt>
<trkpt lat="-27.4899773" lon="152.6693632">
<ele>36.912</ele>
<time>2016-03-01T23:50:28.076Z</time>
</trkpt>
<trkpt lat="-27.4894733" lon="152.6692596">
<ele>37.956</ele>
<time>2016-03-01T23:50:30.112Z</time>
</trkpt>
<trkpt lat="-27.4887242" lon="152.6691158">
<ele>38.882</ele>
<time>2016-03-01T23:50:33.135Z</time>
</trkpt>
<trkpt lat="-27.4882277" lon="152.6690153">
<ele>39.196</ele>
<time>2016-03-01T23:50:35.160Z</time>
</trkpt>
<trkpt lat="-27.4874816" lon="152.6688790">
<ele>39.009</ele>
<time>2016-03-01T23:50:38.186Z</time>
</trkpt>
<trkpt lat="-27.4869896" lon="152.6687775">
<ele>38.441</ele>
<time>2016-03-01T23:50:40.198Z</time>
</trkpt>
<trkpt lat="-27.4862538" lon="152.6686394">
<ele>37.341</ele>
<time>2016-03-01T23:50:43.213Z</time>
</trkpt>
<trkpt lat="-27.4857636" lon="152.6685412">
<ele>35.944</ele>
<time>2016-03-01T23:50:45.191Z</time>
</trkpt>
<trkpt lat="-27.4849931" lon="152.6683806">
<ele>34.692</ele>
<time>2016-03-01T23:50:48.240Z</time>
</trkpt>
<trkpt lat="-27.4842226" lon="152.6682323">
<ele>33.413</ele>
<time>2016-03-01T23:50:51.249Z</time>
</trkpt>
<trkpt lat="-27.4834672" lon="152.6680862">
<ele>32.037</ele>
<time>2016-03-01T23:50:54.249Z</time>
</trkpt>
<trkpt lat="-27.4829782" lon="152.6679978">
<ele>30.936</ele>
<time>2016-03-01T23:50:56.255Z</time>
</trkpt>
<trkpt lat="-27.4825015" lon="152.6679009">
<ele>29.963</ele>
<time>2016-03-01T23:50:58.270Z</time>
</trkpt>
<trkpt lat="-27.4818132" lon="152.6677529">
<ele>28.480</ele>
<time>2016-03-01T23:51:01.217Z</time>
</trkpt>
<trkpt lat="-27.4813431" lon="152.6676815">
<ele>26.602</ele>
<time>2016-03-01T23:51:03.257Z</time>
</trkpt>
<trkpt lat="-27.4806697" lon="152.6676203">
<ele>25.237</ele>
<time>2016-03-01T23:51:06.245Z</time>
</trkpt>
<trkpt lat="-27.4800078" lon="152.6676090">
<ele>24.793</ele>
<time>2016-03-01T23:51:09.256Z</time>
</trkpt>
<trkpt lat="-27.4795715" lon="152.6676249">
<ele>24.930</ele>
<time>2016-03-01T23:51:11.275Z</time>
</trkpt>
<trkpt lat="-27.4789230" lon="152.6676481">
<ele>25.279</ele>
<time>2016-03-01T23:51:14.333Z</time>
</trkpt>
<trkpt lat="-27.4785035" lon="152.6676665">
<ele>26.117</ele>
<time>2016-03-01T23:51:16.352Z</time>
</trkpt>
<trkpt lat="-27.4778835" lon="152.6676552">
<ele>27.650</ele>
<time>2016-03-01T23:51:19.330Z</time>
</trkpt>
<trkpt lat="-27.4774603" lon="152.6676187">
<ele>28.946</ele>
<time>2016-03-01T23:51:21.327Z</time>
</trkpt>
<trkpt lat="-27.4768264" lon="152.6674907">
<ele>29.196</ele>
<time>2016-03-01T23:51:24.333Z</time>
</trkpt>
<trkpt lat="-27.4762106" lon="152.6672815">
<ele>28.853</ele>
<time>2016-03-01T23:51:27.327Z</time>
</trkpt>
<trkpt lat="-27.4756141" lon="152.6670212">
<ele>28.938</ele>
<time>2016-03-01T23:51:30.318Z</time>
</trkpt>
<trkpt lat="-27.4750632" lon="152.6666590">
<ele>30.052</ele>
<time>2016-03-01T23:51:33.293Z</time>
</trkpt>
<trkpt lat="-27.4745313" lon="152.6662201">
<ele>31.950</ele>
<time>2016-03-01T23:51:36.327Z</time>
</trkpt>
<trkpt lat="-27.4741929" lon="152.6659093">
<ele>33.978</ele>
<time>2016-03-01T23:51:38.310Z</time>
</trkpt>
<trkpt lat="-27.4736783" lon="152.6654363">
<ele>35.815</ele>
<time>2016-03-01T23:51:41.280Z</time>
</trkpt>
<trkpt lat="-27.4733242" lon="152.6650996">
<ele>37.842</ele>
<time>2016-03-01T23:51:43.305Z</time>
</trkpt>
<trkpt lat="-27.4727928" lon="152.6646017">
<ele>40.160</ele>
<time>2016-03-01T23:51:46.327Z</time>
</trkpt>
<trkpt lat="-27.4724466" lon="152.6642825">
<ele>41.869</ele>
<time>2016-03-01T23:51:48.309Z</time>
</trkpt>
<trkpt lat="-27.4720920" lon="152.6639709">
<ele>42.491</ele>
<time>2016-03-01T23:51:50.328Z</time>
</trkpt>
<trkpt lat="-27.4717399" lon="152.6636740">
<ele>42.768</ele>
<time>2016-03-01T23:51:52.320Z</time>
</trkpt>
<trkpt lat="-27.4711725" lon="152.6632851">
<ele>43.180</ele>
<time>2016-03-01T23:51:55.328Z</time>
</trkpt>
<trkpt lat="-27.4705736" lon="152.6629439">
<ele>43.393</ele>
<time>2016-03-01T23:51:58.332Z</time>
</trkpt>
<trkpt lat="-27.4701286" lon="152.6627834">
<ele>43.265</ele>
<time>2016-03-01T23:52:00.391Z</time>
</trkpt>
<trkpt lat="-27.4696968" lon="152.6626500">
<ele>43.789</ele>
<time>2016-03-01T23:52:02.382Z</time>
</trkpt>
<trkpt lat="-27.4690507" lon="152.6624837">
<ele>45.525</ele>
<time>2016-03-01T23:52:05.365Z</time>
</trkpt>
<trkpt lat="-27.4684111" lon="152.6623278">
<ele>47.615</ele>
<time>2016-03-01T23:52:08.369Z</time>
</trkpt>
<trkpt lat="-27.4677926" lon="152.6621790">
<ele>49.269</ele>
<time>2016-03-01T23:52:11.364Z</time>
</trkpt>
<trkpt lat="-27.4673941" lon="152.6620812">
<ele>50.634</ele>
<time>2016-03-01T23:52:13.365Z</time>
</trkpt>
<trkpt lat="-27.4670022" lon="152.6619824">
<ele>51.710</ele>
<time>2016-03-01T23:52:15.349Z</time>
</trkpt>
<trkpt lat="-27.4665979" lon="152.6618815">
<ele>52.371</ele>
<time>2016-03-01T23:52:17.370Z</time>
</trkpt>
<trkpt lat="-27.4659884" lon="152.6617357">
<ele>52.825</ele>
<time>2016-03-01T23:52:20.369Z</time>
</trkpt>
<trkpt lat="-27.4655777" lon="152.6616298">
<ele>53.656</ele>
<time>2016-03-01T23:52:22.353Z</time>
</trkpt>
<trkpt lat="-27.4649561" lon="152.6614176">
<ele>54.945</ele>
<time>2016-03-01T23:52:25.369Z</time>
</trkpt>
<trkpt lat="-27.4645494" lon="152.6612390">
<ele>56.054</ele>
<time>2016-03-01T23:52:27.339Z</time>
</trkpt>
<trkpt lat="-27.4639462" lon="152.6608873">
<ele>56.516</ele>
<time>2016-03-01T23:52:30.358Z</time>
</trkpt>
<trkpt lat="-27.4635640" lon="152.6606228">
<ele>56.429</ele>
<time>2016-03-01T23:52:32.373Z</time>
</trkpt>
<trkpt lat="-27.4631895" lon="152.6603744">
<ele>55.998</ele>
<time>2016-03-01T23:52:34.438Z</time>
</trkpt>
<trkpt lat="-27.4626831" lon="152.6600286">
<ele>55.279</ele>
<time>2016-03-01T23:52:37.399Z</time>
</trkpt>
<trkpt lat="-27.4621914" lon="152.6596890">
<ele>53.910</ele>
<time>2016-03-01T23:52:40.424Z</time>
</trkpt>
<trkpt lat="-27.4618740" lon="152.6594698">
<ele>51.914</ele>
<time>2016-03-01T23:52:42.444Z</time>
</trkpt>
<trkpt lat="-27.4614108" lon="152.6591555">
<ele>50.191</ele>
<time>2016-03-01T23:52:45.429Z</time>
</trkpt>
<trkpt lat="-27.4609563" lon="152.6588488">
<ele>49.400</ele>
<time>2016-03-01T23:52:48.396Z</time>
</trkpt>
<trkpt lat="-27.4606567" lon="152.6586295">
<ele>48.739</ele>
<time>2016-03-01T23:52:50.457Z</time>
</trkpt>
<trkpt lat="-27.4602518" lon="152.6583023">
<ele>47.432</ele>
<time>2016-03-01T23:52:53.461Z</time>
</trkpt>
<trkpt lat="-27.4600151" lon="152.6580808">
<ele>45.646</ele>
<time>2016-03-01T23:52:55.455Z</time>
</trkpt>
<trkpt lat="-27.4597896" lon="152.6578622">
<ele>43.756</ele>
<time>2016-03-01T23:52:57.451Z</time>
</trkpt>
<trkpt lat="-27.4595873" lon="152.6576475">
<ele>42.070</ele>
<time>2016-03-01T23:52:59.362Z</time>
</trkpt>
<trkpt lat="-27.4592909" lon="152.6572901">
<ele>41.001</ele>
<time>2016-03-01T23:53:02.389Z</time>
</trkpt>
<trkpt lat="-27.4590878" lon="152.6570582">
<ele>40.566</ele>
<time>2016-03-01T23:53:04.432Z</time>
</trkpt>
<trkpt lat="-27.4588096" lon="152.6567102">
<ele>40.551</ele>
<time>2016-03-01T23:53:07.382Z</time>
</trkpt>
<trkpt lat="-27.4585322" lon="152.6563651">
<ele>40.647</ele>
<time>2016-03-01T23:53:10.342Z</time>
</trkpt>
<trkpt lat="-27.4583494" lon="152.6561409">
<ele>40.469</ele>
<time>2016-03-01T23:53:12.316Z</time>
</trkpt>
<trkpt lat="-27.4580776" lon="152.6558046">
<ele>39.826</ele>
<time>2016-03-01T23:53:15.298Z</time>
</trkpt>
<trkpt lat="-27.4579051" lon="152.6555752">
<ele>38.970</ele>
<time>2016-03-01T23:53:17.267Z</time>
</trkpt>
<trkpt lat="-27.4577249" lon="152.6553360">
<ele>38.232</ele>
<time>2016-03-01T23:53:19.266Z</time>
</trkpt>
<trkpt lat="-27.4574241" lon="152.6549798">
<ele>37.741</ele>
<time>2016-03-01T23:53:22.334Z</time>
</trkpt>
<trkpt lat="-27.4572291" lon="152.6547437">
<ele>37.536</ele>
<time>2016-03-01T23:53:24.339Z</time>
</trkpt>
<trkpt lat="-27.4569396" lon="152.6543937">
<ele>37.619</ele>
<time>2016-03-01T23:53:27.368Z</time>
</trkpt>
<trkpt lat="-27.4566452" lon="152.6540973">
<ele>37.900</ele>
<time>2016-03-01T23:53:30.279Z</time>
</trkpt>
<trkpt lat="-27.4563688" lon="152.6537889">
<ele>38.249</ele>
<time>2016-03-01T23:53:33.246Z</time>
</trkpt>
<trkpt lat="-27.4561976" lon="152.6535900">
<ele>38.697</ele>
<time>2016-03-01T23:53:35.198Z</time>
</trkpt>
<trkpt lat="-27.4560112" lon="152.6534007">
<ele>39.249</ele>
<time>2016-03-01T23:53:37.249Z</time>
</trkpt>
<trkpt lat="-27.4558283" lon="152.6532136">
<ele>39.670</ele>
<time>2016-03-01T23:53:39.369Z</time>
</trkpt>
<trkpt lat="-27.4556042" lon="152.6529584">
<ele>39.888</ele>
<time>2016-03-01T23:53:42.262Z</time>
</trkpt>
<trkpt lat="-27.4554630" lon="152.6528032">
<ele>40.047</ele>
<time>2016-03-01T23:53:44.211Z</time>
</trkpt>
<trkpt lat="-27.4553139" lon="152.6526536">
<ele>40.174</ele>
<time>2016-03-01T23:53:46.302Z</time>
</trkpt>
<trkpt lat="-27.4551908" lon="152.6525117">
<ele>40.202</ele>
<time>2016-03-01T23:53:48.228Z</time>
</trkpt>
<trkpt lat="-27.4549983" lon="152.6523060">
<ele>40.148</ele>
<time>2016-03-01T23:53:51.135Z</time>
</trkpt>
<trkpt lat="-27.4548002" lon="152.6520924">
<ele>40.128</ele>
<time>2016-03-01T23:53:53.993Z</time>
</trkpt>
<trkpt lat="-27.4546524" lon="152.6519126">
<ele>40.351</ele>
<time>2016-03-01T23:53:56.061Z</time>
</trkpt>
<trkpt lat="-27.4544346" lon="152.6516403">
<ele>40.928</ele>
<time>2016-03-01T23:53:59.052Z</time>
</trkpt>
<trkpt lat="-27.4542047" lon="152.6513823">
<ele>41.638</ele>
<time>2016-03-01T23:54:02.023Z</time>
</trkpt>
<trkpt lat="-27.4540457" lon="152.6512035">
<ele>42.111</ele>
<time>2016-03-01T23:54:04.078Z</time>
</trkpt>
<trkpt lat="-27.4538256" lon="152.6509484">
<ele>42.250</ele>
<time>2016-03-01T23:54:06.938Z</time>
</trkpt>
<trkpt lat="-27.4535969" lon="152.6506475">
<ele>42.286</ele>
<time>2016-03-01T23:54:09.943Z</time>
</trkpt>
<trkpt lat="-27.4533027" lon="152.6503407">
<ele>42.538</ele>
<time>2016-03-01T23:54:13.090Z</time>
</trkpt>
<trkpt lat="-27.4531104" lon="152.6501394">
<ele>43.077</ele>
<time>2016-03-01T23:54:15.141Z</time>
</trkpt>
<trkpt lat="-27.4528297" lon="152.6498755">
<ele>43.627</ele>
<time>2016-03-01T23:54:18.047Z</time>
</trkpt>
<trkpt lat="-27.4525273" lon="152.6496008">
<ele>43.801</ele>
<time>2016-03-01T23:54:21.099Z</time>
</trkpt>
<trkpt lat="-27.4523195" lon="152.6494159">
<ele>43.525</ele>
<time>2016-03-01T23:54:23.123Z</time>
</trkpt>
<trkpt lat="-27.4521066" lon="152.6492362">
<ele>43.151</ele>
<time>2016-03-01T23:54:25.166Z</time>
</trkpt>
<trkpt lat="-27.4517965" lon="152.6489814">
<ele>42.984</ele>
<time>2016-03-01T23:54:28.215Z</time>
</trkpt>
<trkpt lat="-27.4515990" lon="152.6488217">
<ele>42.921</ele>
<time>2016-03-01T23:54:30.414Z</time>
</trkpt>
<trkpt lat="-27.4513760" lon="152.6486363">
<ele>42.585</ele>
<time>2016-03-01T23:54:33.283Z</time>
</trkpt>
<trkpt lat="-27.4511721" lon="152.6484900">
<ele>41.621</ele>
<time>2016-03-01T23:54:36.071Z</time>
</trkpt>
<trkpt lat="-27.4510286" lon="152.6483744">
<ele>40.294</ele>
<time>2016-03-01T23:54:38.023Z</time>
</trkpt>
<trkpt lat="-27.4507956" lon="152.6481897">
<ele>39.504</ele>
<time>2016-03-01T23:54:40.972Z</time>
</trkpt>
<trkpt lat="-27.4506224" lon="152.6480549">
<ele>39.681</ele>
<time>2016-03-01T23:54:42.966Z</time>
</trkpt>
<trkpt lat="-27.4504350" lon="152.6478998">
<ele>40.306</ele>
<time>2016-03-01T23:54:45.061Z</time>
</trkpt>
<trkpt lat="-27.4501660" lon="152.6476873">
<ele>40.809</ele>
<time>2016-03-01T23:54:48.036Z</time>
</trkpt>
<trkpt lat="-27.4499944" lon="152.6475496">
<ele>41.089</ele>
<time>2016-03-01T23:54:50.097Z</time>
</trkpt>
<trkpt lat="-27.4497634" lon="152.6473521">
<ele>40.961</ele>
<time>2016-03-01T23:54:53.088Z</time>
</trkpt>
<trkpt lat="-27.4496134" lon="152.6472301">
<ele>40.319</ele>
<time>2016-03-01T23:54:55.074Z</time>
</trkpt>
<trkpt lat="-27.4494629" lon="152.6471075">
<ele>39.557</ele>
<time>2016-03-01T23:54:57.090Z</time>
</trkpt>
<trkpt lat="-27.4492368" lon="152.6469127">
<ele>39.089</ele>
<time>2016-03-01T23:55:00.119Z</time>
</trkpt>
<trkpt lat="-27.4490767" lon="152.6467816">
<ele>38.964</ele>
<time>2016-03-01T23:55:02.075Z</time>
</trkpt>
<trkpt lat="-27.4488124" lon="152.6465474">
<ele>39.093</ele>
<time>2016-03-01T23:55:05.268Z</time>
</trkpt>
<trkpt lat="-27.4485810" lon="152.6463174">
<ele>39.279</ele>
<time>2016-03-01T23:55:08.218Z</time>
</trkpt>
<trkpt lat="-27.4484325" lon="152.6461597">
<ele>39.331</ele>
<time>2016-03-01T23:55:10.191Z</time>
</trkpt>
<trkpt lat="-27.4481963" lon="152.6459220">
<ele>39.233</ele>
<time>2016-03-01T23:55:13.232Z</time>
</trkpt>
<trkpt lat="-27.4480568" lon="152.6457680">
<ele>39.225</ele>
<time>2016-03-01T23:55:15.108Z</time>
</trkpt>
<trkpt lat="-27.4478985" lon="152.6455965">
<ele>39.475</ele>
<time>2016-03-01T23:55:17.204Z</time>
</trkpt>
<trkpt lat="-27.4476783" lon="152.6453368">
<ele>39.875</ele>
<time>2016-03-01T23:55:20.224Z</time>
</trkpt>
<trkpt lat="-27.4475229" lon="152.6451678">
<ele>40.239</ele>
<time>2016-03-01T23:55:22.294Z</time>
</trkpt>
<trkpt lat="-27.4473771" lon="152.6450165">
<ele>40.513</ele>
<time>2016-03-01T23:55:24.244Z</time>
</trkpt>
<trkpt lat="-27.4471640" lon="152.6447831">
<ele>40.704</ele>
<time>2016-03-01T23:55:27.230Z</time>
</trkpt>
<trkpt lat="-27.4470203" lon="152.6446419">
<ele>40.974</ele>
<time>2016-03-01T23:55:29.213Z</time>
</trkpt>
<trkpt lat="-27.4468369" lon="152.6444236">
<ele>41.487</ele>
<time>2016-03-01T23:55:32.038Z</time>
</trkpt>
<trkpt lat="-27.4466918" lon="152.6442770">
<ele>42.123</ele>
<time>2016-03-01T23:55:34.096Z</time>
</trkpt>
<trkpt lat="-27.4464840" lon="152.6440526">
<ele>42.604</ele>
<time>2016-03-01T23:55:37.077Z</time>
</trkpt>
<trkpt lat="-27.4463417" lon="152.6438983">
<ele>42.932</ele>
<time>2016-03-01T23:55:39.011Z</time>
</trkpt>
<trkpt lat="-27.4461156" lon="152.6436305">
<ele>43.246</ele>
<time>2016-03-01T23:55:41.913Z</time>
</trkpt>
<trkpt lat="-27.4458021" lon="152.6432914">
<ele>43.544</ele>
<time>2016-03-01T23:55:45.103Z</time>
</trkpt>
<trkpt lat="-27.4455752" lon="152.6430484">
<ele>44.044</ele>
<time>2016-03-01T23:55:47.157Z</time>
</trkpt>
<trkpt lat="-27.4453515" lon="152.6428164">
<ele>44.910</ele>
<time>2016-03-01T23:55:49.134Z</time>
</trkpt>
<trkpt lat="-27.4450089" lon="152.6424584">
<ele>45.718</ele>
<time>2016-03-01T23:55:52.166Z</time>
</trkpt>
<trkpt lat="-27.4447776" lon="152.6422167">
<ele>46.040</ele>
<time>2016-03-01T23:55:54.186Z</time>
</trkpt>
<trkpt lat="-27.4445503" lon="152.6419763">
<ele>45.833</ele>
<time>2016-03-01T23:55:56.151Z</time>
</trkpt>
<trkpt lat="-27.4441941" lon="152.6416058">
<ele>45.258</ele>
<time>2016-03-01T23:55:59.131Z</time>
</trkpt>
<trkpt lat="-27.4439457" lon="152.6413396">
<ele>44.703</ele>
<time>2016-03-01T23:56:01.105Z</time>
</trkpt>
<trkpt lat="-27.4435527" lon="152.6409163">
<ele>44.586</ele>
<time>2016-03-01T23:56:04.083Z</time>
</trkpt>
<trkpt lat="-27.4431290" lon="152.6404732">
<ele>45.042</ele>
<time>2016-03-01T23:56:07.123Z</time>
</trkpt>
<trkpt lat="-27.4427288" lon="152.6400406">
<ele>45.806</ele>
<time>2016-03-01T23:56:10.038Z</time>
</trkpt>
<trkpt lat="-27.4423177" lon="152.6395903">
<ele>46.393</ele>
<time>2016-03-01T23:56:13.141Z</time>
</trkpt>
<trkpt lat="-27.4420659" lon="152.6393187">
<ele>46.205</ele>
<time>2016-03-01T23:56:15.114Z</time>
</trkpt>
<trkpt lat="-27.4416956" lon="152.6389093">
<ele>44.967</ele>
<time>2016-03-01T23:56:18.119Z</time>
</trkpt>
<trkpt lat="-27.4414390" lon="152.6386354">
<ele>43.135</ele>
<time>2016-03-01T23:56:20.196Z</time>
</trkpt>
<trkpt lat="-27.4410587" lon="152.6382248">
<ele>41.493</ele>
<time>2016-03-01T23:56:23.294Z</time>
</trkpt>
<trkpt lat="-27.4406804" lon="152.6378682">
<ele>40.573</ele>
<time>2016-03-01T23:56:26.256Z</time>
</trkpt>
<trkpt lat="-27.4402983" lon="152.6375588">
<ele>40.382</ele>
<time>2016-03-01T23:56:29.153Z</time>
</trkpt>
<trkpt lat="-27.4398761" lon="152.6372887">
<ele>40.495</ele>
<time>2016-03-01T23:56:32.151Z</time>
</trkpt>
<trkpt lat="-27.4394233" lon="152.6370592">
<ele>40.592</ele>
<time>2016-03-01T23:56:35.160Z</time>
</trkpt>
<trkpt lat="-27.4391012" lon="152.6369540">
<ele>40.713</ele>
<time>2016-03-01T23:56:37.158Z</time>
</trkpt>
<trkpt lat="-27.4387746" lon="152.6368646">
<ele>40.967</ele>
<time>2016-03-01T23:56:39.142Z</time>
</trkpt>
<trkpt lat="-27.4384311" lon="152.6368028">
<ele>41.009</ele>
<time>2016-03-01T23:56:41.163Z</time>
</trkpt>
<trkpt lat="-27.4379023" lon="152.6367595">
<ele>40.513</ele>
<time>2016-03-01T23:56:44.222Z</time>
</trkpt>
<trkpt lat="-27.4375549" lon="152.6367723">
<ele>39.505</ele>
<time>2016-03-01T23:56:46.248Z</time>
</trkpt>
<trkpt lat="-27.4372267" lon="152.6368210">
<ele>37.924</ele>
<time>2016-03-01T23:56:48.214Z</time>
</trkpt>
<trkpt lat="-27.4369151" lon="152.6368791">
<ele>35.991</ele>
<time>2016-03-01T23:56:50.122Z</time>
</trkpt>
<trkpt lat="-27.4364470" lon="152.6370320">
<ele>34.299</ele>
<time>2016-03-01T23:56:53.080Z</time>
</trkpt>
<trkpt lat="-27.4361409" lon="152.6371639">
<ele>32.999</ele>
<time>2016-03-01T23:56:55.052Z</time>
</trkpt>
<trkpt lat="-27.4358354" lon="152.6373284">
<ele>32.194</ele>
<time>2016-03-01T23:56:57.079Z</time>
</trkpt>
<trkpt lat="-27.4355412" lon="152.6375171">
<ele>32.181</ele>
<time>2016-03-01T23:56:59.135Z</time>
</trkpt>
<trkpt lat="-27.4351529" lon="152.6378340">
<ele>32.718</ele>
<time>2016-03-01T23:57:02.111Z</time>
</trkpt>
<trkpt lat="-27.4347863" lon="152.6381901">
<ele>33.232</ele>
<time>2016-03-01T23:57:05.163Z</time>
</trkpt>
<trkpt lat="-27.4344275" lon="152.6385221">
<ele>33.508</ele>
<time>2016-03-01T23:57:08.106Z</time>
</trkpt>
<trkpt lat="-27.4340409" lon="152.6388169">
<ele>33.908</ele>
<time>2016-03-01T23:57:11.063Z</time>
</trkpt>
<trkpt lat="-27.4337576" lon="152.6389952">
<ele>34.714</ele>
<time>2016-03-01T23:57:13.059Z</time>
</trkpt>
<trkpt lat="-27.4333010" lon="152.6392209">
<ele>35.417</ele>
<time>2016-03-01T23:57:16.015Z</time>
</trkpt>
<trkpt lat="-27.4327773" lon="152.6393826">
<ele>35.443</ele>
<time>2016-03-01T23:57:18.944Z</time>
</trkpt>
<trkpt lat="-27.4321016" lon="152.6395132">
<ele>35.005</ele>
<time>2016-03-01T23:57:22.073Z</time>
</trkpt>
<trkpt lat="-27.4315835" lon="152.6395491">
<ele>35.453</ele>
<time>2016-03-01T23:57:24.127Z</time>
</trkpt>
<trkpt lat="-27.4310252" lon="152.6395653">
<ele>37.520</ele>
<time>2016-03-01T23:57:26.201Z</time>
</trkpt>
<trkpt lat="-27.4304625" lon="152.6395806">
<ele>38.289</ele>
<time>2016-03-01T23:57:28.232Z</time>
</trkpt>
<trkpt lat="-27.4296296" lon="152.6396294">
<ele>35.405</ele>
<time>2016-03-01T23:57:31.263Z</time>
</trkpt>
<trkpt lat="-27.4288277" lon="152.6396711">
<ele>31.406</ele>
<time>2016-03-01T23:57:34.276Z</time>
</trkpt>
<trkpt lat="-27.4280640" lon="152.6397150">
<ele>29.229</ele>
<time>2016-03-01T23:57:37.245Z</time>
</trkpt>
<trkpt lat="-27.4275685" lon="152.6397326">
<ele>28.834</ele>
<time>2016-03-01T23:57:39.208Z</time>
</trkpt>
<trkpt lat="-27.4268021" lon="152.6397835">
<ele>29.220</ele>
<time>2016-03-01T23:57:42.244Z</time>
</trkpt>
<trkpt lat="-27.4262866" lon="152.6398147">
<ele>31.278</ele>
<time>2016-03-01T23:57:44.273Z</time>
</trkpt>
<trkpt lat="-27.4255264" lon="152.6398626">
<ele>35.766</ele>
<time>2016-03-01T23:57:47.276Z</time>
</trkpt>
<trkpt lat="-27.4247795" lon="152.6398924">
<ele>39.967</ele>
<time>2016-03-01T23:57:50.248Z</time>
</trkpt>
<trkpt lat="-27.4240258" lon="152.6398191">
<ele>41.008</ele>
<time>2016-03-01T23:57:53.267Z</time>
</trkpt>
<trkpt lat="-27.4235437" lon="152.6397090">
<ele>39.594</ele>
<time>2016-03-01T23:57:55.237Z</time>
</trkpt>
<trkpt lat="-27.4230616" lon="152.6395405">
<ele>37.698</ele>
<time>2016-03-01T23:57:57.259Z</time>
</trkpt>
<trkpt lat="-27.4223626" lon="152.6391836">
<ele>36.317</ele>
<time>2016-03-01T23:58:00.309Z</time>
</trkpt>
<trkpt lat="-27.4219303" lon="152.6388936">
<ele>35.428</ele>
<time>2016-03-01T23:58:02.304Z</time>
</trkpt>
<trkpt lat="-27.4213308" lon="152.6383917">
<ele>34.869</ele>
<time>2016-03-01T23:58:05.278Z</time>
</trkpt>
<trkpt lat="-27.4207241" lon="152.6378804">
<ele>34.464</ele>
<time>2016-03-01T23:58:08.319Z</time>
</trkpt>
<trkpt lat="-27.4201416" lon="152.6373764">
<ele>33.958</ele>
<time>2016-03-01T23:58:11.287Z</time>
</trkpt>
<trkpt lat="-27.4197402" lon="152.6370490">
<ele>33.102</ele>
<time>2016-03-01T23:58:13.304Z</time>
</trkpt>
<trkpt lat="-27.4193355" lon="152.6367399">
<ele>31.907</ele>
<time>2016-03-01T23:58:15.355Z</time>
</trkpt>
<trkpt lat="-27.4189486" lon="152.6364748">
<ele>30.774</ele>
<time>2016-03-01T23:58:17.357Z</time>
</trkpt>
<trkpt lat="-27.4183768" lon="152.6361237">
<ele>29.667</ele>
<time>2016-03-01T23:58:20.327Z</time>
</trkpt>
<trkpt lat="-27.4179942" lon="152.6359056">
<ele>28.256</ele>
<time>2016-03-01T23:58:22.307Z</time>
</trkpt>
<trkpt lat="-27.4174043" lon="152.6355709">
<ele>26.864</ele>
<time>2016-03-01T23:58:25.365Z</time>
</trkpt>
<trkpt lat="-27.4168249" lon="152.6352525">
<ele>26.241</ele>
<time>2016-03-01T23:58:28.451Z</time>
</trkpt>
<trkpt lat="-27.4164895" lon="152.6350461">
<ele>26.435</ele>
<time>2016-03-01T23:58:30.474Z</time>
</trkpt>
<trkpt lat="-27.4161909" lon="152.6348525">
<ele>26.576</ele>
<time>2016-03-01T23:58:32.487Z</time>
</trkpt>
<trkpt lat="-27.4157921" lon="152.6345745">
<ele>25.932</ele>
<time>2016-03-01T23:58:35.419Z</time>
</trkpt>
<trkpt lat="-27.4154555" lon="152.6342672">
<ele>24.915</ele>
<time>2016-03-01T23:58:38.317Z</time>
</trkpt>
<trkpt lat="-27.4152142" lon="152.6340816">
<ele>24.353</ele>
<time>2016-03-01T23:58:40.340Z</time>
</trkpt>
<trkpt lat="-27.4149808" lon="152.6338973">
<ele>24.452</ele>
<time>2016-03-01T23:58:42.295Z</time>
</trkpt>
<trkpt lat="-27.4147445" lon="152.6336975">
<ele>24.973</ele>
<time>2016-03-01T23:58:44.279Z</time>
</trkpt>
<trkpt lat="-27.4144056" lon="152.6333606">
<ele>25.664</ele>
<time>2016-03-01T23:58:47.276Z</time>
</trkpt>
<trkpt lat="-27.4141702" lon="152.6331405">
<ele>26.766</ele>
<time>2016-03-01T23:58:49.279Z</time>
</trkpt>
<trkpt lat="-27.4138049" lon="152.6328084">
<ele>28.625</ele>
<time>2016-03-01T23:58:52.338Z</time>
</trkpt>
<trkpt lat="-27.4135794" lon="152.6325570">
<ele>30.690</ele>
<time>2016-03-01T23:58:54.394Z</time>
</trkpt>
<trkpt lat="-27.4132554" lon="152.6321715">
<ele>32.044</ele>
<time>2016-03-01T23:58:57.277Z</time>
</trkpt>
<trkpt lat="-27.4128779" lon="152.6317342">
<ele>32.663</ele>
<time>2016-03-01T23:59:00.253Z</time>
</trkpt>
<trkpt lat="-27.4124287" lon="152.6312262">
<ele>33.562</ele>
<time>2016-03-01T23:59:03.320Z</time>
</trkpt>
<trkpt lat="-27.4120868" lon="152.6308500">
<ele>36.246</ele>
<time>2016-03-01T23:59:05.355Z</time>
</trkpt>
<trkpt lat="-27.4117272" lon="152.6304382">
<ele>41.027</ele>
<time>2016-03-01T23:59:07.395Z</time>
</trkpt>
<trkpt lat="-27.4111674" lon="152.6298255">
<ele>46.134</ele>
<time>2016-03-01T23:59:10.423Z</time>
</trkpt>
<trkpt lat="-27.4108057" lon="152.6294218">
<ele>49.557</ele>
<time>2016-03-01T23:59:12.403Z</time>
</trkpt>
<trkpt lat="-27.4102628" lon="152.6288135">
<ele>51.220</ele>
<time>2016-03-01T23:59:15.398Z</time>
</trkpt>
<trkpt lat="-27.4099116" lon="152.6283971">
<ele>52.160</ele>
<time>2016-03-01T23:59:17.397Z</time>
</trkpt>
<trkpt lat="-27.4093767" lon="152.6278011">
<ele>52.934</ele>
<time>2016-03-01T23:59:20.346Z</time>
</trkpt>
<trkpt lat="-27.4090065" lon="152.6274042">
<ele>53.825</ele>
<time>2016-03-01T23:59:22.348Z</time>
</trkpt>
<trkpt lat="-27.4084570" lon="152.6268259">
<ele>54.962</ele>
<time>2016-03-01T23:59:25.299Z</time>
</trkpt>
<trkpt lat="-27.4080887" lon="152.6264328">
<ele>55.933</ele>
<time>2016-03-01T23:59:27.300Z</time>
</trkpt>
<trkpt lat="-27.4075456" lon="152.6258322">
<ele>56.834</ele>
<time>2016-03-01T23:59:30.307Z</time>
</trkpt>
<trkpt lat="-27.4069824" lon="152.6252491">
<ele>58.528</ele>
<time>2016-03-01T23:59:33.322Z</time>
</trkpt>
<trkpt lat="-27.4065967" lon="152.6248744">
<ele>61.055</ele>
<time>2016-03-01T23:59:35.337Z</time>
</trkpt>
<trkpt lat="-27.4062146" lon="152.6245063">
<ele>63.830</ele>
<time>2016-03-01T23:59:37.331Z</time>
</trkpt>
<trkpt lat="-27.4056805" lon="152.6238977">
<ele>66.463</ele>
<time>2016-03-01T23:59:40.329Z</time>
</trkpt>
<trkpt lat="-27.4053109" lon="152.6235221">
<ele>69.057</ele>
<time>2016-03-01T23:59:42.287Z</time>
</trkpt>
<trkpt lat="-27.4049366" lon="152.6231407">
<ele>72.027</ele>
<time>2016-03-01T23:59:44.274Z</time>
</trkpt>
<trkpt lat="-27.4043558" lon="152.6225812">
<ele>75.646</ele>
<time>2016-03-01T23:59:47.286Z</time>
</trkpt>
<trkpt lat="-27.4037790" lon="152.6220385">
<ele>79.388</ele>
<time>2016-03-01T23:59:50.263Z</time>
</trkpt>
<trkpt lat="-27.4031803" lon="152.6215250">
<ele>82.574</ele>
<time>2016-03-01T23:59:53.260Z</time>
</trkpt>
<trkpt lat="-27.4025841" lon="152.6210024">
<ele>85.239</ele>
<time>2016-03-01T23:59:56.279Z</time>
</trkpt>
<trkpt lat="-27.4021885" lon="152.6206665">
<ele>87.616</ele>
<time>2016-03-01T23:59:58.267Z</time>
</trkpt>
<trkpt lat="-27.4015889" lon="152.6201426">
<ele>88.865</ele>
<time>2016-03-02T00:00:01.299Z</time>
</trkpt>
<trkpt lat="-27.4011854" lon="152.6197992">
<ele>88.465</ele>
<time>2016-03-02T00:00:03.291Z</time>
</trkpt>
<trkpt lat="-27.4005814" lon="152.6192697">
<ele>87.176</ele>
<time>2016-03-02T00:00:06.305Z</time>
</trkpt>
<trkpt lat="-27.4001902" lon="152.6189211">
<ele>85.841</ele>
<time>2016-03-02T00:00:08.300Z</time>
</trkpt>
<trkpt lat="-27.3997667" lon="152.6185922">
<ele>84.420</ele>
<time>2016-03-02T00:00:10.381Z</time>
</trkpt>
<trkpt lat="-27.3993988" lon="152.6182392">
<ele>82.793</ele>
<time>2016-03-02T00:00:12.341Z</time>
</trkpt>
<trkpt lat="-27.3988201" lon="152.6177204">
<ele>81.081</ele>
<time>2016-03-02T00:00:15.331Z</time>
</trkpt>
<trkpt lat="-27.3984474" lon="152.6173534">
<ele>79.480</ele>
<time>2016-03-02T00:00:17.319Z</time>
</trkpt>
<trkpt lat="-27.3979317" lon="152.6167379">
<ele>78.390</ele>
<time>2016-03-02T00:00:20.340Z</time>
</trkpt>
<trkpt lat="-27.3974716" lon="152.6160855">
<ele>77.694</ele>
<time>2016-03-02T00:00:23.382Z</time>
</trkpt>
<trkpt lat="-27.3970991" lon="152.6154638">
<ele>76.383</ele>
<time>2016-03-02T00:00:26.285Z</time>
</trkpt>
<trkpt lat="-27.3969111" lon="152.6150811">
<ele>74.360</ele>
<time>2016-03-02T00:00:28.121Z</time>
</trkpt>
<trkpt lat="-27.3967250" lon="152.6146796">
<ele>72.349</ele>
<time>2016-03-02T00:00:30.092Z</time>
</trkpt>
<trkpt lat="-27.3964763" lon="152.6140648">
<ele>70.729</ele>
<time>2016-03-02T00:00:33.074Z</time>
</trkpt>
<trkpt lat="-27.3962268" lon="152.6134465">
<ele>69.774</ele>
<time>2016-03-02T00:00:36.121Z</time>
</trkpt>
<trkpt lat="-27.3959836" lon="152.6128475">
<ele>69.624</ele>
<time>2016-03-02T00:00:39.116Z</time>
</trkpt>
<trkpt lat="-27.3958201" lon="152.6124512">
<ele>69.983</ele>
<time>2016-03-02T00:00:41.084Z</time>
</trkpt>
<trkpt lat="-27.3956525" lon="152.6120326">
<ele>70.559</ele>
<time>2016-03-02T00:00:43.125Z</time>
</trkpt>
<trkpt lat="-27.3954975" lon="152.6116259">
<ele>71.324</ele>
<time>2016-03-02T00:00:45.103Z</time>
</trkpt>
<trkpt lat="-27.3953304" lon="152.6112204">
<ele>72.277</ele>
<time>2016-03-02T00:00:47.110Z</time>
</trkpt>
<trkpt lat="-27.3950702" lon="152.6105976">
<ele>73.177</ele>
<time>2016-03-02T00:00:50.162Z</time>
</trkpt>
<trkpt lat="-27.3948946" lon="152.6101834">
<ele>73.786</ele>
<time>2016-03-02T00:00:52.181Z</time>
</trkpt>
<trkpt lat="-27.3946452" lon="152.6095618">
<ele>74.022</ele>
<time>2016-03-02T00:00:55.195Z</time>
</trkpt>
<trkpt lat="-27.3944831" lon="152.6091401">
<ele>73.889</ele>
<time>2016-03-02T00:00:57.231Z</time>
</trkpt>
<trkpt lat="-27.3941556" lon="152.6083112">
<ele>73.738</ele>
<time>2016-03-02T00:01:01.195Z</time>
</trkpt>
<trkpt lat="-27.3939826" lon="152.6078943">
<ele>74.048</ele>
<time>2016-03-02T00:01:03.169Z</time>
</trkpt>
<trkpt lat="-27.3937320" lon="152.6072543">
<ele>74.891</ele>
<time>2016-03-02T00:01:06.163Z</time>
</trkpt>
<trkpt lat="-27.3935909" lon="152.6068398">
<ele>75.718</ele>
<time>2016-03-02T00:01:08.064Z</time>
</trkpt>
<trkpt lat="-27.3934417" lon="152.6064041">
<ele>76.022</ele>
<time>2016-03-02T00:01:10.059Z</time>
</trkpt>
<trkpt lat="-27.3932585" lon="152.6057260">
<ele>75.911</ele>
<time>2016-03-02T00:01:13.076Z</time>
</trkpt>
<trkpt lat="-27.3931594" lon="152.6052674">
<ele>75.651</ele>
<time>2016-03-02T00:01:15.081Z</time>
</trkpt>
<trkpt lat="-27.3930395" lon="152.6045717">
<ele>75.347</ele>
<time>2016-03-02T00:01:18.123Z</time>
</trkpt>
<trkpt lat="-27.3929286" lon="152.6039068">
<ele>75.151</ele>
<time>2016-03-02T00:01:21.096Z</time>
</trkpt>
<trkpt lat="-27.3928688" lon="152.6034729">
<ele>75.148</ele>
<time>2016-03-02T00:01:23.057Z</time>
</trkpt>
<trkpt lat="-27.3927666" lon="152.6028092">
<ele>75.180</ele>
<time>2016-03-02T00:01:26.095Z</time>
</trkpt>
<trkpt lat="-27.3926591" lon="152.6021643">
<ele>75.027</ele>
<time>2016-03-02T00:01:29.098Z</time>
</trkpt>
<trkpt lat="-27.3925909" lon="152.6017288">
<ele>74.700</ele>
<time>2016-03-02T00:01:31.095Z</time>
</trkpt>
<trkpt lat="-27.3924823" lon="152.6010699">
<ele>74.483</ele>
<time>2016-03-02T00:01:34.064Z</time>
</trkpt>
<trkpt lat="-27.3924074" lon="152.6006157">
<ele>74.702</ele>
<time>2016-03-02T00:01:36.067Z</time>
</trkpt>
<trkpt lat="-27.3923003" lon="152.5999298">
<ele>75.350</ele>
<time>2016-03-02T00:01:39.058Z</time>
</trkpt>
<trkpt lat="-27.3921853" lon="152.5992398">
<ele>76.115</ele>
<time>2016-03-02T00:01:42.053Z</time>
</trkpt>
<trkpt lat="-27.3920657" lon="152.5985462">
<ele>76.719</ele>
<time>2016-03-02T00:01:45.065Z</time>
</trkpt>
<trkpt lat="-27.3919917" lon="152.5980937">
<ele>76.902</ele>
<time>2016-03-02T00:01:47.044Z</time>
</trkpt>
<trkpt lat="-27.3918800" lon="152.5974107">
<ele>76.584</ele>
<time>2016-03-02T00:01:50.055Z</time>
</trkpt>
<trkpt lat="-27.3918003" lon="152.5969679">
<ele>76.088</ele>
<time>2016-03-02T00:01:52.033Z</time>
</trkpt>
<trkpt lat="-27.3916766" lon="152.5963008">
<ele>75.723</ele>
<time>2016-03-02T00:01:55.023Z</time>
</trkpt>
<trkpt lat="-27.3915382" lon="152.5956376">
<ele>75.753</ele>
<time>2016-03-02T00:01:58.010Z</time>
</trkpt>
<trkpt lat="-27.3913850" lon="152.5949816">
<ele>76.566</ele>
<time>2016-03-02T00:02:00.994Z</time>
</trkpt>
<trkpt lat="-27.3912803" lon="152.5945457">
<ele>78.123</ele>
<time>2016-03-02T00:02:02.988Z</time>
</trkpt>
<trkpt lat="-27.3911143" lon="152.5938904">
<ele>79.699</ele>
<time>2016-03-02T00:02:06.000Z</time>
</trkpt>
<trkpt lat="-27.3910108" lon="152.5934597">
<ele>80.619</ele>
<time>2016-03-02T00:02:07.975Z</time>
</trkpt>
<trkpt lat="-27.3908196" lon="152.5928181">
<ele>81.021</ele>
<time>2016-03-02T00:02:10.945Z</time>
</trkpt>
<trkpt lat="-27.3906148" lon="152.5921475">
<ele>81.486</ele>
<time>2016-03-02T00:02:13.933Z</time>
</trkpt>
<trkpt lat="-27.3904494" lon="152.5916515">
<ele>82.832</ele>
<time>2016-03-02T00:02:15.994Z</time>
</trkpt>
<trkpt lat="-27.3902782" lon="152.5911425">
<ele>85.680</ele>
<time>2016-03-02T00:02:18.035Z</time>
</trkpt>
<trkpt lat="-27.3901010" lon="152.5906433">
<ele>89.543</ele>
<time>2016-03-02T00:02:20.041Z</time>
</trkpt>
<trkpt lat="-27.3898334" lon="152.5898758">
<ele>93.212</ele>
<time>2016-03-02T00:02:23.062Z</time>
</trkpt>
<trkpt lat="-27.3895390" lon="152.5891117">
<ele>95.833</ele>
<time>2016-03-02T00:02:26.056Z</time>
</trkpt>
<trkpt lat="-27.3892573" lon="152.5883440">
<ele>97.516</ele>
<time>2016-03-02T00:02:29.037Z</time>
</trkpt>
<trkpt lat="-27.3890767" lon="152.5878306">
<ele>98.926</ele>
<time>2016-03-02T00:02:31.024Z</time>
</trkpt>
<trkpt lat="-27.3888240" lon="152.5870392">
<ele>100.143</ele>
<time>2016-03-02T00:02:34.039Z</time>
</trkpt>
<trkpt lat="-27.3886713" lon="152.5865040">
<ele>101.068</ele>
<time>2016-03-02T00:02:36.033Z</time>
</trkpt>
<trkpt lat="-27.3885191" lon="152.5859619">
<ele>102.154</ele>
<time>2016-03-02T00:02:38.044Z</time>
</trkpt>
<trkpt lat="-27.3883177" lon="152.5851445">
<ele>103.452</ele>
<time>2016-03-02T00:02:41.037Z</time>
</trkpt>
<trkpt lat="-27.3882040" lon="152.5845869">
<ele>104.466</ele>
<time>2016-03-02T00:02:43.036Z</time>
</trkpt>
<trkpt lat="-27.3880616" lon="152.5837416">
<ele>104.785</ele>
<time>2016-03-02T00:02:46.023Z</time>
</trkpt>
<trkpt lat="-27.3879834" lon="152.5831722">
<ele>104.637</ele>
<time>2016-03-02T00:02:48.014Z</time>
</trkpt>
<trkpt lat="-27.3879099" lon="152.5825991">
<ele>104.806</ele>
<time>2016-03-02T00:02:50.019Z</time>
</trkpt>
<trkpt lat="-27.3878605" lon="152.5820367">
<ele>105.996</ele>
<time>2016-03-02T00:02:51.989Z</time>
</trkpt>
<trkpt lat="-27.3878259" lon="152.5814728">
<ele>107.871</ele>
<time>2016-03-02T00:02:53.972Z</time>
</trkpt>
<trkpt lat="-27.3877941" lon="152.5806254">
<ele>109.428</ele>
<time>2016-03-02T00:02:56.949Z</time>
</trkpt>
<trkpt lat="-27.3877875" lon="152.5797638">
<ele>110.145</ele>
<time>2016-03-02T00:02:59.951Z</time>
</trkpt>
<trkpt lat="-27.3877862" lon="152.5791872">
<ele>110.432</ele>
<time>2016-03-02T00:03:01.961Z</time>
</trkpt>
<trkpt lat="-27.3877791" lon="152.5786160">
<ele>110.796</ele>
<time>2016-03-02T00:03:03.970Z</time>
</trkpt>
<trkpt lat="-27.3877716" lon="152.5777769">
<ele>111.290</ele>
<time>2016-03-02T00:03:06.958Z</time>
</trkpt>
<trkpt lat="-27.3877675" lon="152.5772272">
<ele>111.731</ele>
<time>2016-03-02T00:03:08.923Z</time>
</trkpt>
<trkpt lat="-27.3877634" lon="152.5763895">
<ele>112.290</ele>
<time>2016-03-02T00:03:11.926Z</time>
</trkpt>
<trkpt lat="-27.3877558" lon="152.5755538">
<ele>113.299</ele>
<time>2016-03-02T00:03:14.915Z</time>
</trkpt>
<trkpt lat="-27.3877573" lon="152.5749885">
<ele>114.997</ele>
<time>2016-03-02T00:03:16.924Z</time>
</trkpt>
<trkpt lat="-27.3877556" lon="152.5744232">
<ele>117.324</ele>
<time>2016-03-02T00:03:18.913Z</time>
</trkpt>
<trkpt lat="-27.3877452" lon="152.5735570">
<ele>119.971</ele>
<time>2016-03-02T00:03:21.931Z</time>
</trkpt>
<trkpt lat="-27.3877037" lon="152.5729822">
<ele>122.396</ele>
<time>2016-03-02T00:03:23.939Z</time>
</trkpt>
<trkpt lat="-27.3876411" lon="152.5724271">
<ele>124.182</ele>
<time>2016-03-02T00:03:25.913Z</time>
</trkpt>
<trkpt lat="-27.3875504" lon="152.5718870">
<ele>125.289</ele>
<time>2016-03-02T00:03:27.876Z</time>
</trkpt>
<trkpt lat="-27.3874259" lon="152.5713487">
<ele>125.723</ele>
<time>2016-03-02T00:03:29.869Z</time>
</trkpt>
<trkpt lat="-27.3872745" lon="152.5708145">
<ele>125.281</ele>
<time>2016-03-02T00:03:31.864Z</time>
</trkpt>
<trkpt lat="-27.3869931" lon="152.5700177">
<ele>124.266</ele>
<time>2016-03-02T00:03:34.892Z</time>
</trkpt>
<trkpt lat="-27.3866577" lon="152.5692595">
<ele>123.304</ele>
<time>2016-03-02T00:03:37.878Z</time>
</trkpt>
<trkpt lat="-27.3862535" lon="152.5685416">
<ele>122.161</ele>
<time>2016-03-02T00:03:40.882Z</time>
</trkpt>
<trkpt lat="-27.3859539" lon="152.5680826">
<ele>120.317</ele>
<time>2016-03-02T00:03:42.898Z</time>
</trkpt>
<trkpt lat="-27.3854840" lon="152.5674240">
<ele>118.337</ele>
<time>2016-03-02T00:03:45.896Z</time>
</trkpt>
<trkpt lat="-27.3850209" lon="152.5667819">
<ele>116.839</ele>
<time>2016-03-02T00:03:48.835Z</time>
</trkpt>
<trkpt lat="-27.3845241" lon="152.5661200">
<ele>115.592</ele>
<time>2016-03-02T00:03:51.884Z</time>
</trkpt>
<trkpt lat="-27.3841995" lon="152.5656722">
<ele>114.507</ele>
<time>2016-03-02T00:03:53.903Z</time>
</trkpt>
<trkpt lat="-27.3837314" lon="152.5650005">
<ele>113.833</ele>
<time>2016-03-02T00:03:56.894Z</time>
</trkpt>
<trkpt lat="-27.3832571" lon="152.5643448">
<ele>113.601</ele>
<time>2016-03-02T00:03:59.883Z</time>
</trkpt>
<trkpt lat="-27.3828108" lon="152.5636981">
<ele>113.358</ele>
<time>2016-03-02T00:04:02.820Z</time>
</trkpt>
<trkpt lat="-27.3823372" lon="152.5630480">
<ele>112.326</ele>
<time>2016-03-02T00:04:05.855Z</time>
</trkpt>
<trkpt lat="-27.3818693" lon="152.5624011">
<ele>110.239</ele>
<time>2016-03-02T00:04:08.853Z</time>
</trkpt>
<trkpt lat="-27.3813988" lon="152.5617412">
<ele>107.756</ele>
<time>2016-03-02T00:04:11.880Z</time>
</trkpt>
<trkpt lat="-27.3809211" lon="152.5611003">
<ele>105.693</ele>
<time>2016-03-02T00:04:14.869Z</time>
</trkpt>
<trkpt lat="-27.3805688" lon="152.5606824">
<ele>104.295</ele>
<time>2016-03-02T00:04:16.929Z</time>
</trkpt>
<trkpt lat="-27.3802352" lon="152.5602703">
<ele>103.436</ele>
<time>2016-03-02T00:04:18.927Z</time>
</trkpt>
<trkpt lat="-27.3797370" lon="152.5596476">
<ele>102.794</ele>
<time>2016-03-02T00:04:21.932Z</time>
</trkpt>
<trkpt lat="-27.3792165" lon="152.5590552">
<ele>101.975</ele>
<time>2016-03-02T00:04:24.915Z</time>
</trkpt>
<trkpt lat="-27.3788585" lon="152.5586631">
<ele>100.546</ele>
<time>2016-03-02T00:04:26.919Z</time>
</trkpt>
<trkpt lat="-27.3784942" lon="152.5582736">
<ele>98.642</ele>
<time>2016-03-02T00:04:28.916Z</time>
</trkpt>
<trkpt lat="-27.3779305" lon="152.5576806">
<ele>97.089</ele>
<time>2016-03-02T00:04:31.962Z</time>
</trkpt>
<trkpt lat="-27.3775658" lon="152.5572999">
<ele>96.426</ele>
<time>2016-03-02T00:04:33.937Z</time>
</trkpt>
<trkpt lat="-27.3772053" lon="152.5569174">
<ele>96.467</ele>
<time>2016-03-02T00:04:35.903Z</time>
</trkpt>
<trkpt lat="-27.3766417" lon="152.5563335">
<ele>96.928</ele>
<time>2016-03-02T00:04:38.903Z</time>
</trkpt>
<trkpt lat="-27.3762595" lon="152.5559413">
<ele>97.531</ele>
<time>2016-03-02T00:04:40.907Z</time>
</trkpt>
<trkpt lat="-27.3757028" lon="152.5553468">
<ele>98.366</ele>
<time>2016-03-02T00:04:43.886Z</time>
</trkpt>
<trkpt lat="-27.3753448" lon="152.5549347">
<ele>99.458</ele>
<time>2016-03-02T00:04:45.873Z</time>
</trkpt>
<trkpt lat="-27.3748356" lon="152.5542916">
<ele>100.333</ele>
<time>2016-03-02T00:04:48.833Z</time>
</trkpt>
<trkpt lat="-27.3743589" lon="152.5535944">
<ele>100.859</ele>
<time>2016-03-02T00:04:51.848Z</time>
</trkpt>
<trkpt lat="-27.3740750" lon="152.5531210">
<ele>101.643</ele>
<time>2016-03-02T00:04:53.821Z</time>
</trkpt>
<trkpt lat="-27.3738159" lon="152.5526264">
<ele>102.844</ele>
<time>2016-03-02T00:04:55.816Z</time>
</trkpt>
<trkpt lat="-27.3734628" lon="152.5518558">
<ele>103.799</ele>
<time>2016-03-02T00:04:58.836Z</time>
</trkpt>
<trkpt lat="-27.3732461" lon="152.5513379">
<ele>104.048</ele>
<time>2016-03-02T00:05:00.844Z</time>
</trkpt>
<trkpt lat="-27.3729656" lon="152.5505358">
<ele>104.020</ele>
<time>2016-03-02T00:05:03.867Z</time>
</trkpt>
<trkpt lat="-27.3727860" lon="152.5500044">
<ele>104.245</ele>
<time>2016-03-02T00:05:05.853Z</time>
</trkpt>
<trkpt lat="-27.3726103" lon="152.5494806">
<ele>104.711</ele>
<time>2016-03-02T00:05:07.827Z</time>
</trkpt>
<trkpt lat="-27.3723610" lon="152.5487090">
<ele>105.242</ele>
<time>2016-03-02T00:05:10.745Z</time>
</trkpt>
<trkpt lat="-27.3721754" lon="152.5481724">
<ele>105.854</ele>
<time>2016-03-02T00:05:12.783Z</time>
</trkpt>
<trkpt lat="-27.3719138" lon="152.5473640">
<ele>106.606</ele>
<time>2016-03-02T00:05:15.809Z</time>
</trkpt>
<trkpt lat="-27.3717366" lon="152.5468351">
<ele>107.639</ele>
<time>2016-03-02T00:05:17.802Z</time>
</trkpt>
<trkpt lat="-27.3714784" lon="152.5460503">
<ele>108.988</ele>
<time>2016-03-02T00:05:20.769Z</time>
</trkpt>
<trkpt lat="-27.3712806" lon="152.5452280">
<ele>110.465</ele>
<time>2016-03-02T00:05:23.794Z</time>
</trkpt>
<trkpt lat="-27.3711103" lon="152.5444209">
<ele>111.786</ele>
<time>2016-03-02T00:05:26.746Z</time>
</trkpt>
<trkpt lat="-27.3710279" lon="152.5438707">
<ele>112.091</ele>
<time>2016-03-02T00:05:28.746Z</time>
</trkpt>
<trkpt lat="-27.3709676" lon="152.5433180">
<ele>110.804</ele>
<time>2016-03-02T00:05:30.749Z</time>
</trkpt>
<trkpt lat="-27.3709226" lon="152.5424913">
<ele>108.887</ele>
<time>2016-03-02T00:05:33.740Z</time>
</trkpt>
<trkpt lat="-27.3709342" lon="152.5416662">
<ele>107.527</ele>
<time>2016-03-02T00:05:36.724Z</time>
</trkpt>
<trkpt lat="-27.3709601" lon="152.5411046">
<ele>106.531</ele>
<time>2016-03-02T00:05:38.743Z</time>
</trkpt>
<trkpt lat="-27.3709958" lon="152.5402632">
<ele>105.347</ele>
<time>2016-03-02T00:05:41.718Z</time>
</trkpt>
<trkpt lat="-27.3710088" lon="152.5396879">
<ele>104.245</ele>
<time>2016-03-02T00:05:43.700Z</time>
</trkpt>
<trkpt lat="-27.3710473" lon="152.5391036">
<ele>103.677</ele>
<time>2016-03-02T00:05:45.707Z</time>
</trkpt>
<trkpt lat="-27.3710842" lon="152.5382407">
<ele>103.372</ele>
<time>2016-03-02T00:05:48.692Z</time>
</trkpt>
<trkpt lat="-27.3711230" lon="152.5373874">
<ele>102.938</ele>
<time>2016-03-02T00:05:51.695Z</time>
</trkpt>
<trkpt lat="-27.3711564" lon="152.5368412">
<ele>101.795</ele>
<time>2016-03-02T00:05:53.647Z</time>
</trkpt>
<trkpt lat="-27.3712051" lon="152.5360097">
<ele>99.315</ele>
<time>2016-03-02T00:05:56.608Z</time>
</trkpt>
<trkpt lat="-27.3712358" lon="152.5354288">
<ele>96.200</ele>
<time>2016-03-02T00:05:58.637Z</time>
</trkpt>
<trkpt lat="-27.3712541" lon="152.5348580">
<ele>93.867</ele>
<time>2016-03-02T00:06:00.618Z</time>
</trkpt>
<trkpt lat="-27.3712817" lon="152.5340006">
<ele>92.283</ele>
<time>2016-03-02T00:06:03.598Z</time>
</trkpt>
<trkpt lat="-27.3713034" lon="152.5334328">
<ele>90.521</ele>
<time>2016-03-02T00:06:05.576Z</time>
</trkpt>
<trkpt lat="-27.3713457" lon="152.5325692">
<ele>88.466</ele>
<time>2016-03-02T00:06:08.600Z</time>
</trkpt>
<trkpt lat="-27.3713733" lon="152.5320004">
<ele>86.600</ele>
<time>2016-03-02T00:06:10.602Z</time>
</trkpt>
<trkpt lat="-27.3714087" lon="152.5311516">
<ele>85.044</ele>
<time>2016-03-02T00:06:13.591Z</time>
</trkpt>
<trkpt lat="-27.3714506" lon="152.5302970">
<ele>83.814</ele>
<time>2016-03-02T00:06:16.584Z</time>
</trkpt>
<trkpt lat="-27.3714813" lon="152.5297277">
<ele>83.134</ele>
<time>2016-03-02T00:06:18.567Z</time>
</trkpt>
<trkpt lat="-27.3715064" lon="152.5291582">
<ele>82.935</ele>
<time>2016-03-02T00:06:20.549Z</time>
</trkpt>
<trkpt lat="-27.3715283" lon="152.5285845">
<ele>82.897</ele>
<time>2016-03-02T00:06:22.551Z</time>
</trkpt>
<trkpt lat="-27.3715368" lon="152.5277151">
<ele>82.874</ele>
<time>2016-03-02T00:06:25.590Z</time>
</trkpt>
<trkpt lat="-27.3715152" lon="152.5271448">
<ele>82.991</ele>
<time>2016-03-02T00:06:27.587Z</time>
</trkpt>
<trkpt lat="-27.3714371" lon="152.5263256">
<ele>83.300</ele>
<time>2016-03-02T00:06:30.490Z</time>
</trkpt>
<trkpt lat="-27.3713075" lon="152.5254727">
<ele>83.748</ele>
<time>2016-03-02T00:06:33.523Z</time>
</trkpt>
<trkpt lat="-27.3711042" lon="152.5246435">
<ele>84.576</ele>
<time>2016-03-02T00:06:36.497Z</time>
</trkpt>
<trkpt lat="-27.3708536" lon="152.5238216">
<ele>86.180</ele>
<time>2016-03-02T00:06:39.488Z</time>
</trkpt>
<trkpt lat="-27.3706571" lon="152.5232820">
<ele>88.150</ele>
<time>2016-03-02T00:06:41.489Z</time>
</trkpt>
<trkpt lat="-27.3704344" lon="152.5227531">
<ele>89.517</ele>
<time>2016-03-02T00:06:43.494Z</time>
</trkpt>
<trkpt lat="-27.3700774" lon="152.5219694">
<ele>89.953</ele>
<time>2016-03-02T00:06:46.499Z</time>
</trkpt>
<trkpt lat="-27.3698363" lon="152.5214488">
<ele>90.415</ele>
<time>2016-03-02T00:06:48.504Z</time>
</trkpt>
<trkpt lat="-27.3694812" lon="152.5206867">
<ele>91.639</ele>
<time>2016-03-02T00:06:51.479Z</time>
</trkpt>
<trkpt lat="-27.3692507" lon="152.5201889">
<ele>92.761</ele>
<time>2016-03-02T00:06:53.463Z</time>
</trkpt>
<trkpt lat="-27.3688977" lon="152.5194728">
<ele>92.421</ele>
<time>2016-03-02T00:06:56.411Z</time>
</trkpt>
<trkpt lat="-27.3686680" lon="152.5189857">
<ele>90.656</ele>
<time>2016-03-02T00:06:58.403Z</time>
</trkpt>
<trkpt lat="-27.3683144" lon="152.5182429">
<ele>88.554</ele>
<time>2016-03-02T00:07:01.430Z</time>
</trkpt>
<trkpt lat="-27.3679706" lon="152.5174997">
<ele>86.977</ele>
<time>2016-03-02T00:07:04.437Z</time>
</trkpt>
<trkpt lat="-27.3677404" lon="152.5170120">
<ele>86.017</ele>
<time>2016-03-02T00:07:06.421Z</time>
</trkpt>
<trkpt lat="-27.3673970" lon="152.5162794">
<ele>85.527</ele>
<time>2016-03-02T00:07:09.399Z</time>
</trkpt>
<trkpt lat="-27.3671720" lon="152.5157858">
<ele>85.533</ele>
<time>2016-03-02T00:07:11.405Z</time>
</trkpt>
<trkpt lat="-27.3668232" lon="152.5150382">
<ele>86.004</ele>
<time>2016-03-02T00:07:14.423Z</time>
</trkpt>
<trkpt lat="-27.3664790" lon="152.5142773">
<ele>86.277</ele>
<time>2016-03-02T00:07:17.419Z</time>
</trkpt>
<trkpt lat="-27.3662397" lon="152.5137682">
<ele>85.397</ele>
<time>2016-03-02T00:07:19.426Z</time>
</trkpt>
<trkpt lat="-27.3659916" lon="152.5132616">
<ele>83.370</ele>
<time>2016-03-02T00:07:21.428Z</time>
</trkpt>
<trkpt lat="-27.3656414" lon="152.5124943">
<ele>81.279</ele>
<time>2016-03-02T00:07:24.417Z</time>
</trkpt>
<trkpt lat="-27.3653964" lon="152.5119892">
<ele>79.925</ele>
<time>2016-03-02T00:07:26.420Z</time>
</trkpt>
<trkpt lat="-27.3650459" lon="152.5112264">
<ele>79.104</ele>
<time>2016-03-02T00:07:29.422Z</time>
</trkpt>
<trkpt lat="-27.3647993" lon="152.5107363">
<ele>78.204</ele>
<time>2016-03-02T00:07:31.414Z</time>
</trkpt>
<trkpt lat="-27.3644052" lon="152.5100212">
<ele>76.798</ele>
<time>2016-03-02T00:07:34.397Z</time>
</trkpt>
<trkpt lat="-27.3639552" lon="152.5093346">
<ele>74.955</ele>
<time>2016-03-02T00:07:37.399Z</time>
</trkpt>
<trkpt lat="-27.3636181" lon="152.5089054">
<ele>73.259</ele>
<time>2016-03-02T00:07:39.403Z</time>
</trkpt>
<trkpt lat="-27.3631014" lon="152.5082740">
<ele>72.220</ele>
<time>2016-03-02T00:07:42.391Z</time>
</trkpt>
<trkpt lat="-27.3627366" lon="152.5078804">
<ele>71.816</ele>
<time>2016-03-02T00:07:44.374Z</time>
</trkpt>
<trkpt lat="-27.3621588" lon="152.5073256">
<ele>71.689</ele>
<time>2016-03-02T00:07:47.366Z</time>
</trkpt>
<trkpt lat="-27.3617444" lon="152.5069877">
<ele>71.585</ele>
<time>2016-03-02T00:07:49.377Z</time>
</trkpt>
<trkpt lat="-27.3611038" lon="152.5065170">
<ele>71.814</ele>
<time>2016-03-02T00:07:52.383Z</time>
</trkpt>
<trkpt lat="-27.3606688" lon="152.5062328">
<ele>72.765</ele>
<time>2016-03-02T00:07:54.369Z</time>
</trkpt>
<trkpt lat="-27.3602186" lon="152.5059773">
<ele>73.883</ele>
<time>2016-03-02T00:07:56.366Z</time>
</trkpt>
<trkpt lat="-27.3595197" lon="152.5056359">
<ele>74.396</ele>
<time>2016-03-02T00:07:59.379Z</time>
</trkpt>
<trkpt lat="-27.3588249" lon="152.5053027">
<ele>74.365</ele>
<time>2016-03-02T00:08:02.366Z</time>
</trkpt>
<trkpt lat="-27.3583689" lon="152.5050875">
<ele>74.018</ele>
<time>2016-03-02T00:08:04.340Z</time>
</trkpt>
<trkpt lat="-27.3576840" lon="152.5047765">
<ele>73.436</ele>
<time>2016-03-02T00:08:07.317Z</time>
</trkpt>
<trkpt lat="-27.3569944" lon="152.5044679">
<ele>72.920</ele>
<time>2016-03-02T00:08:10.332Z</time>
</trkpt>
<trkpt lat="-27.3565337" lon="152.5042601">
<ele>73.388</ele>
<time>2016-03-02T00:08:12.352Z</time>
</trkpt>
<trkpt lat="-27.3558397" lon="152.5039456">
<ele>75.166</ele>
<time>2016-03-02T00:08:15.388Z</time>
</trkpt>
<trkpt lat="-27.3551375" lon="152.5036459">
<ele>77.061</ele>
<time>2016-03-02T00:08:18.396Z</time>
</trkpt>
<trkpt lat="-27.3546680" lon="152.5034261">
<ele>78.310</ele>
<time>2016-03-02T00:08:20.408Z</time>
</trkpt>
<trkpt lat="-27.3542024" lon="152.5032125">
<ele>79.392</ele>
<time>2016-03-02T00:08:22.398Z</time>
</trkpt>
<trkpt lat="-27.3537398" lon="152.5029977">
<ele>80.379</ele>
<time>2016-03-02T00:08:24.384Z</time>
</trkpt>
<trkpt lat="-27.3532746" lon="152.5027835">
<ele>81.175</ele>
<time>2016-03-02T00:08:26.386Z</time>
</trkpt>
<trkpt lat="-27.3525845" lon="152.5024628">
<ele>81.955</ele>
<time>2016-03-02T00:08:29.384Z</time>
</trkpt>
<trkpt lat="-27.3519078" lon="152.5021439">
<ele>82.653</ele>
<time>2016-03-02T00:08:32.357Z</time>
</trkpt>
<trkpt lat="-27.3512123" lon="152.5018274">
<ele>82.863</ele>
<time>2016-03-02T00:08:35.393Z</time>
</trkpt>
<trkpt lat="-27.3507491" lon="152.5016173">
<ele>82.190</ele>
<time>2016-03-02T00:08:37.389Z</time>
</trkpt>
<trkpt lat="-27.3502839" lon="152.5013938">
<ele>80.844</ele>
<time>2016-03-02T00:08:39.395Z</time>
</trkpt>
<trkpt lat="-27.3495806" lon="152.5010724">
<ele>79.610</ele>
<time>2016-03-02T00:08:42.405Z</time>
</trkpt>
<trkpt lat="-27.3491080" lon="152.5008584">
<ele>78.832</ele>
<time>2016-03-02T00:08:44.423Z</time>
</trkpt>
<trkpt lat="-27.3483972" lon="152.5005672">
<ele>78.259</ele>
<time>2016-03-02T00:08:47.414Z</time>
</trkpt>
<trkpt lat="-27.3479096" lon="152.5004089">
<ele>77.767</ele>
<time>2016-03-02T00:08:49.420Z</time>
</trkpt>
<trkpt lat="-27.3474199" lon="152.5002660">
<ele>77.335</ele>
<time>2016-03-02T00:08:51.415Z</time>
</trkpt>
<trkpt lat="-27.3466696" lon="152.5000945">
<ele>76.914</ele>
<time>2016-03-02T00:08:54.419Z</time>
</trkpt>
<trkpt lat="-27.3461735" lon="152.5000088">
<ele>76.298</ele>
<time>2016-03-02T00:08:56.391Z</time>
</trkpt>
<trkpt lat="-27.3456735" lon="152.4999420">
<ele>75.332</ele>
<time>2016-03-02T00:08:58.381Z</time>
</trkpt>
<trkpt lat="-27.3451623" lon="152.4998956">
<ele>74.395</ele>
<time>2016-03-02T00:09:00.401Z</time>
</trkpt>
<trkpt lat="-27.3446453" lon="152.4998663">
<ele>73.887</ele>
<time>2016-03-02T00:09:02.431Z</time>
</trkpt>
<trkpt lat="-27.3441400" lon="152.4998338">
<ele>73.535</ele>
<time>2016-03-02T00:09:04.430Z</time>
</trkpt>
<trkpt lat="-27.3436353" lon="152.4998064">
<ele>72.946</ele>
<time>2016-03-02T00:09:06.441Z</time>
</trkpt>
<trkpt lat="-27.3431274" lon="152.4997833">
<ele>72.180</ele>
<time>2016-03-02T00:09:08.481Z</time>
</trkpt>
<trkpt lat="-27.3423694" lon="152.4997653">
<ele>71.281</ele>
<time>2016-03-02T00:09:11.533Z</time>
</trkpt>
<trkpt lat="-27.3416280" lon="152.4997250">
<ele>70.222</ele>
<time>2016-03-02T00:09:14.510Z</time>
</trkpt>
<trkpt lat="-27.3411315" lon="152.4997047">
<ele>69.506</ele>
<time>2016-03-02T00:09:16.498Z</time>
</trkpt>
<trkpt lat="-27.3403675" lon="152.4996693">
<ele>69.596</ele>
<time>2016-03-02T00:09:19.530Z</time>
</trkpt>
<trkpt lat="-27.3398607" lon="152.4996515">
<ele>70.478</ele>
<time>2016-03-02T00:09:21.529Z</time>
</trkpt>
<trkpt lat="-27.3393539" lon="152.4996385">
<ele>72.241</ele>
<time>2016-03-02T00:09:23.530Z</time>
</trkpt>
<trkpt lat="-27.3388544" lon="152.4996379">
<ele>74.926</ele>
<time>2016-03-02T00:09:25.510Z</time>
</trkpt>
<trkpt lat="-27.3381084" lon="152.4996675">
<ele>78.242</ele>
<time>2016-03-02T00:09:28.476Z</time>
</trkpt>
<trkpt lat="-27.3373655" lon="152.4997602">
<ele>82.244</ele>
<time>2016-03-02T00:09:31.441Z</time>
</trkpt>
<trkpt lat="-27.3368627" lon="152.4998315">
<ele>86.837</ele>
<time>2016-03-02T00:09:33.441Z</time>
</trkpt>
<trkpt lat="-27.3363624" lon="152.4999362">
<ele>91.284</ele>
<time>2016-03-02T00:09:35.448Z</time>
</trkpt>
<trkpt lat="-27.3358663" lon="152.5000525">
<ele>94.705</ele>
<time>2016-03-02T00:09:37.454Z</time>
</trkpt>
<trkpt lat="-27.3351203" lon="152.5002904">
<ele>96.560</ele>
<time>2016-03-02T00:09:40.514Z</time>
</trkpt>
<trkpt lat="-27.3346278" lon="152.5004630">
<ele>97.663</ele>
<time>2016-03-02T00:09:42.544Z</time>
</trkpt>
<trkpt lat="-27.3339032" lon="152.5007009">
<ele>99.344</ele>
<time>2016-03-02T00:09:45.516Z</time>
</trkpt>
<trkpt lat="-27.3331711" lon="152.5009599">
<ele>101.202</ele>
<time>2016-03-02T00:09:48.525Z</time>
</trkpt>
<trkpt lat="-27.3326858" lon="152.5011213">
<ele>102.015</ele>
<time>2016-03-02T00:09:50.507Z</time>
</trkpt>
<trkpt lat="-27.3319503" lon="152.5013810">
<ele>101.564</ele>
<time>2016-03-02T00:09:53.520Z</time>
</trkpt>
<trkpt lat="-27.3312250" lon="152.5016371">
<ele>99.969</ele>
<time>2016-03-02T00:09:56.481Z</time>
</trkpt>
<trkpt lat="-27.3304802" lon="152.5018928">
<ele>97.098</ele>
<time>2016-03-02T00:09:59.513Z</time>
</trkpt>
<trkpt lat="-27.3299954" lon="152.5020553">
<ele>93.398</ele>
<time>2016-03-02T00:10:01.486Z</time>
</trkpt>
<trkpt lat="-27.3292621" lon="152.5023032">
<ele>89.943</ele>
<time>2016-03-02T00:10:04.467Z</time>
</trkpt>
<trkpt lat="-27.3287595" lon="152.5024815">
<ele>86.597</ele>
<time>2016-03-02T00:10:06.497Z</time>
</trkpt>
<trkpt lat="-27.3280248" lon="152.5027579">
<ele>82.945</ele>
<time>2016-03-02T00:10:09.488Z</time>
</trkpt>
<trkpt lat="-27.3273125" lon="152.5029967">
<ele>79.835</ele>
<time>2016-03-02T00:10:12.414Z</time>
</trkpt>
<trkpt lat="-27.3268344" lon="152.5031570">
<ele>77.651</ele>
<time>2016-03-02T00:10:14.409Z</time>
</trkpt>
<trkpt lat="-27.3263619" lon="152.5033169">
<ele>75.882</ele>
<time>2016-03-02T00:10:16.395Z</time>
</trkpt>
<trkpt lat="-27.3258978" lon="152.5034823">
<ele>74.707</ele>
<time>2016-03-02T00:10:18.374Z</time>
</trkpt>
<trkpt lat="-27.3252453" lon="152.5037022">
<ele>74.076</ele>
<time>2016-03-02T00:10:21.238Z</time>
</trkpt>
<trkpt lat="-27.3246220" lon="152.5039002">
<ele>73.393</ele>
<time>2016-03-02T00:10:24.124Z</time>
</trkpt>
<trkpt lat="-27.3240115" lon="152.5040635">
<ele>72.632</ele>
<time>2016-03-02T00:10:27.050Z</time>
</trkpt>
<trkpt lat="-27.3236143" lon="152.5041549">
<ele>72.151</ele>
<time>2016-03-02T00:10:29.012Z</time>
</trkpt>
<trkpt lat="-27.3230323" lon="152.5042752">
<ele>72.052</ele>
<time>2016-03-02T00:10:31.974Z</time>
</trkpt>
<trkpt lat="-27.3226510" lon="152.5043404">
<ele>72.222</ele>
<time>2016-03-02T00:10:33.948Z</time>
</trkpt>
<trkpt lat="-27.3222482" lon="152.5043900">
<ele>72.492</ele>
<time>2016-03-02T00:10:35.981Z</time>
</trkpt>
<trkpt lat="-27.3218000" lon="152.5044347">
<ele>73.185</ele>
<time>2016-03-02T00:10:38.083Z</time>
</trkpt>
<trkpt lat="-27.3212818" lon="152.5044964">
<ele>75.785</ele>
<time>2016-03-02T00:10:40.289Z</time>
</trkpt>
<trkpt lat="-27.3203959" lon="152.5045834">
<ele>80.380</ele>
<time>2016-03-02T00:10:43.577Z</time>
</trkpt>
<trkpt lat="-27.3197588" lon="152.5046178">
<ele>85.320</ele>
<time>2016-03-02T00:10:45.698Z</time>
</trkpt>
<trkpt lat="-27.3188291" lon="152.5046724">
<ele>89.477</ele>
<time>2016-03-02T00:10:48.746Z</time>
</trkpt>
<trkpt lat="-27.3182429" lon="152.5047137">
<ele>91.664</ele>
<time>2016-03-02T00:10:50.727Z</time>
</trkpt>
<trkpt lat="-27.3174097" lon="152.5047770">
<ele>90.973</ele>
<time>2016-03-02T00:10:53.671Z</time>
</trkpt>
<trkpt lat="-27.3168781" lon="152.5048148">
<ele>88.624</ele>
<time>2016-03-02T00:10:55.636Z</time>
</trkpt>
<trkpt lat="-27.3160938" lon="152.5048698">
<ele>86.360</ele>
<time>2016-03-02T00:10:58.600Z</time>
</trkpt>
<trkpt lat="-27.3155763" lon="152.5048988">
<ele>85.126</ele>
<time>2016-03-02T00:11:00.591Z</time>
</trkpt>
<trkpt lat="-27.3150643" lon="152.5049412">
<ele>85.111</ele>
<time>2016-03-02T00:11:02.588Z</time>
</trkpt>
<trkpt lat="-27.3142964" lon="152.5049942">
<ele>85.877</ele>
<time>2016-03-02T00:11:05.598Z</time>
</trkpt>
<trkpt lat="-27.3135208" lon="152.5050335">
<ele>86.327</ele>
<time>2016-03-02T00:11:08.622Z</time>
</trkpt>
<trkpt lat="-27.3130049" lon="152.5050887">
<ele>85.809</ele>
<time>2016-03-02T00:11:10.626Z</time>
</trkpt>
<trkpt lat="-27.3124874" lon="152.5051254">
<ele>84.935</ele>
<time>2016-03-02T00:11:12.628Z</time>
</trkpt>
<trkpt lat="-27.3117090" lon="152.5051863">
<ele>84.407</ele>
<time>2016-03-02T00:11:15.638Z</time>
</trkpt>
<trkpt lat="-27.3109238" lon="152.5052459">
<ele>84.140</ele>
<time>2016-03-02T00:11:18.657Z</time>
</trkpt>
<trkpt lat="-27.3101548" lon="152.5053051">
<ele>83.706</ele>
<time>2016-03-02T00:11:21.610Z</time>
</trkpt>
<trkpt lat="-27.3096304" lon="152.5053462">
<ele>82.624</ele>
<time>2016-03-02T00:11:23.624Z</time>
</trkpt>
<trkpt lat="-27.3091057" lon="152.5053775">
<ele>80.987</ele>
<time>2016-03-02T00:11:25.638Z</time>
</trkpt>
<trkpt lat="-27.3083386" lon="152.5054351">
<ele>79.578</ele>
<time>2016-03-02T00:11:28.628Z</time>
</trkpt>
<trkpt lat="-27.3078525" lon="152.5054723">
<ele>78.876</ele>
<time>2016-03-02T00:11:30.577Z</time>
</trkpt>
<trkpt lat="-27.3070908" lon="152.5055269">
<ele>78.573</ele>
<time>2016-03-02T00:11:33.619Z</time>
</trkpt>
<trkpt lat="-27.3063216" lon="152.5055708">
<ele>78.341</ele>
<time>2016-03-02T00:11:36.616Z</time>
</trkpt>
<trkpt lat="-27.3055579" lon="152.5056336">
<ele>78.125</ele>
<time>2016-03-02T00:11:39.600Z</time>
</trkpt>
<trkpt lat="-27.3048064" lon="152.5056936">
<ele>77.821</ele>
<time>2016-03-02T00:11:42.575Z</time>
</trkpt>
<trkpt lat="-27.3040731" lon="152.5057639">
<ele>77.126</ele>
<time>2016-03-02T00:11:45.538Z</time>
</trkpt>
<trkpt lat="-27.3035747" lon="152.5058504">
<ele>75.672</ele>
<time>2016-03-02T00:11:47.576Z</time>
</trkpt>
<trkpt lat="-27.3028168" lon="152.5060292">
<ele>73.525</ele>
<time>2016-03-02T00:11:50.642Z</time>
</trkpt>
<trkpt lat="-27.3020602" lon="152.5062550">
<ele>71.518</ele>
<time>2016-03-02T00:11:53.672Z</time>
</trkpt>
<trkpt lat="-27.3015598" lon="152.5064389">
<ele>70.451</ele>
<time>2016-03-02T00:11:55.690Z</time>
</trkpt>
<trkpt lat="-27.3008335" lon="152.5067983">
<ele>70.361</ele>
<time>2016-03-02T00:11:58.717Z</time>
</trkpt>
<trkpt lat="-27.3001274" lon="152.5072012">
<ele>70.800</ele>
<time>2016-03-02T00:12:01.718Z</time>
</trkpt>
<trkpt lat="-27.2994436" lon="152.5076679">
<ele>71.619</ele>
<time>2016-03-02T00:12:04.728Z</time>
</trkpt>
<trkpt lat="-27.2989759" lon="152.5079942">
<ele>73.166</ele>
<time>2016-03-02T00:12:06.798Z</time>
</trkpt>
<trkpt lat="-27.2982899" lon="152.5084757">
<ele>75.284</ele>
<time>2016-03-02T00:12:09.810Z</time>
</trkpt>
<trkpt lat="-27.2978268" lon="152.5088010">
<ele>77.310</ele>
<time>2016-03-02T00:12:11.824Z</time>
</trkpt>
<trkpt lat="-27.2973770" lon="152.5091160">
<ele>78.995</ele>
<time>2016-03-02T00:12:13.785Z</time>
</trkpt>
<trkpt lat="-27.2966974" lon="152.5096067">
<ele>80.326</ele>
<time>2016-03-02T00:12:16.793Z</time>
</trkpt>
<trkpt lat="-27.2960198" lon="152.5100819">
<ele>81.698</ele>
<time>2016-03-02T00:12:19.778Z</time>
</trkpt>
<trkpt lat="-27.2955565" lon="152.5104023">
<ele>83.782</ele>
<time>2016-03-02T00:12:21.814Z</time>
</trkpt>
<trkpt lat="-27.2948618" lon="152.5108834">
<ele>86.366</ele>
<time>2016-03-02T00:12:24.868Z</time>
</trkpt>
<trkpt lat="-27.2943982" lon="152.5111905">
<ele>88.773</ele>
<time>2016-03-02T00:12:26.918Z</time>
</trkpt>
<trkpt lat="-27.2937261" lon="152.5115597">
<ele>90.620</ele>
<time>2016-03-02T00:12:29.839Z</time>
</trkpt>
<trkpt lat="-27.2930200" lon="152.5118684">
<ele>91.375</ele>
<time>2016-03-02T00:12:32.843Z</time>
</trkpt>
<trkpt lat="-27.2925310" lon="152.5120431">
<ele>90.834</ele>
<time>2016-03-02T00:12:34.858Z</time>
</trkpt>
<trkpt lat="-27.2917699" lon="152.5122571">
<ele>89.820</ele>
<time>2016-03-02T00:12:37.909Z</time>
</trkpt>
<trkpt lat="-27.2912628" lon="152.5123481">
<ele>89.249</ele>
<time>2016-03-02T00:12:39.879Z</time>
</trkpt>
<trkpt lat="-27.2904900" lon="152.5124309">
<ele>89.194</ele>
<time>2016-03-02T00:12:42.838Z</time>
</trkpt>
<trkpt lat="-27.2899575" lon="152.5124277">
<ele>89.150</ele>
<time>2016-03-02T00:12:44.868Z</time>
</trkpt>
<trkpt lat="-27.2891989" lon="152.5123612">
<ele>88.748</ele>
<time>2016-03-02T00:12:47.823Z</time>
</trkpt>
<trkpt lat="-27.2886967" lon="152.5123144">
<ele>87.513</ele>
<time>2016-03-02T00:12:49.800Z</time>
</trkpt>
<trkpt lat="-27.2879365" lon="152.5122587">
<ele>85.205</ele>
<time>2016-03-02T00:12:52.795Z</time>
</trkpt>
<trkpt lat="-27.2871830" lon="152.5122153">
<ele>82.126</ele>
<time>2016-03-02T00:12:55.737Z</time>
</trkpt>
<trkpt lat="-27.2863766" lon="152.5121563">
<ele>79.052</ele>
<time>2016-03-02T00:12:58.837Z</time>
</trkpt>
<trkpt lat="-27.2858521" lon="152.5121186">
<ele>76.937</ele>
<time>2016-03-02T00:13:00.848Z</time>
</trkpt>
<trkpt lat="-27.2850691" lon="152.5120267">
<ele>76.305</ele>
<time>2016-03-02T00:13:03.881Z</time>
</trkpt>
<trkpt lat="-27.2843141" lon="152.5118340">
<ele>76.682</ele>
<time>2016-03-02T00:13:06.881Z</time>
</trkpt>
<trkpt lat="-27.2838132" lon="152.5116684">
<ele>77.330</ele>
<time>2016-03-02T00:13:08.906Z</time>
</trkpt>
<trkpt lat="-27.2831072" lon="152.5113461">
<ele>77.437</ele>
<time>2016-03-02T00:13:11.863Z</time>
</trkpt>
<trkpt lat="-27.2826510" lon="152.5110975">
<ele>76.314</ele>
<time>2016-03-02T00:13:13.845Z</time>
</trkpt>
<trkpt lat="-27.2819891" lon="152.5106710">
<ele>74.025</ele>
<time>2016-03-02T00:13:16.846Z</time>
</trkpt>
<trkpt lat="-27.2815801" lon="152.5103232">
<ele>71.348</ele>
<time>2016-03-02T00:13:18.862Z</time>
</trkpt>
<trkpt lat="-27.2811783" lon="152.5099638">
<ele>69.131</ele>
<time>2016-03-02T00:13:20.877Z</time>
</trkpt>
<trkpt lat="-27.2807995" lon="152.5095805">
<ele>67.955</ele>
<time>2016-03-02T00:13:22.883Z</time>
</trkpt>
<trkpt lat="-27.2802612" lon="152.5089911">
<ele>67.938</ele>
<time>2016-03-02T00:13:25.849Z</time>
</trkpt>
<trkpt lat="-27.2799325" lon="152.5085667">
<ele>68.811</ele>
<time>2016-03-02T00:13:27.820Z</time>
</trkpt>
<trkpt lat="-27.2794955" lon="152.5078489">
<ele>70.402</ele>
<time>2016-03-02T00:13:30.860Z</time>
</trkpt>
<trkpt lat="-27.2791188" lon="152.5071030">
<ele>72.469</ele>
<time>2016-03-02T00:13:33.869Z</time>
</trkpt>
<trkpt lat="-27.2788804" lon="152.5066065">
<ele>74.713</ele>
<time>2016-03-02T00:13:35.856Z</time>
</trkpt>
<trkpt lat="-27.2786238" lon="152.5061183">
<ele>76.850</ele>
<time>2016-03-02T00:13:37.842Z</time>
</trkpt>
<trkpt lat="-27.2782456" lon="152.5053600">
<ele>78.511</ele>
<time>2016-03-02T00:13:40.867Z</time>
</trkpt>
<trkpt lat="-27.2778558" lon="152.5046205">
<ele>80.186</ele>
<time>2016-03-02T00:13:43.869Z</time>
</trkpt>
<trkpt lat="-27.2776209" lon="152.5041144">
<ele>82.566</ele>
<time>2016-03-02T00:13:45.888Z</time>
</trkpt>
<trkpt lat="-27.2772440" lon="152.5033786">
<ele>84.972</ele>
<time>2016-03-02T00:13:48.899Z</time>
</trkpt>
<trkpt lat="-27.2769958" lon="152.5028878">
<ele>86.600</ele>
<time>2016-03-02T00:13:50.890Z</time>
</trkpt>
<trkpt lat="-27.2767441" lon="152.5023837">
<ele>87.693</ele>
<time>2016-03-02T00:13:52.925Z</time>
</trkpt>
<trkpt lat="-27.2763591" lon="152.5016538">
<ele>88.897</ele>
<time>2016-03-02T00:13:55.908Z</time>
</trkpt>
<trkpt lat="-27.2759731" lon="152.5009229">
<ele>90.422</ele>
<time>2016-03-02T00:13:58.891Z</time>
</trkpt>
<trkpt lat="-27.2755741" lon="152.5001821">
<ele>92.138</ele>
<time>2016-03-02T00:14:01.922Z</time>
</trkpt>
<trkpt lat="-27.2752142" lon="152.4994379">
<ele>94.200</ele>
<time>2016-03-02T00:14:04.906Z</time>
</trkpt>
<trkpt lat="-27.2749797" lon="152.4989462">
<ele>96.299</ele>
<time>2016-03-02T00:14:06.875Z</time>
</trkpt>
<trkpt lat="-27.2745637" lon="152.4982273">
<ele>97.401</ele>
<time>2016-03-02T00:14:09.867Z</time>
</trkpt>
<trkpt lat="-27.2742210" lon="152.4977964">
<ele>97.285</ele>
<time>2016-03-02T00:14:11.846Z</time>
</trkpt>
<trkpt lat="-27.2736760" lon="152.4971692">
<ele>96.982</ele>
<time>2016-03-02T00:14:14.831Z</time>
</trkpt>
<trkpt lat="-27.2732956" lon="152.4967860">
<ele>97.320</ele>
<time>2016-03-02T00:14:16.797Z</time>
</trkpt>
<trkpt lat="-27.2728914" lon="152.4964247">
<ele>97.929</ele>
<time>2016-03-02T00:14:18.800Z</time>
</trkpt>
<trkpt lat="-27.2722886" lon="152.4958787">
<ele>97.951</ele>
<time>2016-03-02T00:14:21.807Z</time>
</trkpt>
<trkpt lat="-27.2718722" lon="152.4955210">
<ele>96.912</ele>
<time>2016-03-02T00:14:23.853Z</time>
</trkpt>
<trkpt lat="-27.2715052" lon="152.4951535">
<ele>95.020</ele>
<time>2016-03-02T00:14:25.793Z</time>
</trkpt>
<trkpt lat="-27.2708774" lon="152.4946296">
<ele>92.579</ele>
<time>2016-03-02T00:14:28.878Z</time>
</trkpt>
<trkpt lat="-27.2704600" lon="152.4942814">
<ele>89.269</ele>
<time>2016-03-02T00:14:30.900Z</time>
</trkpt>
<trkpt lat="-27.2700487" lon="152.4939170">
<ele>85.112</ele>
<time>2016-03-02T00:14:32.925Z</time>
</trkpt>
<trkpt lat="-27.2694418" lon="152.4933637">
<ele>81.128</ele>
<time>2016-03-02T00:14:35.926Z</time>
</trkpt>
<trkpt lat="-27.2690112" lon="152.4929973">
<ele>77.839</ele>
<time>2016-03-02T00:14:37.988Z</time>
</trkpt>
<trkpt lat="-27.2683887" lon="152.4924579">
<ele>75.182</ele>
<time>2016-03-02T00:14:41.007Z</time>
</trkpt>
<trkpt lat="-27.2679953" lon="152.4921019">
<ele>73.598</ele>
<time>2016-03-02T00:14:42.970Z</time>
</trkpt>
<trkpt lat="-27.2673780" lon="152.4915614">
<ele>73.296</ele>
<time>2016-03-02T00:14:46.018Z</time>
</trkpt>
<trkpt lat="-27.2669727" lon="152.4912160">
<ele>73.650</ele>
<time>2016-03-02T00:14:48.019Z</time>
</trkpt>
<trkpt lat="-27.2663915" lon="152.4906848">
<ele>74.075</ele>
<time>2016-03-02T00:14:51.008Z</time>
</trkpt>
<trkpt lat="-27.2660327" lon="152.4903112">
<ele>73.524</ele>
<time>2016-03-02T00:14:52.978Z</time>
</trkpt>
<trkpt lat="-27.2656904" lon="152.4899013">
<ele>71.354</ele>
<time>2016-03-02T00:14:54.977Z</time>
</trkpt>
<trkpt lat="-27.2652573" lon="152.4892094">
<ele>68.551</ele>
<time>2016-03-02T00:14:57.961Z</time>
</trkpt>
<trkpt lat="-27.2649645" lon="152.4887516">
<ele>66.471</ele>
<time>2016-03-02T00:14:59.945Z</time>
</trkpt>
<trkpt lat="-27.2646895" lon="152.4882681">
<ele>65.633</ele>
<time>2016-03-02T00:15:01.967Z</time>
</trkpt>
<trkpt lat="-27.2644109" lon="152.4878061">
<ele>65.922</ele>
<time>2016-03-02T00:15:03.949Z</time>
</trkpt>
<trkpt lat="-27.2639927" lon="152.4871097">
<ele>66.919</ele>
<time>2016-03-02T00:15:06.960Z</time>
</trkpt>
<trkpt lat="-27.2637165" lon="152.4866443">
<ele>68.586</ele>
<time>2016-03-02T00:15:08.966Z</time>
</trkpt>
<trkpt lat="-27.2632934" lon="152.4859487">
<ele>71.597</ele>
<time>2016-03-02T00:15:11.968Z</time>
</trkpt>
<trkpt lat="-27.2628698" lon="152.4852291">
<ele>76.050</ele>
<time>2016-03-02T00:15:15.018Z</time>
</trkpt>
<trkpt lat="-27.2624524" lon="152.4845365">
<ele>80.706</ele>
<time>2016-03-02T00:15:17.976Z</time>
</trkpt>
<trkpt lat="-27.2620251" lon="152.4838455">
<ele>84.390</ele>
<time>2016-03-02T00:15:20.943Z</time>
</trkpt>
<trkpt lat="-27.2615407" lon="152.4831616">
<ele>86.933</ele>
<time>2016-03-02T00:15:23.976Z</time>
</trkpt>
<trkpt lat="-27.2610411" lon="152.4824954">
<ele>88.364</ele>
<time>2016-03-02T00:15:26.968Z</time>
</trkpt>
<trkpt lat="-27.2607051" lon="152.4820623">
<ele>88.798</ele>
<time>2016-03-02T00:15:28.957Z</time>
</trkpt>
<trkpt lat="-27.2602020" lon="152.4814156">
<ele>88.526</ele>
<time>2016-03-02T00:15:31.942Z</time>
</trkpt>
<trkpt lat="-27.2598669" lon="152.4809766">
<ele>88.026</ele>
<time>2016-03-02T00:15:33.965Z</time>
</trkpt>
<trkpt lat="-27.2593795" lon="152.4803397">
<ele>87.676</ele>
<time>2016-03-02T00:15:36.929Z</time>
</trkpt>
<trkpt lat="-27.2590486" lon="152.4799232">
<ele>87.483</ele>
<time>2016-03-02T00:15:38.910Z</time>
</trkpt>
<trkpt lat="-27.2585786" lon="152.4792895">
<ele>87.303</ele>
<time>2016-03-02T00:15:41.832Z</time>
</trkpt>
<trkpt lat="-27.2580597" lon="152.4786271">
<ele>87.241</ele>
<time>2016-03-02T00:15:44.933Z</time>
</trkpt>
<trkpt lat="-27.2575524" lon="152.4779836">
<ele>87.835</ele>
<time>2016-03-02T00:15:47.915Z</time>
</trkpt>
<trkpt lat="-27.2572048" lon="152.4775440">
<ele>89.170</ele>
<time>2016-03-02T00:15:49.943Z</time>
</trkpt>
<trkpt lat="-27.2568717" lon="152.4771057">
<ele>90.363</ele>
<time>2016-03-02T00:15:51.940Z</time>
</trkpt>
<trkpt lat="-27.2565482" lon="152.4766659">
<ele>90.761</ele>
<time>2016-03-02T00:15:53.942Z</time>
</trkpt>
<trkpt lat="-27.2561157" lon="152.4759876">
<ele>90.574</ele>
<time>2016-03-02T00:15:56.932Z</time>
</trkpt>
<trkpt lat="-27.2558524" lon="152.4755380">
<ele>89.843</ele>
<time>2016-03-02T00:15:58.911Z</time>
</trkpt>
<trkpt lat="-27.2554991" lon="152.4748154">
<ele>88.129</ele>
<time>2016-03-02T00:16:01.948Z</time>
</trkpt>
<trkpt lat="-27.2551889" lon="152.4740793">
<ele>85.564</ele>
<time>2016-03-02T00:16:04.922Z</time>
</trkpt>
<trkpt lat="-27.2550090" lon="152.4735843">
<ele>83.001</ele>
<time>2016-03-02T00:16:06.887Z</time>
</trkpt>
<trkpt lat="-27.2548328" lon="152.4730753">
<ele>81.130</ele>
<time>2016-03-02T00:16:08.895Z</time>
</trkpt>
<trkpt lat="-27.2545554" lon="152.4723151">
<ele>80.237</ele>
<time>2016-03-02T00:16:11.900Z</time>
</trkpt>
<trkpt lat="-27.2543793" lon="152.4717944">
<ele>80.351</ele>
<time>2016-03-02T00:16:13.903Z</time>
</trkpt>
<trkpt lat="-27.2540983" lon="152.4710075">
<ele>81.586</ele>
<time>2016-03-02T00:16:16.922Z</time>
</trkpt>
<trkpt lat="-27.2539123" lon="152.4704824">
<ele>84.159</ele>
<time>2016-03-02T00:16:18.932Z</time>
</trkpt>
<trkpt lat="-27.2536221" lon="152.4696676">
<ele>87.258</ele>
<time>2016-03-02T00:16:21.979Z</time>
</trkpt>
<trkpt lat="-27.2534289" lon="152.4691229">
<ele>89.690</ele>
<time>2016-03-02T00:16:23.964Z</time>
</trkpt>
<trkpt lat="-27.2532396" lon="152.4685651">
<ele>91.297</ele>
<time>2016-03-02T00:16:25.965Z</time>
</trkpt>
<trkpt lat="-27.2530571" lon="152.4679979">
<ele>92.435</ele>
<time>2016-03-02T00:16:27.979Z</time>
</trkpt>
<trkpt lat="-27.2528673" lon="152.4674445">
<ele>93.168</ele>
<time>2016-03-02T00:16:29.968Z</time>
</trkpt>
<trkpt lat="-27.2526197" lon="152.4666026">
<ele>93.349</ele>
<time>2016-03-02T00:16:32.967Z</time>
</trkpt>
<trkpt lat="-27.2523975" lon="152.4657661">
<ele>91.988</ele>
<time>2016-03-02T00:16:35.969Z</time>
</trkpt>
<trkpt lat="-27.2522068" lon="152.4649370">
<ele>88.635</ele>
<time>2016-03-02T00:16:38.963Z</time>
</trkpt>
<trkpt lat="-27.2520566" lon="152.4640912">
<ele>84.647</ele>
<time>2016-03-02T00:16:42.006Z</time>
</trkpt>
<trkpt lat="-27.2519617" lon="152.4632769">
<ele>81.489</ele>
<time>2016-03-02T00:16:44.999Z</time>
</trkpt>
<trkpt lat="-27.2518917" lon="152.4625169">
<ele>79.143</ele>
<time>2016-03-02T00:16:48.001Z</time>
</trkpt>
<trkpt lat="-27.2518487" lon="152.4620663">
<ele>77.070</ele>
<time>2016-03-02T00:16:49.946Z</time>
</trkpt>
<trkpt lat="-27.2517886" lon="152.4614074">
<ele>75.201</ele>
<time>2016-03-02T00:16:52.901Z</time>
</trkpt>
<trkpt lat="-27.2517461" lon="152.4609756">
<ele>73.924</ele>
<time>2016-03-02T00:16:54.895Z</time>
</trkpt>
<trkpt lat="-27.2517086" lon="152.4605519">
<ele>73.304</ele>
<time>2016-03-02T00:16:56.914Z</time>
</trkpt>
<trkpt lat="-27.2516689" lon="152.4601578">
<ele>73.037</ele>
<time>2016-03-02T00:16:58.916Z</time>
</trkpt>
<trkpt lat="-27.2516396" lon="152.4598004">
<ele>72.605</ele>
<time>2016-03-02T00:17:00.890Z</time>
</trkpt>
<trkpt lat="-27.2515924" lon="152.4593192">
<ele>71.694</ele>
<time>2016-03-02T00:17:03.737Z</time>
</trkpt>
<trkpt lat="-27.2515589" lon="152.4590139">
<ele>70.638</ele>
<time>2016-03-02T00:17:05.616Z</time>
</trkpt>
<trkpt lat="-27.2515213" lon="152.4586758">
<ele>70.098</ele>
<time>2016-03-02T00:17:07.644Z</time>
</trkpt>
<trkpt lat="-27.2514864" lon="152.4583153">
<ele>70.457</ele>
<time>2016-03-02T00:17:09.711Z</time>
</trkpt>
<trkpt lat="-27.2514476" lon="152.4579502">
<ele>71.583</ele>
<time>2016-03-02T00:17:11.762Z</time>
</trkpt>
<trkpt lat="-27.2513907" lon="152.4574191">
<ele>73.203</ele>
<time>2016-03-02T00:17:14.780Z</time>
</trkpt>
<trkpt lat="-27.2513572" lon="152.4570751">
<ele>74.924</ele>
<time>2016-03-02T00:17:16.786Z</time>
</trkpt>
<trkpt lat="-27.2513224" lon="152.4567400">
<ele>76.200</ele>
<time>2016-03-02T00:17:18.775Z</time>
</trkpt>
<trkpt lat="-27.2513068" lon="152.4564039">
<ele>76.926</ele>
<time>2016-03-02T00:17:20.792Z</time>
</trkpt>
<trkpt lat="-27.2512648" lon="152.4559362">
<ele>77.373</ele>
<time>2016-03-02T00:17:23.825Z</time>
</trkpt>
<trkpt lat="-27.2512132" lon="152.4555325">
<ele>77.489</ele>
<time>2016-03-02T00:17:26.718Z</time>
</trkpt>
<trkpt lat="-27.2511738" lon="152.4551787">
<ele>77.063</ele>
<time>2016-03-02T00:17:29.647Z</time>
</trkpt>
<trkpt lat="-27.2511597" lon="152.4548976">
<ele>76.087</ele>
<time>2016-03-02T00:17:32.634Z</time>
</trkpt>
<trkpt lat="-27.2511443" lon="152.4547396">
<ele>74.702</ele>
<time>2016-03-02T00:17:34.999Z</time>
</trkpt>
<trkpt lat="-27.2511443" lon="152.4547396">
<ele>73.282</ele>
<time>2016-03-02T00:17:38.999Z</time>
</trkpt>
<trkpt lat="-27.2511443" lon="152.4547396">
<ele>72.479</ele>
<time>2016-03-02T00:18:31.532Z</time>
</trkpt>
<trkpt lat="-27.2511098" lon="152.4545169">
<ele>72.706</ele>
<time>2016-03-02T00:18:37.705Z</time>
</trkpt>
<trkpt lat="-27.2510966" lon="152.4543375">
<ele>74.099</ele>
<time>2016-03-02T00:18:39.691Z</time>
</trkpt>
<trkpt lat="-27.2510680" lon="152.4539972">
<ele>76.263</ele>
<time>2016-03-02T00:18:42.910Z</time>
</trkpt>
<trkpt lat="-27.2510512" lon="152.4537578">
<ele>78.175</ele>
<time>2016-03-02T00:18:44.829Z</time>
</trkpt>
<trkpt lat="-27.2510060" lon="152.4533738">
<ele>79.214</ele>
<time>2016-03-02T00:18:47.671Z</time>
</trkpt>
<trkpt lat="-27.2509638" lon="152.4529171">
<ele>79.798</ele>
<time>2016-03-02T00:18:50.687Z</time>
</trkpt>
<trkpt lat="-27.2509402" lon="152.4525972">
<ele>80.677</ele>
<time>2016-03-02T00:18:52.643Z</time>
</trkpt>
<trkpt lat="-27.2509030" lon="152.4522767">
<ele>82.002</ele>
<time>2016-03-02T00:18:54.560Z</time>
</trkpt>
<trkpt lat="-27.2508622" lon="152.4519327">
<ele>83.247</ele>
<time>2016-03-02T00:18:56.588Z</time>
</trkpt>
<trkpt lat="-27.2508139" lon="152.4516077">
<ele>84.078</ele>
<time>2016-03-02T00:18:58.483Z</time>
</trkpt>
<trkpt lat="-27.2507372" lon="152.4510894">
<ele>84.516</ele>
<time>2016-03-02T00:19:01.429Z</time>
</trkpt>
<trkpt lat="-27.2506434" lon="152.4505394">
<ele>84.849</ele>
<time>2016-03-02T00:19:04.345Z</time>
</trkpt>
<trkpt lat="-27.2505219" lon="152.4499064">
<ele>85.569</ele>
<time>2016-03-02T00:19:07.317Z</time>
</trkpt>
<trkpt lat="-27.2503373" lon="152.4491800">
<ele>87.296</ele>
<time>2016-03-02T00:19:10.353Z</time>
</trkpt>
<trkpt lat="-27.2501791" lon="152.4486537">
<ele>90.941</ele>
<time>2016-03-02T00:19:12.387Z</time>
</trkpt>
<trkpt lat="-27.2499598" lon="152.4478473">
<ele>96.356</ele>
<time>2016-03-02T00:19:15.391Z</time>
</trkpt>
<trkpt lat="-27.2498031" lon="152.4473003">
<ele>101.581</ele>
<time>2016-03-02T00:19:17.380Z</time>
</trkpt>
<trkpt lat="-27.2495534" lon="152.4464665">
<ele>104.844</ele>
<time>2016-03-02T00:19:20.385Z</time>
</trkpt>
<trkpt lat="-27.2493197" lon="152.4456168">
<ele>104.167</ele>
<time>2016-03-02T00:19:23.376Z</time>
</trkpt>
<trkpt lat="-27.2490878" lon="152.4447478">
<ele>99.261</ele>
<time>2016-03-02T00:19:26.388Z</time>
</trkpt>
<trkpt lat="-27.2489338" lon="152.4441661">
<ele>94.183</ele>
<time>2016-03-02T00:19:28.411Z</time>
</trkpt>
<trkpt lat="-27.2487188" lon="152.4433036">
<ele>92.430</ele>
<time>2016-03-02T00:19:31.439Z</time>
</trkpt>
<trkpt lat="-27.2485358" lon="152.4424576">
<ele>94.469</ele>
<time>2016-03-02T00:19:34.420Z</time>
</trkpt>
<trkpt lat="-27.2483596" lon="152.4416032">
<ele>99.611</ele>
<time>2016-03-02T00:19:37.440Z</time>
</trkpt>
<trkpt lat="-27.2481916" lon="152.4407642">
<ele>105.094</ele>
<time>2016-03-02T00:19:40.431Z</time>
</trkpt>
<trkpt lat="-27.2480915" lon="152.4402153">
<ele>108.778</ele>
<time>2016-03-02T00:19:42.400Z</time>
</trkpt>
<trkpt lat="-27.2480062" lon="152.4396628">
<ele>111.049</ele>
<time>2016-03-02T00:19:44.364Z</time>
</trkpt>
<trkpt lat="-27.2479098" lon="152.4391047">
<ele>112.597</ele>
<time>2016-03-02T00:19:46.335Z</time>
</trkpt>
<trkpt lat="-27.2478117" lon="152.4385314">
<ele>113.902</ele>
<time>2016-03-02T00:19:48.342Z</time>
</trkpt>
<trkpt lat="-27.2477225" lon="152.4379543">
<ele>115.375</ele>
<time>2016-03-02T00:19:50.361Z</time>
</trkpt>
<trkpt lat="-27.2476340" lon="152.4373966">
<ele>117.251</ele>
<time>2016-03-02T00:19:52.332Z</time>
</trkpt>
<trkpt lat="-27.2474735" lon="152.4365764">
<ele>119.432</ele>
<time>2016-03-02T00:19:55.260Z</time>
</trkpt>
<trkpt lat="-27.2473054" lon="152.4357302">
<ele>121.711</ele>
<time>2016-03-02T00:19:58.269Z</time>
</trkpt>
<trkpt lat="-27.2472101" lon="152.4351702">
<ele>124.548</ele>
<time>2016-03-02T00:20:00.242Z</time>
</trkpt>
<trkpt lat="-27.2471107" lon="152.4346098">
<ele>127.753</ele>
<time>2016-03-02T00:20:02.223Z</time>
</trkpt>
<trkpt lat="-27.2469558" lon="152.4337698">
<ele>130.260</ele>
<time>2016-03-02T00:20:05.212Z</time>
</trkpt>
<trkpt lat="-27.2468684" lon="152.4332067">
<ele>131.826</ele>
<time>2016-03-02T00:20:07.293Z</time>
</trkpt>
<trkpt lat="-27.2467329" lon="152.4324618">
<ele>132.701</ele>
<time>2016-03-02T00:20:10.265Z</time>
</trkpt>
<trkpt lat="-27.2466230" lon="152.4317969">
<ele>131.821</ele>
<time>2016-03-02T00:20:13.202Z</time>
</trkpt>
<trkpt lat="-27.2465541" lon="152.4313956">
<ele>128.258</ele>
<time>2016-03-02T00:20:15.168Z</time>
</trkpt>
<trkpt lat="-27.2464566" lon="152.4308277">
<ele>123.184</ele>
<time>2016-03-02T00:20:18.082Z</time>
</trkpt>
<trkpt lat="-27.2463337" lon="152.4302745">
<ele>118.459</ele>
<time>2016-03-02T00:20:21.069Z</time>
</trkpt>
<trkpt lat="-27.2462338" lon="152.4299316">
<ele>115.011</ele>
<time>2016-03-02T00:20:23.034Z</time>
</trkpt>
<trkpt lat="-27.2461201" lon="152.4296029">
<ele>113.254</ele>
<time>2016-03-02T00:20:25.031Z</time>
</trkpt>
<trkpt lat="-27.2459943" lon="152.4292978">
<ele>112.528</ele>
<time>2016-03-02T00:20:26.980Z</time>
</trkpt>
<trkpt lat="-27.2458390" lon="152.4290020">
<ele>111.702</ele>
<time>2016-03-02T00:20:28.973Z</time>
</trkpt>
<trkpt lat="-27.2456656" lon="152.4287198">
<ele>110.598</ele>
<time>2016-03-02T00:20:30.951Z</time>
</trkpt>
<trkpt lat="-27.2453495" lon="152.4283442">
<ele>109.704</ele>
<time>2016-03-02T00:20:33.934Z</time>
</trkpt>
<trkpt lat="-27.2451265" lon="152.4281220">
<ele>109.133</ele>
<time>2016-03-02T00:20:35.900Z</time>
</trkpt>
<trkpt lat="-27.2447956" lon="152.4277827">
<ele>108.446</ele>
<time>2016-03-02T00:20:38.887Z</time>
</trkpt>
<trkpt lat="-27.2445681" lon="152.4275579">
<ele>107.045</ele>
<time>2016-03-02T00:20:40.898Z</time>
</trkpt>
<trkpt lat="-27.2443348" lon="152.4273448">
<ele>105.112</ele>
<time>2016-03-02T00:20:42.896Z</time>
</trkpt>
<trkpt lat="-27.2441157" lon="152.4271326">
<ele>103.461</ele>
<time>2016-03-02T00:20:44.844Z</time>
</trkpt>
<trkpt lat="-27.2438007" lon="152.4267895">
<ele>102.207</ele>
<time>2016-03-02T00:20:47.827Z</time>
</trkpt>
<trkpt lat="-27.2436274" lon="152.4265259">
<ele>100.983</ele>
<time>2016-03-02T00:20:49.817Z</time>
</trkpt>
<trkpt lat="-27.2434982" lon="152.4262323">
<ele>99.920</ele>
<time>2016-03-02T00:20:51.801Z</time>
</trkpt>
<trkpt lat="-27.2433444" lon="152.4257626">
<ele>99.038</ele>
<time>2016-03-02T00:20:54.801Z</time>
</trkpt>
<trkpt lat="-27.2432315" lon="152.4254521">
<ele>98.124</ele>
<time>2016-03-02T00:20:56.817Z</time>
</trkpt>
<trkpt lat="-27.2431119" lon="152.4251534">
<ele>97.391</ele>
<time>2016-03-02T00:20:58.815Z</time>
</trkpt>
<trkpt lat="-27.2429743" lon="152.4248737">
<ele>97.105</ele>
<time>2016-03-02T00:21:00.785Z</time>
</trkpt>
<trkpt lat="-27.2427089" lon="152.4244715">
<ele>97.098</ele>
<time>2016-03-02T00:21:03.853Z</time>
</trkpt>
<trkpt lat="-27.2425322" lon="152.4242205">
<ele>96.978</ele>
<time>2016-03-02T00:21:05.800Z</time>
</trkpt>
<trkpt lat="-27.2423510" lon="152.4239695">
<ele>96.520</ele>
<time>2016-03-02T00:21:07.796Z</time>
</trkpt>
<trkpt lat="-27.2421587" lon="152.4237463">
<ele>96.009</ele>
<time>2016-03-02T00:21:09.763Z</time>
</trkpt>
<trkpt lat="-27.2418845" lon="152.4234077">
<ele>95.846</ele>
<time>2016-03-02T00:21:12.737Z</time>
</trkpt>
<trkpt lat="-27.2415990" lon="152.4230850">
<ele>96.060</ele>
<time>2016-03-02T00:21:15.745Z</time>
</trkpt>
<trkpt lat="-27.2413969" lon="152.4228888">
<ele>96.558</ele>
<time>2016-03-02T00:21:17.737Z</time>
</trkpt>
<trkpt lat="-27.2412049" lon="152.4226901">
<ele>97.214</ele>
<time>2016-03-02T00:21:19.720Z</time>
</trkpt>
<trkpt lat="-27.2409309" lon="152.4224021">
<ele>97.768</ele>
<time>2016-03-02T00:21:22.633Z</time>
</trkpt>
<trkpt lat="-27.2407359" lon="152.4222148">
<ele>97.981</ele>
<time>2016-03-02T00:21:24.610Z</time>
</trkpt>
<trkpt lat="-27.2404036" lon="152.4219216">
<ele>97.899</ele>
<time>2016-03-02T00:21:27.718Z</time>
</trkpt>
<trkpt lat="-27.2400496" lon="152.4216493">
<ele>98.034</ele>
<time>2016-03-02T00:21:30.758Z</time>
</trkpt>
<trkpt lat="-27.2398224" lon="152.4214632">
<ele>98.781</ele>
<time>2016-03-02T00:21:32.731Z</time>
</trkpt>
<trkpt lat="-27.2394839" lon="152.4211865">
<ele>99.722</ele>
<time>2016-03-02T00:21:35.659Z</time>
</trkpt>
<trkpt lat="-27.2391306" lon="152.4209043">
<ele>100.297</ele>
<time>2016-03-02T00:21:38.678Z</time>
</trkpt>
<trkpt lat="-27.2387849" lon="152.4206109">
<ele>100.607</ele>
<time>2016-03-02T00:21:41.676Z</time>
</trkpt>
<trkpt lat="-27.2385544" lon="152.4204262">
<ele>101.068</ele>
<time>2016-03-02T00:21:43.644Z</time>
</trkpt>
<trkpt lat="-27.2381957" lon="152.4201550">
<ele>101.819</ele>
<time>2016-03-02T00:21:46.662Z</time>
</trkpt>
<trkpt lat="-27.2379633" lon="152.4199696">
<ele>102.556</ele>
<time>2016-03-02T00:21:48.657Z</time>
</trkpt>
<trkpt lat="-27.2376129" lon="152.4196950">
<ele>102.965</ele>
<time>2016-03-02T00:21:51.653Z</time>
</trkpt>
<trkpt lat="-27.2373807" lon="152.4195099">
<ele>103.050</ele>
<time>2016-03-02T00:21:53.665Z</time>
</trkpt>
<trkpt lat="-27.2370366" lon="152.4192556">
<ele>103.024</ele>
<time>2016-03-02T00:21:56.664Z</time>
</trkpt>
<trkpt lat="-27.2367194" lon="152.4190330">
<ele>103.044</ele>
<time>2016-03-02T00:21:59.611Z</time>
</trkpt>
<trkpt lat="-27.2365331" lon="152.4189060">
<ele>102.901</ele>
<time>2016-03-02T00:22:01.508Z</time>
</trkpt>
<trkpt lat="-27.2363668" lon="152.4187718">
<ele>102.414</ele>
<time>2016-03-02T00:22:03.409Z</time>
</trkpt>
<trkpt lat="-27.2361129" lon="152.4186213">
<ele>101.886</ele>
<time>2016-03-02T00:22:06.139Z</time>
</trkpt>
<trkpt lat="-27.2359215" lon="152.4185093">
<ele>101.828</ele>
<time>2016-03-02T00:22:08.103Z</time>
</trkpt>
<trkpt lat="-27.2357092" lon="152.4183541">
<ele>102.333</ele>
<time>2016-03-02T00:22:10.246Z</time>
</trkpt>
<trkpt lat="-27.2353962" lon="152.4181441">
<ele>102.979</ele>
<time>2016-03-02T00:22:13.209Z</time>
</trkpt>
<trkpt lat="-27.2351844" lon="152.4179941">
<ele>103.556</ele>
<time>2016-03-02T00:22:15.249Z</time>
</trkpt>
<trkpt lat="-27.2349903" lon="152.4178234">
<ele>104.181</ele>
<time>2016-03-02T00:22:17.282Z</time>
</trkpt>
<trkpt lat="-27.2347470" lon="152.4176767">
<ele>104.685</ele>
<time>2016-03-02T00:22:19.534Z</time>
</trkpt>
<trkpt lat="-27.2343884" lon="152.4174228">
<ele>104.916</ele>
<time>2016-03-02T00:22:22.812Z</time>
</trkpt>
<trkpt lat="-27.2341814" lon="152.4172961">
<ele>105.028</ele>
<time>2016-03-02T00:22:24.596Z</time>
</trkpt>
<trkpt lat="-27.2339448" lon="152.4171294">
<ele>105.131</ele>
<time>2016-03-02T00:22:26.710Z</time>
</trkpt>
<trkpt lat="-27.2336064" lon="152.4169195">
<ele>105.268</ele>
<time>2016-03-02T00:22:29.616Z</time>
</trkpt>
<trkpt lat="-27.2333732" lon="152.4167427">
<ele>105.453</ele>
<time>2016-03-02T00:22:31.686Z</time>
</trkpt>
<trkpt lat="-27.2330231" lon="152.4164988">
<ele>105.698</ele>
<time>2016-03-02T00:22:34.654Z</time>
</trkpt>
<trkpt lat="-27.2327863" lon="152.4163450">
<ele>105.993</ele>
<time>2016-03-02T00:22:36.586Z</time>
</trkpt>
<trkpt lat="-27.2325369" lon="152.4161845">
<ele>106.239</ele>
<time>2016-03-02T00:22:38.546Z</time>
</trkpt>
<trkpt lat="-27.2321355" lon="152.4159076">
<ele>106.345</ele>
<time>2016-03-02T00:22:41.599Z</time>
</trkpt>
<trkpt lat="-27.2318528" lon="152.4156820">
<ele>106.762</ele>
<time>2016-03-02T00:22:43.751Z</time>
</trkpt>
<trkpt lat="-27.2315306" lon="152.4154790">
<ele>107.799</ele>
<time>2016-03-02T00:22:45.999Z</time>
</trkpt>
<trkpt lat="-27.2312492" lon="152.4153002">
<ele>108.867</ele>
<time>2016-03-02T00:22:47.967Z</time>
</trkpt>
<trkpt lat="-27.2307963" lon="152.4150739">
<ele>109.260</ele>
<time>2016-03-02T00:22:50.996Z</time>
</trkpt>
<trkpt lat="-27.2303484" lon="152.4148328">
<ele>108.895</ele>
<time>2016-03-02T00:22:54.012Z</time>
</trkpt>
<trkpt lat="-27.2300097" lon="152.4147423">
<ele>108.122</ele>
<time>2016-03-02T00:22:56.072Z</time>
</trkpt>
<trkpt lat="-27.2294803" lon="152.4146150">
<ele>107.555</ele>
<time>2016-03-02T00:22:59.160Z</time>
</trkpt>
<trkpt lat="-27.2289413" lon="152.4144686">
<ele>107.456</ele>
<time>2016-03-02T00:23:02.213Z</time>
</trkpt>
<trkpt lat="-27.2283992" lon="152.4143391">
<ele>107.601</ele>
<time>2016-03-02T00:23:05.230Z</time>
</trkpt>
<trkpt lat="-27.2278640" lon="152.4142057">
<ele>107.743</ele>
<time>2016-03-02T00:23:08.208Z</time>
</trkpt>
<trkpt lat="-27.2273286" lon="152.4140715">
<ele>107.899</ele>
<time>2016-03-02T00:23:11.157Z</time>
</trkpt>
<trkpt lat="-27.2269460" lon="152.4139808">
<ele>108.131</ele>
<time>2016-03-02T00:23:13.175Z</time>
</trkpt>
<trkpt lat="-27.2263620" lon="152.4138313">
<ele>108.678</ele>
<time>2016-03-02T00:23:16.175Z</time>
</trkpt>
<trkpt lat="-27.2259695" lon="152.4137345">
<ele>109.843</ele>
<time>2016-03-02T00:23:18.151Z</time>
</trkpt>
<trkpt lat="-27.2253824" lon="152.4135978">
<ele>111.319</ele>
<time>2016-03-02T00:23:21.113Z</time>
</trkpt>
<trkpt lat="-27.2247801" lon="152.4134658">
<ele>112.452</ele>
<time>2016-03-02T00:23:24.170Z</time>
</trkpt>
<trkpt lat="-27.2241837" lon="152.4133477">
<ele>113.042</ele>
<time>2016-03-02T00:23:27.169Z</time>
</trkpt>
<trkpt lat="-27.2237798" lon="152.4132793">
<ele>113.205</ele>
<time>2016-03-02T00:23:29.101Z</time>
</trkpt>
<trkpt lat="-27.2231049" lon="152.4131614">
<ele>113.136</ele>
<time>2016-03-02T00:23:32.145Z</time>
</trkpt>
<trkpt lat="-27.2223817" lon="152.4130220">
<ele>113.334</ele>
<time>2016-03-02T00:23:35.187Z</time>
</trkpt>
<trkpt lat="-27.2216648" lon="152.4127998">
<ele>114.166</ele>
<time>2016-03-02T00:23:38.205Z</time>
</trkpt>
<trkpt lat="-27.2209666" lon="152.4125242">
<ele>115.227</ele>
<time>2016-03-02T00:23:41.175Z</time>
</trkpt>
<trkpt lat="-27.2202387" lon="152.4121392">
<ele>116.188</ele>
<time>2016-03-02T00:23:44.185Z</time>
</trkpt>
<trkpt lat="-27.2196804" lon="152.4118411">
<ele>117.627</ele>
<time>2016-03-02T00:23:46.231Z</time>
</trkpt>
<trkpt lat="-27.2190883" lon="152.4115513">
<ele>120.244</ele>
<time>2016-03-02T00:23:48.219Z</time>
</trkpt>
<trkpt lat="-27.2184764" lon="152.4112085">
<ele>124.585</ele>
<time>2016-03-02T00:23:50.286Z</time>
</trkpt>
<trkpt lat="-27.2179016" lon="152.4108946">
<ele>129.823</ele>
<time>2016-03-02T00:23:52.323Z</time>
</trkpt>
<trkpt lat="-27.2173776" lon="152.4106040">
<ele>133.022</ele>
<time>2016-03-02T00:23:54.366Z</time>
</trkpt>
<trkpt lat="-27.2168969" lon="152.4103585">
<ele>129.500</ele>
<time>2016-03-02T00:23:56.302Z</time>
</trkpt>
<trkpt lat="-27.2161706" lon="152.4100535">
<ele>119.086</ele>
<time>2016-03-02T00:23:59.290Z</time>
</trkpt>
<trkpt lat="-27.2154338" lon="152.4097866">
<ele>108.605</ele>
<time>2016-03-02T00:24:02.320Z</time>
</trkpt>
<trkpt lat="-27.2149428" lon="152.4096378">
<ele>103.378</ele>
<time>2016-03-02T00:24:04.322Z</time>
</trkpt>
<trkpt lat="-27.2144548" lon="152.4094751">
<ele>103.211</ele>
<time>2016-03-02T00:24:06.316Z</time>
</trkpt>
<trkpt lat="-27.2137126" lon="152.4092457">
<ele>106.287</ele>
<time>2016-03-02T00:24:09.338Z</time>
</trkpt>
<trkpt lat="-27.2132291" lon="152.4090917">
<ele>109.730</ele>
<time>2016-03-02T00:24:11.344Z</time>
</trkpt>
<trkpt lat="-27.2125143" lon="152.4088531">
<ele>111.553</ele>
<time>2016-03-02T00:24:14.367Z</time>
</trkpt>
<trkpt lat="-27.2118299" lon="152.4085916">
<ele>111.752</ele>
<time>2016-03-02T00:24:17.356Z</time>
</trkpt>
<trkpt lat="-27.2113923" lon="152.4083998">
<ele>110.942</ele>
<time>2016-03-02T00:24:19.336Z</time>
</trkpt>
<trkpt lat="-27.2109641" lon="152.4082019">
<ele>109.905</ele>
<time>2016-03-02T00:24:21.291Z</time>
</trkpt>
<trkpt lat="-27.2103077" lon="152.4079322">
<ele>109.070</ele>
<time>2016-03-02T00:24:24.210Z</time>
</trkpt>
<trkpt lat="-27.2098393" lon="152.4077741">
<ele>108.394</ele>
<time>2016-03-02T00:24:26.221Z</time>
</trkpt>
<trkpt lat="-27.2093617" lon="152.4076475">
<ele>107.939</ele>
<time>2016-03-02T00:24:28.233Z</time>
</trkpt>
<trkpt lat="-27.2088794" lon="152.4075420">
<ele>107.782</ele>
<time>2016-03-02T00:24:30.241Z</time>
</trkpt>
<trkpt lat="-27.2081486" lon="152.4073873">
<ele>107.780</ele>
<time>2016-03-02T00:24:33.264Z</time>
</trkpt>
<trkpt lat="-27.2074006" lon="152.4072549">
<ele>107.939</ele>
<time>2016-03-02T00:24:36.318Z</time>
</trkpt>
<trkpt lat="-27.2069048" lon="152.4071674">
<ele>108.289</ele>
<time>2016-03-02T00:24:38.325Z</time>
</trkpt>
<trkpt lat="-27.2061830" lon="152.4070139">
<ele>108.630</ele>
<time>2016-03-02T00:24:41.268Z</time>
</trkpt>
<trkpt lat="-27.2056888" lon="152.4069243">
<ele>108.857</ele>
<time>2016-03-02T00:24:43.291Z</time>
</trkpt>
<trkpt lat="-27.2051940" lon="152.4068635">
<ele>109.276</ele>
<time>2016-03-02T00:24:45.318Z</time>
</trkpt>
<trkpt lat="-27.2047044" lon="152.4068266">
<ele>110.061</ele>
<time>2016-03-02T00:24:47.313Z</time>
</trkpt>
<trkpt lat="-27.2039655" lon="152.4068289">
<ele>111.146</ele>
<time>2016-03-02T00:24:50.306Z</time>
</trkpt>
<trkpt lat="-27.2032239" lon="152.4069115">
<ele>112.485</ele>
<time>2016-03-02T00:24:53.305Z</time>
</trkpt>
<trkpt lat="-27.2024835" lon="152.4070643">
<ele>114.090</ele>
<time>2016-03-02T00:24:56.313Z</time>
</trkpt>
<trkpt lat="-27.2019886" lon="152.4071466">
<ele>115.841</ele>
<time>2016-03-02T00:24:58.305Z</time>
</trkpt>
<trkpt lat="-27.2015063" lon="152.4072296">
<ele>117.162</ele>
<time>2016-03-02T00:25:00.263Z</time>
</trkpt>
<trkpt lat="-27.2010134" lon="152.4072945">
<ele>117.407</ele>
<time>2016-03-02T00:25:02.259Z</time>
</trkpt>
<trkpt lat="-27.2002671" lon="152.4073019">
<ele>116.849</ele>
<time>2016-03-02T00:25:05.240Z</time>
</trkpt>
<trkpt lat="-27.1995151" lon="152.4071944">
<ele>116.564</ele>
<time>2016-03-02T00:25:08.229Z</time>
</trkpt>
<trkpt lat="-27.1990069" lon="152.4070997">
<ele>117.099</ele>
<time>2016-03-02T00:25:10.227Z</time>
</trkpt>
<trkpt lat="-27.1984985" lon="152.4070003">
<ele>117.876</ele>
<time>2016-03-02T00:25:12.211Z</time>
</trkpt>
<trkpt lat="-27.1977432" lon="152.4068624">
<ele>118.263</ele>
<time>2016-03-02T00:25:15.159Z</time>
</trkpt>
<trkpt lat="-27.1972410" lon="152.4067650">
<ele>118.544</ele>
<time>2016-03-02T00:25:17.148Z</time>
</trkpt>
<trkpt lat="-27.1967344" lon="152.4066810">
<ele>119.087</ele>
<time>2016-03-02T00:25:19.176Z</time>
</trkpt>
<trkpt lat="-27.1959956" lon="152.4065462">
<ele>119.656</ele>
<time>2016-03-02T00:25:22.168Z</time>
</trkpt>
<trkpt lat="-27.1955026" lon="152.4064578">
<ele>119.713</ele>
<time>2016-03-02T00:25:24.170Z</time>
</trkpt>
<trkpt lat="-27.1949959" lon="152.4063622">
<ele>119.084</ele>
<time>2016-03-02T00:25:26.226Z</time>
</trkpt>
<trkpt lat="-27.1942523" lon="152.4062070">
<ele>118.286</ele>
<time>2016-03-02T00:25:29.236Z</time>
</trkpt>
<trkpt lat="-27.1935188" lon="152.4060311">
<ele>118.169</ele>
<time>2016-03-02T00:25:32.234Z</time>
</trkpt>
<trkpt lat="-27.1930523" lon="152.4058654">
<ele>119.089</ele>
<time>2016-03-02T00:25:34.233Z</time>
</trkpt>
<trkpt lat="-27.1926183" lon="152.4056536">
<ele>120.728</ele>
<time>2016-03-02T00:25:36.196Z</time>
</trkpt>
<trkpt lat="-27.1919757" lon="152.4053265">
<ele>122.407</ele>
<time>2016-03-02T00:25:39.120Z</time>
</trkpt>
<trkpt lat="-27.1913117" lon="152.4049937">
<ele>123.790</ele>
<time>2016-03-02T00:25:42.082Z</time>
</trkpt>
<trkpt lat="-27.1908538" lon="152.4047607">
<ele>124.994</ele>
<time>2016-03-02T00:25:44.106Z</time>
</trkpt>
<trkpt lat="-27.1901642" lon="152.4044430">
<ele>126.237</ele>
<time>2016-03-02T00:25:47.110Z</time>
</trkpt>
<trkpt lat="-27.1894807" lon="152.4041210">
<ele>127.889</ele>
<time>2016-03-02T00:25:50.083Z</time>
</trkpt>
<trkpt lat="-27.1890117" lon="152.4039246">
<ele>130.284</ele>
<time>2016-03-02T00:25:52.082Z</time>
</trkpt>
<trkpt lat="-27.1885485" lon="152.4037492">
<ele>133.151</ele>
<time>2016-03-02T00:25:54.038Z</time>
</trkpt>
<trkpt lat="-27.1878191" lon="152.4034759">
<ele>135.693</ele>
<time>2016-03-02T00:25:57.107Z</time>
</trkpt>
<trkpt lat="-27.1870905" lon="152.4032352">
<ele>137.151</ele>
<time>2016-03-02T00:26:00.119Z</time>
</trkpt>
<trkpt lat="-27.1863555" lon="152.4030287">
<ele>136.899</ele>
<time>2016-03-02T00:26:03.120Z</time>
</trkpt>
<trkpt lat="-27.1858682" lon="152.4029165">
<ele>134.454</ele>
<time>2016-03-02T00:26:05.089Z</time>
</trkpt>
<trkpt lat="-27.1853621" lon="152.4028002">
<ele>130.179</ele>
<time>2016-03-02T00:26:07.115Z</time>
</trkpt>
<trkpt lat="-27.1845871" lon="152.4026705">
<ele>125.375</ele>
<time>2016-03-02T00:26:10.138Z</time>
</trkpt>
<trkpt lat="-27.1840618" lon="152.4025845">
<ele>121.554</ele>
<time>2016-03-02T00:26:12.149Z</time>
</trkpt>
<trkpt lat="-27.1835425" lon="152.4024995">
<ele>119.806</ele>
<time>2016-03-02T00:26:14.160Z</time>
</trkpt>
<trkpt lat="-27.1830149" lon="152.4024020">
<ele>120.052</ele>
<time>2016-03-02T00:26:16.235Z</time>
</trkpt>
<trkpt lat="-27.1822545" lon="152.4022717">
<ele>121.477</ele>
<time>2016-03-02T00:26:19.244Z</time>
</trkpt>
<trkpt lat="-27.1817647" lon="152.4021820">
<ele>123.970</ele>
<time>2016-03-02T00:26:21.188Z</time>
</trkpt>
<trkpt lat="-27.1812624" lon="152.4021006">
<ele>127.781</ele>
<time>2016-03-02T00:26:23.180Z</time>
</trkpt>
<trkpt lat="-27.1807606" lon="152.4019952">
<ele>132.240</ele>
<time>2016-03-02T00:26:25.183Z</time>
</trkpt>
<trkpt lat="-27.1800071" lon="152.4018098">
<ele>136.469</ele>
<time>2016-03-02T00:26:28.201Z</time>
</trkpt>
<trkpt lat="-27.1795151" lon="152.4016678">
<ele>139.856</ele>
<time>2016-03-02T00:26:30.186Z</time>
</trkpt>
<trkpt lat="-27.1790240" lon="152.4014997">
<ele>141.450</ele>
<time>2016-03-02T00:26:32.191Z</time>
</trkpt>
<trkpt lat="-27.1782891" lon="152.4012320">
<ele>140.817</ele>
<time>2016-03-02T00:26:35.200Z</time>
</trkpt>
<trkpt lat="-27.1778036" lon="152.4010478">
<ele>138.888</ele>
<time>2016-03-02T00:26:37.175Z</time>
</trkpt>
<trkpt lat="-27.1770658" lon="152.4007974">
<ele>136.962</ele>
<time>2016-03-02T00:26:40.139Z</time>
</trkpt>
<trkpt lat="-27.1765925" lon="152.4006199">
<ele>135.725</ele>
<time>2016-03-02T00:26:42.057Z</time>
</trkpt>
<trkpt lat="-27.1758351" lon="152.4003361">
<ele>135.240</ele>
<time>2016-03-02T00:26:45.108Z</time>
</trkpt>
<trkpt lat="-27.1753434" lon="152.4001588">
<ele>135.493</ele>
<time>2016-03-02T00:26:47.072Z</time>
</trkpt>
<trkpt lat="-27.1748432" lon="152.3999727">
<ele>136.277</ele>
<time>2016-03-02T00:26:49.092Z</time>
</trkpt>
<trkpt lat="-27.1743723" lon="152.3997874">
<ele>137.040</ele>
<time>2016-03-02T00:26:51.030Z</time>
</trkpt>
<trkpt lat="-27.1738815" lon="152.3996033">
<ele>137.335</ele>
<time>2016-03-02T00:26:53.042Z</time>
</trkpt>
<trkpt lat="-27.1731357" lon="152.3992963">
<ele>137.065</ele>
<time>2016-03-02T00:26:56.098Z</time>
</trkpt>
<trkpt lat="-27.1723911" lon="152.3989861">
<ele>136.378</ele>
<time>2016-03-02T00:26:59.114Z</time>
</trkpt>
<trkpt lat="-27.1718918" lon="152.3987878">
<ele>135.646</ele>
<time>2016-03-02T00:27:01.127Z</time>
</trkpt>
<trkpt lat="-27.1711481" lon="152.3985005">
<ele>134.976</ele>
<time>2016-03-02T00:27:04.134Z</time>
</trkpt>
<trkpt lat="-27.1706684" lon="152.3982975">
<ele>134.163</ele>
<time>2016-03-02T00:27:06.116Z</time>
</trkpt>
<trkpt lat="-27.1701905" lon="152.3981025">
<ele>133.194</ele>
<time>2016-03-02T00:27:08.114Z</time>
</trkpt>
<trkpt lat="-27.1697187" lon="152.3978967">
<ele>132.379</ele>
<time>2016-03-02T00:27:10.123Z</time>
</trkpt>
<trkpt lat="-27.1689917" lon="152.3976302">
<ele>131.847</ele>
<time>2016-03-02T00:27:13.144Z</time>
</trkpt>
<trkpt lat="-27.1685179" lon="152.3974363">
<ele>131.508</ele>
<time>2016-03-02T00:27:15.117Z</time>
</trkpt>
<trkpt lat="-27.1678020" lon="152.3971343">
<ele>131.311</ele>
<time>2016-03-02T00:27:18.123Z</time>
</trkpt>
<trkpt lat="-27.1673311" lon="152.3969469">
<ele>131.470</ele>
<time>2016-03-02T00:27:20.101Z</time>
</trkpt>
<trkpt lat="-27.1666046" lon="152.3966954">
<ele>132.196</ele>
<time>2016-03-02T00:27:23.112Z</time>
</trkpt>
<trkpt lat="-27.1661034" lon="152.3965872">
<ele>133.268</ele>
<time>2016-03-02T00:27:25.130Z</time>
</trkpt>
<trkpt lat="-27.1653511" lon="152.3964887">
<ele>134.442</ele>
<time>2016-03-02T00:27:28.136Z</time>
</trkpt>
<trkpt lat="-27.1646043" lon="152.3964529">
<ele>136.064</ele>
<time>2016-03-02T00:27:31.122Z</time>
</trkpt>
<trkpt lat="-27.1641023" lon="152.3964452">
<ele>139.007</ele>
<time>2016-03-02T00:27:33.139Z</time>
</trkpt>
<trkpt lat="-27.1636110" lon="152.3964371">
<ele>143.590</ele>
<time>2016-03-02T00:27:35.125Z</time>
</trkpt>
<trkpt lat="-27.1631185" lon="152.3964252">
<ele>148.831</ele>
<time>2016-03-02T00:27:37.110Z</time>
</trkpt>
<trkpt lat="-27.1626073" lon="152.3964087">
<ele>153.845</ele>
<time>2016-03-02T00:27:39.152Z</time>
</trkpt>
<trkpt lat="-27.1621034" lon="152.3963721">
<ele>158.758</ele>
<time>2016-03-02T00:27:41.162Z</time>
</trkpt>
<trkpt lat="-27.1613530" lon="152.3961969">
<ele>163.111</ele>
<time>2016-03-02T00:27:44.207Z</time>
</trkpt>
<trkpt lat="-27.1606526" lon="152.3958967">
<ele>165.893</ele>
<time>2016-03-02T00:27:47.149Z</time>
</trkpt>
<trkpt lat="-27.1601695" lon="152.3956832">
<ele>167.118</ele>
<time>2016-03-02T00:27:49.150Z</time>
</trkpt>
<trkpt lat="-27.1594428" lon="152.3953397">
<ele>167.576</ele>
<time>2016-03-02T00:27:52.191Z</time>
</trkpt>
<trkpt lat="-27.1587398" lon="152.3950259">
<ele>167.727</ele>
<time>2016-03-02T00:27:55.140Z</time>
</trkpt>
<trkpt lat="-27.1582533" lon="152.3948152">
<ele>167.595</ele>
<time>2016-03-02T00:27:57.160Z</time>
</trkpt>
<trkpt lat="-27.1577583" lon="152.3946141">
<ele>167.185</ele>
<time>2016-03-02T00:27:59.188Z</time>
</trkpt>
<trkpt lat="-27.1570388" lon="152.3942976">
<ele>166.370</ele>
<time>2016-03-02T00:28:02.177Z</time>
</trkpt>
<trkpt lat="-27.1563181" lon="152.3939577">
<ele>164.922</ele>
<time>2016-03-02T00:28:05.229Z</time>
</trkpt>
<trkpt lat="-27.1556276" lon="152.3936443">
<ele>163.255</ele>
<time>2016-03-02T00:28:08.187Z</time>
</trkpt>
<trkpt lat="-27.1549557" lon="152.3933474">
<ele>161.989</ele>
<time>2016-03-02T00:28:11.114Z</time>
</trkpt>
<trkpt lat="-27.1544886" lon="152.3931442">
<ele>161.149</ele>
<time>2016-03-02T00:28:13.132Z</time>
</trkpt>
<trkpt lat="-27.1540181" lon="152.3929336">
<ele>160.178</ele>
<time>2016-03-02T00:28:15.135Z</time>
</trkpt>
<trkpt lat="-27.1532967" lon="152.3926197">
<ele>158.452</ele>
<time>2016-03-02T00:28:18.158Z</time>
</trkpt>
<trkpt lat="-27.1528156" lon="152.3924096">
<ele>155.822</ele>
<time>2016-03-02T00:28:20.156Z</time>
</trkpt>
<trkpt lat="-27.1523267" lon="152.3921897">
<ele>153.016</ele>
<time>2016-03-02T00:28:22.192Z</time>
</trkpt>
<trkpt lat="-27.1515985" lon="152.3918597">
<ele>151.284</ele>
<time>2016-03-02T00:28:25.241Z</time>
</trkpt>
<trkpt lat="-27.1509105" lon="152.3915452">
<ele>151.112</ele>
<time>2016-03-02T00:28:28.198Z</time>
</trkpt>
<trkpt lat="-27.1504599" lon="152.3913397">
<ele>151.128</ele>
<time>2016-03-02T00:28:30.184Z</time>
</trkpt>
<trkpt lat="-27.1500126" lon="152.3911448">
<ele>150.212</ele>
<time>2016-03-02T00:28:32.145Z</time>
</trkpt>
<trkpt lat="-27.1495527" lon="152.3909432">
<ele>148.985</ele>
<time>2016-03-02T00:28:34.138Z</time>
</trkpt>
<trkpt lat="-27.1488433" lon="152.3906299">
<ele>148.141</ele>
<time>2016-03-02T00:28:37.201Z</time>
</trkpt>
<trkpt lat="-27.1481705" lon="152.3903328">
<ele>147.492</ele>
<time>2016-03-02T00:28:40.111Z</time>
</trkpt>
<trkpt lat="-27.1476956" lon="152.3901260">
<ele>146.905</ele>
<time>2016-03-02T00:28:42.051Z</time>
</trkpt>
<trkpt lat="-27.1468702" lon="152.3897631">
<ele>146.431</ele>
<time>2016-03-02T00:28:45.152Z</time>
</trkpt>
<trkpt lat="-27.1462654" lon="152.3895106">
<ele>146.665</ele>
<time>2016-03-02T00:28:47.198Z</time>
</trkpt>
<trkpt lat="-27.1456615" lon="152.3892364">
<ele>147.973</ele>
<time>2016-03-02T00:28:49.175Z</time>
</trkpt>
<trkpt lat="-27.1447105" lon="152.3888159">
<ele>149.795</ele>
<time>2016-03-02T00:28:52.149Z</time>
</trkpt>
<trkpt lat="-27.1436672" lon="152.3883565">
<ele>151.427</ele>
<time>2016-03-02T00:28:55.208Z</time>
</trkpt>
<trkpt lat="-27.1425646" lon="152.3878564">
<ele>150.649</ele>
<time>2016-03-02T00:28:58.299Z</time>
</trkpt>
<trkpt lat="-27.1418335" lon="152.3875264">
<ele>146.155</ele>
<time>2016-03-02T00:29:00.336Z</time>
</trkpt>
<trkpt lat="-27.1408075" lon="152.3870578">
<ele>140.680</ele>
<time>2016-03-02T00:29:03.279Z</time>
</trkpt>
<trkpt lat="-27.1401473" lon="152.3867540">
<ele>136.993</ele>
<time>2016-03-02T00:29:05.277Z</time>
</trkpt>
<trkpt lat="-27.1391986" lon="152.3863275">
<ele>135.135</ele>
<time>2016-03-02T00:29:08.249Z</time>
</trkpt>
<trkpt lat="-27.1383235" lon="152.3859202">
<ele>134.357</ele>
<time>2016-03-02T00:29:11.159Z</time>
</trkpt>
<trkpt lat="-27.1377594" lon="152.3856652">
<ele>133.906</ele>
<time>2016-03-02T00:29:13.128Z</time>
</trkpt>
<trkpt lat="-27.1369327" lon="152.3852885">
<ele>133.867</ele>
<time>2016-03-02T00:29:16.099Z</time>
</trkpt>
<trkpt lat="-27.1363687" lon="152.3850780">
<ele>134.740</ele>
<time>2016-03-02T00:29:18.129Z</time>
</trkpt>
<trkpt lat="-27.1355629" lon="152.3847221">
<ele>135.968</ele>
<time>2016-03-02T00:29:21.120Z</time>
</trkpt>
<trkpt lat="-27.1350309" lon="152.3844797">
<ele>136.478</ele>
<time>2016-03-02T00:29:23.112Z</time>
</trkpt>
<trkpt lat="-27.1344846" lon="152.3842700">
<ele>136.262</ele>
<time>2016-03-02T00:29:25.116Z</time>
</trkpt>
<trkpt lat="-27.1336504" lon="152.3839911">
<ele>135.884</ele>
<time>2016-03-02T00:29:28.169Z</time>
</trkpt>
<trkpt lat="-27.1331443" lon="152.3838227">
<ele>135.456</ele>
<time>2016-03-02T00:29:30.101Z</time>
</trkpt>
<trkpt lat="-27.1326400" lon="152.3836873">
<ele>134.437</ele>
<time>2016-03-02T00:29:32.062Z</time>
</trkpt>
<trkpt lat="-27.1318686" lon="152.3835159">
<ele>132.341</ele>
<time>2016-03-02T00:29:35.093Z</time>
</trkpt>
<trkpt lat="-27.1311226" lon="152.3833689">
<ele>129.833</ele>
<time>2016-03-02T00:29:38.063Z</time>
</trkpt>
<trkpt lat="-27.1306192" lon="152.3832969">
<ele>128.055</ele>
<time>2016-03-02T00:29:40.062Z</time>
</trkpt>
<trkpt lat="-27.1298588" lon="152.3831969">
<ele>127.319</ele>
<time>2016-03-02T00:29:43.061Z</time>
</trkpt>
<trkpt lat="-27.1293436" lon="152.3831480">
<ele>127.436</ele>
<time>2016-03-02T00:29:45.084Z</time>
</trkpt>
<trkpt lat="-27.1285817" lon="152.3831114">
<ele>128.039</ele>
<time>2016-03-02T00:29:48.093Z</time>
</trkpt>
<trkpt lat="-27.1278413" lon="152.3830863">
<ele>128.575</ele>
<time>2016-03-02T00:29:51.055Z</time>
</trkpt>
<trkpt lat="-27.1273437" lon="152.3830955">
<ele>128.359</ele>
<time>2016-03-02T00:29:53.050Z</time>
</trkpt>
<trkpt lat="-27.1268368" lon="152.3831160">
<ele>127.042</ele>
<time>2016-03-02T00:29:55.055Z</time>
</trkpt>
<trkpt lat="-27.1260645" lon="152.3831616">
<ele>125.136</ele>
<time>2016-03-02T00:29:58.067Z</time>
</trkpt>
<trkpt lat="-27.1252805" lon="152.3832180">
<ele>123.577</ele>
<time>2016-03-02T00:30:01.101Z</time>
</trkpt>
<trkpt lat="-27.1247643" lon="152.3832563">
<ele>122.493</ele>
<time>2016-03-02T00:30:03.101Z</time>
</trkpt>
<trkpt lat="-27.1242526" lon="152.3832869">
<ele>121.551</ele>
<time>2016-03-02T00:30:05.077Z</time>
</trkpt>
<trkpt lat="-27.1234768" lon="152.3833305">
<ele>120.671</ele>
<time>2016-03-02T00:30:08.064Z</time>
</trkpt>
<trkpt lat="-27.1227002" lon="152.3833800">
<ele>119.879</ele>
<time>2016-03-02T00:30:11.064Z</time>
</trkpt>
<trkpt lat="-27.1219319" lon="152.3834305">
<ele>118.975</ele>
<time>2016-03-02T00:30:14.060Z</time>
</trkpt>
<trkpt lat="-27.1214278" lon="152.3834663">
<ele>117.919</ele>
<time>2016-03-02T00:30:16.048Z</time>
</trkpt>
<trkpt lat="-27.1209278" lon="152.3834967">
<ele>116.755</ele>
<time>2016-03-02T00:30:18.028Z</time>
</trkpt>
<trkpt lat="-27.1201691" lon="152.3835458">
<ele>115.585</ele>
<time>2016-03-02T00:30:21.032Z</time>
</trkpt>
<trkpt lat="-27.1196571" lon="152.3835662">
<ele>114.903</ele>
<time>2016-03-02T00:30:23.043Z</time>
</trkpt>
<trkpt lat="-27.1191444" lon="152.3835698">
<ele>115.280</ele>
<time>2016-03-02T00:30:25.046Z</time>
</trkpt>
<trkpt lat="-27.1183772" lon="152.3835472">
<ele>116.620</ele>
<time>2016-03-02T00:30:28.048Z</time>
</trkpt>
<trkpt lat="-27.1176187" lon="152.3834777">
<ele>118.685</ele>
<time>2016-03-02T00:30:31.036Z</time>
</trkpt>
<trkpt lat="-27.1171080" lon="152.3834182">
<ele>121.048</ele>
<time>2016-03-02T00:30:33.054Z</time>
</trkpt>
<trkpt lat="-27.1166157" lon="152.3833395">
<ele>122.961</ele>
<time>2016-03-02T00:30:35.001Z</time>
</trkpt>
<trkpt lat="-27.1158521" lon="152.3831796">
<ele>124.299</ele>
<time>2016-03-02T00:30:38.023Z</time>
</trkpt>
<trkpt lat="-27.1153586" lon="152.3830588">
<ele>125.757</ele>
<time>2016-03-02T00:30:39.982Z</time>
</trkpt>
<trkpt lat="-27.1146086" lon="152.3828702">
<ele>127.422</ele>
<time>2016-03-02T00:30:42.955Z</time>
</trkpt>
<trkpt lat="-27.1138323" lon="152.3826793">
<ele>128.609</ele>
<time>2016-03-02T00:30:45.991Z</time>
</trkpt>
<trkpt lat="-27.1133156" lon="152.3825501">
<ele>129.102</ele>
<time>2016-03-02T00:30:47.995Z</time>
</trkpt>
<trkpt lat="-27.1125398" lon="152.3823715">
<ele>129.276</ele>
<time>2016-03-02T00:30:50.998Z</time>
</trkpt>
<trkpt lat="-27.1117739" lon="152.3821797">
<ele>129.445</ele>
<time>2016-03-02T00:30:54.002Z</time>
</trkpt>
<trkpt lat="-27.1112779" lon="152.3820595">
<ele>129.713</ele>
<time>2016-03-02T00:30:55.976Z</time>
</trkpt>
<trkpt lat="-27.1107833" lon="152.3819787">
<ele>130.082</ele>
<time>2016-03-02T00:30:57.934Z</time>
</trkpt>
<trkpt lat="-27.1100117" lon="152.3819667">
<ele>130.742</ele>
<time>2016-03-02T00:31:00.955Z</time>
</trkpt>
<trkpt lat="-27.1095041" lon="152.3820128">
<ele>131.711</ele>
<time>2016-03-02T00:31:02.930Z</time>
</trkpt>
<trkpt lat="-27.1087230" lon="152.3821383">
<ele>132.193</ele>
<time>2016-03-02T00:31:05.948Z</time>
</trkpt>
<trkpt lat="-27.1079262" lon="152.3822644">
<ele>131.461</ele>
<time>2016-03-02T00:31:08.963Z</time>
</trkpt>
<trkpt lat="-27.1073865" lon="152.3823163">
<ele>129.441</ele>
<time>2016-03-02T00:31:10.974Z</time>
</trkpt>
<trkpt lat="-27.1068532" lon="152.3823025">
<ele>126.321</ele>
<time>2016-03-02T00:31:12.929Z</time>
</trkpt>
<trkpt lat="-27.1060019" lon="152.3821862">
<ele>123.013</ele>
<time>2016-03-02T00:31:15.951Z</time>
</trkpt>
<trkpt lat="-27.1053697" lon="152.3820709">
<ele>120.818</ele>
<time>2016-03-02T00:31:17.987Z</time>
</trkpt>
<trkpt lat="-27.1043327" lon="152.3818894">
<ele>120.017</ele>
<time>2016-03-02T00:31:21.051Z</time>
</trkpt>
<trkpt lat="-27.1032171" lon="152.3816863">
<ele>120.009</ele>
<time>2016-03-02T00:31:24.138Z</time>
</trkpt>
<trkpt lat="-27.1021010" lon="152.3814622">
<ele>117.803</ele>
<time>2016-03-02T00:31:27.206Z</time>
</trkpt>
<trkpt lat="-27.1014004" lon="152.3813168">
<ele>111.230</ele>
<time>2016-03-02T00:31:29.247Z</time>
</trkpt>
<trkpt lat="-27.1004422" lon="152.3811333">
<ele>103.547</ele>
<time>2016-03-02T00:31:32.204Z</time>
</trkpt>
<trkpt lat="-27.0998586" lon="152.3810264">
<ele>98.676</ele>
<time>2016-03-02T00:31:34.181Z</time>
</trkpt>
<trkpt lat="-27.0990348" lon="152.3809526">
<ele>96.061</ele>
<time>2016-03-02T00:31:37.115Z</time>
</trkpt>
<trkpt lat="-27.0985176" lon="152.3808752">
<ele>93.712</ele>
<time>2016-03-02T00:31:39.092Z</time>
</trkpt>
<trkpt lat="-27.0977566" lon="152.3807976">
<ele>91.136</ele>
<time>2016-03-02T00:31:42.091Z</time>
</trkpt>
<trkpt lat="-27.0970394" lon="152.3807246">
<ele>89.035</ele>
<time>2016-03-02T00:31:45.105Z</time>
</trkpt>
<trkpt lat="-27.0963809" lon="152.3806617">
<ele>87.324</ele>
<time>2016-03-02T00:31:48.099Z</time>
</trkpt>
<trkpt lat="-27.0957683" lon="152.3806058">
<ele>85.511</ele>
<time>2016-03-02T00:31:51.052Z</time>
</trkpt>
<trkpt lat="-27.0951718" lon="152.3805521">
<ele>83.602</ele>
<time>2016-03-02T00:31:54.013Z</time>
</trkpt>
<trkpt lat="-27.0945763" lon="152.3804913">
<ele>81.809</ele>
<time>2016-03-02T00:31:57.023Z</time>
</trkpt>
<trkpt lat="-27.0941863" lon="152.3804584">
<ele>80.612</ele>
<time>2016-03-02T00:31:59.010Z</time>
</trkpt>
<trkpt lat="-27.0937952" lon="152.3804401">
<ele>80.376</ele>
<time>2016-03-02T00:32:01.025Z</time>
</trkpt>
<trkpt lat="-27.0932218" lon="152.3804621">
<ele>80.780</ele>
<time>2016-03-02T00:32:04.023Z</time>
</trkpt>
<trkpt lat="-27.0928363" lon="152.3805176">
<ele>80.995</ele>
<time>2016-03-02T00:32:06.074Z</time>
</trkpt>
<trkpt lat="-27.0924616" lon="152.3805989">
<ele>80.573</ele>
<time>2016-03-02T00:32:08.072Z</time>
</trkpt>
<trkpt lat="-27.0919089" lon="152.3807697">
<ele>79.905</ele>
<time>2016-03-02T00:32:11.049Z</time>
</trkpt>
<trkpt lat="-27.0913420" lon="152.3809360">
<ele>79.453</ele>
<time>2016-03-02T00:32:14.064Z</time>
</trkpt>
<trkpt lat="-27.0907656" lon="152.3810292">
<ele>79.229</ele>
<time>2016-03-02T00:32:17.031Z</time>
</trkpt>
<trkpt lat="-27.0901747" lon="152.3810848">
<ele>79.131</ele>
<time>2016-03-02T00:32:20.048Z</time>
</trkpt>
<trkpt lat="-27.0897831" lon="152.3811071">
<ele>79.106</ele>
<time>2016-03-02T00:32:22.069Z</time>
</trkpt>
<trkpt lat="-27.0894070" lon="152.3811208">
<ele>79.217</ele>
<time>2016-03-02T00:32:24.035Z</time>
</trkpt>
<trkpt lat="-27.0888403" lon="152.3811532">
<ele>79.509</ele>
<time>2016-03-02T00:32:27.025Z</time>
</trkpt>
<trkpt lat="-27.0882812" lon="152.3811820">
<ele>79.887</ele>
<time>2016-03-02T00:32:30.005Z</time>
</trkpt>
<trkpt lat="-27.0879046" lon="152.3812048">
<ele>80.615</ele>
<time>2016-03-02T00:32:32.029Z</time>
</trkpt>
<trkpt lat="-27.0871570" lon="152.3812612">
<ele>81.906</ele>
<time>2016-03-02T00:32:36.032Z</time>
</trkpt>
<trkpt lat="-27.0867813" lon="152.3813165">
<ele>83.516</ele>
<time>2016-03-02T00:32:38.040Z</time>
</trkpt>
<trkpt lat="-27.0862331" lon="152.3814362">
<ele>85.064</ele>
<time>2016-03-02T00:32:40.989Z</time>
</trkpt>
<trkpt lat="-27.0858660" lon="152.3815758">
<ele>86.067</ele>
<time>2016-03-02T00:32:43.010Z</time>
</trkpt>
<trkpt lat="-27.0855126" lon="152.3817762">
<ele>85.936</ele>
<time>2016-03-02T00:32:45.064Z</time>
</trkpt>
<trkpt lat="-27.0850120" lon="152.3820942">
<ele>84.887</ele>
<time>2016-03-02T00:32:48.060Z</time>
</trkpt>
<trkpt lat="-27.0845076" lon="152.3823921">
<ele>83.819</ele>
<time>2016-03-02T00:32:51.040Z</time>
</trkpt>
<trkpt lat="-27.0841549" lon="152.3826195">
<ele>83.683</ele>
<time>2016-03-02T00:32:53.134Z</time>
</trkpt>
<trkpt lat="-27.0838062" lon="152.3828319">
<ele>84.603</ele>
<time>2016-03-02T00:32:55.100Z</time>
</trkpt>
<trkpt lat="-27.0832526" lon="152.3831597">
<ele>85.792</ele>
<time>2016-03-02T00:32:58.025Z</time>
</trkpt>
<trkpt lat="-27.0826412" lon="152.3835296">
<ele>86.651</ele>
<time>2016-03-02T00:33:00.979Z</time>
</trkpt>
<trkpt lat="-27.0821805" lon="152.3837948">
<ele>87.791</ele>
<time>2016-03-02T00:33:03.013Z</time>
</trkpt>
<trkpt lat="-27.0817352" lon="152.3840478">
<ele>90.055</ele>
<time>2016-03-02T00:33:04.949Z</time>
</trkpt>
<trkpt lat="-27.0812770" lon="152.3843317">
<ele>92.914</ele>
<time>2016-03-02T00:33:06.993Z</time>
</trkpt>
<trkpt lat="-27.0806030" lon="152.3847387">
<ele>94.319</ele>
<time>2016-03-02T00:33:10.004Z</time>
</trkpt>
<trkpt lat="-27.0801604" lon="152.3850136">
<ele>93.285</ele>
<time>2016-03-02T00:33:11.996Z</time>
</trkpt>
<trkpt lat="-27.0797197" lon="152.3852963">
<ele>91.245</ele>
<time>2016-03-02T00:33:13.998Z</time>
</trkpt>
<trkpt lat="-27.0790538" lon="152.3857032">
<ele>89.882</ele>
<time>2016-03-02T00:33:16.989Z</time>
</trkpt>
<trkpt lat="-27.0783886" lon="152.3860959">
<ele>89.671</ele>
<time>2016-03-02T00:33:19.950Z</time>
</trkpt>
<trkpt lat="-27.0777029" lon="152.3865020">
<ele>90.447</ele>
<time>2016-03-02T00:33:22.986Z</time>
</trkpt>
<trkpt lat="-27.0772420" lon="152.3867693">
<ele>91.562</ele>
<time>2016-03-02T00:33:25.022Z</time>
</trkpt>
<trkpt lat="-27.0767681" lon="152.3869883">
<ele>92.328</ele>
<time>2016-03-02T00:33:27.046Z</time>
</trkpt>
<trkpt lat="-27.0760339" lon="152.3872804">
<ele>92.406</ele>
<time>2016-03-02T00:33:30.088Z</time>
</trkpt>
<trkpt lat="-27.0755410" lon="152.3874578">
<ele>91.894</ele>
<time>2016-03-02T00:33:32.081Z</time>
</trkpt>
<trkpt lat="-27.0750445" lon="152.3876360">
<ele>91.295</ele>
<time>2016-03-02T00:33:34.083Z</time>
</trkpt>
<trkpt lat="-27.0745480" lon="152.3877991">
<ele>90.817</ele>
<time>2016-03-02T00:33:36.064Z</time>
</trkpt>
<trkpt lat="-27.0740430" lon="152.3879799">
<ele>90.305</ele>
<time>2016-03-02T00:33:38.095Z</time>
</trkpt>
<trkpt lat="-27.0732965" lon="152.3882570">
<ele>89.784</ele>
<time>2016-03-02T00:33:41.109Z</time>
</trkpt>
<trkpt lat="-27.0725451" lon="152.3885170">
<ele>89.311</ele>
<time>2016-03-02T00:33:44.124Z</time>
</trkpt>
<trkpt lat="-27.0720504" lon="152.3886962">
<ele>88.684</ele>
<time>2016-03-02T00:33:46.115Z</time>
</trkpt>
<trkpt lat="-27.0712767" lon="152.3889383">
<ele>87.861</ele>
<time>2016-03-02T00:33:49.139Z</time>
</trkpt>
<trkpt lat="-27.0707651" lon="152.3890716">
<ele>87.223</ele>
<time>2016-03-02T00:33:51.107Z</time>
</trkpt>
<trkpt lat="-27.0699877" lon="152.3892484">
<ele>87.112</ele>
<time>2016-03-02T00:33:54.125Z</time>
</trkpt>
<trkpt lat="-27.0692353" lon="152.3893864">
<ele>87.302</ele>
<time>2016-03-02T00:33:57.082Z</time>
</trkpt>
<trkpt lat="-27.0684704" lon="152.3894726">
<ele>87.492</ele>
<time>2016-03-02T00:34:00.060Z</time>
</trkpt>
<trkpt lat="-27.0676919" lon="152.3895032">
<ele>87.548</ele>
<time>2016-03-02T00:34:03.054Z</time>
</trkpt>
<trkpt lat="-27.0671718" lon="152.3895256">
<ele>87.424</ele>
<time>2016-03-02T00:34:05.058Z</time>
</trkpt>
<trkpt lat="-27.0663948" lon="152.3895613">
<ele>87.116</ele>
<time>2016-03-02T00:34:08.057Z</time>
</trkpt>
<trkpt lat="-27.0656097" lon="152.3896081">
<ele>86.731</ele>
<time>2016-03-02T00:34:11.101Z</time>
</trkpt>
<trkpt lat="-27.0651002" lon="152.3896358">
<ele>86.909</ele>
<time>2016-03-02T00:34:13.106Z</time>
</trkpt>
<trkpt lat="-27.0646019" lon="152.3896608">
<ele>88.043</ele>
<time>2016-03-02T00:34:15.094Z</time>
</trkpt>
<trkpt lat="-27.0641029" lon="152.3896862">
<ele>89.256</ele>
<time>2016-03-02T00:34:17.109Z</time>
</trkpt>
<trkpt lat="-27.0633694" lon="152.3897187">
<ele>89.669</ele>
<time>2016-03-02T00:34:20.098Z</time>
</trkpt>
<trkpt lat="-27.0626400" lon="152.3896986">
<ele>89.403</ele>
<time>2016-03-02T00:34:23.084Z</time>
</trkpt>
<trkpt lat="-27.0619053" lon="152.3896697">
<ele>88.628</ele>
<time>2016-03-02T00:34:26.087Z</time>
</trkpt>
<trkpt lat="-27.0611764" lon="152.3896889">
<ele>87.399</ele>
<time>2016-03-02T00:34:29.051Z</time>
</trkpt>
<trkpt lat="-27.0606923" lon="152.3896965">
<ele>86.156</ele>
<time>2016-03-02T00:34:31.000Z</time>
</trkpt>
<trkpt lat="-27.0599468" lon="152.3897473">
<ele>85.426</ele>
<time>2016-03-02T00:34:33.999Z</time>
</trkpt>
<trkpt lat="-27.0594476" lon="152.3897984">
<ele>84.643</ele>
<time>2016-03-02T00:34:36.035Z</time>
</trkpt>
<trkpt lat="-27.0589524" lon="152.3898711">
<ele>83.110</ele>
<time>2016-03-02T00:34:38.082Z</time>
</trkpt>
<trkpt lat="-27.0582192" lon="152.3899512">
<ele>81.269</ele>
<time>2016-03-02T00:34:41.093Z</time>
</trkpt>
<trkpt lat="-27.0574726" lon="152.3899881">
<ele>79.740</ele>
<time>2016-03-02T00:34:44.111Z</time>
</trkpt>
<trkpt lat="-27.0569818" lon="152.3900094">
<ele>78.578</ele>
<time>2016-03-02T00:34:46.084Z</time>
</trkpt>
<trkpt lat="-27.0564796" lon="152.3900256">
<ele>77.850</ele>
<time>2016-03-02T00:34:48.080Z</time>
</trkpt>
<trkpt lat="-27.0557098" lon="152.3900519">
<ele>77.552</ele>
<time>2016-03-02T00:34:51.110Z</time>
</trkpt>
<trkpt lat="-27.0549427" lon="152.3900726">
<ele>77.883</ele>
<time>2016-03-02T00:34:54.121Z</time>
</trkpt>
<trkpt lat="-27.0541712" lon="152.3900955">
<ele>78.855</ele>
<time>2016-03-02T00:34:57.176Z</time>
</trkpt>
<trkpt lat="-27.0536701" lon="152.3900415">
<ele>79.857</ele>
<time>2016-03-02T00:34:59.177Z</time>
</trkpt>
<trkpt lat="-27.0531745" lon="152.3899536">
<ele>80.354</ele>
<time>2016-03-02T00:35:01.178Z</time>
</trkpt>
<trkpt lat="-27.0526806" lon="152.3898640">
<ele>80.450</ele>
<time>2016-03-02T00:35:03.178Z</time>
</trkpt>
<trkpt lat="-27.0521917" lon="152.3897614">
<ele>80.279</ele>
<time>2016-03-02T00:35:05.170Z</time>
</trkpt>
<trkpt lat="-27.0514591" lon="152.3896222">
<ele>80.019</ele>
<time>2016-03-02T00:35:08.160Z</time>
</trkpt>
<trkpt lat="-27.0509759" lon="152.3895343">
<ele>79.881</ele>
<time>2016-03-02T00:35:10.150Z</time>
</trkpt>
<trkpt lat="-27.0502563" lon="152.3893995">
<ele>79.904</ele>
<time>2016-03-02T00:35:13.138Z</time>
</trkpt>
<trkpt lat="-27.0495406" lon="152.3892465">
<ele>79.952</ele>
<time>2016-03-02T00:35:16.137Z</time>
</trkpt>
<trkpt lat="-27.0490622" lon="152.3891143">
<ele>79.975</ele>
<time>2016-03-02T00:35:18.144Z</time>
</trkpt>
<trkpt lat="-27.0483529" lon="152.3888682">
<ele>79.936</ele>
<time>2016-03-02T00:35:21.144Z</time>
</trkpt>
<trkpt lat="-27.0479007" lon="152.3886424">
<ele>79.889</ele>
<time>2016-03-02T00:35:23.143Z</time>
</trkpt>
<trkpt lat="-27.0474765" lon="152.3883665">
<ele>79.934</ele>
<time>2016-03-02T00:35:25.139Z</time>
</trkpt>
<trkpt lat="-27.0468771" lon="152.3878959">
<ele>80.069</ele>
<time>2016-03-02T00:35:28.134Z</time>
</trkpt>
<trkpt lat="-27.0462802" lon="152.3874016">
<ele>79.987</ele>
<time>2016-03-02T00:35:31.160Z</time>
</trkpt>
<trkpt lat="-27.0456831" lon="152.3869158">
<ele>79.485</ele>
<time>2016-03-02T00:35:34.143Z</time>
</trkpt>
<trkpt lat="-27.0452847" lon="152.3865824">
<ele>78.833</ele>
<time>2016-03-02T00:35:36.157Z</time>
</trkpt>
<trkpt lat="-27.0446971" lon="152.3861215">
<ele>78.618</ele>
<time>2016-03-02T00:35:39.094Z</time>
</trkpt>
<trkpt lat="-27.0443377" lon="152.3857854">
<ele>79.346</ele>
<time>2016-03-02T00:35:41.040Z</time>
</trkpt>
<trkpt lat="-27.0438089" lon="152.3852442">
<ele>80.794</ele>
<time>2016-03-02T00:35:44.028Z</time>
</trkpt>
<trkpt lat="-27.0434896" lon="152.3848454">
<ele>82.114</ele>
<time>2016-03-02T00:35:46.025Z</time>
</trkpt>
<trkpt lat="-27.0431918" lon="152.3844260">
<ele>83.304</ele>
<time>2016-03-02T00:35:48.032Z</time>
</trkpt>
<trkpt lat="-27.0427660" lon="152.3837950">
<ele>84.753</ele>
<time>2016-03-02T00:35:51.001Z</time>
</trkpt>
<trkpt lat="-27.0423285" lon="152.3831486">
<ele>85.966</ele>
<time>2016-03-02T00:35:54.002Z</time>
</trkpt>
<trkpt lat="-27.0420272" lon="152.3827022">
<ele>86.467</ele>
<time>2016-03-02T00:35:56.013Z</time>
</trkpt>
<trkpt lat="-27.0415680" lon="152.3820367">
<ele>86.499</ele>
<time>2016-03-02T00:35:59.002Z</time>
</trkpt>
<trkpt lat="-27.0412637" lon="152.3815954">
<ele>86.064</ele>
<time>2016-03-02T00:36:00.970Z</time>
</trkpt>
<trkpt lat="-27.0409636" lon="152.3811379">
<ele>85.102</ele>
<time>2016-03-02T00:36:02.973Z</time>
</trkpt>
<trkpt lat="-27.0404986" lon="152.3804668">
<ele>84.112</ele>
<time>2016-03-02T00:36:05.994Z</time>
</trkpt>
<trkpt lat="-27.0400527" lon="152.3798162">
<ele>83.820</ele>
<time>2016-03-02T00:36:08.970Z</time>
</trkpt>
<trkpt lat="-27.0397472" lon="152.3794032">
<ele>84.290</ele>
<time>2016-03-02T00:36:10.951Z</time>
</trkpt>
<trkpt lat="-27.0394018" lon="152.3790381">
<ele>84.947</ele>
<time>2016-03-02T00:36:12.928Z</time>
</trkpt>
<trkpt lat="-27.0390272" lon="152.3787103">
<ele>85.911</ele>
<time>2016-03-02T00:36:14.904Z</time>
</trkpt>
<trkpt lat="-27.0386230" lon="152.3784071">
<ele>87.733</ele>
<time>2016-03-02T00:36:16.899Z</time>
</trkpt>
<trkpt lat="-27.0382084" lon="152.3780954">
<ele>89.740</ele>
<time>2016-03-02T00:36:18.903Z</time>
</trkpt>
<trkpt lat="-27.0377906" lon="152.3777689">
<ele>90.896</ele>
<time>2016-03-02T00:36:20.919Z</time>
</trkpt>
<trkpt lat="-27.0371664" lon="152.3773028">
<ele>91.343</ele>
<time>2016-03-02T00:36:23.890Z</time>
</trkpt>
<trkpt lat="-27.0365559" lon="152.3768395">
<ele>91.639</ele>
<time>2016-03-02T00:36:26.835Z</time>
</trkpt>
<trkpt lat="-27.0361503" lon="152.3765441">
<ele>92.044</ele>
<time>2016-03-02T00:36:28.778Z</time>
</trkpt>
<trkpt lat="-27.0355326" lon="152.3760734">
<ele>92.533</ele>
<time>2016-03-02T00:36:31.777Z</time>
</trkpt>
<trkpt lat="-27.0348998" lon="152.3756106">
<ele>92.825</ele>
<time>2016-03-02T00:36:34.812Z</time>
</trkpt>
<trkpt lat="-27.0343004" lon="152.3751460">
<ele>92.701</ele>
<time>2016-03-02T00:36:37.778Z</time>
</trkpt>
<trkpt lat="-27.0339150" lon="152.3748476">
<ele>92.387</ele>
<time>2016-03-02T00:36:39.709Z</time>
</trkpt>
<trkpt lat="-27.0333139" lon="152.3743623">
<ele>92.166</ele>
<time>2016-03-02T00:36:42.754Z</time>
</trkpt>
<trkpt lat="-27.0329114" lon="152.3740441">
<ele>92.121</ele>
<time>2016-03-02T00:36:44.838Z</time>
</trkpt>
<trkpt lat="-27.0323994" lon="152.3736199">
<ele>92.209</ele>
<time>2016-03-02T00:36:47.737Z</time>
</trkpt>
<trkpt lat="-27.0319214" lon="152.3732378">
<ele>91.934</ele>
<time>2016-03-02T00:36:50.632Z</time>
</trkpt>
<trkpt lat="-27.0314177" lon="152.3728305">
<ele>90.987</ele>
<time>2016-03-02T00:36:53.692Z</time>
</trkpt>
<trkpt lat="-27.0309237" lon="152.3724292">
<ele>90.024</ele>
<time>2016-03-02T00:36:56.676Z</time>
</trkpt>
<trkpt lat="-27.0304365" lon="152.3720388">
<ele>89.897</ele>
<time>2016-03-02T00:36:59.635Z</time>
</trkpt>
<trkpt lat="-27.0301109" lon="152.3717784">
<ele>90.578</ele>
<time>2016-03-02T00:37:01.618Z</time>
</trkpt>
<trkpt lat="-27.0297822" lon="152.3715379">
<ele>91.418</ele>
<time>2016-03-02T00:37:03.575Z</time>
</trkpt>
<trkpt lat="-27.0293023" lon="152.3711367">
<ele>92.043</ele>
<time>2016-03-02T00:37:06.572Z</time>
</trkpt>
<trkpt lat="-27.0289833" lon="152.3708839">
<ele>92.643</ele>
<time>2016-03-02T00:37:08.532Z</time>
</trkpt>
<trkpt lat="-27.0286616" lon="152.3706275">
<ele>93.412</ele>
<time>2016-03-02T00:37:10.522Z</time>
</trkpt>
<trkpt lat="-27.0281783" lon="152.3702400">
<ele>94.297</ele>
<time>2016-03-02T00:37:13.524Z</time>
</trkpt>
<trkpt lat="-27.0280206" lon="152.3701143">
<ele>95.198</ele>
<time>2016-03-02T00:37:14.507Z</time>
</trkpt>
<trkpt lat="-27.0273291" lon="152.3696097">
<ele>95.989</ele>
<time>2016-03-02T00:37:18.633Z</time>
</trkpt>
<trkpt lat="-27.0268230" lon="152.3692398">
<ele>96.616</ele>
<time>2016-03-02T00:37:21.596Z</time>
</trkpt>
<trkpt lat="-27.0262922" lon="152.3689053">
<ele>97.138</ele>
<time>2016-03-02T00:37:24.613Z</time>
</trkpt>
<trkpt lat="-27.0259344" lon="152.3687048">
<ele>97.600</ele>
<time>2016-03-02T00:37:26.605Z</time>
</trkpt>
<trkpt lat="-27.0253821" lon="152.3684346">
<ele>97.906</ele>
<time>2016-03-02T00:37:29.620Z</time>
</trkpt>
<trkpt lat="-27.0248170" lon="152.3681951">
<ele>98.233</ele>
<time>2016-03-02T00:37:32.672Z</time>
</trkpt>
<trkpt lat="-27.0244477" lon="152.3680698">
<ele>98.873</ele>
<time>2016-03-02T00:37:34.639Z</time>
</trkpt>
<trkpt lat="-27.0238691" lon="152.3679033">
<ele>99.808</ele>
<time>2016-03-02T00:37:37.677Z</time>
</trkpt>
<trkpt lat="-27.0232631" lon="152.3678063">
<ele>101.118</ele>
<time>2016-03-02T00:37:40.744Z</time>
</trkpt>
<trkpt lat="-27.0228616" lon="152.3677594">
<ele>103.084</ele>
<time>2016-03-02T00:37:42.736Z</time>
</trkpt>
<trkpt lat="-27.0224495" lon="152.3677266">
<ele>105.236</ele>
<time>2016-03-02T00:37:44.752Z</time>
</trkpt>
<trkpt lat="-27.0218312" lon="152.3677259">
<ele>106.730</ele>
<time>2016-03-02T00:37:47.755Z</time>
</trkpt>
<trkpt lat="-27.0214152" lon="152.3677602">
<ele>107.481</ele>
<time>2016-03-02T00:37:49.776Z</time>
</trkpt>
<trkpt lat="-27.0210016" lon="152.3678225">
<ele>107.907</ele>
<time>2016-03-02T00:37:51.802Z</time>
</trkpt>
<trkpt lat="-27.0203956" lon="152.3679162">
<ele>108.490</ele>
<time>2016-03-02T00:37:54.801Z</time>
</trkpt>
<trkpt lat="-27.0199948" lon="152.3679774">
<ele>109.511</ele>
<time>2016-03-02T00:37:56.811Z</time>
</trkpt>
<trkpt lat="-27.0193922" lon="152.3680729">
<ele>110.606</ele>
<time>2016-03-02T00:37:59.801Z</time>
</trkpt>
<trkpt lat="-27.0187648" lon="152.3681821">
<ele>111.209</ele>
<time>2016-03-02T00:38:02.843Z</time>
</trkpt>
<trkpt lat="-27.0183487" lon="152.3682399">
<ele>111.237</ele>
<time>2016-03-02T00:38:04.853Z</time>
</trkpt>
<trkpt lat="-27.0177425" lon="152.3683240">
<ele>110.818</ele>
<time>2016-03-02T00:38:07.820Z</time>
</trkpt>
<trkpt lat="-27.0173373" lon="152.3683887">
<ele>109.748</ele>
<time>2016-03-02T00:38:09.809Z</time>
</trkpt>
<trkpt lat="-27.0169175" lon="152.3684590">
<ele>107.653</ele>
<time>2016-03-02T00:38:11.835Z</time>
</trkpt>
<trkpt lat="-27.0164962" lon="152.3685265">
<ele>105.004</ele>
<time>2016-03-02T00:38:13.838Z</time>
</trkpt>
<trkpt lat="-27.0158615" lon="152.3686288">
<ele>102.664</ele>
<time>2016-03-02T00:38:16.839Z</time>
</trkpt>
<trkpt lat="-27.0154244" lon="152.3686954">
<ele>100.566</ele>
<time>2016-03-02T00:38:18.883Z</time>
</trkpt>
<trkpt lat="-27.0149895" lon="152.3687449">
<ele>98.576</ele>
<time>2016-03-02T00:38:20.893Z</time>
</trkpt>
<trkpt lat="-27.0143408" lon="152.3687173">
<ele>97.231</ele>
<time>2016-03-02T00:38:23.894Z</time>
</trkpt>
<trkpt lat="-27.0137549" lon="152.3685084">
<ele>96.573</ele>
<time>2016-03-02T00:38:26.811Z</time>
</trkpt>
<trkpt lat="-27.0133750" lon="152.3683272">
<ele>96.180</ele>
<time>2016-03-02T00:38:28.811Z</time>
</trkpt>
<trkpt lat="-27.0128725" lon="152.3679362">
<ele>96.145</ele>
<time>2016-03-02T00:38:31.793Z</time>
</trkpt>
<trkpt lat="-27.0125534" lon="152.3676683">
<ele>97.152</ele>
<time>2016-03-02T00:38:33.771Z</time>
</trkpt>
<trkpt lat="-27.0122270" lon="152.3674319">
<ele>99.320</ele>
<time>2016-03-02T00:38:35.735Z</time>
</trkpt>
<trkpt lat="-27.0118916" lon="152.3672152">
<ele>101.601</ele>
<time>2016-03-02T00:38:37.702Z</time>
</trkpt>
<trkpt lat="-27.0113283" lon="152.3669978">
<ele>103.090</ele>
<time>2016-03-02T00:38:40.700Z</time>
</trkpt>
<trkpt lat="-27.0109461" lon="152.3668656">
<ele>104.007</ele>
<time>2016-03-02T00:38:42.687Z</time>
</trkpt>
<trkpt lat="-27.0103690" lon="152.3666093">
<ele>104.920</ele>
<time>2016-03-02T00:38:45.739Z</time>
</trkpt>
<trkpt lat="-27.0099872" lon="152.3664590">
<ele>106.375</ele>
<time>2016-03-02T00:38:47.723Z</time>
</trkpt>
<trkpt lat="-27.0094275" lon="152.3662326">
<ele>108.317</ele>
<time>2016-03-02T00:38:50.659Z</time>
</trkpt>
<trkpt lat="-27.0090489" lon="152.3660622">
<ele>109.409</ele>
<time>2016-03-02T00:38:52.668Z</time>
</trkpt>
<trkpt lat="-27.0084883" lon="152.3657544">
<ele>108.456</ele>
<time>2016-03-02T00:38:55.706Z</time>
</trkpt>
<trkpt lat="-27.0079544" lon="152.3653948">
<ele>106.186</ele>
<time>2016-03-02T00:38:58.699Z</time>
</trkpt>
<trkpt lat="-27.0074205" lon="152.3650346">
<ele>104.221</ele>
<time>2016-03-02T00:39:01.662Z</time>
</trkpt>
<trkpt lat="-27.0068746" lon="152.3646596">
<ele>103.432</ele>
<time>2016-03-02T00:39:04.639Z</time>
</trkpt>
<trkpt lat="-27.0064758" lon="152.3643907">
<ele>104.296</ele>
<time>2016-03-02T00:39:06.687Z</time>
</trkpt>
<trkpt lat="-27.0060240" lon="152.3640660">
<ele>107.126</ele>
<time>2016-03-02T00:39:08.865Z</time>
</trkpt>
<trkpt lat="-27.0055857" lon="152.3637717">
<ele>111.015</ele>
<time>2016-03-02T00:39:10.851Z</time>
</trkpt>
<trkpt lat="-27.0049260" lon="152.3633200">
<ele>114.169</ele>
<time>2016-03-02T00:39:13.856Z</time>
</trkpt>
<trkpt lat="-27.0044986" lon="152.3630296">
<ele>115.653</ele>
<time>2016-03-02T00:39:15.842Z</time>
</trkpt>
<trkpt lat="-27.0038744" lon="152.3626128">
<ele>115.832</ele>
<time>2016-03-02T00:39:18.801Z</time>
</trkpt>
<trkpt lat="-27.0034640" lon="152.3623618">
<ele>115.720</ele>
<time>2016-03-02T00:39:20.758Z</time>
</trkpt>
<trkpt lat="-27.0028058" lon="152.3620645">
<ele>115.949</ele>
<time>2016-03-02T00:39:23.757Z</time>
</trkpt>
<trkpt lat="-27.0023320" lon="152.3619203">
<ele>116.371</ele>
<time>2016-03-02T00:39:25.841Z</time>
</trkpt>
<trkpt lat="-27.0016004" lon="152.3618266">
<ele>116.663</ele>
<time>2016-03-02T00:39:28.901Z</time>
</trkpt>
<trkpt lat="-27.0008387" lon="152.3618895">
<ele>117.481</ele>
<time>2016-03-02T00:39:32.002Z</time>
</trkpt>
<trkpt lat="-27.0001303" lon="152.3619476">
<ele>120.065</ele>
<time>2016-03-02T00:39:34.950Z</time>
</trkpt>
<trkpt lat="-26.9996884" lon="152.3619444">
<ele>124.268</ele>
<time>2016-03-02T00:39:36.879Z</time>
</trkpt>
<trkpt lat="-26.9992467" lon="152.3619045">
<ele>128.828</ele>
<time>2016-03-02T00:39:38.844Z</time>
</trkpt>
<trkpt lat="-26.9987766" lon="152.3618017">
<ele>132.845</ele>
<time>2016-03-02T00:39:40.930Z</time>
</trkpt>
<trkpt lat="-26.9982987" lon="152.3616826">
<ele>135.605</ele>
<time>2016-03-02T00:39:43.035Z</time>
</trkpt>
<trkpt lat="-26.9978655" lon="152.3615712">
<ele>136.798</ele>
<time>2016-03-02T00:39:44.998Z</time>
</trkpt>
<trkpt lat="-26.9972361" lon="152.3613967">
<ele>136.287</ele>
<time>2016-03-02T00:39:47.931Z</time>
</trkpt>
<trkpt lat="-26.9965727" lon="152.3612286">
<ele>133.513</ele>
<time>2016-03-02T00:39:51.011Z</time>
</trkpt>
<trkpt lat="-26.9961371" lon="152.3610949">
<ele>128.747</ele>
<time>2016-03-02T00:39:53.030Z</time>
</trkpt>
<trkpt lat="-26.9957053" lon="152.3609531">
<ele>123.444</ele>
<time>2016-03-02T00:39:55.047Z</time>
</trkpt>
<trkpt lat="-26.9950833" lon="152.3607133">
<ele>118.884</ele>
<time>2016-03-02T00:39:58.070Z</time>
</trkpt>
<trkpt lat="-26.9945112" lon="152.3604894">
<ele>115.588</ele>
<time>2016-03-02T00:40:01.018Z</time>
</trkpt>
<trkpt lat="-26.9941470" lon="152.3603350">
<ele>113.127</ele>
<time>2016-03-02T00:40:03.004Z</time>
</trkpt>
<trkpt lat="-26.9936024" lon="152.3601090">
<ele>110.903</ele>
<time>2016-03-02T00:40:05.989Z</time>
</trkpt>
<trkpt lat="-26.9930527" lon="152.3598955">
<ele>109.176</ele>
<time>2016-03-02T00:40:08.986Z</time>
</trkpt>
<trkpt lat="-26.9925064" lon="152.3596551">
<ele>108.388</ele>
<time>2016-03-02T00:40:11.991Z</time>
</trkpt>
<trkpt lat="-26.9919482" lon="152.3594332">
<ele>108.171</ele>
<time>2016-03-02T00:40:15.007Z</time>
</trkpt>
<trkpt lat="-26.9915812" lon="152.3593184">
<ele>107.940</ele>
<time>2016-03-02T00:40:16.950Z</time>
</trkpt>
<trkpt lat="-26.9910047" lon="152.3590721">
<ele>107.553</ele>
<time>2016-03-02T00:40:20.061Z</time>
</trkpt>
<trkpt lat="-26.9904335" lon="152.3588439">
<ele>107.109</ele>
<time>2016-03-02T00:40:23.081Z</time>
</trkpt>
<trkpt lat="-26.9900530" lon="152.3586949">
<ele>106.662</ele>
<time>2016-03-02T00:40:25.088Z</time>
</trkpt>
<trkpt lat="-26.9896726" lon="152.3585412">
<ele>106.349</ele>
<time>2016-03-02T00:40:27.102Z</time>
</trkpt>
<trkpt lat="-26.9891066" lon="152.3582952">
<ele>106.303</ele>
<time>2016-03-02T00:40:30.097Z</time>
</trkpt>
<trkpt lat="-26.9885286" lon="152.3580864">
<ele>106.472</ele>
<time>2016-03-02T00:40:33.087Z</time>
</trkpt>
<trkpt lat="-26.9881342" lon="152.3579859">
<ele>106.814</ele>
<time>2016-03-02T00:40:35.092Z</time>
</trkpt>
<trkpt lat="-26.9877389" lon="152.3579237">
<ele>107.376</ele>
<time>2016-03-02T00:40:37.084Z</time>
</trkpt>
<trkpt lat="-26.9871281" lon="152.3578873">
<ele>108.043</ele>
<time>2016-03-02T00:40:40.140Z</time>
</trkpt>
<trkpt lat="-26.9865176" lon="152.3579156">
<ele>108.249</ele>
<time>2016-03-02T00:40:43.173Z</time>
</trkpt>
<trkpt lat="-26.9859037" lon="152.3580262">
<ele>107.712</ele>
<time>2016-03-02T00:40:46.217Z</time>
</trkpt>
<trkpt lat="-26.9853133" lon="152.3582124">
<ele>106.597</ele>
<time>2016-03-02T00:40:49.193Z</time>
</trkpt>
<trkpt lat="-26.9847350" lon="152.3584756">
<ele>104.860</ele>
<time>2016-03-02T00:40:52.206Z</time>
</trkpt>
<trkpt lat="-26.9841869" lon="152.3588056">
<ele>102.607</ele>
<time>2016-03-02T00:40:55.203Z</time>
</trkpt>
<trkpt lat="-26.9838346" lon="152.3590513">
<ele>100.531</ele>
<time>2016-03-02T00:40:57.213Z</time>
</trkpt>
<trkpt lat="-26.9833230" lon="152.3594147">
<ele>99.204</ele>
<time>2016-03-02T00:41:00.171Z</time>
</trkpt>
<trkpt lat="-26.9829770" lon="152.3596523">
<ele>98.694</ele>
<time>2016-03-02T00:41:02.184Z</time>
</trkpt>
<trkpt lat="-26.9826406" lon="152.3598795">
<ele>98.544</ele>
<time>2016-03-02T00:41:04.185Z</time>
</trkpt>
<trkpt lat="-26.9821596" lon="152.3602073">
<ele>98.299</ele>
<time>2016-03-02T00:41:07.149Z</time>
</trkpt>
<trkpt lat="-26.9818697" lon="152.3604284">
<ele>97.951</ele>
<time>2016-03-02T00:41:09.120Z</time>
</trkpt>
<trkpt lat="-26.9814490" lon="152.3607207">
<ele>97.476</ele>
<time>2016-03-02T00:41:12.012Z</time>
</trkpt>
<trkpt lat="-26.9810080" lon="152.3609878">
<ele>96.476</ele>
<time>2016-03-02T00:41:14.985Z</time>
</trkpt>
<trkpt lat="-26.9806859" lon="152.3611397">
<ele>94.895</ele>
<time>2016-03-02T00:41:16.999Z</time>
</trkpt>
<trkpt lat="-26.9803315" lon="152.3612687">
<ele>93.400</ele>
<time>2016-03-02T00:41:19.053Z</time>
</trkpt>
<trkpt lat="-26.9797704" lon="152.3613945">
<ele>92.695</ele>
<time>2016-03-02T00:41:22.102Z</time>
</trkpt>
<trkpt lat="-26.9793874" lon="152.3614311">
<ele>92.891</ele>
<time>2016-03-02T00:41:24.113Z</time>
</trkpt>
<trkpt lat="-26.9788125" lon="152.3614018">
<ele>93.556</ele>
<time>2016-03-02T00:41:27.110Z</time>
</trkpt>
<trkpt lat="-26.9784343" lon="152.3613199">
<ele>94.399</ele>
<time>2016-03-02T00:41:29.084Z</time>
</trkpt>
<trkpt lat="-26.9780535" lon="152.3611982">
<ele>95.351</ele>
<time>2016-03-02T00:41:31.091Z</time>
</trkpt>
<trkpt lat="-26.9775253" lon="152.3609208">
<ele>96.028</ele>
<time>2016-03-02T00:41:34.054Z</time>
</trkpt>
<trkpt lat="-26.9771748" lon="152.3607415">
<ele>95.834</ele>
<time>2016-03-02T00:41:36.056Z</time>
</trkpt>
<trkpt lat="-26.9766663" lon="152.3604761">
<ele>94.810</ele>
<time>2016-03-02T00:41:39.053Z</time>
</trkpt>
<trkpt lat="-26.9761853" lon="152.3602099">
<ele>93.394</ele>
<time>2016-03-02T00:41:42.081Z</time>
</trkpt>
<trkpt lat="-26.9757956" lon="152.3599206">
<ele>91.925</ele>
<time>2016-03-02T00:41:44.946Z</time>
</trkpt>
<trkpt lat="-26.9754453" lon="152.3595949">
<ele>90.775</ele>
<time>2016-03-02T00:41:47.917Z</time>
</trkpt>
<trkpt lat="-26.9751319" lon="152.3592355">
<ele>90.403</ele>
<time>2016-03-02T00:41:50.987Z</time>
</trkpt>
<trkpt lat="-26.9749732" lon="152.3590406">
<ele>90.729</ele>
<time>2016-03-02T00:41:53.012Z</time>
</trkpt>
<trkpt lat="-26.9748620" lon="152.3588676">
<ele>90.992</ele>
<time>2016-03-02T00:41:54.997Z</time>
</trkpt>
<trkpt lat="-26.9748620" lon="152.3588676">
<ele>90.654</ele>
<time>2016-03-02T00:42:00.997Z</time>
</trkpt>
<trkpt lat="-26.9748620" lon="152.3588676">
<ele>90.195</ele>
<time>2016-03-02T00:42:58.389Z</time>
</trkpt>
<trkpt lat="-26.9746872" lon="152.3586694">
<ele>90.192</ele>
<time>2016-03-02T00:43:04.591Z</time>
</trkpt>
<trkpt lat="-26.9744817" lon="152.3584407">
<ele>90.648</ele>
<time>2016-03-02T00:43:07.552Z</time>
</trkpt>
<trkpt lat="-26.9742172" lon="152.3581310">
<ele>91.796</ele>
<time>2016-03-02T00:43:10.562Z</time>
</trkpt>
<trkpt lat="-26.9740157" lon="152.3578970">
<ele>93.945</ele>
<time>2016-03-02T00:43:12.553Z</time>
</trkpt>
<trkpt lat="-26.9738118" lon="152.3576553">
<ele>96.721</ele>
<time>2016-03-02T00:43:14.462Z</time>
</trkpt>
<trkpt lat="-26.9734923" lon="152.3572479">
<ele>99.613</ele>
<time>2016-03-02T00:43:17.418Z</time>
</trkpt>
<trkpt lat="-26.9731573" lon="152.3567936">
<ele>102.637</ele>
<time>2016-03-02T00:43:20.437Z</time>
</trkpt>
<trkpt lat="-26.9729284" lon="152.3564760">
<ele>105.795</ele>
<time>2016-03-02T00:43:22.435Z</time>
</trkpt>
<trkpt lat="-26.9725803" lon="152.3559901">
<ele>108.781</ele>
<time>2016-03-02T00:43:25.448Z</time>
</trkpt>
<trkpt lat="-26.9723466" lon="152.3556636">
<ele>111.531</ele>
<time>2016-03-02T00:43:27.430Z</time>
</trkpt>
<trkpt lat="-26.9719709" lon="152.3551671">
<ele>113.995</ele>
<time>2016-03-02T00:43:30.325Z</time>
</trkpt>
<trkpt lat="-26.9715341" lon="152.3546371">
<ele>115.837</ele>
<time>2016-03-02T00:43:33.286Z</time>
</trkpt>
<trkpt lat="-26.9711644" lon="152.3543200">
<ele>116.934</ele>
<time>2016-03-02T00:43:35.287Z</time>
</trkpt>
<trkpt lat="-26.9707772" lon="152.3540071">
<ele>117.439</ele>
<time>2016-03-02T00:43:37.297Z</time>
</trkpt>
<trkpt lat="-26.9703376" lon="152.3537742">
<ele>117.206</ele>
<time>2016-03-02T00:43:39.329Z</time>
</trkpt>
<trkpt lat="-26.9698794" lon="152.3536084">
<ele>116.068</ele>
<time>2016-03-02T00:43:41.298Z</time>
</trkpt>
<trkpt lat="-26.9691272" lon="152.3534816">
<ele>114.291</ele>
<time>2016-03-02T00:43:44.345Z</time>
</trkpt>
<trkpt lat="-26.9686029" lon="152.3534728">
<ele>112.321</ele>
<time>2016-03-02T00:43:46.405Z</time>
</trkpt>
<trkpt lat="-26.9678147" lon="152.3535430">
<ele>110.320</ele>
<time>2016-03-02T00:43:49.441Z</time>
</trkpt>
<trkpt lat="-26.9670481" lon="152.3536788">
<ele>108.320</ele>
<time>2016-03-02T00:43:52.418Z</time>
</trkpt>
<trkpt lat="-26.9665401" lon="152.3537885">
<ele>106.285</ele>
<time>2016-03-02T00:43:54.416Z</time>
</trkpt>
<trkpt lat="-26.9657793" lon="152.3539570">
<ele>104.394</ele>
<time>2016-03-02T00:43:57.407Z</time>
</trkpt>
<trkpt lat="-26.9652656" lon="152.3540609">
<ele>102.897</ele>
<time>2016-03-02T00:43:59.412Z</time>
</trkpt>
<trkpt lat="-26.9647562" lon="152.3541678">
<ele>101.780</ele>
<time>2016-03-02T00:44:01.414Z</time>
</trkpt>
<trkpt lat="-26.9642506" lon="152.3542854">
<ele>101.050</ele>
<time>2016-03-02T00:44:03.415Z</time>
</trkpt>
<trkpt lat="-26.9635017" lon="152.3544432">
<ele>100.766</ele>
<time>2016-03-02T00:44:06.355Z</time>
</trkpt>
<trkpt lat="-26.9629897" lon="152.3545553">
<ele>100.926</ele>
<time>2016-03-02T00:44:08.355Z</time>
</trkpt>
<trkpt lat="-26.9622175" lon="152.3547164">
<ele>101.433</ele>
<time>2016-03-02T00:44:11.370Z</time>
</trkpt>
<trkpt lat="-26.9614604" lon="152.3548899">
<ele>101.735</ele>
<time>2016-03-02T00:44:14.358Z</time>
</trkpt>
<trkpt lat="-26.9607164" lon="152.3550642">
<ele>101.448</ele>
<time>2016-03-02T00:44:17.324Z</time>
</trkpt>
<trkpt lat="-26.9602176" lon="152.3551839">
<ele>101.069</ele>
<time>2016-03-02T00:44:19.326Z</time>
</trkpt>
<trkpt lat="-26.9597203" lon="152.3552956">
<ele>101.095</ele>
<time>2016-03-02T00:44:21.315Z</time>
</trkpt>
<trkpt lat="-26.9589690" lon="152.3554680">
<ele>101.323</ele>
<time>2016-03-02T00:44:24.317Z</time>
</trkpt>
<trkpt lat="-26.9582138" lon="152.3556460">
<ele>101.313</ele>
<time>2016-03-02T00:44:27.384Z</time>
</trkpt>
<trkpt lat="-26.9575017" lon="152.3558046">
<ele>100.731</ele>
<time>2016-03-02T00:44:30.472Z</time>
</trkpt>
<trkpt lat="-26.9568768" lon="152.3559511">
<ele>99.493</ele>
<time>2016-03-02T00:44:33.440Z</time>
</trkpt>
<trkpt lat="-26.9562782" lon="152.3560947">
<ele>97.504</ele>
<time>2016-03-02T00:44:36.355Z</time>
</trkpt>
<trkpt lat="-26.9558520" lon="152.3561994">
<ele>95.087</ele>
<time>2016-03-02T00:44:38.271Z</time>
</trkpt>
<trkpt lat="-26.9553679" lon="152.3563255">
<ele>93.473</ele>
<time>2016-03-02T00:44:40.350Z</time>
</trkpt>
<trkpt lat="-26.9546117" lon="152.3565393">
<ele>94.173</ele>
<time>2016-03-02T00:44:43.420Z</time>
</trkpt>
<trkpt lat="-26.9541083" lon="152.3566692">
<ele>96.927</ele>
<time>2016-03-02T00:44:45.507Z</time>
</trkpt>
<trkpt lat="-26.9534173" lon="152.3568493">
<ele>99.594</ele>
<time>2016-03-02T00:44:48.515Z</time>
</trkpt>
<trkpt lat="-26.9527624" lon="152.3570265">
<ele>100.172</ele>
<time>2016-03-02T00:44:51.555Z</time>
</trkpt>
<trkpt lat="-26.9521400" lon="152.3571804">
<ele>98.569</ele>
<time>2016-03-02T00:44:54.642Z</time>
</trkpt>
<trkpt lat="-26.9515839" lon="152.3573324">
<ele>96.221</ele>
<time>2016-03-02T00:44:57.717Z</time>
</trkpt>
<trkpt lat="-26.9510847" lon="152.3574110">
<ele>94.345</ele>
<time>2016-03-02T00:45:00.665Z</time>
</trkpt>
<trkpt lat="-26.9507436" lon="152.3574301">
<ele>92.903</ele>
<time>2016-03-02T00:45:02.639Z</time>
</trkpt>
<trkpt lat="-26.9503876" lon="152.3574253">
<ele>91.819</ele>
<time>2016-03-02T00:45:04.548Z</time>
</trkpt>
<trkpt lat="-26.9498043" lon="152.3573535">
<ele>91.459</ele>
<time>2016-03-02T00:45:07.534Z</time>
</trkpt>
<trkpt lat="-26.9493964" lon="152.3572515">
<ele>92.194</ele>
<time>2016-03-02T00:45:09.559Z</time>
</trkpt>
<trkpt lat="-26.9489963" lon="152.3571160">
<ele>93.692</ele>
<time>2016-03-02T00:45:11.641Z</time>
</trkpt>
<trkpt lat="-26.9484369" lon="152.3569198">
<ele>94.923</ele>
<time>2016-03-02T00:45:14.724Z</time>
</trkpt>
<trkpt lat="-26.9480967" lon="152.3567941">
<ele>94.948</ele>
<time>2016-03-02T00:45:16.751Z</time>
</trkpt>
<trkpt lat="-26.9476444" lon="152.3566327">
<ele>93.709</ele>
<time>2016-03-02T00:45:19.747Z</time>
</trkpt>
<trkpt lat="-26.9473647" lon="152.3565312">
<ele>91.938</ele>
<time>2016-03-02T00:45:21.772Z</time>
</trkpt>
<trkpt lat="-26.9469464" lon="152.3563973">
<ele>90.473</ele>
<time>2016-03-02T00:45:24.781Z</time>
</trkpt>
<trkpt lat="-26.9466570" lon="152.3562981">
<ele>89.719</ele>
<time>2016-03-02T00:45:26.874Z</time>
</trkpt>
<trkpt lat="-26.9462477" lon="152.3561438">
<ele>89.762</ele>
<time>2016-03-02T00:45:29.947Z</time>
</trkpt>
<trkpt lat="-26.9459928" lon="152.3560535">
<ele>90.321</ele>
<time>2016-03-02T00:45:32.009Z</time>
</trkpt>
<trkpt lat="-26.9457565" lon="152.3559646">
<ele>90.924</ele>
<time>2016-03-02T00:45:34.137Z</time>
</trkpt>
<trkpt lat="-26.9454461" lon="152.3558466">
<ele>91.134</ele>
<time>2016-03-02T00:45:37.183Z</time>
</trkpt>
<trkpt lat="-26.9452698" lon="152.3557412">
<ele>90.736</ele>
<time>2016-03-02T00:45:39.303Z</time>
</trkpt>
<trkpt lat="-26.9451154" lon="152.3556497">
<ele>89.872</ele>
<time>2016-03-02T00:45:41.374Z</time>
</trkpt>
<trkpt lat="-26.9449730" lon="152.3555628">
<ele>89.008</ele>
<time>2016-03-02T00:45:43.574Z</time>
</trkpt>
<trkpt lat="-26.9447925" lon="152.3554661">
<ele>88.467</ele>
<time>2016-03-02T00:45:46.916Z</time>
</trkpt>
<trkpt lat="-26.9446850" lon="152.3554233">
<ele>88.257</ele>
<time>2016-03-02T00:45:49.204Z</time>
</trkpt>
<trkpt lat="-26.9445494" lon="152.3553992">
<ele>88.272</ele>
<time>2016-03-02T00:45:53.637Z</time>
</trkpt>
<trkpt lat="-26.9444599" lon="152.3554158">
<ele>88.451</ele>
<time>2016-03-02T00:45:57.651Z</time>
</trkpt>
<trkpt lat="-26.9443538" lon="152.3554145">
<ele>88.729</ele>
<time>2016-03-02T00:46:01.911Z</time>
</trkpt>
<trkpt lat="-26.9442380" lon="152.3554933">
<ele>89.185</ele>
<time>2016-03-02T00:46:05.500Z</time>
</trkpt>
<trkpt lat="-26.9441982" lon="152.3556804">
<ele>90.029</ele>
<time>2016-03-02T00:46:07.922Z</time>
</trkpt>
<trkpt lat="-26.9442155" lon="152.3561179">
<ele>91.322</ele>
<time>2016-03-02T00:46:11.284Z</time>
</trkpt>
<trkpt lat="-26.9442540" lon="152.3567901">
<ele>93.308</ele>
<time>2016-03-02T00:46:15.472Z</time>
</trkpt>
<trkpt lat="-26.9442781" lon="152.3575884">
<ele>96.777</ele>
<time>2016-03-02T00:46:19.384Z</time>
</trkpt>
<trkpt lat="-26.9442925" lon="152.3581443">
<ele>101.792</ele>
<time>2016-03-02T00:46:21.561Z</time>
</trkpt>
<trkpt lat="-26.9442865" lon="152.3587243">
<ele>106.693</ele>
<time>2016-03-02T00:46:23.679Z</time>
</trkpt>
<trkpt lat="-26.9443091" lon="152.3593064">
<ele>109.767</ele>
<time>2016-03-02T00:46:25.694Z</time>
</trkpt>
<trkpt lat="-26.9443419" lon="152.3601620">
<ele>110.826</ele>
<time>2016-03-02T00:46:28.585Z</time>
</trkpt>
<trkpt lat="-26.9443473" lon="152.3607424">
<ele>110.758</ele>
<time>2016-03-02T00:46:30.514Z</time>
</trkpt>
<trkpt lat="-26.9443820" lon="152.3616401">
<ele>110.342</ele>
<time>2016-03-02T00:46:33.447Z</time>
</trkpt>
<trkpt lat="-26.9444295" lon="152.3622608">
<ele>107.990</ele>
<time>2016-03-02T00:46:35.479Z</time>
</trkpt>
<trkpt lat="-26.9445374" lon="152.3631656">
<ele>102.691</ele>
<time>2016-03-02T00:46:38.527Z</time>
</trkpt>
<trkpt lat="-26.9446552" lon="152.3637573">
<ele>97.851</ele>
<time>2016-03-02T00:46:40.597Z</time>
</trkpt>
<trkpt lat="-26.9448774" lon="152.3645885">
<ele>96.876</ele>
<time>2016-03-02T00:46:43.614Z</time>
</trkpt>
<trkpt lat="-26.9450548" lon="152.3651289">
<ele>100.422</ele>
<time>2016-03-02T00:46:45.624Z</time>
</trkpt>
<trkpt lat="-26.9453639" lon="152.3659159">
<ele>107.509</ele>
<time>2016-03-02T00:46:48.645Z</time>
</trkpt>
<trkpt lat="-26.9457079" lon="152.3666789">
<ele>114.904</ele>
<time>2016-03-02T00:46:51.676Z</time>
</trkpt>
<trkpt lat="-26.9459395" lon="152.3671622">
<ele>119.999</ele>
<time>2016-03-02T00:46:53.604Z</time>
</trkpt>
<trkpt lat="-26.9461678" lon="152.3676645">
<ele>123.035</ele>
<time>2016-03-02T00:46:55.572Z</time>
</trkpt>
<trkpt lat="-26.9465237" lon="152.3684295">
<ele>125.078</ele>
<time>2016-03-02T00:46:58.580Z</time>
</trkpt>
<trkpt lat="-26.9467579" lon="152.3689592">
<ele>126.949</ele>
<time>2016-03-02T00:47:00.686Z</time>
</trkpt>
<trkpt lat="-26.9470946" lon="152.3696921">
<ele>128.769</ele>
<time>2016-03-02T00:47:03.722Z</time>
</trkpt>
<trkpt lat="-26.9474017" lon="152.3704323">
<ele>129.854</ele>
<time>2016-03-02T00:47:06.801Z</time>
</trkpt>
<trkpt lat="-26.9476548" lon="152.3711635">
<ele>129.841</ele>
<time>2016-03-02T00:47:09.773Z</time>
</trkpt>
<trkpt lat="-26.9478137" lon="152.3716814">
<ele>128.812</ele>
<time>2016-03-02T00:47:11.818Z</time>
</trkpt>
<trkpt lat="-26.9479992" lon="152.3724509">
<ele>127.043</ele>
<time>2016-03-02T00:47:14.696Z</time>
</trkpt>
<trkpt lat="-26.9481067" lon="152.3730078">
<ele>125.066</ele>
<time>2016-03-02T00:47:16.710Z</time>
</trkpt>
<trkpt lat="-26.9481838" lon="152.3735585">
<ele>123.382</ele>
<time>2016-03-02T00:47:18.671Z</time>
</trkpt>
<trkpt lat="-26.9482482" lon="152.3743811">
<ele>122.339</ele>
<time>2016-03-02T00:47:21.556Z</time>
</trkpt>
<trkpt lat="-26.9482696" lon="152.3752337">
<ele>121.674</ele>
<time>2016-03-02T00:47:24.522Z</time>
</trkpt>
<trkpt lat="-26.9482753" lon="152.3760879">
<ele>120.471</ele>
<time>2016-03-02T00:47:27.491Z</time>
</trkpt>
<trkpt lat="-26.9482805" lon="152.3766525">
<ele>118.383</ele>
<time>2016-03-02T00:47:29.469Z</time>
</trkpt>
<trkpt lat="-26.9482912" lon="152.3775017">
<ele>115.796</ele>
<time>2016-03-02T00:47:32.471Z</time>
</trkpt>
<trkpt lat="-26.9482958" lon="152.3780635">
<ele>113.139</ele>
<time>2016-03-02T00:47:34.441Z</time>
</trkpt>
<trkpt lat="-26.9483026" lon="152.3786204">
<ele>110.437</ele>
<time>2016-03-02T00:47:36.390Z</time>
</trkpt>
<trkpt lat="-26.9483025" lon="152.3794988">
<ele>107.925</ele>
<time>2016-03-02T00:47:39.477Z</time>
</trkpt>
<trkpt lat="-26.9483024" lon="152.3803345">
<ele>106.120</ele>
<time>2016-03-02T00:47:42.447Z</time>
</trkpt>
<trkpt lat="-26.9482603" lon="152.3809053">
<ele>104.833</ele>
<time>2016-03-02T00:47:44.488Z</time>
</trkpt>
<trkpt lat="-26.9481538" lon="152.3817158">
<ele>103.714</ele>
<time>2016-03-02T00:47:47.413Z</time>
</trkpt>
<trkpt lat="-26.9480446" lon="152.3822577">
<ele>103.196</ele>
<time>2016-03-02T00:47:49.384Z</time>
</trkpt>
<trkpt lat="-26.9479054" lon="152.3827972">
<ele>103.558</ele>
<time>2016-03-02T00:47:51.363Z</time>
</trkpt>
<trkpt lat="-26.9477268" lon="152.3833301">
<ele>104.441</ele>
<time>2016-03-02T00:47:53.367Z</time>
</trkpt>
<trkpt lat="-26.9474392" lon="152.3841042">
<ele>105.880</ele>
<time>2016-03-02T00:47:56.324Z</time>
</trkpt>
<trkpt lat="-26.9472048" lon="152.3846148">
<ele>107.860</ele>
<time>2016-03-02T00:47:58.337Z</time>
</trkpt>
<trkpt lat="-26.9468020" lon="152.3853447">
<ele>109.479</ele>
<time>2016-03-02T00:48:01.316Z</time>
</trkpt>
<trkpt lat="-26.9463723" lon="152.3860551">
<ele>110.135</ele>
<time>2016-03-02T00:48:04.349Z</time>
</trkpt>
<trkpt lat="-26.9460937" lon="152.3864915">
<ele>109.880</ele>
<time>2016-03-02T00:48:06.263Z</time>
</trkpt>
<trkpt lat="-26.9456794" lon="152.3871836">
<ele>108.635</ele>
<time>2016-03-02T00:48:09.209Z</time>
</trkpt>
<trkpt lat="-26.9453866" lon="152.3876408">
<ele>106.795</ele>
<time>2016-03-02T00:48:11.173Z</time>
</trkpt>
<trkpt lat="-26.9450866" lon="152.3881001">
<ele>105.299</ele>
<time>2016-03-02T00:48:13.140Z</time>
</trkpt>
<trkpt lat="-26.9448005" lon="152.3885802">
<ele>104.626</ele>
<time>2016-03-02T00:48:15.143Z</time>
</trkpt>
<trkpt lat="-26.9444962" lon="152.3890490">
<ele>104.034</ele>
<time>2016-03-02T00:48:17.171Z</time>
</trkpt>
<trkpt lat="-26.9440802" lon="152.3897478">
<ele>102.830</ele>
<time>2016-03-02T00:48:20.201Z</time>
</trkpt>
<trkpt lat="-26.9437997" lon="152.3902079">
<ele>101.582</ele>
<time>2016-03-02T00:48:22.190Z</time>
</trkpt>
<trkpt lat="-26.9431967" lon="152.3911488">
<ele>101.051</ele>
<time>2016-03-02T00:48:26.270Z</time>
</trkpt>
<trkpt lat="-26.9429119" lon="152.3916132">
<ele>101.532</ele>
<time>2016-03-02T00:48:28.280Z</time>
</trkpt>
<trkpt lat="-26.9424715" lon="152.3922483">
<ele>102.895</ele>
<time>2016-03-02T00:48:31.215Z</time>
</trkpt>
<trkpt lat="-26.9420689" lon="152.3929237">
<ele>104.625</ele>
<time>2016-03-02T00:48:34.219Z</time>
</trkpt>
<trkpt lat="-26.9418977" lon="152.3934763">
<ele>107.103</ele>
<time>2016-03-02T00:48:36.405Z</time>
</trkpt>
<trkpt lat="-26.9416759" lon="152.3942605">
<ele>110.810</ele>
<time>2016-03-02T00:48:39.520Z</time>
</trkpt>
<trkpt lat="-26.9415423" lon="152.3950393">
<ele>115.264</ele>
<time>2016-03-02T00:48:42.506Z</time>
</trkpt>
<trkpt lat="-26.9415066" lon="152.3955776">
<ele>119.451</ele>
<time>2016-03-02T00:48:44.471Z</time>
</trkpt>
<trkpt lat="-26.9415239" lon="152.3964079">
<ele>122.270</ele>
<time>2016-03-02T00:48:47.385Z</time>
</trkpt>
<trkpt lat="-26.9415949" lon="152.3972791">
<ele>123.393</ele>
<time>2016-03-02T00:48:50.473Z</time>
</trkpt>
<trkpt lat="-26.9416117" lon="152.3978401">
<ele>123.360</ele>
<time>2016-03-02T00:48:52.472Z</time>
</trkpt>
<trkpt lat="-26.9415771" lon="152.3983964">
<ele>121.933</ele>
<time>2016-03-02T00:48:54.458Z</time>
</trkpt>
<trkpt lat="-26.9414392" lon="152.3992113">
<ele>118.911</ele>
<time>2016-03-02T00:48:57.430Z</time>
</trkpt>
<trkpt lat="-26.9412954" lon="152.3997411">
<ele>115.392</ele>
<time>2016-03-02T00:48:59.425Z</time>
</trkpt>
<trkpt lat="-26.9410906" lon="152.4005279">
<ele>112.816</ele>
<time>2016-03-02T00:49:02.367Z</time>
</trkpt>
<trkpt lat="-26.9408794" lon="152.4013430">
<ele>111.645</ele>
<time>2016-03-02T00:49:05.356Z</time>
</trkpt>
<trkpt lat="-26.9407284" lon="152.4018697">
<ele>111.713</ele>
<time>2016-03-02T00:49:07.288Z</time>
</trkpt>
<trkpt lat="-26.9405927" lon="152.4024183">
<ele>112.462</ele>
<time>2016-03-02T00:49:09.274Z</time>
</trkpt>
<trkpt lat="-26.9404670" lon="152.4029676">
<ele>112.561</ele>
<time>2016-03-02T00:49:11.254Z</time>
</trkpt>
<trkpt lat="-26.9402543" lon="152.4037918">
<ele>111.178</ele>
<time>2016-03-02T00:49:14.265Z</time>
</trkpt>
<trkpt lat="-26.9400984" lon="152.4043255">
<ele>109.327</ele>
<time>2016-03-02T00:49:16.239Z</time>
</trkpt>
<trkpt lat="-26.9399209" lon="152.4048520">
<ele>108.197</ele>
<time>2016-03-02T00:49:18.215Z</time>
</trkpt>
<trkpt lat="-26.9396211" lon="152.4056326">
<ele>107.804</ele>
<time>2016-03-02T00:49:21.181Z</time>
</trkpt>
<trkpt lat="-26.9393011" lon="152.4064148">
<ele>107.853</ele>
<time>2016-03-02T00:49:24.174Z</time>
</trkpt>
<trkpt lat="-26.9390931" lon="152.4069309">
<ele>108.250</ele>
<time>2016-03-02T00:49:26.148Z</time>
</trkpt>
<trkpt lat="-26.9387724" lon="152.4077140">
<ele>108.781</ele>
<time>2016-03-02T00:49:29.181Z</time>
</trkpt>
<trkpt lat="-26.9384681" lon="152.4084856">
<ele>109.059</ele>
<time>2016-03-02T00:49:32.162Z</time>
</trkpt>
<trkpt lat="-26.9382338" lon="152.4093046">
<ele>108.683</ele>
<time>2016-03-02T00:49:35.193Z</time>
</trkpt>
<trkpt lat="-26.9381528" lon="152.4098583">
<ele>107.679</ele>
<time>2016-03-02T00:49:37.168Z</time>
</trkpt>
<trkpt lat="-26.9381059" lon="152.4107103">
<ele>106.948</ele>
<time>2016-03-02T00:49:40.204Z</time>
</trkpt>
<trkpt lat="-26.9380248" lon="152.4115493">
<ele>107.585</ele>
<time>2016-03-02T00:49:43.265Z</time>
</trkpt>
<trkpt lat="-26.9378202" lon="152.4123252">
<ele>109.367</ele>
<time>2016-03-02T00:49:46.205Z</time>
</trkpt>
<trkpt lat="-26.9374761" lon="152.4130708">
<ele>111.088</ele>
<time>2016-03-02T00:49:49.196Z</time>
</trkpt>
<trkpt lat="-26.9369433" lon="152.4136711">
<ele>112.102</ele>
<time>2016-03-02T00:49:52.175Z</time>
</trkpt>
<trkpt lat="-26.9363577" lon="152.4142387">
<ele>112.677</ele>
<time>2016-03-02T00:49:55.254Z</time>
</trkpt>
<trkpt lat="-26.9359744" lon="152.4145967">
<ele>113.130</ele>
<time>2016-03-02T00:49:57.260Z</time>
</trkpt>
<trkpt lat="-26.9355937" lon="152.4149529">
<ele>113.519</ele>
<time>2016-03-02T00:49:59.277Z</time>
</trkpt>
<trkpt lat="-26.9352142" lon="152.4153199">
<ele>113.776</ele>
<time>2016-03-02T00:50:01.326Z</time>
</trkpt>
<trkpt lat="-26.9346617" lon="152.4158570">
<ele>114.001</ele>
<time>2016-03-02T00:50:04.316Z</time>
</trkpt>
<trkpt lat="-26.9341468" lon="152.4164492">
<ele>114.181</ele>
<time>2016-03-02T00:50:07.295Z</time>
</trkpt>
<trkpt lat="-26.9336951" lon="152.4171117">
<ele>114.134</ele>
<time>2016-03-02T00:50:10.298Z</time>
</trkpt>
<trkpt lat="-26.9333541" lon="152.4178510">
<ele>113.927</ele>
<time>2016-03-02T00:50:13.301Z</time>
</trkpt>
<trkpt lat="-26.9330642" lon="152.4186048">
<ele>113.746</ele>
<time>2016-03-02T00:50:16.255Z</time>
</trkpt>
<trkpt lat="-26.9329137" lon="152.4191439">
<ele>113.540</ele>
<time>2016-03-02T00:50:18.295Z</time>
</trkpt>
<trkpt lat="-26.9328630" lon="152.4196733">
<ele>113.314</ele>
<time>2016-03-02T00:50:20.206Z</time>
</trkpt>
<trkpt lat="-26.9328238" lon="152.4202271">
<ele>113.183</ele>
<time>2016-03-02T00:50:22.167Z</time>
</trkpt>
<trkpt lat="-26.9328303" lon="152.4207917">
<ele>113.546</ele>
<time>2016-03-02T00:50:24.142Z</time>
</trkpt>
<trkpt lat="-26.9328887" lon="152.4213693">
<ele>114.753</ele>
<time>2016-03-02T00:50:26.181Z</time>
</trkpt>
<trkpt lat="-26.9330429" lon="152.4221959">
<ele>116.387</ele>
<time>2016-03-02T00:50:29.220Z</time>
</trkpt>
<trkpt lat="-26.9333046" lon="152.4229670">
<ele>117.586</ele>
<time>2016-03-02T00:50:32.269Z</time>
</trkpt>
<trkpt lat="-26.9335366" lon="152.4234644">
<ele>117.596</ele>
<time>2016-03-02T00:50:34.374Z</time>
</trkpt>
<trkpt lat="-26.9338849" lon="152.4241025">
<ele>116.318</ele>
<time>2016-03-02T00:50:37.181Z</time>
</trkpt>
<trkpt lat="-26.9341336" lon="152.4245248">
<ele>114.752</ele>
<time>2016-03-02T00:50:39.060Z</time>
</trkpt>
<trkpt lat="-26.9344644" lon="152.4252428">
<ele>114.099</ele>
<time>2016-03-02T00:50:42.060Z</time>
</trkpt>
<trkpt lat="-26.9346194" lon="152.4257515">
<ele>114.688</ele>
<time>2016-03-02T00:50:44.075Z</time>
</trkpt>
<trkpt lat="-26.9347150" lon="152.4265537">
<ele>115.992</ele>
<time>2016-03-02T00:50:47.151Z</time>
</trkpt>
<trkpt lat="-26.9347265" lon="152.4270715">
<ele>117.125</ele>
<time>2016-03-02T00:50:49.104Z</time>
</trkpt>
<trkpt lat="-26.9346652" lon="152.4275883">
<ele>118.137</ele>
<time>2016-03-02T00:50:51.022Z</time>
</trkpt>
<trkpt lat="-26.9345564" lon="152.4281090">
<ele>119.676</ele>
<time>2016-03-02T00:50:52.962Z</time>
</trkpt>
<trkpt lat="-26.9343630" lon="152.4289154">
<ele>121.802</ele>
<time>2016-03-02T00:50:55.924Z</time>
</trkpt>
<trkpt lat="-26.9342271" lon="152.4294595">
<ele>123.880</ele>
<time>2016-03-02T00:50:57.924Z</time>
</trkpt>
<trkpt lat="-26.9340186" lon="152.4302771">
<ele>125.518</ele>
<time>2016-03-02T00:51:00.994Z</time>
</trkpt>
<trkpt lat="-26.9338800" lon="152.4308087">
<ele>126.863</ele>
<time>2016-03-02T00:51:03.028Z</time>
</trkpt>
<trkpt lat="-26.9336826" lon="152.4315990">
<ele>128.213</ele>
<time>2016-03-02T00:51:06.072Z</time>
</trkpt>
<trkpt lat="-26.9335664" lon="152.4321051">
<ele>129.375</ele>
<time>2016-03-02T00:51:08.014Z</time>
</trkpt>
<trkpt lat="-26.9334624" lon="152.4329084">
<ele>130.049</ele>
<time>2016-03-02T00:51:10.957Z</time>
</trkpt>
<trkpt lat="-26.9334411" lon="152.4334599">
<ele>130.954</ele>
<time>2016-03-02T00:51:12.918Z</time>
</trkpt>
<trkpt lat="-26.9334248" lon="152.4343127">
<ele>133.019</ele>
<time>2016-03-02T00:51:15.722Z</time>
</trkpt>
<trkpt lat="-26.9334209" lon="152.4349415">
<ele>135.784</ele>
<time>2016-03-02T00:51:17.622Z</time>
</trkpt>
<trkpt lat="-26.9334251" lon="152.4356236">
<ele>139.163</ele>
<time>2016-03-02T00:51:19.584Z</time>
</trkpt>
<trkpt lat="-26.9334207" lon="152.4367091">
<ele>143.182</ele>
<time>2016-03-02T00:51:22.551Z</time>
</trkpt>
<trkpt lat="-26.9334063" lon="152.4374609">
<ele>146.241</ele>
<time>2016-03-02T00:51:24.585Z</time>
</trkpt>
<trkpt lat="-26.9333827" lon="152.4381989">
<ele>147.284</ele>
<time>2016-03-02T00:51:26.637Z</time>
</trkpt>
<trkpt lat="-26.9333646" lon="152.4392359">
<ele>147.693</ele>
<time>2016-03-02T00:51:29.650Z</time>
</trkpt>
<trkpt lat="-26.9333518" lon="152.4402339">
<ele>149.566</ele>
<time>2016-03-02T00:51:32.713Z</time>
</trkpt>
<trkpt lat="-26.9332847" lon="152.4411432">
<ele>154.102</ele>
<time>2016-03-02T00:51:35.648Z</time>
</trkpt>
<trkpt lat="-26.9331154" lon="152.4420401">
<ele>160.168</ele>
<time>2016-03-02T00:51:38.633Z</time>
</trkpt>
<trkpt lat="-26.9328607" lon="152.4429044">
<ele>165.523</ele>
<time>2016-03-02T00:51:41.627Z</time>
</trkpt>
<trkpt lat="-26.9326773" lon="152.4434677">
<ele>169.258</ele>
<time>2016-03-02T00:51:43.622Z</time>
</trkpt>
<trkpt lat="-26.9324124" lon="152.4443121">
<ele>171.776</ele>
<time>2016-03-02T00:51:46.731Z</time>
</trkpt>
<trkpt lat="-26.9321820" lon="152.4451047">
<ele>173.072</ele>
<time>2016-03-02T00:51:49.755Z</time>
</trkpt>
<trkpt lat="-26.9320026" lon="152.4458970">
<ele>172.623</ele>
<time>2016-03-02T00:51:52.655Z</time>
</trkpt>
<trkpt lat="-26.9319222" lon="152.4467610">
<ele>170.108</ele>
<time>2016-03-02T00:51:55.634Z</time>
</trkpt>
<trkpt lat="-26.9319559" lon="152.4476417">
<ele>166.384</ele>
<time>2016-03-02T00:51:58.633Z</time>
</trkpt>
<trkpt lat="-26.9320535" lon="152.4482182">
<ele>162.796</ele>
<time>2016-03-02T00:52:00.637Z</time>
</trkpt>
<trkpt lat="-26.9321764" lon="152.4487916">
<ele>159.866</ele>
<time>2016-03-02T00:52:02.652Z</time>
</trkpt>
<trkpt lat="-26.9323632" lon="152.4496468">
<ele>157.533</ele>
<time>2016-03-02T00:52:05.636Z</time>
</trkpt>
<trkpt lat="-26.9324823" lon="152.4502280">
<ele>155.978</ele>
<time>2016-03-02T00:52:07.621Z</time>
</trkpt>
<trkpt lat="-26.9326646" lon="152.4511189">
<ele>154.710</ele>
<time>2016-03-02T00:52:10.676Z</time>
</trkpt>
<trkpt lat="-26.9327869" lon="152.4516960">
<ele>152.708</ele>
<time>2016-03-02T00:52:12.697Z</time>
</trkpt>
<trkpt lat="-26.9329666" lon="152.4525375">
<ele>150.156</ele>
<time>2016-03-02T00:52:15.668Z</time>
</trkpt>
<trkpt lat="-26.9331450" lon="152.4533787">
<ele>147.969</ele>
<time>2016-03-02T00:52:18.655Z</time>
</trkpt>
<trkpt lat="-26.9332701" lon="152.4539382">
<ele>146.209</ele>
<time>2016-03-02T00:52:20.641Z</time>
</trkpt>
<trkpt lat="-26.9334382" lon="152.4547889">
<ele>144.201</ele>
<time>2016-03-02T00:52:23.634Z</time>
</trkpt>
<trkpt lat="-26.9335466" lon="152.4553424">
<ele>141.887</ele>
<time>2016-03-02T00:52:25.606Z</time>
</trkpt>
<trkpt lat="-26.9336836" lon="152.4558904">
<ele>140.233</ele>
<time>2016-03-02T00:52:27.606Z</time>
</trkpt>
<trkpt lat="-26.9338344" lon="152.4564283">
<ele>139.893</ele>
<time>2016-03-02T00:52:29.591Z</time>
</trkpt>
<trkpt lat="-26.9341039" lon="152.4572228">
<ele>140.393</ele>
<time>2016-03-02T00:52:32.566Z</time>
</trkpt>
<trkpt lat="-26.9344540" lon="152.4579444">
<ele>141.179</ele>
<time>2016-03-02T00:52:35.412Z</time>
</trkpt>
<trkpt lat="-26.9346995" lon="152.4584434">
<ele>141.970</ele>
<time>2016-03-02T00:52:37.369Z</time>
</trkpt>
<trkpt lat="-26.9350769" lon="152.4591866">
<ele>142.834</ele>
<time>2016-03-02T00:52:40.330Z</time>
</trkpt>
<trkpt lat="-26.9354399" lon="152.4599351">
<ele>144.704</ele>
<time>2016-03-02T00:52:43.307Z</time>
</trkpt>
<trkpt lat="-26.9356421" lon="152.4604601">
<ele>147.780</ele>
<time>2016-03-02T00:52:45.296Z</time>
</trkpt>
<trkpt lat="-26.9358769" lon="152.4613082">
<ele>150.427</ele>
<time>2016-03-02T00:52:48.375Z</time>
</trkpt>
<trkpt lat="-26.9359735" lon="152.4618719">
<ele>151.337</ele>
<time>2016-03-02T00:52:50.366Z</time>
</trkpt>
<trkpt lat="-26.9360355" lon="152.4627471">
<ele>150.568</ele>
<time>2016-03-02T00:52:53.394Z</time>
</trkpt>
<trkpt lat="-26.9359816" lon="152.4636262">
<ele>148.920</ele>
<time>2016-03-02T00:52:56.436Z</time>
</trkpt>
<trkpt lat="-26.9358229" lon="152.4644695">
<ele>147.560</ele>
<time>2016-03-02T00:52:59.429Z</time>
</trkpt>
<trkpt lat="-26.9355641" lon="152.4652763">
<ele>147.064</ele>
<time>2016-03-02T00:53:02.417Z</time>
</trkpt>
<trkpt lat="-26.9353287" lon="152.4657823">
<ele>147.196</ele>
<time>2016-03-02T00:53:04.408Z</time>
</trkpt>
<trkpt lat="-26.9350485" lon="152.4662657">
<ele>147.433</ele>
<time>2016-03-02T00:53:06.429Z</time>
</trkpt>
<trkpt lat="-26.9346049" lon="152.4669481">
<ele>147.451</ele>
<time>2016-03-02T00:53:09.444Z</time>
</trkpt>
<trkpt lat="-26.9341652" lon="152.4676015">
<ele>147.331</ele>
<time>2016-03-02T00:53:12.380Z</time>
</trkpt>
<trkpt lat="-26.9338432" lon="152.4680288">
<ele>147.373</ele>
<time>2016-03-02T00:53:14.358Z</time>
</trkpt>
<trkpt lat="-26.9334831" lon="152.4684320">
<ele>147.871</ele>
<time>2016-03-02T00:53:16.370Z</time>
</trkpt>
<trkpt lat="-26.9328997" lon="152.4689676">
<ele>148.794</ele>
<time>2016-03-02T00:53:19.341Z</time>
</trkpt>
<trkpt lat="-26.9322372" lon="152.4694149">
<ele>150.023</ele>
<time>2016-03-02T00:53:22.444Z</time>
</trkpt>
<trkpt lat="-26.9318186" lon="152.4696703">
<ele>151.918</ele>
<time>2016-03-02T00:53:24.435Z</time>
</trkpt>
<trkpt lat="-26.9312061" lon="152.4700395">
<ele>154.308</ele>
<time>2016-03-02T00:53:27.383Z</time>
</trkpt>
<trkpt lat="-26.9307971" lon="152.4703025">
<ele>156.099</ele>
<time>2016-03-02T00:53:29.383Z</time>
</trkpt>
<trkpt lat="-26.9304041" lon="152.4706130">
<ele>156.656</ele>
<time>2016-03-02T00:53:31.441Z</time>
</trkpt>
<trkpt lat="-26.9300748" lon="152.4710018">
<ele>156.372</ele>
<time>2016-03-02T00:53:33.537Z</time>
</trkpt>
<trkpt lat="-26.9296615" lon="152.4715961">
<ele>156.341</ele>
<time>2016-03-02T00:53:36.537Z</time>
</trkpt>
<trkpt lat="-26.9294487" lon="152.4720217">
<ele>157.519</ele>
<time>2016-03-02T00:53:38.451Z</time>
</trkpt>
<trkpt lat="-26.9292767" lon="152.4727955">
<ele>159.403</ele>
<time>2016-03-02T00:53:41.466Z</time>
</trkpt>
<trkpt lat="-26.9292362" lon="152.4736142">
<ele>160.779</ele>
<time>2016-03-02T00:53:44.441Z</time>
</trkpt>
<trkpt lat="-26.9293371" lon="152.4744677">
<ele>161.275</ele>
<time>2016-03-02T00:53:47.412Z</time>
</trkpt>
<trkpt lat="-26.9295589" lon="152.4753090">
<ele>161.475</ele>
<time>2016-03-02T00:53:50.339Z</time>
</trkpt>
<trkpt lat="-26.9297345" lon="152.4758758">
<ele>162.875</ele>
<time>2016-03-02T00:53:52.338Z</time>
</trkpt>
<trkpt lat="-26.9299176" lon="152.4764374">
<ele>166.135</ele>
<time>2016-03-02T00:53:54.333Z</time>
</trkpt>
<trkpt lat="-26.9301709" lon="152.4772761">
<ele>169.693</ele>
<time>2016-03-02T00:53:57.283Z</time>
</trkpt>
<trkpt lat="-26.9303413" lon="152.4778417">
<ele>171.866</ele>
<time>2016-03-02T00:53:59.269Z</time>
</trkpt>
<trkpt lat="-26.9305974" lon="152.4786900">
<ele>172.593</ele>
<time>2016-03-02T00:54:02.241Z</time>
</trkpt>
<trkpt lat="-26.9307759" lon="152.4792646">
<ele>172.617</ele>
<time>2016-03-02T00:54:04.272Z</time>
</trkpt>
<trkpt lat="-26.9310236" lon="152.4801053">
<ele>172.603</ele>
<time>2016-03-02T00:54:07.280Z</time>
</trkpt>
<trkpt lat="-26.9312879" lon="152.4809082">
<ele>172.658</ele>
<time>2016-03-02T00:54:10.251Z</time>
</trkpt>
<trkpt lat="-26.9316182" lon="152.4816704">
<ele>172.663</ele>
<time>2016-03-02T00:54:13.224Z</time>
</trkpt>
<trkpt lat="-26.9318328" lon="152.4821758">
<ele>173.208</ele>
<time>2016-03-02T00:54:15.181Z</time>
</trkpt>
<trkpt lat="-26.9320966" lon="152.4829874">
<ele>175.300</ele>
<time>2016-03-02T00:54:18.187Z</time>
</trkpt>
<trkpt lat="-26.9321914" lon="152.4835395">
<ele>178.930</ele>
<time>2016-03-02T00:54:20.136Z</time>
</trkpt>
<trkpt lat="-26.9322805" lon="152.4844090">
<ele>182.925</ele>
<time>2016-03-02T00:54:23.187Z</time>
</trkpt>
<trkpt lat="-26.9323942" lon="152.4852525">
<ele>186.335</ele>
<time>2016-03-02T00:54:26.229Z</time>
</trkpt>
<trkpt lat="-26.9326523" lon="152.4860135">
<ele>188.725</ele>
<time>2016-03-02T00:54:29.205Z</time>
</trkpt>
<trkpt lat="-26.9330553" lon="152.4866918">
<ele>189.848</ele>
<time>2016-03-02T00:54:32.201Z</time>
</trkpt>
<trkpt lat="-26.9333869" lon="152.4870858">
<ele>189.123</ele>
<time>2016-03-02T00:54:34.148Z</time>
</trkpt>
<trkpt lat="-26.9339950" lon="152.4875825">
<ele>186.742</ele>
<time>2016-03-02T00:54:37.090Z</time>
</trkpt>
<trkpt lat="-26.9344521" lon="152.4878844">
<ele>184.997</ele>
<time>2016-03-02T00:54:39.124Z</time>
</trkpt>
<trkpt lat="-26.9351217" lon="152.4883057">
<ele>185.615</ele>
<time>2016-03-02T00:54:42.129Z</time>
</trkpt>
<trkpt lat="-26.9357659" lon="152.4887158">
<ele>187.397</ele>
<time>2016-03-02T00:54:45.096Z</time>
</trkpt>
<trkpt lat="-26.9361867" lon="152.4890047">
<ele>188.676</ele>
<time>2016-03-02T00:54:47.047Z</time>
</trkpt>
<trkpt lat="-26.9367938" lon="152.4895373">
<ele>188.893</ele>
<time>2016-03-02T00:54:50.027Z</time>
</trkpt>
<trkpt lat="-26.9371798" lon="152.4899534">
<ele>188.274</ele>
<time>2016-03-02T00:54:52.061Z</time>
</trkpt>
<trkpt lat="-26.9377351" lon="152.4905781">
<ele>187.540</ele>
<time>2016-03-02T00:54:55.072Z</time>
</trkpt>
<trkpt lat="-26.9381026" lon="152.4909745">
<ele>186.081</ele>
<time>2016-03-02T00:54:57.023Z</time>
</trkpt>
<trkpt lat="-26.9386813" lon="152.4915853">
<ele>183.001</ele>
<time>2016-03-02T00:55:00.046Z</time>
</trkpt>
<trkpt lat="-26.9390505" lon="152.4919982">
<ele>179.602</ele>
<time>2016-03-02T00:55:02.041Z</time>
</trkpt>
<trkpt lat="-26.9394142" lon="152.4924049">
<ele>177.337</ele>
<time>2016-03-02T00:55:04.019Z</time>
</trkpt>
<trkpt lat="-26.9397897" lon="152.4928101">
<ele>176.022</ele>
<time>2016-03-02T00:55:06.016Z</time>
</trkpt>
<trkpt lat="-26.9403458" lon="152.4934381">
<ele>175.368</ele>
<time>2016-03-02T00:55:09.036Z</time>
</trkpt>
<trkpt lat="-26.9406808" lon="152.4938808">
<ele>175.195</ele>
<time>2016-03-02T00:55:11.017Z</time>
</trkpt>
<trkpt lat="-26.9409870" lon="152.4943454">
<ele>174.194</ele>
<time>2016-03-02T00:55:12.978Z</time>
</trkpt>
<trkpt lat="-26.9412423" lon="152.4948620">
<ele>171.450</ele>
<time>2016-03-02T00:55:14.943Z</time>
</trkpt>
<trkpt lat="-26.9415482" lon="152.4957111">
<ele>168.249</ele>
<time>2016-03-02T00:55:17.955Z</time>
</trkpt>
<trkpt lat="-26.9417650" lon="152.4965900">
<ele>166.077</ele>
<time>2016-03-02T00:55:20.930Z</time>
</trkpt>
<trkpt lat="-26.9419525" lon="152.4974892">
<ele>164.542</ele>
<time>2016-03-02T00:55:23.953Z</time>
</trkpt>
<trkpt lat="-26.9420844" lon="152.4980741">
<ele>162.930</ele>
<time>2016-03-02T00:55:25.978Z</time>
</trkpt>
<trkpt lat="-26.9421995" lon="152.4986457">
<ele>160.740</ele>
<time>2016-03-02T00:55:27.969Z</time>
</trkpt>
<trkpt lat="-26.9423760" lon="152.4994943">
<ele>157.971</ele>
<time>2016-03-02T00:55:30.968Z</time>
</trkpt>
<trkpt lat="-26.9425016" lon="152.5000511">
<ele>155.163</ele>
<time>2016-03-02T00:55:32.976Z</time>
</trkpt>
<trkpt lat="-26.9427560" lon="152.5008335">
<ele>152.959</ele>
<time>2016-03-02T00:55:35.909Z</time>
</trkpt>
<trkpt lat="-26.9429821" lon="152.5013275">
<ele>151.562</ele>
<time>2016-03-02T00:55:37.847Z</time>
</trkpt>
<trkpt lat="-26.9433784" lon="152.5020650">
<ele>151.036</ele>
<time>2016-03-02T00:55:40.828Z</time>
</trkpt>
<trkpt lat="-26.9437704" lon="152.5028010">
<ele>150.928</ele>
<time>2016-03-02T00:55:43.774Z</time>
</trkpt>
<trkpt lat="-26.9440406" lon="152.5032909">
<ele>150.657</ele>
<time>2016-03-02T00:55:45.745Z</time>
</trkpt>
<trkpt lat="-26.9444376" lon="152.5040529">
<ele>150.222</ele>
<time>2016-03-02T00:55:48.776Z</time>
</trkpt>
<trkpt lat="-26.9447527" lon="152.5048341">
<ele>149.984</ele>
<time>2016-03-02T00:55:51.748Z</time>
</trkpt>
<trkpt lat="-26.9449504" lon="152.5056629">
<ele>149.922</ele>
<time>2016-03-02T00:55:54.760Z</time>
</trkpt>
<trkpt lat="-26.9451081" lon="152.5064783">
<ele>149.656</ele>
<time>2016-03-02T00:55:57.774Z</time>
</trkpt>
<trkpt lat="-26.9453753" lon="152.5072013">
<ele>148.963</ele>
<time>2016-03-02T00:56:00.713Z</time>
</trkpt>
<trkpt lat="-26.9456378" lon="152.5076336">
<ele>146.993</ele>
<time>2016-03-02T00:56:02.682Z</time>
</trkpt>
<trkpt lat="-26.9461679" lon="152.5081962">
<ele>143.080</ele>
<time>2016-03-02T00:56:05.696Z</time>
</trkpt>
<trkpt lat="-26.9465713" lon="152.5085366">
<ele>138.830</ele>
<time>2016-03-02T00:56:07.715Z</time>
</trkpt>
<trkpt lat="-26.9469787" lon="152.5088673">
<ele>136.210</ele>
<time>2016-03-02T00:56:09.729Z</time>
</trkpt>
<trkpt lat="-26.9473536" lon="152.5092190">
<ele>134.986</ele>
<time>2016-03-02T00:56:11.746Z</time>
</trkpt>
<trkpt lat="-26.9478114" lon="152.5098322">
<ele>134.232</ele>
<time>2016-03-02T00:56:14.741Z</time>
</trkpt>
<trkpt lat="-26.9480304" lon="152.5103035">
<ele>133.530</ele>
<time>2016-03-02T00:56:16.702Z</time>
</trkpt>
<trkpt lat="-26.9482018" lon="152.5111084">
<ele>132.989</ele>
<time>2016-03-02T00:56:19.713Z</time>
</trkpt>
<trkpt lat="-26.9482620" lon="152.5119445">
<ele>133.095</ele>
<time>2016-03-02T00:56:22.786Z</time>
</trkpt>
<trkpt lat="-26.9482796" lon="152.5124743">
<ele>133.975</ele>
<time>2016-03-02T00:56:24.830Z</time>
</trkpt>
<trkpt lat="-26.9482847" lon="152.5129878">
<ele>134.560</ele>
<time>2016-03-02T00:56:26.806Z</time>
</trkpt>
<trkpt lat="-26.9483227" lon="152.5138101">
<ele>133.741</ele>
<time>2016-03-02T00:56:29.881Z</time>
</trkpt>
<trkpt lat="-26.9483377" lon="152.5143441">
<ele>132.048</ele>
<time>2016-03-02T00:56:31.809Z</time>
</trkpt>
<trkpt lat="-26.9483563" lon="152.5151798">
<ele>130.730</ele>
<time>2016-03-02T00:56:34.800Z</time>
</trkpt>
<trkpt lat="-26.9483016" lon="152.5160118">
<ele>130.098</ele>
<time>2016-03-02T00:56:37.785Z</time>
</trkpt>
<trkpt lat="-26.9482114" lon="152.5165559">
<ele>129.567</ele>
<time>2016-03-02T00:56:39.791Z</time>
</trkpt>
<trkpt lat="-26.9480788" lon="152.5170716">
<ele>128.614</ele>
<time>2016-03-02T00:56:41.754Z</time>
</trkpt>
<trkpt lat="-26.9479153" lon="152.5175840">
<ele>127.240</ele>
<time>2016-03-02T00:56:43.751Z</time>
</trkpt>
<trkpt lat="-26.9476992" lon="152.5180845">
<ele>125.927</ele>
<time>2016-03-02T00:56:45.767Z</time>
</trkpt>
<trkpt lat="-26.9473031" lon="152.5188173">
<ele>125.159</ele>
<time>2016-03-02T00:56:48.754Z</time>
</trkpt>
<trkpt lat="-26.9470145" lon="152.5193068">
<ele>125.186</ele>
<time>2016-03-02T00:56:50.763Z</time>
</trkpt>
<trkpt lat="-26.9467196" lon="152.5197735">
<ele>125.852</ele>
<time>2016-03-02T00:56:52.744Z</time>
</trkpt>
<trkpt lat="-26.9462838" lon="152.5204942">
<ele>126.133</ele>
<time>2016-03-02T00:56:55.774Z</time>
</trkpt>
<trkpt lat="-26.9459902" lon="152.5209516">
<ele>125.333</ele>
<time>2016-03-02T00:56:57.765Z</time>
</trkpt>
<trkpt lat="-26.9457014" lon="152.5213714">
<ele>124.076</ele>
<time>2016-03-02T00:56:59.666Z</time>
</trkpt>
<trkpt lat="-26.9454164" lon="152.5218229">
<ele>122.984</ele>
<time>2016-03-02T00:57:01.642Z</time>
</trkpt>
<trkpt lat="-26.9449781" lon="152.5225056">
<ele>122.059</ele>
<time>2016-03-02T00:57:04.626Z</time>
</trkpt>
<trkpt lat="-26.9446844" lon="152.5229604">
<ele>121.386</ele>
<time>2016-03-02T00:57:06.615Z</time>
</trkpt>
<trkpt lat="-26.9442425" lon="152.5236359">
<ele>121.042</ele>
<time>2016-03-02T00:57:09.582Z</time>
</trkpt>
<trkpt lat="-26.9438498" lon="152.5243471">
<ele>120.934</ele>
<time>2016-03-02T00:57:12.517Z</time>
</trkpt>
<trkpt lat="-26.9435250" lon="152.5251438">
<ele>120.922</ele>
<time>2016-03-02T00:57:15.563Z</time>
</trkpt>
<trkpt lat="-26.9433623" lon="152.5256835">
<ele>120.814</ele>
<time>2016-03-02T00:57:17.550Z</time>
</trkpt>
<trkpt lat="-26.9432327" lon="152.5262401">
<ele>120.497</ele>
<time>2016-03-02T00:57:19.556Z</time>
</trkpt>
<trkpt lat="-26.9431326" lon="152.5268059">
<ele>120.012</ele>
<time>2016-03-02T00:57:21.557Z</time>
</trkpt>
<trkpt lat="-26.9430331" lon="152.5273830">
<ele>119.331</ele>
<time>2016-03-02T00:57:23.592Z</time>
</trkpt>
<trkpt lat="-26.9429336" lon="152.5279436">
<ele>118.565</ele>
<time>2016-03-02T00:57:25.572Z</time>
</trkpt>
<trkpt lat="-26.9427487" lon="152.5287858">
<ele>117.924</ele>
<time>2016-03-02T00:57:28.568Z</time>
</trkpt>
<trkpt lat="-26.9426015" lon="152.5293491">
<ele>117.301</ele>
<time>2016-03-02T00:57:30.596Z</time>
</trkpt>
<trkpt lat="-26.9423941" lon="152.5301746">
<ele>116.528</ele>
<time>2016-03-02T00:57:33.566Z</time>
</trkpt>
<trkpt lat="-26.9422456" lon="152.5307217">
<ele>115.740</ele>
<time>2016-03-02T00:57:35.535Z</time>
</trkpt>
<trkpt lat="-26.9420336" lon="152.5315638">
<ele>115.213</ele>
<time>2016-03-02T00:57:38.528Z</time>
</trkpt>
<trkpt lat="-26.9418151" lon="152.5324098">
<ele>115.031</ele>
<time>2016-03-02T00:57:41.541Z</time>
</trkpt>
<trkpt lat="-26.9416682" lon="152.5329634">
<ele>114.543</ele>
<time>2016-03-02T00:57:43.559Z</time>
</trkpt>
<trkpt lat="-26.9414639" lon="152.5337860">
<ele>113.224</ele>
<time>2016-03-02T00:57:46.590Z</time>
</trkpt>
<trkpt lat="-26.9413270" lon="152.5342994">
<ele>111.198</ele>
<time>2016-03-02T00:57:48.549Z</time>
</trkpt>
<trkpt lat="-26.9411919" lon="152.5348089">
<ele>108.752</ele>
<time>2016-03-02T00:57:50.533Z</time>
</trkpt>
<trkpt lat="-26.9409903" lon="152.5355858">
<ele>106.524</ele>
<time>2016-03-02T00:57:53.585Z</time>
</trkpt>
<trkpt lat="-26.9409195" lon="152.5360940">
<ele>105.390</ele>
<time>2016-03-02T00:57:55.558Z</time>
</trkpt>
<trkpt lat="-26.9408702" lon="152.5366005">
<ele>105.318</ele>
<time>2016-03-02T00:57:57.528Z</time>
</trkpt>
<trkpt lat="-26.9409348" lon="152.5373745">
<ele>105.682</ele>
<time>2016-03-02T00:58:00.535Z</time>
</trkpt>
<trkpt lat="-26.9410600" lon="152.5378809">
<ele>106.404</ele>
<time>2016-03-02T00:58:02.563Z</time>
</trkpt>
<trkpt lat="-26.9413214" lon="152.5386114">
<ele>107.801</ele>
<time>2016-03-02T00:58:05.591Z</time>
</trkpt>
<trkpt lat="-26.9415425" lon="152.5390471">
<ele>109.838</ele>
<time>2016-03-02T00:58:07.456Z</time>
</trkpt>
<trkpt lat="-26.9419850" lon="152.5397428">
<ele>111.999</ele>
<time>2016-03-02T00:58:10.540Z</time>
</trkpt>
<trkpt lat="-26.9424365" lon="152.5404190">
<ele>114.250</ele>
<time>2016-03-02T00:58:13.549Z</time>
</trkpt>
<trkpt lat="-26.9427211" lon="152.5408583">
<ele>117.074</ele>
<time>2016-03-02T00:58:15.623Z</time>
</trkpt>
<trkpt lat="-26.9431163" lon="152.5414398">
<ele>120.019</ele>
<time>2016-03-02T00:58:18.543Z</time>
</trkpt>
<trkpt lat="-26.9435009" lon="152.5420307">
<ele>121.464</ele>
<time>2016-03-02T00:58:21.569Z</time>
</trkpt>
<trkpt lat="-26.9438786" lon="152.5426156">
<ele>120.725</ele>
<time>2016-03-02T00:58:24.690Z</time>
</trkpt>
<trkpt lat="-26.9441023" lon="152.5429732">
<ele>118.615</ele>
<time>2016-03-02T00:58:26.738Z</time>
</trkpt>
<trkpt lat="-26.9443101" lon="152.5433212">
<ele>115.804</ele>
<time>2016-03-02T00:58:28.726Z</time>
</trkpt>
<trkpt lat="-26.9446119" lon="152.5438843">
<ele>112.286</ele>
<time>2016-03-02T00:58:31.819Z</time>
</trkpt>
<trkpt lat="-26.9447825" lon="152.5442663">
<ele>108.677</ele>
<time>2016-03-02T00:58:33.818Z</time>
</trkpt>
<trkpt lat="-26.9449463" lon="152.5446371">
<ele>105.677</ele>
<time>2016-03-02T00:58:35.729Z</time>
</trkpt>
<trkpt lat="-26.9451110" lon="152.5450373">
<ele>103.082</ele>
<time>2016-03-02T00:58:37.697Z</time>
</trkpt>
<trkpt lat="-26.9453244" lon="152.5456795">
<ele>100.738</ele>
<time>2016-03-02T00:58:40.692Z</time>
</trkpt>
<trkpt lat="-26.9454975" lon="152.5463471">
<ele>99.053</ele>
<time>2016-03-02T00:58:43.698Z</time>
</trkpt>
<trkpt lat="-26.9455585" lon="152.5467878">
<ele>98.416</ele>
<time>2016-03-02T00:58:45.657Z</time>
</trkpt>
<trkpt lat="-26.9456222" lon="152.5474596">
<ele>98.796</ele>
<time>2016-03-02T00:58:48.745Z</time>
</trkpt>
<trkpt lat="-26.9456892" lon="152.5480646">
<ele>99.645</ele>
<time>2016-03-02T00:58:51.738Z</time>
</trkpt>
<trkpt lat="-26.9457536" lon="152.5486400">
<ele>100.210</ele>
<time>2016-03-02T00:58:54.703Z</time>
</trkpt>
<trkpt lat="-26.9457957" lon="152.5490309">
<ele>100.204</ele>
<time>2016-03-02T00:58:56.721Z</time>
</trkpt>
<trkpt lat="-26.9458436" lon="152.5494193">
<ele>100.039</ele>
<time>2016-03-02T00:58:58.730Z</time>
</trkpt>
<trkpt lat="-26.9459235" lon="152.5497927">
<ele>100.102</ele>
<time>2016-03-02T00:59:00.710Z</time>
</trkpt>
<trkpt lat="-26.9460925" lon="152.5503413">
<ele>100.264</ele>
<time>2016-03-02T00:59:03.704Z</time>
</trkpt>
<trkpt lat="-26.9462264" lon="152.5506983">
<ele>100.077</ele>
<time>2016-03-02T00:59:05.659Z</time>
</trkpt>
<trkpt lat="-26.9464640" lon="152.5512421">
<ele>99.339</ele>
<time>2016-03-02T00:59:08.678Z</time>
</trkpt>
<trkpt lat="-26.9466467" lon="152.5516168">
<ele>98.434</ele>
<time>2016-03-02T00:59:10.780Z</time>
</trkpt>
<trkpt lat="-26.9469117" lon="152.5521550">
<ele>97.925</ele>
<time>2016-03-02T00:59:13.771Z</time>
</trkpt>
<trkpt lat="-26.9471715" lon="152.5526785">
<ele>97.932</ele>
<time>2016-03-02T00:59:16.726Z</time>
</trkpt>
<trkpt lat="-26.9474202" lon="152.5531906">
<ele>98.190</ele>
<time>2016-03-02T00:59:19.672Z</time>
</trkpt>
<trkpt lat="-26.9476555" lon="152.5537052">
<ele>98.401</ele>
<time>2016-03-02T00:59:22.621Z</time>
</trkpt>
<trkpt lat="-26.9478425" lon="152.5542503">
<ele>98.466</ele>
<time>2016-03-02T00:59:25.597Z</time>
</trkpt>
<trkpt lat="-26.9479335" lon="152.5546304">
<ele>98.438</ele>
<time>2016-03-02T00:59:27.560Z</time>
</trkpt>
<trkpt lat="-26.9480119" lon="152.5550326">
<ele>98.395</ele>
<time>2016-03-02T00:59:29.573Z</time>
</trkpt>
<trkpt lat="-26.9480575" lon="152.5554296">
<ele>98.583</ele>
<time>2016-03-02T00:59:31.521Z</time>
</trkpt>
<trkpt lat="-26.9480611" lon="152.5560477">
<ele>99.179</ele>
<time>2016-03-02T00:59:34.562Z</time>
</trkpt>
<trkpt lat="-26.9480136" lon="152.5566543">
<ele>99.852</ele>
<time>2016-03-02T00:59:37.679Z</time>
</trkpt>
<trkpt lat="-26.9479808" lon="152.5570153">
<ele>100.199</ele>
<time>2016-03-02T00:59:39.733Z</time>
</trkpt>
<trkpt lat="-26.9479362" lon="152.5575047">
<ele>100.032</ele>
<time>2016-03-02T00:59:42.643Z</time>
</trkpt>
<trkpt lat="-26.9478993" lon="152.5580000">
<ele>99.408</ele>
<time>2016-03-02T00:59:45.655Z</time>
</trkpt>
<trkpt lat="-26.9478718" lon="152.5583272">
<ele>98.939</ele>
<time>2016-03-02T00:59:47.651Z</time>
</trkpt>
<trkpt lat="-26.9478367" lon="152.5586628">
<ele>99.205</ele>
<time>2016-03-02T00:59:49.728Z</time>
</trkpt>
<trkpt lat="-26.9477770" lon="152.5591428">
<ele>99.951</ele>
<time>2016-03-02T00:59:52.789Z</time>
</trkpt>
<trkpt lat="-26.9477457" lon="152.5594408">
<ele>100.571</ele>
<time>2016-03-02T00:59:54.896Z</time>
</trkpt>
<trkpt lat="-26.9477173" lon="152.5598499">
<ele>100.306</ele>
<time>2016-03-02T00:59:58.065Z</time>
</trkpt>
<trkpt lat="-26.9476827" lon="152.5601926">
<ele>98.952</ele>
<time>2016-03-02T01:00:00.996Z</time>
</trkpt>
<trkpt lat="-26.9476520" lon="152.5604087">
<ele>97.239</ele>
<time>2016-03-02T01:00:02.918Z</time>
</trkpt>
<trkpt lat="-26.9476353" lon="152.5606230">
<ele>95.910</ele>
<time>2016-03-02T01:00:04.818Z</time>
</trkpt>
<trkpt lat="-26.9476152" lon="152.5608495">
<ele>95.347</ele>
<time>2016-03-02T01:00:06.830Z</time>
</trkpt>
<trkpt lat="-26.9475559" lon="152.5611848">
<ele>95.619</ele>
<time>2016-03-02T01:00:09.870Z</time>
</trkpt>
<trkpt lat="-26.9475291" lon="152.5614035">
<ele>96.228</ele>
<time>2016-03-02T01:00:11.903Z</time>
</trkpt>
<trkpt lat="-26.9474687" lon="152.5617169">
<ele>96.739</ele>
<time>2016-03-02T01:00:14.861Z</time>
</trkpt>
<trkpt lat="-26.9473942" lon="152.5620363">
<ele>96.860</ele>
<time>2016-03-02T01:00:17.855Z</time>
</trkpt>
<trkpt lat="-26.9473525" lon="152.5622486">
<ele>96.467</ele>
<time>2016-03-02T01:00:19.807Z</time>
</trkpt>
<trkpt lat="-26.9472959" lon="152.5625855">
<ele>95.862</ele>
<time>2016-03-02T01:00:22.898Z</time>
</trkpt>
<trkpt lat="-26.9472591" lon="152.5628077">
<ele>95.347</ele>
<time>2016-03-02T01:00:24.938Z</time>
</trkpt>
<trkpt lat="-26.9472130" lon="152.5631338">
<ele>94.961</ele>
<time>2016-03-02T01:00:28.297Z</time>
</trkpt>
<trkpt lat="-26.9471773" lon="152.5632922">
<ele>94.627</ele>
<time>2016-03-02T01:00:30.958Z</time>
</trkpt>
<trkpt lat="-26.9471016" lon="152.5633788">
<ele>94.162</ele>
<time>2016-03-02T01:00:35.771Z</time>
</trkpt>
<trkpt lat="-26.9470159" lon="152.5634215">
<ele>93.565</ele>
<time>2016-03-02T01:00:40.000Z</time>
</trkpt>
<trkpt lat="-26.9470159" lon="152.5634215">
<ele>93.158</ele>
<time>2016-03-02T01:00:44.000Z</time>
</trkpt>
<trkpt lat="-26.9470159" lon="152.5634215">
<ele>93.107</ele>
<time>2016-03-02T01:05:53.860Z</time>
</trkpt>
<trkpt lat="-26.9471627" lon="152.5634329">
<ele>93.245</ele>
<time>2016-03-02T01:06:01.460Z</time>
</trkpt>
<trkpt lat="-26.9471901" lon="152.5635467">
<ele>94.353</ele>
<time>2016-03-02T01:06:04.794Z</time>
</trkpt>
<trkpt lat="-26.9471467" lon="152.5636654">
<ele>97.046</ele>
<time>2016-03-02T01:06:07.673Z</time>
</trkpt>
<trkpt lat="-26.9471193" lon="152.5639974">
<ele>99.952</ele>
<time>2016-03-02T01:06:11.415Z</time>
</trkpt>
<trkpt lat="-26.9470990" lon="152.5642762">
<ele>102.189</ele>
<time>2016-03-02T01:06:13.608Z</time>
</trkpt>
<trkpt lat="-26.9470716" lon="152.5645519">
<ele>104.364</ele>
<time>2016-03-02T01:06:15.667Z</time>
</trkpt>
<trkpt lat="-26.9470351" lon="152.5649362">
<ele>106.190</ele>
<time>2016-03-02T01:06:18.583Z</time>
</trkpt>
<trkpt lat="-26.9469920" lon="152.5653000">
<ele>106.961</ele>
<time>2016-03-02T01:06:21.664Z</time>
</trkpt>
<trkpt lat="-26.9469705" lon="152.5654843">
<ele>106.690</ele>
<time>2016-03-02T01:06:23.941Z</time>
</trkpt>
<trkpt lat="-26.9468733" lon="152.5655830">
<ele>105.619</ele>
<time>2016-03-02T01:06:25.950Z</time>
</trkpt>
<trkpt lat="-26.9466516" lon="152.5656037">
<ele>104.247</ele>
<time>2016-03-02T01:06:29.095Z</time>
</trkpt>
<trkpt lat="-26.9464510" lon="152.5655897">
<ele>103.471</ele>
<time>2016-03-02T01:06:31.111Z</time>
</trkpt>
<trkpt lat="-26.9460947" lon="152.5655583">
<ele>103.922</ele>
<time>2016-03-02T01:06:34.194Z</time>
</trkpt>
<trkpt lat="-26.9457034" lon="152.5655213">
<ele>105.650</ele>
<time>2016-03-02T01:06:37.293Z</time>
</trkpt>
<trkpt lat="-26.9454560" lon="152.5654950">
<ele>108.176</ele>
<time>2016-03-02T01:06:39.264Z</time>
</trkpt>
<trkpt lat="-26.9451049" lon="152.5654532">
<ele>110.575</ele>
<time>2016-03-02T01:06:42.130Z</time>
</trkpt>
<trkpt lat="-26.9448694" lon="152.5654324">
<ele>112.167</ele>
<time>2016-03-02T01:06:44.105Z</time>
</trkpt>
<trkpt lat="-26.9445290" lon="152.5653901">
<ele>112.935</ele>
<time>2016-03-02T01:06:46.988Z</time>
</trkpt>
<trkpt lat="-26.9442992" lon="152.5653546">
<ele>113.123</ele>
<time>2016-03-02T01:06:48.949Z</time>
</trkpt>
<trkpt lat="-26.9440626" lon="152.5653320">
<ele>112.893</ele>
<time>2016-03-02T01:06:51.017Z</time>
</trkpt>
<trkpt lat="-26.9438564" lon="152.5653040">
<ele>112.355</ele>
<time>2016-03-02T01:06:52.966Z</time>
</trkpt>
<trkpt lat="-26.9435877" lon="152.5652664">
<ele>111.784</ele>
<time>2016-03-02T01:06:55.712Z</time>
</trkpt>
<trkpt lat="-26.9434194" lon="152.5652300">
<ele>111.176</ele>
<time>2016-03-02T01:06:57.694Z</time>
</trkpt>
<trkpt lat="-26.9432005" lon="152.5652005">
<ele>110.245</ele>
<time>2016-03-02T01:07:00.850Z</time>
</trkpt>
<trkpt lat="-26.9431004" lon="152.5651776">
<ele>109.070</ele>
<time>2016-03-02T01:07:03.000Z</time>
</trkpt>
<trkpt lat="-26.9431004" lon="152.5651776">
<ele>108.083</ele>
<time>2016-03-02T01:07:06.000Z</time>
</trkpt>
<trkpt lat="-26.9431004" lon="152.5651776">
<ele>107.605</ele>
<time>2016-03-02T01:07:07.881Z</time>
</trkpt>
<trkpt lat="-26.9429548" lon="152.5652686">
<ele>107.717</ele>
<time>2016-03-02T01:07:12.265Z</time>
</trkpt>
<trkpt lat="-26.9429196" lon="152.5654682">
<ele>108.179</ele>
<time>2016-03-02T01:07:14.452Z</time>
</trkpt>
<trkpt lat="-26.9428977" lon="152.5657232">
<ele>108.638</ele>
<time>2016-03-02T01:07:16.576Z</time>
</trkpt>
<trkpt lat="-26.9428725" lon="152.5660014">
<ele>108.921</ele>
<time>2016-03-02T01:07:18.621Z</time>
</trkpt>
<trkpt lat="-26.9428421" lon="152.5664357">
<ele>108.922</ele>
<time>2016-03-02T01:07:21.643Z</time>
</trkpt>
<trkpt lat="-26.9428089" lon="152.5667421">
<ele>108.572</ele>
<time>2016-03-02T01:07:23.638Z</time>
</trkpt>
<trkpt lat="-26.9427606" lon="152.5672129">
<ele>107.995</ele>
<time>2016-03-02T01:07:26.627Z</time>
</trkpt>
<trkpt lat="-26.9427375" lon="152.5675320">
<ele>107.417</ele>
<time>2016-03-02T01:07:28.642Z</time>
</trkpt>
<trkpt lat="-26.9427019" lon="152.5680126">
<ele>107.052</ele>
<time>2016-03-02T01:07:31.729Z</time>
</trkpt>
<trkpt lat="-26.9426811" lon="152.5683100">
<ele>106.962</ele>
<time>2016-03-02T01:07:33.702Z</time>
</trkpt>
<trkpt lat="-26.9426450" lon="152.5686172">
<ele>106.895</ele>
<time>2016-03-02T01:07:35.847Z</time>
</trkpt>
<trkpt lat="-26.9426396" lon="152.5689046">
<ele>106.137</ele>
<time>2016-03-02T01:07:38.062Z</time>
</trkpt>
<trkpt lat="-26.9426101" lon="152.5692704">
<ele>104.477</ele>
<time>2016-03-02T01:07:41.203Z</time>
</trkpt>
<trkpt lat="-26.9425821" lon="152.5694781">
<ele>102.613</ele>
<time>2016-03-02T01:07:43.093Z</time>
</trkpt>
<trkpt lat="-26.9425697" lon="152.5697072">
<ele>101.032</ele>
<time>2016-03-02T01:07:44.907Z</time>
</trkpt>
<trkpt lat="-26.9425427" lon="152.5699640">
<ele>99.834</ele>
<time>2016-03-02T01:07:46.671Z</time>
</trkpt>
<trkpt lat="-26.9424407" lon="152.5704250">
<ele>99.512</ele>
<time>2016-03-02T01:07:49.703Z</time>
</trkpt>
<trkpt lat="-26.9422860" lon="152.5709099">
<ele>100.465</ele>
<time>2016-03-02T01:07:52.745Z</time>
</trkpt>
<trkpt lat="-26.9421094" lon="152.5714140">
<ele>102.423</ele>
<time>2016-03-02T01:07:55.894Z</time>
</trkpt>
<trkpt lat="-26.9419995" lon="152.5716868">
<ele>104.432</ele>
<time>2016-03-02T01:07:57.665Z</time>
</trkpt>
<trkpt lat="-26.9418031" lon="152.5721421">
<ele>105.645</ele>
<time>2016-03-02T01:08:00.620Z</time>
</trkpt>
<trkpt lat="-26.9416806" lon="152.5724707">
<ele>106.156</ele>
<time>2016-03-02T01:08:02.687Z</time>
</trkpt>
<trkpt lat="-26.9415753" lon="152.5727708">
<ele>106.568</ele>
<time>2016-03-02T01:08:04.523Z</time>
</trkpt>
<trkpt lat="-26.9413835" lon="152.5732762">
<ele>107.019</ele>
<time>2016-03-02T01:08:07.554Z</time>
</trkpt>
<trkpt lat="-26.9412558" lon="152.5736352">
<ele>107.308</ele>
<time>2016-03-02T01:08:09.540Z</time>
</trkpt>
<trkpt lat="-26.9410274" lon="152.5742208">
<ele>107.400</ele>
<time>2016-03-02T01:08:12.659Z</time>
</trkpt>
<trkpt lat="-26.9408688" lon="152.5746460">
<ele>107.381</ele>
<time>2016-03-02T01:08:14.749Z</time>
</trkpt>
<trkpt lat="-26.9406234" lon="152.5752614">
<ele>106.006</ele>
<time>2016-03-02T01:08:17.750Z</time>
</trkpt>
<trkpt lat="-26.9404610" lon="152.5756620">
<ele>102.520</ele>
<time>2016-03-02T01:08:19.659Z</time>
</trkpt>
<trkpt lat="-26.9401980" lon="152.5763126">
<ele>99.112</ele>
<time>2016-03-02T01:08:22.716Z</time>
</trkpt>
<trkpt lat="-26.9400448" lon="152.5767573">
<ele>99.566</ele>
<time>2016-03-02T01:08:24.752Z</time>
</trkpt>
<trkpt lat="-26.9398088" lon="152.5773867">
<ele>104.291</ele>
<time>2016-03-02T01:08:27.681Z</time>
</trkpt>
<trkpt lat="-26.9396454" lon="152.5778178">
<ele>109.248</ele>
<time>2016-03-02T01:08:29.707Z</time>
</trkpt>
<trkpt lat="-26.9394801" lon="152.5782486">
<ele>111.190</ele>
<time>2016-03-02T01:08:31.740Z</time>
</trkpt>
<trkpt lat="-26.9392290" lon="152.5788844">
<ele>111.000</ele>
<time>2016-03-02T01:08:34.746Z</time>
</trkpt>
<trkpt lat="-26.9390710" lon="152.5793126">
<ele>110.354</ele>
<time>2016-03-02T01:08:36.751Z</time>
</trkpt>
<trkpt lat="-26.9389048" lon="152.5797392">
<ele>110.010</ele>
<time>2016-03-02T01:08:38.754Z</time>
</trkpt>
<trkpt lat="-26.9386672" lon="152.5803919">
<ele>109.982</ele>
<time>2016-03-02T01:08:41.785Z</time>
</trkpt>
<trkpt lat="-26.9385101" lon="152.5808116">
<ele>110.167</ele>
<time>2016-03-02T01:08:43.777Z</time>
</trkpt>
<trkpt lat="-26.9382818" lon="152.5814412">
<ele>110.750</ele>
<time>2016-03-02T01:08:46.795Z</time>
</trkpt>
<trkpt lat="-26.9380947" lon="152.5820833">
<ele>112.171</ele>
<time>2016-03-02T01:08:49.832Z</time>
</trkpt>
<trkpt lat="-26.9380119" lon="152.5825177">
<ele>114.698</ele>
<time>2016-03-02T01:08:51.831Z</time>
</trkpt>
<trkpt lat="-26.9379603" lon="152.5831845">
<ele>117.788</ele>
<time>2016-03-02T01:08:54.862Z</time>
</trkpt>
<trkpt lat="-26.9379752" lon="152.5836206">
<ele>121.235</ele>
<time>2016-03-02T01:08:56.869Z</time>
</trkpt>
<trkpt lat="-26.9380679" lon="152.5842484">
<ele>125.089</ele>
<time>2016-03-02T01:08:59.759Z</time>
</trkpt>
<trkpt lat="-26.9382447" lon="152.5848749">
<ele>128.273</ele>
<time>2016-03-02T01:09:02.659Z</time>
</trkpt>
<trkpt lat="-26.9384639" lon="152.5855349">
<ele>130.263</ele>
<time>2016-03-02T01:09:05.695Z</time>
</trkpt>
<trkpt lat="-26.9386606" lon="152.5862064">
<ele>131.927</ele>
<time>2016-03-02T01:09:08.724Z</time>
</trkpt>
<trkpt lat="-26.9387721" lon="152.5866513">
<ele>133.386</ele>
<time>2016-03-02T01:09:10.695Z</time>
</trkpt>
<trkpt lat="-26.9388443" lon="152.5871164">
<ele>134.309</ele>
<time>2016-03-02T01:09:12.689Z</time>
</trkpt>
<trkpt lat="-26.9388759" lon="152.5875983">
<ele>135.092</ele>
<time>2016-03-02T01:09:14.716Z</time>
</trkpt>
<trkpt lat="-26.9388332" lon="152.5883094">
<ele>136.237</ele>
<time>2016-03-02T01:09:17.721Z</time>
</trkpt>
<trkpt lat="-26.9387302" lon="152.5887574">
<ele>137.660</ele>
<time>2016-03-02T01:09:19.728Z</time>
</trkpt>
<trkpt lat="-26.9385018" lon="152.5893807">
<ele>139.112</ele>
<time>2016-03-02T01:09:22.674Z</time>
</trkpt>
<trkpt lat="-26.9382881" lon="152.5897672">
<ele>140.382</ele>
<time>2016-03-02T01:09:24.628Z</time>
</trkpt>
<trkpt lat="-26.9380143" lon="152.5901446">
<ele>141.116</ele>
<time>2016-03-02T01:09:26.679Z</time>
</trkpt>
<trkpt lat="-26.9376988" lon="152.5904758">
<ele>141.166</ele>
<time>2016-03-02T01:09:28.697Z</time>
</trkpt>
<trkpt lat="-26.9371792" lon="152.5909009">
<ele>140.754</ele>
<time>2016-03-02T01:09:31.695Z</time>
</trkpt>
<trkpt lat="-26.9368226" lon="152.5911603">
<ele>139.819</ele>
<time>2016-03-02T01:09:33.669Z</time>
</trkpt>
<trkpt lat="-26.9362679" lon="152.5915450">
<ele>137.896</ele>
<time>2016-03-02T01:09:36.675Z</time>
</trkpt>
<trkpt lat="-26.9356900" lon="152.5919280">
<ele>134.851</ele>
<time>2016-03-02T01:09:39.778Z</time>
</trkpt>
<trkpt lat="-26.9353082" lon="152.5921816">
<ele>130.824</ele>
<time>2016-03-02T01:09:41.850Z</time>
</trkpt>
<trkpt lat="-26.9347513" lon="152.5925529">
<ele>126.568</ele>
<time>2016-03-02T01:09:44.898Z</time>
</trkpt>
<trkpt lat="-26.9342111" lon="152.5928955">
<ele>123.582</ele>
<time>2016-03-02T01:09:47.861Z</time>
</trkpt>
<trkpt lat="-26.9338678" lon="152.5931284">
<ele>122.864</ele>
<time>2016-03-02T01:09:49.819Z</time>
</trkpt>
<trkpt lat="-26.9335204" lon="152.5933605">
<ele>124.179</ele>
<time>2016-03-02T01:09:51.824Z</time>
</trkpt>
<trkpt lat="-26.9331973" lon="152.5935947">
<ele>126.595</ele>
<time>2016-03-02T01:09:53.716Z</time>
</trkpt>
<trkpt lat="-26.9327126" lon="152.5940271">
<ele>129.042</ele>
<time>2016-03-02T01:09:56.625Z</time>
</trkpt>
<trkpt lat="-26.9322284" lon="152.5945845">
<ele>131.616</ele>
<time>2016-03-02T01:09:59.641Z</time>
</trkpt>
<trkpt lat="-26.9317946" lon="152.5952522">
<ele>135.230</ele>
<time>2016-03-02T01:10:02.677Z</time>
</trkpt>
<trkpt lat="-26.9314474" lon="152.5959868">
<ele>139.333</ele>
<time>2016-03-02T01:10:05.680Z</time>
</trkpt>
<trkpt lat="-26.9311914" lon="152.5967675">
<ele>141.824</ele>
<time>2016-03-02T01:10:08.653Z</time>
</trkpt>
<trkpt lat="-26.9310216" lon="152.5975867">
<ele>141.784</ele>
<time>2016-03-02T01:10:11.609Z</time>
</trkpt>
<trkpt lat="-26.9309406" lon="152.5981534">
<ele>140.360</ele>
<time>2016-03-02T01:10:13.588Z</time>
</trkpt>
<trkpt lat="-26.9308217" lon="152.5990307">
<ele>139.013</ele>
<time>2016-03-02T01:10:16.621Z</time>
</trkpt>
<trkpt lat="-26.9307414" lon="152.5996060">
<ele>138.270</ele>
<time>2016-03-02T01:10:18.595Z</time>
</trkpt>
<trkpt lat="-26.9306672" lon="152.6001961">
<ele>137.467</ele>
<time>2016-03-02T01:10:20.623Z</time>
</trkpt>
<trkpt lat="-26.9305442" lon="152.6010531">
<ele>135.623</ele>
<time>2016-03-02T01:10:23.580Z</time>
</trkpt>
<trkpt lat="-26.9304593" lon="152.6016447">
<ele>132.332</ele>
<time>2016-03-02T01:10:25.596Z</time>
</trkpt>
<trkpt lat="-26.9303324" lon="152.6025345">
<ele>127.765</ele>
<time>2016-03-02T01:10:28.595Z</time>
</trkpt>
<trkpt lat="-26.9302162" lon="152.6034404">
<ele>122.352</ele>
<time>2016-03-02T01:10:31.606Z</time>
</trkpt>
<trkpt lat="-26.9301378" lon="152.6040489">
<ele>117.409</ele>
<time>2016-03-02T01:10:33.642Z</time>
</trkpt>
<trkpt lat="-26.9300612" lon="152.6046288">
<ele>114.892</ele>
<time>2016-03-02T01:10:35.646Z</time>
</trkpt>
<trkpt lat="-26.9300068" lon="152.6051809">
<ele>115.225</ele>
<time>2016-03-02T01:10:37.574Z</time>
</trkpt>
<trkpt lat="-26.9299931" lon="152.6060547">
<ele>116.259</ele>
<time>2016-03-02T01:10:40.600Z</time>
</trkpt>
<trkpt lat="-26.9300181" lon="152.6066384">
<ele>116.175</ele>
<time>2016-03-02T01:10:42.614Z</time>
</trkpt>
<trkpt lat="-26.9300848" lon="152.6072185">
<ele>115.216</ele>
<time>2016-03-02T01:10:44.638Z</time>
</trkpt>
<trkpt lat="-26.9302263" lon="152.6080682">
<ele>114.160</ele>
<time>2016-03-02T01:10:47.642Z</time>
</trkpt>
<trkpt lat="-26.9303213" lon="152.6086253">
<ele>113.247</ele>
<time>2016-03-02T01:10:49.622Z</time>
</trkpt>
<trkpt lat="-26.9304190" lon="152.6091854">
<ele>112.385</ele>
<time>2016-03-02T01:10:51.623Z</time>
</trkpt>
<trkpt lat="-26.9305573" lon="152.6100165">
<ele>111.529</ele>
<time>2016-03-02T01:10:54.594Z</time>
</trkpt>
<trkpt lat="-26.9307051" lon="152.6108549">
<ele>110.947</ele>
<time>2016-03-02T01:10:57.606Z</time>
</trkpt>
<trkpt lat="-26.9308433" lon="152.6116724">
<ele>110.801</ele>
<time>2016-03-02T01:11:00.539Z</time>
</trkpt>
<trkpt lat="-26.9309390" lon="152.6122246">
<ele>110.619</ele>
<time>2016-03-02T01:11:02.510Z</time>
</trkpt>
<trkpt lat="-26.9310246" lon="152.6127920">
<ele>110.035</ele>
<time>2016-03-02T01:11:04.531Z</time>
</trkpt>
<trkpt lat="-26.9311783" lon="152.6136292">
<ele>109.584</ele>
<time>2016-03-02T01:11:07.566Z</time>
</trkpt>
<trkpt lat="-26.9312724" lon="152.6141765">
<ele>110.050</ele>
<time>2016-03-02T01:11:09.586Z</time>
</trkpt>
<trkpt lat="-26.9313574" lon="152.6147187">
<ele>111.225</ele>
<time>2016-03-02T01:11:11.590Z</time>
</trkpt>
<trkpt lat="-26.9314127" lon="152.6152671">
<ele>112.072</ele>
<time>2016-03-02T01:11:13.595Z</time>
</trkpt>
<trkpt lat="-26.9313800" lon="152.6160959">
<ele>112.056</ele>
<time>2016-03-02T01:11:16.595Z</time>
</trkpt>
<trkpt lat="-26.9312964" lon="152.6166445">
<ele>112.387</ele>
<time>2016-03-02T01:11:18.575Z</time>
</trkpt>
<trkpt lat="-26.9311575" lon="152.6171921">
<ele>114.544</ele>
<time>2016-03-02T01:11:20.588Z</time>
</trkpt>
<trkpt lat="-26.9309355" lon="152.6177066">
<ele>118.181</ele>
<time>2016-03-02T01:11:22.628Z</time>
</trkpt>
<trkpt lat="-26.9305814" lon="152.6184016">
<ele>122.107</ele>
<time>2016-03-02T01:11:25.539Z</time>
</trkpt>
<trkpt lat="-26.9302833" lon="152.6191172">
<ele>125.829</ele>
<time>2016-03-02T01:11:28.457Z</time>
</trkpt>
<trkpt lat="-26.9300935" lon="152.6196153">
<ele>129.205</ele>
<time>2016-03-02T01:11:30.430Z</time>
</trkpt>
<trkpt lat="-26.9298864" lon="152.6204376">
<ele>131.960</ele>
<time>2016-03-02T01:11:33.528Z</time>
</trkpt>
<trkpt lat="-26.9298247" lon="152.6209725">
<ele>133.687</ele>
<time>2016-03-02T01:11:35.512Z</time>
</trkpt>
<trkpt lat="-26.9298093" lon="152.6215074">
<ele>133.884</ele>
<time>2016-03-02T01:11:37.494Z</time>
</trkpt>
<trkpt lat="-26.9298247" lon="152.6220558">
<ele>132.741</ele>
<time>2016-03-02T01:11:39.494Z</time>
</trkpt>
<trkpt lat="-26.9299965" lon="152.6229175">
<ele>132.000</ele>
<time>2016-03-02T01:11:42.645Z</time>
</trkpt>
<trkpt lat="-26.9302571" lon="152.6237158">
<ele>133.643</ele>
<time>2016-03-02T01:11:45.604Z</time>
</trkpt>
<trkpt lat="-26.9304940" lon="152.6242402">
<ele>137.639</ele>
<time>2016-03-02T01:11:47.624Z</time>
</trkpt>
<trkpt lat="-26.9307487" lon="152.6247351">
<ele>142.803</ele>
<time>2016-03-02T01:11:49.646Z</time>
</trkpt>
<trkpt lat="-26.9311183" lon="152.6254346">
<ele>147.683</ele>
<time>2016-03-02T01:11:52.576Z</time>
</trkpt>
<trkpt lat="-26.9314177" lon="152.6261843">
<ele>150.653</ele>
<time>2016-03-02T01:11:55.560Z</time>
</trkpt>
<trkpt lat="-26.9316944" lon="152.6269470">
<ele>150.823</ele>
<time>2016-03-02T01:11:58.558Z</time>
</trkpt>
<trkpt lat="-26.9318684" lon="152.6274187">
<ele>148.876</ele>
<time>2016-03-02T01:12:00.439Z</time>
</trkpt>
<trkpt lat="-26.9321189" lon="152.6278888">
<ele>146.010</ele>
<time>2016-03-02T01:12:02.455Z</time>
</trkpt>
<trkpt lat="-26.9325681" lon="152.6285509">
<ele>143.118</ele>
<time>2016-03-02T01:12:05.460Z</time>
</trkpt>
<trkpt lat="-26.9329018" lon="152.6289824">
<ele>140.489</ele>
<time>2016-03-02T01:12:07.466Z</time>
</trkpt>
<trkpt lat="-26.9332353" lon="152.6294178">
<ele>138.277</ele>
<time>2016-03-02T01:12:09.486Z</time>
</trkpt>
<trkpt lat="-26.9335648" lon="152.6298399">
<ele>136.778</ele>
<time>2016-03-02T01:12:11.502Z</time>
</trkpt>
<trkpt lat="-26.9339251" lon="152.6302029">
<ele>135.951</ele>
<time>2016-03-02T01:12:13.502Z</time>
</trkpt>
<trkpt lat="-26.9345261" lon="152.6306073">
<ele>135.265</ele>
<time>2016-03-02T01:12:16.417Z</time>
</trkpt>
<trkpt lat="-26.9349931" lon="152.6307846">
<ele>134.426</ele>
<time>2016-03-02T01:12:18.442Z</time>
</trkpt>
<trkpt lat="-26.9357391" lon="152.6308667">
<ele>133.514</ele>
<time>2016-03-02T01:12:21.514Z</time>
</trkpt>
<trkpt lat="-26.9362171" lon="152.6309208">
<ele>133.006</ele>
<time>2016-03-02T01:12:23.523Z</time>
</trkpt>
<trkpt lat="-26.9369174" lon="152.6310893">
<ele>133.482</ele>
<time>2016-03-02T01:12:26.533Z</time>
</trkpt>
<trkpt lat="-26.9373648" lon="152.6312919">
<ele>135.208</ele>
<time>2016-03-02T01:12:28.543Z</time>
</trkpt>
<trkpt lat="-26.9377887" lon="152.6315680">
<ele>137.863</ele>
<time>2016-03-02T01:12:30.550Z</time>
</trkpt>
<trkpt lat="-26.9381881" lon="152.6319073">
<ele>140.327</ele>
<time>2016-03-02T01:12:32.550Z</time>
</trkpt>
<trkpt lat="-26.9386919" lon="152.6325328">
<ele>141.139</ele>
<time>2016-03-02T01:12:35.520Z</time>
</trkpt>
<trkpt lat="-26.9390553" lon="152.6332811">
<ele>139.531</ele>
<time>2016-03-02T01:12:38.504Z</time>
</trkpt>
<trkpt lat="-26.9392202" lon="152.6338304">
<ele>135.331</ele>
<time>2016-03-02T01:12:40.529Z</time>
</trkpt>
<trkpt lat="-26.9393287" lon="152.6346801">
<ele>129.606</ele>
<time>2016-03-02T01:12:43.537Z</time>
</trkpt>
<trkpt lat="-26.9393541" lon="152.6352399">
<ele>124.583</ele>
<time>2016-03-02T01:12:45.509Z</time>
</trkpt>
<trkpt lat="-26.9393758" lon="152.6360864">
<ele>121.104</ele>
<time>2016-03-02T01:12:48.486Z</time>
</trkpt>
<trkpt lat="-26.9393828" lon="152.6366649">
<ele>118.557</ele>
<time>2016-03-02T01:12:50.509Z</time>
</trkpt>
<trkpt lat="-26.9393922" lon="152.6375405">
<ele>117.085</ele>
<time>2016-03-02T01:12:53.585Z</time>
</trkpt>
<trkpt lat="-26.9393950" lon="152.6380844">
<ele>117.061</ele>
<time>2016-03-02T01:12:55.536Z</time>
</trkpt>
<trkpt lat="-26.9394078" lon="152.6389075">
<ele>118.461</ele>
<time>2016-03-02T01:12:58.504Z</time>
</trkpt>
<trkpt lat="-26.9394248" lon="152.6394628">
<ele>121.022</ele>
<time>2016-03-02T01:13:00.495Z</time>
</trkpt>
<trkpt lat="-26.9394479" lon="152.6400317">
<ele>123.817</ele>
<time>2016-03-02T01:13:02.523Z</time>
</trkpt>
<trkpt lat="-26.9394582" lon="152.6405978">
<ele>125.720</ele>
<time>2016-03-02T01:13:04.540Z</time>
</trkpt>
<trkpt lat="-26.9394686" lon="152.6411572">
<ele>126.205</ele>
<time>2016-03-02T01:13:06.522Z</time>
</trkpt>
<trkpt lat="-26.9394616" lon="152.6420018">
<ele>124.914</ele>
<time>2016-03-02T01:13:09.481Z</time>
</trkpt>
<trkpt lat="-26.9394721" lon="152.6425745">
<ele>121.836</ele>
<time>2016-03-02T01:13:11.443Z</time>
</trkpt>
<trkpt lat="-26.9394862" lon="152.6431785">
<ele>117.799</ele>
<time>2016-03-02T01:13:13.473Z</time>
</trkpt>
<trkpt lat="-26.9395008" lon="152.6437737">
<ele>113.701</ele>
<time>2016-03-02T01:13:15.463Z</time>
</trkpt>
<trkpt lat="-26.9395191" lon="152.6446515">
<ele>110.057</ele>
<time>2016-03-02T01:13:18.419Z</time>
</trkpt>
<trkpt lat="-26.9395415" lon="152.6455353">
<ele>107.229</ele>
<time>2016-03-02T01:13:21.427Z</time>
</trkpt>
<trkpt lat="-26.9395491" lon="152.6461160">
<ele>105.415</ele>
<time>2016-03-02T01:13:23.429Z</time>
</trkpt>
<trkpt lat="-26.9395623" lon="152.6466859">
<ele>104.821</ele>
<time>2016-03-02T01:13:25.412Z</time>
</trkpt>
<trkpt lat="-26.9395800" lon="152.6472630">
<ele>105.707</ele>
<time>2016-03-02T01:13:27.424Z</time>
</trkpt>
<trkpt lat="-26.9395854" lon="152.6481256">
<ele>108.210</ele>
<time>2016-03-02T01:13:30.427Z</time>
</trkpt>
<trkpt lat="-26.9395356" lon="152.6486977">
<ele>112.224</ele>
<time>2016-03-02T01:13:32.416Z</time>
</trkpt>
<trkpt lat="-26.9394254" lon="152.6492699">
<ele>116.996</ele>
<time>2016-03-02T01:13:34.418Z</time>
</trkpt>
<trkpt lat="-26.9391660" lon="152.6501065">
<ele>121.467</ele>
<time>2016-03-02T01:13:37.460Z</time>
</trkpt>
<trkpt lat="-26.9388956" lon="152.6508809">
<ele>125.013</ele>
<time>2016-03-02T01:13:40.378Z</time>
</trkpt>
<trkpt lat="-26.9386274" lon="152.6516517">
<ele>127.567</ele>
<time>2016-03-02T01:13:43.335Z</time>
</trkpt>
<trkpt lat="-26.9384528" lon="152.6521707">
<ele>129.435</ele>
<time>2016-03-02T01:13:45.334Z</time>
</trkpt>
<trkpt lat="-26.9382039" lon="152.6529585">
<ele>130.889</ele>
<time>2016-03-02T01:13:48.337Z</time>
</trkpt>
<trkpt lat="-26.9379150" lon="152.6537659">
<ele>131.617</ele>
<time>2016-03-02T01:13:51.422Z</time>
</trkpt>
<trkpt lat="-26.9376607" lon="152.6545514">
<ele>131.462</ele>
<time>2016-03-02T01:13:54.353Z</time>
</trkpt>
<trkpt lat="-26.9374889" lon="152.6550958">
<ele>130.501</ele>
<time>2016-03-02T01:13:56.379Z</time>
</trkpt>
<trkpt lat="-26.9372181" lon="152.6558708">
<ele>128.918</ele>
<time>2016-03-02T01:13:59.302Z</time>
</trkpt>
<trkpt lat="-26.9369527" lon="152.6566887">
<ele>126.612</ele>
<time>2016-03-02T01:14:02.353Z</time>
</trkpt>
<trkpt lat="-26.9366782" lon="152.6575018">
<ele>123.597</ele>
<time>2016-03-02T01:14:05.404Z</time>
</trkpt>
<trkpt lat="-26.9365127" lon="152.6580461">
<ele>120.908</ele>
<time>2016-03-02T01:14:07.424Z</time>
</trkpt>
<trkpt lat="-26.9363607" lon="152.6585842">
<ele>119.975</ele>
<time>2016-03-02T01:14:09.408Z</time>
</trkpt>
<trkpt lat="-26.9361550" lon="152.6593912">
<ele>120.793</ele>
<time>2016-03-02T01:14:12.370Z</time>
</trkpt>
<trkpt lat="-26.9359287" lon="152.6601988">
<ele>122.128</ele>
<time>2016-03-02T01:14:15.369Z</time>
</trkpt>
<trkpt lat="-26.9357935" lon="152.6607505">
<ele>122.726</ele>
<time>2016-03-02T01:14:17.397Z</time>
</trkpt>
<trkpt lat="-26.9355620" lon="152.6615573">
<ele>122.289</ele>
<time>2016-03-02T01:14:20.417Z</time>
</trkpt>
<trkpt lat="-26.9353569" lon="152.6623380">
<ele>120.928</ele>
<time>2016-03-02T01:14:23.351Z</time>
</trkpt>
<trkpt lat="-26.9352846" lon="152.6626040">
<ele>118.730</ele>
<time>2016-03-02T01:14:24.357Z</time>
</trkpt>
<trkpt lat="-26.9350268" lon="152.6636928">
<ele>116.331</ele>
<time>2016-03-02T01:14:28.361Z</time>
</trkpt>
<trkpt lat="-26.9348696" lon="152.6642346">
<ele>113.766</ele>
<time>2016-03-02T01:14:30.357Z</time>
</trkpt>
<trkpt lat="-26.9346609" lon="152.6650519">
<ele>110.215</ele>
<time>2016-03-02T01:14:33.339Z</time>
</trkpt>
<trkpt lat="-26.9345184" lon="152.6655933">
<ele>105.599</ele>
<time>2016-03-02T01:14:35.324Z</time>
</trkpt>
<trkpt lat="-26.9343299" lon="152.6664285">
<ele>101.086</ele>
<time>2016-03-02T01:14:38.369Z</time>
</trkpt>
<trkpt lat="-26.9341824" lon="152.6672489">
<ele>97.859</ele>
<time>2016-03-02T01:14:41.340Z</time>
</trkpt>
<trkpt lat="-26.9341171" lon="152.6681046">
<ele>96.405</ele>
<time>2016-03-02T01:14:44.373Z</time>
</trkpt>
<trkpt lat="-26.9340993" lon="152.6686738">
<ele>96.278</ele>
<time>2016-03-02T01:14:46.370Z</time>
</trkpt>
<trkpt lat="-26.9340803" lon="152.6692325">
<ele>96.824</ele>
<time>2016-03-02T01:14:48.337Z</time>
</trkpt>
<trkpt lat="-26.9340544" lon="152.6700709">
<ele>97.412</ele>
<time>2016-03-02T01:14:51.301Z</time>
</trkpt>
<trkpt lat="-26.9340403" lon="152.6709114">
<ele>97.421</ele>
<time>2016-03-02T01:14:54.283Z</time>
</trkpt>
<trkpt lat="-26.9340187" lon="152.6717534">
<ele>96.453</ele>
<time>2016-03-02T01:14:57.261Z</time>
</trkpt>
<trkpt lat="-26.9340029" lon="152.6723206">
<ele>95.086</ele>
<time>2016-03-02T01:14:59.227Z</time>
</trkpt>
<trkpt lat="-26.9339886" lon="152.6729163">
<ele>94.508</ele>
<time>2016-03-02T01:15:01.261Z</time>
</trkpt>
<trkpt lat="-26.9339683" lon="152.6737923">
<ele>95.073</ele>
<time>2016-03-02T01:15:04.249Z</time>
</trkpt>
<trkpt lat="-26.9339509" lon="152.6743586">
<ele>95.769</ele>
<time>2016-03-02T01:15:06.195Z</time>
</trkpt>
<trkpt lat="-26.9339371" lon="152.6749408">
<ele>95.672</ele>
<time>2016-03-02T01:15:08.200Z</time>
</trkpt>
<trkpt lat="-26.9338977" lon="152.6758126">
<ele>95.092</ele>
<time>2016-03-02T01:15:11.208Z</time>
</trkpt>
<trkpt lat="-26.9338657" lon="152.6766772">
<ele>95.060</ele>
<time>2016-03-02T01:15:14.194Z</time>
</trkpt>
<trkpt lat="-26.9338044" lon="152.6775340">
<ele>96.249</ele>
<time>2016-03-02T01:15:17.166Z</time>
</trkpt>
<trkpt lat="-26.9337394" lon="152.6781089">
<ele>98.983</ele>
<time>2016-03-02T01:15:19.175Z</time>
</trkpt>
<trkpt lat="-26.9335930" lon="152.6789434">
<ele>102.939</ele>
<time>2016-03-02T01:15:22.128Z</time>
</trkpt>
<trkpt lat="-26.9334728" lon="152.6795009">
<ele>106.646</ele>
<time>2016-03-02T01:15:24.124Z</time>
</trkpt>
<trkpt lat="-26.9332895" lon="152.6803367">
<ele>109.405</ele>
<time>2016-03-02T01:15:27.160Z</time>
</trkpt>
<trkpt lat="-26.9331638" lon="152.6808538">
<ele>111.747</ele>
<time>2016-03-02T01:15:29.116Z</time>
</trkpt>
<trkpt lat="-26.9330399" lon="152.6813738">
<ele>113.203</ele>
<time>2016-03-02T01:15:31.117Z</time>
</trkpt>
<trkpt lat="-26.9328848" lon="152.6821546">
<ele>112.909</ele>
<time>2016-03-02T01:15:34.154Z</time>
</trkpt>
<trkpt lat="-26.9328189" lon="152.6826478">
<ele>111.302</ele>
<time>2016-03-02T01:15:36.179Z</time>
</trkpt>
<trkpt lat="-26.9327900" lon="152.6833383">
<ele>109.259</ele>
<time>2016-03-02T01:15:39.119Z</time>
</trkpt>
<trkpt lat="-26.9328111" lon="152.6838024">
<ele>106.789</ele>
<time>2016-03-02T01:15:41.115Z</time>
</trkpt>
<trkpt lat="-26.9328579" lon="152.6842826">
<ele>104.021</ele>
<time>2016-03-02T01:15:43.145Z</time>
</trkpt>
<trkpt lat="-26.9329785" lon="152.6849959">
<ele>102.041</ele>
<time>2016-03-02T01:15:46.186Z</time>
</trkpt>
<trkpt lat="-26.9331269" lon="152.6856775">
<ele>100.448</ele>
<time>2016-03-02T01:15:49.144Z</time>
</trkpt>
<trkpt lat="-26.9332743" lon="152.6863724">
<ele>98.026</ele>
<time>2016-03-02T01:15:52.121Z</time>
</trkpt>
<trkpt lat="-26.9333712" lon="152.6868516">
<ele>94.965</ele>
<time>2016-03-02T01:15:54.109Z</time>
</trkpt>
<trkpt lat="-26.9334719" lon="152.6873332">
<ele>92.190</ele>
<time>2016-03-02T01:15:56.064Z</time>
</trkpt>
<trkpt lat="-26.9336223" lon="152.6880910">
<ele>90.440</ele>
<time>2016-03-02T01:15:59.055Z</time>
</trkpt>
<trkpt lat="-26.9337333" lon="152.6886251">
<ele>90.487</ele>
<time>2016-03-02T01:16:01.096Z</time>
</trkpt>
<trkpt lat="-26.9338828" lon="152.6893967">
<ele>92.470</ele>
<time>2016-03-02T01:16:04.009Z</time>
</trkpt>
<trkpt lat="-26.9339840" lon="152.6899337">
<ele>95.392</ele>
<time>2016-03-02T01:16:06.034Z</time>
</trkpt>
<trkpt lat="-26.9341016" lon="152.6907230">
<ele>97.991</ele>
<time>2016-03-02T01:16:09.027Z</time>
</trkpt>
<trkpt lat="-26.9341163" lon="152.6914881">
<ele>99.862</ele>
<time>2016-03-02T01:16:11.985Z</time>
</trkpt>
<trkpt lat="-26.9340462" lon="152.6922356">
<ele>100.792</ele>
<time>2016-03-02T01:16:14.939Z</time>
</trkpt>
<trkpt lat="-26.9338896" lon="152.6930003">
<ele>100.791</ele>
<time>2016-03-02T01:16:17.980Z</time>
</trkpt>
<trkpt lat="-26.9337060" lon="152.6937693">
<ele>100.817</ele>
<time>2016-03-02T01:16:21.012Z</time>
</trkpt>
<trkpt lat="-26.9335826" lon="152.6942789">
<ele>101.544</ele>
<time>2016-03-02T01:16:23.047Z</time>
</trkpt>
<trkpt lat="-26.9334278" lon="152.6949976">
<ele>102.119</ele>
<time>2016-03-02T01:16:25.980Z</time>
</trkpt>
<trkpt lat="-26.9332559" lon="152.6956652">
<ele>101.704</ele>
<time>2016-03-02T01:16:28.855Z</time>
</trkpt>
<trkpt lat="-26.9331556" lon="152.6960907">
<ele>100.977</ele>
<time>2016-03-02T01:16:30.720Z</time>
</trkpt>
<trkpt lat="-26.9329874" lon="152.6967718">
<ele>100.903</ele>
<time>2016-03-02T01:16:33.698Z</time>
</trkpt>
<trkpt lat="-26.9328721" lon="152.6972511">
<ele>101.712</ele>
<time>2016-03-02T01:16:35.739Z</time>
</trkpt>
<trkpt lat="-26.9327096" lon="152.6979832">
<ele>103.296</ele>
<time>2016-03-02T01:16:38.791Z</time>
</trkpt>
<trkpt lat="-26.9324254" lon="152.6986451">
<ele>105.383</ele>
<time>2016-03-02T01:16:41.736Z</time>
</trkpt>
<trkpt lat="-26.9320987" lon="152.6992908">
<ele>107.339</ele>
<time>2016-03-02T01:16:44.715Z</time>
</trkpt>
<trkpt lat="-26.9316891" lon="152.6998695">
<ele>108.694</ele>
<time>2016-03-02T01:16:47.703Z</time>
</trkpt>
<trkpt lat="-26.9314027" lon="152.7002102">
<ele>109.792</ele>
<time>2016-03-02T01:16:49.600Z</time>
</trkpt>
<trkpt lat="-26.9309069" lon="152.7007279">
<ele>111.095</ele>
<time>2016-03-02T01:16:52.657Z</time>
</trkpt>
<trkpt lat="-26.9304147" lon="152.7012404">
<ele>112.779</ele>
<time>2016-03-02T01:16:55.710Z</time>
</trkpt>
<trkpt lat="-26.9301104" lon="152.7015810">
<ele>114.770</ele>
<time>2016-03-02T01:16:57.697Z</time>
</trkpt>
<trkpt lat="-26.9297066" lon="152.7021730">
<ele>116.807</ele>
<time>2016-03-02T01:17:00.780Z</time>
</trkpt>
<trkpt lat="-26.9294722" lon="152.7025632">
<ele>119.839</ele>
<time>2016-03-02T01:17:02.742Z</time>
</trkpt>
<trkpt lat="-26.9292825" lon="152.7029921">
<ele>124.284</ele>
<time>2016-03-02T01:17:04.762Z</time>
</trkpt>
<trkpt lat="-26.9290456" lon="152.7036591">
<ele>128.010</ele>
<time>2016-03-02T01:17:07.821Z</time>
</trkpt>
<trkpt lat="-26.9289304" lon="152.7040931">
<ele>129.370</ele>
<time>2016-03-02T01:17:09.787Z</time>
</trkpt>
<trkpt lat="-26.9288186" lon="152.7045085">
<ele>128.955</ele>
<time>2016-03-02T01:17:11.729Z</time>
</trkpt>
<trkpt lat="-26.9286565" lon="152.7051405">
<ele>127.779</ele>
<time>2016-03-02T01:17:14.739Z</time>
</trkpt>
<trkpt lat="-26.9285505" lon="152.7055513">
<ele>126.703</ele>
<time>2016-03-02T01:17:16.727Z</time>
</trkpt>
<trkpt lat="-26.9283936" lon="152.7061569">
<ele>125.943</ele>
<time>2016-03-02T01:17:19.682Z</time>
</trkpt>
<trkpt lat="-26.9282811" lon="152.7065818">
<ele>125.015</ele>
<time>2016-03-02T01:17:21.705Z</time>
</trkpt>
<trkpt lat="-26.9281566" lon="152.7070379">
<ele>123.814</ele>
<time>2016-03-02T01:17:23.763Z</time>
</trkpt>
<trkpt lat="-26.9279746" lon="152.7077645">
<ele>122.900</ele>
<time>2016-03-02T01:17:26.878Z</time>
</trkpt>
<trkpt lat="-26.9278508" lon="152.7082542">
<ele>122.357</ele>
<time>2016-03-02T01:17:28.931Z</time>
</trkpt>
<trkpt lat="-26.9276660" lon="152.7089679">
<ele>121.615</ele>
<time>2016-03-02T01:17:31.914Z</time>
</trkpt>
<trkpt lat="-26.9275372" lon="152.7094661">
<ele>120.066</ele>
<time>2016-03-02T01:17:33.956Z</time>
</trkpt>
<trkpt lat="-26.9273421" lon="152.7102015">
<ele>117.628</ele>
<time>2016-03-02T01:17:36.932Z</time>
</trkpt>
<trkpt lat="-26.9272131" lon="152.7107001">
<ele>114.891</ele>
<time>2016-03-02T01:17:38.929Z</time>
</trkpt>
<trkpt lat="-26.9270307" lon="152.7114475">
<ele>112.387</ele>
<time>2016-03-02T01:17:41.900Z</time>
</trkpt>
<trkpt lat="-26.9269334" lon="152.7119637">
<ele>110.410</ele>
<time>2016-03-02T01:17:43.894Z</time>
</trkpt>
<trkpt lat="-26.9267658" lon="152.7127535">
<ele>109.539</ele>
<time>2016-03-02T01:17:46.930Z</time>
</trkpt>
<trkpt lat="-26.9266135" lon="152.7135392">
<ele>109.850</ele>
<time>2016-03-02T01:17:49.948Z</time>
</trkpt>
<trkpt lat="-26.9265018" lon="152.7140371">
<ele>110.444</ele>
<time>2016-03-02T01:17:51.897Z</time>
</trkpt>
<trkpt lat="-26.9263402" lon="152.7148178">
<ele>110.605</ele>
<time>2016-03-02T01:17:54.942Z</time>
</trkpt>
<trkpt lat="-26.9262290" lon="152.7153330">
<ele>110.736</ele>
<time>2016-03-02T01:17:56.927Z</time>
</trkpt>
<trkpt lat="-26.9261163" lon="152.7158621">
<ele>111.352</ele>
<time>2016-03-02T01:17:58.943Z</time>
</trkpt>
<trkpt lat="-26.9259852" lon="152.7163775">
<ele>112.129</ele>
<time>2016-03-02T01:18:00.948Z</time>
</trkpt>
<trkpt lat="-26.9257391" lon="152.7171011">
<ele>112.572</ele>
<time>2016-03-02T01:18:03.909Z</time>
</trkpt>
<trkpt lat="-26.9255709" lon="152.7175614">
<ele>112.554</ele>
<time>2016-03-02T01:18:05.890Z</time>
</trkpt>
<trkpt lat="-26.9253306" lon="152.7182320">
<ele>112.173</ele>
<time>2016-03-02T01:18:08.873Z</time>
</trkpt>
<trkpt lat="-26.9251669" lon="152.7186553">
<ele>111.893</ele>
<time>2016-03-02T01:18:10.859Z</time>
</trkpt>
<trkpt lat="-26.9249172" lon="152.7192849">
<ele>112.388</ele>
<time>2016-03-02T01:18:13.880Z</time>
</trkpt>
<trkpt lat="-26.9247550" lon="152.7196967">
<ele>114.104</ele>
<time>2016-03-02T01:18:15.887Z</time>
</trkpt>
<trkpt lat="-26.9245230" lon="152.7203168">
<ele>116.784</ele>
<time>2016-03-02T01:18:18.890Z</time>
</trkpt>
<trkpt lat="-26.9243630" lon="152.7207160">
<ele>120.031</ele>
<time>2016-03-02T01:18:20.847Z</time>
</trkpt>
<trkpt lat="-26.9241331" lon="152.7213115">
<ele>123.384</ele>
<time>2016-03-02T01:18:23.802Z</time>
</trkpt>
<trkpt lat="-26.9239214" lon="152.7218717">
<ele>125.840</ele>
<time>2016-03-02T01:18:26.706Z</time>
</trkpt>
<trkpt lat="-26.9237465" lon="152.7224248">
<ele>126.700</ele>
<time>2016-03-02T01:18:29.633Z</time>
</trkpt>
<trkpt lat="-26.9236318" lon="152.7228374">
<ele>126.431</ele>
<time>2016-03-02T01:18:31.699Z</time>
</trkpt>
<trkpt lat="-26.9234684" lon="152.7235395">
<ele>125.952</ele>
<time>2016-03-02T01:18:34.900Z</time>
</trkpt>
<trkpt lat="-26.9233497" lon="152.7242530">
<ele>126.439</ele>
<time>2016-03-02T01:18:37.954Z</time>
</trkpt>
<trkpt lat="-26.9232883" lon="152.7247195">
<ele>128.331</ele>
<time>2016-03-02T01:18:39.947Z</time>
</trkpt>
<trkpt lat="-26.9232200" lon="152.7254074">
<ele>130.541</ele>
<time>2016-03-02T01:18:42.922Z</time>
</trkpt>
<trkpt lat="-26.9231876" lon="152.7258597">
<ele>131.684</ele>
<time>2016-03-02T01:18:44.889Z</time>
</trkpt>
<trkpt lat="-26.9231578" lon="152.7265608">
<ele>131.640</ele>
<time>2016-03-02T01:18:47.899Z</time>
</trkpt>
<trkpt lat="-26.9231311" lon="152.7272813">
<ele>131.370</ele>
<time>2016-03-02T01:18:50.930Z</time>
</trkpt>
<trkpt lat="-26.9231057" lon="152.7280278">
<ele>131.806</ele>
<time>2016-03-02T01:18:53.987Z</time>
</trkpt>
<trkpt lat="-26.9230733" lon="152.7285201">
<ele>133.027</ele>
<time>2016-03-02T01:18:55.957Z</time>
</trkpt>
<trkpt lat="-26.9230156" lon="152.7292696">
<ele>134.503</ele>
<time>2016-03-02T01:18:58.926Z</time>
</trkpt>
<trkpt lat="-26.9229791" lon="152.7297746">
<ele>135.552</ele>
<time>2016-03-02T01:19:00.909Z</time>
</trkpt>
<trkpt lat="-26.9229781" lon="152.7302814">
<ele>135.889</ele>
<time>2016-03-02T01:19:02.899Z</time>
</trkpt>
<trkpt lat="-26.9229941" lon="152.7310169">
<ele>135.800</ele>
<time>2016-03-02T01:19:05.771Z</time>
</trkpt>
<trkpt lat="-26.9230647" lon="152.7318076">
<ele>135.640</ele>
<time>2016-03-02T01:19:08.770Z</time>
</trkpt>
<trkpt lat="-26.9231668" lon="152.7326404">
<ele>135.726</ele>
<time>2016-03-02T01:19:11.812Z</time>
</trkpt>
<trkpt lat="-26.9232468" lon="152.7332035">
<ele>136.271</ele>
<time>2016-03-02T01:19:13.825Z</time>
</trkpt>
<trkpt lat="-26.9233175" lon="152.7337785">
<ele>136.938</ele>
<time>2016-03-02T01:19:15.868Z</time>
</trkpt>
<trkpt lat="-26.9233753" lon="152.7346162">
<ele>137.230</ele>
<time>2016-03-02T01:19:18.836Z</time>
</trkpt>
<trkpt lat="-26.9233845" lon="152.7351740">
<ele>136.769</ele>
<time>2016-03-02T01:19:20.819Z</time>
</trkpt>
<trkpt lat="-26.9233830" lon="152.7357085">
<ele>135.556</ele>
<time>2016-03-02T01:19:22.749Z</time>
</trkpt>
<trkpt lat="-26.9233923" lon="152.7365106">
<ele>133.992</ele>
<time>2016-03-02T01:19:25.676Z</time>
</trkpt>
<trkpt lat="-26.9234483" lon="152.7373412">
<ele>132.197</ele>
<time>2016-03-02T01:19:28.713Z</time>
</trkpt>
<trkpt lat="-26.9235041" lon="152.7378873">
<ele>130.321</ele>
<time>2016-03-02T01:19:30.717Z</time>
</trkpt>
<trkpt lat="-26.9236250" lon="152.7386895">
<ele>129.301</ele>
<time>2016-03-02T01:19:33.710Z</time>
</trkpt>
<trkpt lat="-26.9237957" lon="152.7394766">
<ele>129.514</ele>
<time>2016-03-02T01:19:36.745Z</time>
</trkpt>
<trkpt lat="-26.9239976" lon="152.7402160">
<ele>129.773</ele>
<time>2016-03-02T01:19:39.646Z</time>
</trkpt>
<trkpt lat="-26.9241507" lon="152.7407153">
<ele>128.810</ele>
<time>2016-03-02T01:19:41.581Z</time>
</trkpt>
<trkpt lat="-26.9243363" lon="152.7412477">
<ele>127.036</ele>
<time>2016-03-02T01:19:43.558Z</time>
</trkpt>
<trkpt lat="-26.9247093" lon="152.7421795">
<ele>125.999</ele>
<time>2016-03-02T01:19:46.715Z</time>
</trkpt>
<trkpt lat="-26.9251021" lon="152.7432384">
<ele>126.308</ele>
<time>2016-03-02T01:19:49.867Z</time>
</trkpt>
<trkpt lat="-26.9253881" lon="152.7440030">
<ele>125.585</ele>
<time>2016-03-02T01:19:51.999Z</time>
</trkpt>
<trkpt lat="-26.9258330" lon="152.7452123">
<ele>122.051</ele>
<time>2016-03-02T01:19:55.215Z</time>
</trkpt>
<trkpt lat="-26.9262646" lon="152.7464326">
<ele>118.174</ele>
<time>2016-03-02T01:19:58.320Z</time>
</trkpt>
<trkpt lat="-26.9265469" lon="152.7471934">
<ele>116.794</ele>
<time>2016-03-02T01:20:00.308Z</time>
</trkpt>
<trkpt lat="-26.9268140" lon="152.7479129">
<ele>117.687</ele>
<time>2016-03-02T01:20:02.293Z</time>
</trkpt>
<trkpt lat="-26.9271955" lon="152.7489353">
<ele>119.442</ele>
<time>2016-03-02T01:20:05.239Z</time>
</trkpt>
<trkpt lat="-26.9274378" lon="152.7495860">
<ele>120.858</ele>
<time>2016-03-02T01:20:07.193Z</time>
</trkpt>
<trkpt lat="-26.9276884" lon="152.7502351">
<ele>121.607</ele>
<time>2016-03-02T01:20:09.203Z</time>
</trkpt>
<trkpt lat="-26.9279204" lon="152.7508479">
<ele>121.905</ele>
<time>2016-03-02T01:20:11.170Z</time>
</trkpt>
<trkpt lat="-26.9281395" lon="152.7514234">
<ele>122.298</ele>
<time>2016-03-02T01:20:13.105Z</time>
</trkpt>
<trkpt lat="-26.9284957" lon="152.7522870">
<ele>123.109</ele>
<time>2016-03-02T01:20:16.139Z</time>
</trkpt>
<trkpt lat="-26.9288524" lon="152.7531084">
<ele>123.269</ele>
<time>2016-03-02T01:20:19.130Z</time>
</trkpt>
<trkpt lat="-26.9292103" lon="152.7539011">
<ele>121.688</ele>
<time>2016-03-02T01:20:22.098Z</time>
</trkpt>
<trkpt lat="-26.9294458" lon="152.7543823">
<ele>119.340</ele>
<time>2016-03-02T01:20:23.970Z</time>
</trkpt>
<trkpt lat="-26.9298430" lon="152.7551276">
<ele>117.666</ele>
<time>2016-03-02T01:20:26.961Z</time>
</trkpt>
<trkpt lat="-26.9301212" lon="152.7556155">
<ele>116.838</ele>
<time>2016-03-02T01:20:28.961Z</time>
</trkpt>
<trkpt lat="-26.9305635" lon="152.7563359">
<ele>116.432</ele>
<time>2016-03-02T01:20:31.953Z</time>
</trkpt>
<trkpt lat="-26.9310551" lon="152.7570460">
<ele>116.163</ele>
<time>2016-03-02T01:20:34.975Z</time>
</trkpt>
<trkpt lat="-26.9315726" lon="152.7577344">
<ele>115.991</ele>
<time>2016-03-02T01:20:38.025Z</time>
</trkpt>
<trkpt lat="-26.9320881" lon="152.7583388">
<ele>115.950</ele>
<time>2016-03-02T01:20:40.991Z</time>
</trkpt>
<trkpt lat="-26.9325814" lon="152.7588951">
<ele>115.329</ele>
<time>2016-03-02T01:20:43.940Z</time>
</trkpt>
<trkpt lat="-26.9330658" lon="152.7594152">
<ele>113.169</ele>
<time>2016-03-02T01:20:46.885Z</time>
</trkpt>
<trkpt lat="-26.9333946" lon="152.7597484">
<ele>109.914</ele>
<time>2016-03-02T01:20:48.883Z</time>
</trkpt>
<trkpt lat="-26.9337388" lon="152.7600663">
<ele>107.089</ele>
<time>2016-03-02T01:20:50.912Z</time>
</trkpt>
<trkpt lat="-26.9342467" lon="152.7605484">
<ele>105.500</ele>
<time>2016-03-02T01:20:53.959Z</time>
</trkpt>
<trkpt lat="-26.9345725" lon="152.7608130">
<ele>104.923</ele>
<time>2016-03-02T01:20:55.880Z</time>
</trkpt>
<trkpt lat="-26.9348993" lon="152.7610671">
<ele>104.638</ele>
<time>2016-03-02T01:20:57.938Z</time>
</trkpt>
<trkpt lat="-26.9353248" lon="152.7613902">
<ele>103.866</ele>
<time>2016-03-02T01:21:00.855Z</time>
</trkpt>
<trkpt lat="-26.9357056" lon="152.7616930">
<ele>101.776</ele>
<time>2016-03-02T01:21:03.804Z</time>
</trkpt>
<trkpt lat="-26.9359552" lon="152.7618750">
<ele>98.431</ele>
<time>2016-03-02T01:21:05.807Z</time>
</trkpt>
<trkpt lat="-26.9363295" lon="152.7621177">
<ele>95.336</ele>
<time>2016-03-02T01:21:08.791Z</time>
</trkpt>
<trkpt lat="-26.9365627" lon="152.7622710">
<ele>93.742</ele>
<time>2016-03-02T01:21:10.749Z</time>
</trkpt>
<trkpt lat="-26.9369000" lon="152.7624916">
<ele>93.388</ele>
<time>2016-03-02T01:21:13.781Z</time>
</trkpt>
<trkpt lat="-26.9371038" lon="152.7626119">
<ele>93.502</ele>
<time>2016-03-02T01:21:15.855Z</time>
</trkpt>
<trkpt lat="-26.9372484" lon="152.7627096">
<ele>93.567</ele>
<time>2016-03-02T01:21:17.916Z</time>
</trkpt>
<trkpt lat="-26.9373613" lon="152.7627696">
<ele>93.445</ele>
<time>2016-03-02T01:21:19.999Z</time>
</trkpt>
<trkpt lat="-26.9373613" lon="152.7627696">
<ele>93.284</ele>
<time>2016-03-02T01:21:22.999Z</time>
</trkpt>
<trkpt lat="-26.9373613" lon="152.7627696">
<ele>93.242</ele>
<time>2016-03-02T01:22:24.366Z</time>
</trkpt>
<trkpt lat="-26.9375553" lon="152.7628875">
<ele>93.281</ele>
<time>2016-03-02T01:22:29.406Z</time>
</trkpt>
<trkpt lat="-26.9377886" lon="152.7630374">
<ele>94.156</ele>
<time>2016-03-02T01:22:32.413Z</time>
</trkpt>
<trkpt lat="-26.9379907" lon="152.7631473">
<ele>96.464</ele>
<time>2016-03-02T01:22:34.436Z</time>
</trkpt>
<trkpt lat="-26.9382099" lon="152.7632684">
<ele>99.235</ele>
<time>2016-03-02T01:22:36.484Z</time>
</trkpt>
<trkpt lat="-26.9385292" lon="152.7634908">
<ele>101.267</ele>
<time>2016-03-02T01:22:39.546Z</time>
</trkpt>
<trkpt lat="-26.9388331" lon="152.7637402">
<ele>102.411</ele>
<time>2016-03-02T01:22:42.503Z</time>
</trkpt>
<trkpt lat="-26.9391208" lon="152.7640438">
<ele>103.260</ele>
<time>2016-03-02T01:22:45.475Z</time>
</trkpt>
<trkpt lat="-26.9393188" lon="152.7642690">
<ele>104.754</ele>
<time>2016-03-02T01:22:47.495Z</time>
</trkpt>
<trkpt lat="-26.9394991" lon="152.7645177">
<ele>107.030</ele>
<time>2016-03-02T01:22:49.454Z</time>
</trkpt>
<trkpt lat="-26.9397675" lon="152.7649191">
<ele>109.374</ele>
<time>2016-03-02T01:22:52.422Z</time>
</trkpt>
<trkpt lat="-26.9399382" lon="152.7652146">
<ele>111.288</ele>
<time>2016-03-02T01:22:54.401Z</time>
</trkpt>
<trkpt lat="-26.9401947" lon="152.7656765">
<ele>112.875</ele>
<time>2016-03-02T01:22:57.388Z</time>
</trkpt>
<trkpt lat="-26.9404640" lon="152.7661416">
<ele>114.352</ele>
<time>2016-03-02T01:23:00.415Z</time>
</trkpt>
<trkpt lat="-26.9407284" lon="152.7665778">
<ele>115.623</ele>
<time>2016-03-02T01:23:03.322Z</time>
</trkpt>
<trkpt lat="-26.9410073" lon="152.7670289">
<ele>116.441</ele>
<time>2016-03-02T01:23:06.332Z</time>
</trkpt>
<trkpt lat="-26.9411908" lon="152.7673210">
<ele>116.748</ele>
<time>2016-03-02T01:23:08.283Z</time>
</trkpt>
<trkpt lat="-26.9414881" lon="152.7677583">
<ele>116.706</ele>
<time>2016-03-02T01:23:11.291Z</time>
</trkpt>
<trkpt lat="-26.9417833" lon="152.7681769">
<ele>116.247</ele>
<time>2016-03-02T01:23:14.214Z</time>
</trkpt>
<trkpt lat="-26.9420053" lon="152.7684612">
<ele>115.261</ele>
<time>2016-03-02T01:23:16.260Z</time>
</trkpt>
<trkpt lat="-26.9422224" lon="152.7687386">
<ele>114.097</ele>
<time>2016-03-02T01:23:18.249Z</time>
</trkpt>
<trkpt lat="-26.9424456" lon="152.7690145">
<ele>113.174</ele>
<time>2016-03-02T01:23:20.264Z</time>
</trkpt>
<trkpt lat="-26.9426550" lon="152.7692985">
<ele>112.324</ele>
<time>2016-03-02T01:23:22.281Z</time>
</trkpt>
<trkpt lat="-26.9429964" lon="152.7696662">
<ele>111.249</ele>
<time>2016-03-02T01:23:25.263Z</time>
</trkpt>
<trkpt lat="-26.9432251" lon="152.7699014">
<ele>110.142</ele>
<time>2016-03-02T01:23:27.279Z</time>
</trkpt>
<trkpt lat="-26.9435806" lon="152.7702196">
<ele>109.283</ele>
<time>2016-03-02T01:23:30.300Z</time>
</trkpt>
<trkpt lat="-26.9437875" lon="152.7704488">
<ele>108.650</ele>
<time>2016-03-02T01:23:32.248Z</time>
</trkpt>
<trkpt lat="-26.9441547" lon="152.7707504">
<ele>108.255</ele>
<time>2016-03-02T01:23:35.302Z</time>
</trkpt>
<trkpt lat="-26.9444036" lon="152.7709405">
<ele>108.129</ele>
<time>2016-03-02T01:23:37.329Z</time>
</trkpt>
<trkpt lat="-26.9446270" lon="152.7710954">
<ele>108.186</ele>
<time>2016-03-02T01:23:39.120Z</time>
</trkpt>
<trkpt lat="-26.9448749" lon="152.7712870">
<ele>108.401</ele>
<time>2016-03-02T01:23:41.186Z</time>
</trkpt>
<trkpt lat="-26.9452211" lon="152.7715509">
<ele>108.703</ele>
<time>2016-03-02T01:23:44.057Z</time>
</trkpt>
<trkpt lat="-26.9454684" lon="152.7717436">
<ele>108.932</ele>
<time>2016-03-02T01:23:46.123Z</time>
</trkpt>
<trkpt lat="-26.9457115" lon="152.7719101">
<ele>109.016</ele>
<time>2016-03-02T01:23:48.077Z</time>
</trkpt>
<trkpt lat="-26.9459490" lon="152.7720933">
<ele>109.060</ele>
<time>2016-03-02T01:23:50.023Z</time>
</trkpt>
<trkpt lat="-26.9462022" lon="152.7722504">
<ele>109.158</ele>
<time>2016-03-02T01:23:51.946Z</time>
</trkpt>
<trkpt lat="-26.9465810" lon="152.7725494">
<ele>109.268</ele>
<time>2016-03-02T01:23:55.060Z</time>
</trkpt>
<trkpt lat="-26.9469013" lon="152.7728195">
<ele>109.231</ele>
<time>2016-03-02T01:23:57.835Z</time>
</trkpt>
<trkpt lat="-26.9471275" lon="152.7730181">
<ele>109.003</ele>
<time>2016-03-02T01:23:59.815Z</time>
</trkpt>
<trkpt lat="-26.9473711" lon="152.7732201">
<ele>108.946</ele>
<time>2016-03-02T01:24:01.853Z</time>
</trkpt>
<trkpt lat="-26.9475961" lon="152.7734407">
<ele>109.368</ele>
<time>2016-03-02T01:24:03.846Z</time>
</trkpt>
<trkpt lat="-26.9479176" lon="152.7737847">
<ele>109.927</ele>
<time>2016-03-02T01:24:06.826Z</time>
</trkpt>
<trkpt lat="-26.9482297" lon="152.7741269">
<ele>110.140</ele>
<time>2016-03-02T01:24:09.794Z</time>
</trkpt>
<trkpt lat="-26.9484291" lon="152.7743619">
<ele>109.998</ele>
<time>2016-03-02T01:24:11.762Z</time>
</trkpt>
<trkpt lat="-26.9487337" lon="152.7747248">
<ele>109.934</ele>
<time>2016-03-02T01:24:14.748Z</time>
</trkpt>
<trkpt lat="-26.9489223" lon="152.7749737">
<ele>110.309</ele>
<time>2016-03-02T01:24:16.692Z</time>
</trkpt>
<trkpt lat="-26.9491143" lon="152.7752325">
<ele>110.924</ele>
<time>2016-03-02T01:24:18.708Z</time>
</trkpt>
<trkpt lat="-26.9493082" lon="152.7754809">
<ele>111.348</ele>
<time>2016-03-02T01:24:20.691Z</time>
</trkpt>
<trkpt lat="-26.9496030" lon="152.7758554">
<ele>111.464</ele>
<time>2016-03-02T01:24:23.677Z</time>
</trkpt>
<trkpt lat="-26.9499259" lon="152.7761978">
<ele>111.620</ele>
<time>2016-03-02T01:24:26.659Z</time>
</trkpt>
<trkpt lat="-26.9501792" lon="152.7763771">
<ele>112.106</ele>
<time>2016-03-02T01:24:28.676Z</time>
</trkpt>
<trkpt lat="-26.9505952" lon="152.7765624">
<ele>112.677</ele>
<time>2016-03-02T01:24:31.647Z</time>
</trkpt>
<trkpt lat="-26.9508926" lon="152.7766563">
<ele>113.158</ele>
<time>2016-03-02T01:24:33.674Z</time>
</trkpt>
<trkpt lat="-26.9513001" lon="152.7767873">
<ele>113.865</ele>
<time>2016-03-02T01:24:36.485Z</time>
</trkpt>
<trkpt lat="-26.9517341" lon="152.7769010">
<ele>114.877</ele>
<time>2016-03-02T01:24:39.509Z</time>
</trkpt>
<trkpt lat="-26.9520021" lon="152.7770012">
<ele>115.959</ele>
<time>2016-03-02T01:24:41.496Z</time>
</trkpt>
<trkpt lat="-26.9522603" lon="152.7770938">
<ele>116.897</ele>
<time>2016-03-02T01:24:43.461Z</time>
</trkpt>
<trkpt lat="-26.9526579" lon="152.7772270">
<ele>117.578</ele>
<time>2016-03-02T01:24:46.520Z</time>
</trkpt>
<trkpt lat="-26.9528954" lon="152.7773014">
<ele>118.078</ele>
<time>2016-03-02T01:24:48.439Z</time>
</trkpt>
<trkpt lat="-26.9532184" lon="152.7774149">
<ele>118.493</ele>
<time>2016-03-02T01:24:51.313Z</time>
</trkpt>
<trkpt lat="-26.9534205" lon="152.7774690">
<ele>118.715</ele>
<time>2016-03-02T01:24:53.195Z</time>
</trkpt>
<trkpt lat="-26.9537703" lon="152.7775918">
<ele>118.721</ele>
<time>2016-03-02T01:24:56.400Z</time>
</trkpt>
<trkpt lat="-26.9540002" lon="152.7776712">
<ele>118.655</ele>
<time>2016-03-02T01:24:58.456Z</time>
</trkpt>
<trkpt lat="-26.9542198" lon="152.7777350">
<ele>118.633</ele>
<time>2016-03-02T01:25:00.461Z</time>
</trkpt>
<trkpt lat="-26.9544206" lon="152.7777977">
<ele>118.611</ele>
<time>2016-03-02T01:25:02.386Z</time>
</trkpt>
<trkpt lat="-26.9546122" lon="152.7778693">
<ele>118.467</ele>
<time>2016-03-02T01:25:04.334Z</time>
</trkpt>
<trkpt lat="-26.9548727" lon="152.7779674">
<ele>118.200</ele>
<time>2016-03-02T01:25:07.117Z</time>
</trkpt>
<trkpt lat="-26.9551114" lon="152.7780504">
<ele>117.912</ele>
<time>2016-03-02T01:25:09.834Z</time>
</trkpt>
<trkpt lat="-26.9552631" lon="152.7780921">
<ele>117.650</ele>
<time>2016-03-02T01:25:11.672Z</time>
</trkpt>
<trkpt lat="-26.9554431" lon="152.7781348">
<ele>117.467</ele>
<time>2016-03-02T01:25:14.238Z</time>
</trkpt>
<trkpt lat="-26.9556426" lon="152.7782001">
<ele>117.440</ele>
<time>2016-03-02T01:25:17.357Z</time>
</trkpt>
<trkpt lat="-26.9558468" lon="152.7782558">
<ele>117.680</ele>
<time>2016-03-02T01:25:19.985Z</time>
</trkpt>
<trkpt lat="-26.9562110" lon="152.7783566">
<ele>118.464</ele>
<time>2016-03-02T01:25:23.400Z</time>
</trkpt>
<trkpt lat="-26.9565518" lon="152.7784448">
<ele>119.878</ele>
<time>2016-03-02T01:25:26.403Z</time>
</trkpt>
<trkpt lat="-26.9567664" lon="152.7784998">
<ele>121.369</ele>
<time>2016-03-02T01:25:28.378Z</time>
</trkpt>
<trkpt lat="-26.9570890" lon="152.7785802">
<ele>122.168</ele>
<time>2016-03-02T01:25:31.293Z</time>
</trkpt>
<trkpt lat="-26.9573451" lon="152.7786369">
<ele>122.131</ele>
<time>2016-03-02T01:25:33.408Z</time>
</trkpt>
<trkpt lat="-26.9576073" lon="152.7787077">
<ele>121.997</ele>
<time>2016-03-02T01:25:35.470Z</time>
</trkpt>
<trkpt lat="-26.9578476" lon="152.7787649">
<ele>122.341</ele>
<time>2016-03-02T01:25:37.359Z</time>
</trkpt>
<trkpt lat="-26.9582034" lon="152.7788657">
<ele>122.910</ele>
<time>2016-03-02T01:25:40.250Z</time>
</trkpt>
<trkpt lat="-26.9584772" lon="152.7789421">
<ele>123.309</ele>
<time>2016-03-02T01:25:42.378Z</time>
</trkpt>
<trkpt lat="-26.9588981" lon="152.7790691">
<ele>123.486</ele>
<time>2016-03-02T01:25:45.511Z</time>
</trkpt>
<trkpt lat="-26.9591582" lon="152.7791425">
<ele>123.466</ele>
<time>2016-03-02T01:25:47.397Z</time>
</trkpt>
<trkpt lat="-26.9594255" lon="152.7792185">
<ele>123.317</ele>
<time>2016-03-02T01:25:49.331Z</time>
</trkpt>
<trkpt lat="-26.9597023" lon="152.7793039">
<ele>123.128</ele>
<time>2016-03-02T01:25:51.335Z</time>
</trkpt>
<trkpt lat="-26.9599860" lon="152.7793828">
<ele>122.941</ele>
<time>2016-03-02T01:25:53.368Z</time>
</trkpt>
<trkpt lat="-26.9602587" lon="152.7794666">
<ele>122.671</ele>
<time>2016-03-02T01:25:55.379Z</time>
</trkpt>
<trkpt lat="-26.9606295" lon="152.7795883">
<ele>122.235</ele>
<time>2016-03-02T01:25:58.272Z</time>
</trkpt>
<trkpt lat="-26.9609665" lon="152.7797343">
<ele>121.727</ele>
<time>2016-03-02T01:26:01.121Z</time>
</trkpt>
<trkpt lat="-26.9612102" lon="152.7798665">
<ele>121.342</ele>
<time>2016-03-02T01:26:03.243Z</time>
</trkpt>
<trkpt lat="-26.9615566" lon="152.7800714">
<ele>121.162</ele>
<time>2016-03-02T01:26:06.307Z</time>
</trkpt>
<trkpt lat="-26.9617710" lon="152.7802041">
<ele>120.876</ele>
<time>2016-03-02T01:26:08.266Z</time>
</trkpt>
<trkpt lat="-26.9621268" lon="152.7804087">
<ele>120.227</ele>
<time>2016-03-02T01:26:11.311Z</time>
</trkpt>
<trkpt lat="-26.9624013" lon="152.7805604">
<ele>119.776</ele>
<time>2016-03-02T01:26:13.410Z</time>
</trkpt>
<trkpt lat="-26.9628112" lon="152.7807799">
<ele>120.026</ele>
<time>2016-03-02T01:26:16.425Z</time>
</trkpt>
<trkpt lat="-26.9630798" lon="152.7809246">
<ele>120.268</ele>
<time>2016-03-02T01:26:18.407Z</time>
</trkpt>
<trkpt lat="-26.9634974" lon="152.7811596">
<ele>119.780</ele>
<time>2016-03-02T01:26:21.448Z</time>
</trkpt>
<trkpt lat="-26.9637845" lon="152.7813235">
<ele>118.869</ele>
<time>2016-03-02T01:26:23.499Z</time>
</trkpt>
<trkpt lat="-26.9640688" lon="152.7814823">
<ele>117.982</ele>
<time>2016-03-02T01:26:25.530Z</time>
</trkpt>
<trkpt lat="-26.9644982" lon="152.7817249">
<ele>117.227</ele>
<time>2016-03-02T01:26:28.463Z</time>
</trkpt>
<trkpt lat="-26.9648559" lon="152.7819261">
<ele>116.790</ele>
<time>2016-03-02T01:26:30.607Z</time>
</trkpt>
<trkpt lat="-26.9654178" lon="152.7822596">
<ele>117.054</ele>
<time>2016-03-02T01:26:33.642Z</time>
</trkpt>
<trkpt lat="-26.9660058" lon="152.7826811">
<ele>118.509</ele>
<time>2016-03-02T01:26:36.684Z</time>
</trkpt>
<trkpt lat="-26.9663917" lon="152.7829961">
<ele>121.533</ele>
<time>2016-03-02T01:26:38.687Z</time>
</trkpt>
<trkpt lat="-26.9669809" lon="152.7834592">
<ele>125.285</ele>
<time>2016-03-02T01:26:41.691Z</time>
</trkpt>
<trkpt lat="-26.9673538" lon="152.7837973">
<ele>127.006</ele>
<time>2016-03-02T01:26:43.685Z</time>
</trkpt>
<trkpt lat="-26.9679074" lon="152.7843098">
<ele>125.393</ele>
<time>2016-03-02T01:26:46.647Z</time>
</trkpt>
<trkpt lat="-26.9685149" lon="152.7848208">
<ele>122.710</ele>
<time>2016-03-02T01:26:49.732Z</time>
</trkpt>
<trkpt lat="-26.9689181" lon="152.7851727">
<ele>121.492</ele>
<time>2016-03-02T01:26:51.798Z</time>
</trkpt>
<trkpt lat="-26.9694625" lon="152.7857367">
<ele>122.207</ele>
<time>2016-03-02T01:26:54.814Z</time>
</trkpt>
<trkpt lat="-26.9698085" lon="152.7861050">
<ele>124.259</ele>
<time>2016-03-02T01:26:56.783Z</time>
</trkpt>
<trkpt lat="-26.9701777" lon="152.7864276">
<ele>126.704</ele>
<time>2016-03-02T01:26:58.762Z</time>
</trkpt>
<trkpt lat="-26.9706731" lon="152.7869207">
<ele>128.648</ele>
<time>2016-03-02T01:27:01.644Z</time>
</trkpt>
<trkpt lat="-26.9710329" lon="152.7872083">
<ele>129.731</ele>
<time>2016-03-02T01:27:03.622Z</time>
</trkpt>
<trkpt lat="-26.9714119" lon="152.7874898">
<ele>130.242</ele>
<time>2016-03-02T01:27:05.670Z</time>
</trkpt>
<trkpt lat="-26.9719830" lon="152.7878717">
<ele>130.303</ele>
<time>2016-03-02T01:27:08.658Z</time>
</trkpt>
<trkpt lat="-26.9725499" lon="152.7882285">
<ele>129.871</ele>
<time>2016-03-02T01:27:11.604Z</time>
</trkpt>
<trkpt lat="-26.9730803" lon="152.7885996">
<ele>129.241</ele>
<time>2016-03-02T01:27:14.536Z</time>
</trkpt>
<trkpt lat="-26.9735948" lon="152.7889707">
<ele>128.676</ele>
<time>2016-03-02T01:27:17.454Z</time>
</trkpt>
<trkpt lat="-26.9741573" lon="152.7893527">
<ele>128.219</ele>
<time>2016-03-02T01:27:20.531Z</time>
</trkpt>
<trkpt lat="-26.9745249" lon="152.7896132">
<ele>127.874</ele>
<time>2016-03-02T01:27:22.539Z</time>
</trkpt>
<trkpt lat="-26.9750903" lon="152.7899735">
<ele>128.339</ele>
<time>2016-03-02T01:27:25.549Z</time>
</trkpt>
<trkpt lat="-26.9754414" lon="152.7902255">
<ele>129.983</ele>
<time>2016-03-02T01:27:27.492Z</time>
</trkpt>
<trkpt lat="-26.9760021" lon="152.7906114">
<ele>131.792</ele>
<time>2016-03-02T01:27:30.560Z</time>
</trkpt>
<trkpt lat="-26.9763385" lon="152.7908618">
<ele>132.830</ele>
<time>2016-03-02T01:27:32.455Z</time>
</trkpt>
<trkpt lat="-26.9767175" lon="152.7911174">
<ele>133.596</ele>
<time>2016-03-02T01:27:34.555Z</time>
</trkpt>
<trkpt lat="-26.9771099" lon="152.7913441">
<ele>134.596</ele>
<time>2016-03-02T01:27:36.650Z</time>
</trkpt>
<trkpt lat="-26.9776359" lon="152.7917401">
<ele>135.662</ele>
<time>2016-03-02T01:27:39.609Z</time>
</trkpt>
<trkpt lat="-26.9782170" lon="152.7921563">
<ele>136.849</ele>
<time>2016-03-02T01:27:42.698Z</time>
</trkpt>
<trkpt lat="-26.9785833" lon="152.7924343">
<ele>138.607</ele>
<time>2016-03-02T01:27:44.608Z</time>
</trkpt>
<trkpt lat="-26.9789882" lon="152.7927130">
<ele>140.697</ele>
<time>2016-03-02T01:27:46.629Z</time>
</trkpt>
<trkpt lat="-26.9793890" lon="152.7929838">
<ele>142.398</ele>
<time>2016-03-02T01:27:48.606Z</time>
</trkpt>
<trkpt lat="-26.9797984" lon="152.7932672">
<ele>143.274</ele>
<time>2016-03-02T01:27:50.632Z</time>
</trkpt>
<trkpt lat="-26.9803983" lon="152.7936825">
<ele>142.696</ele>
<time>2016-03-02T01:27:53.611Z</time>
</trkpt>
<trkpt lat="-26.9807437" lon="152.7939533">
<ele>140.204</ele>
<time>2016-03-02T01:27:55.412Z</time>
</trkpt>
<trkpt lat="-26.9812163" lon="152.7941871">
<ele>136.879</ele>
<time>2016-03-02T01:27:57.574Z</time>
</trkpt>
<trkpt lat="-26.9816636" lon="152.7944317">
<ele>134.483</ele>
<time>2016-03-02T01:27:59.619Z</time>
</trkpt>
<trkpt lat="-26.9823261" lon="152.7947528">
<ele>133.487</ele>
<time>2016-03-02T01:28:02.625Z</time>
</trkpt>
<trkpt lat="-26.9829738" lon="152.7950298">
<ele>133.291</ele>
<time>2016-03-02T01:28:05.572Z</time>
</trkpt>
<trkpt lat="-26.9836160" lon="152.7952861">
<ele>133.274</ele>
<time>2016-03-02T01:28:08.569Z</time>
</trkpt>
<trkpt lat="-26.9841831" lon="152.7955422">
<ele>133.387</ele>
<time>2016-03-02T01:28:11.409Z</time>
</trkpt>
<trkpt lat="-26.9847277" lon="152.7958355">
<ele>133.735</ele>
<time>2016-03-02T01:28:14.361Z</time>
</trkpt>
<trkpt lat="-26.9850751" lon="152.7960463">
<ele>134.103</ele>
<time>2016-03-02T01:28:16.331Z</time>
</trkpt>
<trkpt lat="-26.9854141" lon="152.7962720">
<ele>134.310</ele>
<time>2016-03-02T01:28:18.329Z</time>
</trkpt>
<trkpt lat="-26.9859001" lon="152.7966229">
<ele>134.642</ele>
<time>2016-03-02T01:28:21.302Z</time>
</trkpt>
<trkpt lat="-26.9863196" lon="152.7970103">
<ele>135.346</ele>
<time>2016-03-02T01:28:24.219Z</time>
</trkpt>
<trkpt lat="-26.9865493" lon="152.7972324">
<ele>136.062</ele>
<time>2016-03-02T01:28:26.029Z</time>
</trkpt>
<trkpt lat="-26.9868116" lon="152.7975160">
<ele>136.006</ele>
<time>2016-03-02T01:28:28.519Z</time>
</trkpt>
<trkpt lat="-26.9869885" lon="152.7977329">
<ele>134.379</ele>
<time>2016-03-02T01:28:30.877Z</time>
</trkpt>
<trkpt lat="-26.9871552" lon="152.7978166">
<ele>131.337</ele>
<time>2016-03-02T01:28:32.855Z</time>
</trkpt>
<trkpt lat="-26.9872880" lon="152.7977575">
<ele>128.419</ele>
<time>2016-03-02T01:28:34.733Z</time>
</trkpt>
<trkpt lat="-26.9874075" lon="152.7975902">
<ele>126.982</ele>
<time>2016-03-02T01:28:37.547Z</time>
</trkpt>
<trkpt lat="-26.9875477" lon="152.7974237">
<ele>127.148</ele>
<time>2016-03-02T01:28:39.988Z</time>
</trkpt>
<trkpt lat="-26.9878184" lon="152.7970969">
<ele>128.197</ele>
<time>2016-03-02T01:28:43.563Z</time>
</trkpt>
<trkpt lat="-26.9880352" lon="152.7968323">
<ele>129.489</ele>
<time>2016-03-02T01:28:45.847Z</time>
</trkpt>
<trkpt lat="-26.9884193" lon="152.7964312">
<ele>130.761</ele>
<time>2016-03-02T01:28:49.049Z</time>
</trkpt>
<trkpt lat="-26.9886991" lon="152.7961876">
<ele>131.336</ele>
<time>2016-03-02T01:28:51.063Z</time>
</trkpt>
<trkpt lat="-26.9891612" lon="152.7958257">
<ele>130.774</ele>
<time>2016-03-02T01:28:54.107Z</time>
</trkpt>
<trkpt lat="-26.9895019" lon="152.7956028">
<ele>129.577</ele>
<time>2016-03-02T01:28:56.127Z</time>
</trkpt>
<trkpt lat="-26.9900284" lon="152.7953320">
<ele>128.341</ele>
<time>2016-03-02T01:28:59.016Z</time>
</trkpt>
<trkpt lat="-26.9906390" lon="152.7951129">
<ele>127.310</ele>
<time>2016-03-02T01:29:02.104Z</time>
</trkpt>
<trkpt lat="-26.9912879" lon="152.7949698">
<ele>126.582</ele>
<time>2016-03-02T01:29:05.178Z</time>
</trkpt>
<trkpt lat="-26.9919428" lon="152.7948752">
<ele>126.627</ele>
<time>2016-03-02T01:29:08.218Z</time>
</trkpt>
<trkpt lat="-26.9923689" lon="152.7948080">
<ele>127.859</ele>
<time>2016-03-02T01:29:10.229Z</time>
</trkpt>
<trkpt lat="-26.9929691" lon="152.7947243">
<ele>129.723</ele>
<time>2016-03-02T01:29:13.146Z</time>
</trkpt>
<trkpt lat="-26.9933656" lon="152.7946783">
<ele>131.888</ele>
<time>2016-03-02T01:29:15.151Z</time>
</trkpt>
<trkpt lat="-26.9939826" lon="152.7945927">
<ele>134.519</ele>
<time>2016-03-02T01:29:18.254Z</time>
</trkpt>
<trkpt lat="-26.9943740" lon="152.7945290">
<ele>137.260</ele>
<time>2016-03-02T01:29:20.197Z</time>
</trkpt>
<trkpt lat="-26.9947597" lon="152.7944652">
<ele>139.414</ele>
<time>2016-03-02T01:29:22.139Z</time>
</trkpt>
<trkpt lat="-26.9953674" lon="152.7943709">
<ele>140.479</ele>
<time>2016-03-02T01:29:25.173Z</time>
</trkpt>
<trkpt lat="-26.9960160" lon="152.7942668">
<ele>140.469</ele>
<time>2016-03-02T01:29:28.277Z</time>
</trkpt>
<trkpt lat="-26.9964504" lon="152.7941991">
<ele>139.998</ele>
<time>2016-03-02T01:29:30.298Z</time>
</trkpt>
<trkpt lat="-26.9968856" lon="152.7941442">
<ele>139.608</ele>
<time>2016-03-02T01:29:32.318Z</time>
</trkpt>
<trkpt lat="-26.9975102" lon="152.7940307">
<ele>139.513</ele>
<time>2016-03-02T01:29:35.269Z</time>
</trkpt>
<trkpt lat="-26.9979186" lon="152.7939707">
<ele>139.837</ele>
<time>2016-03-02T01:29:37.217Z</time>
</trkpt>
<trkpt lat="-26.9985739" lon="152.7938670">
<ele>140.520</ele>
<time>2016-03-02T01:29:40.311Z</time>
</trkpt>
<trkpt lat="-26.9989937" lon="152.7937978">
<ele>141.264</ele>
<time>2016-03-02T01:29:42.295Z</time>
</trkpt>
<trkpt lat="-26.9996131" lon="152.7936038">
<ele>141.815</ele>
<time>2016-03-02T01:29:45.340Z</time>
</trkpt>
<trkpt lat="-27.0001589" lon="152.7932422">
<ele>142.015</ele>
<time>2016-03-02T01:29:48.306Z</time>
</trkpt>
<trkpt lat="-27.0006415" lon="152.7927414">
<ele>141.588</ele>
<time>2016-03-02T01:29:51.306Z</time>
</trkpt>
<trkpt lat="-27.0009918" lon="152.7921000">
<ele>140.516</ele>
<time>2016-03-02T01:29:54.325Z</time>
</trkpt>
<trkpt lat="-27.0012181" lon="152.7913940">
<ele>139.210</ele>
<time>2016-03-02T01:29:57.298Z</time>
</trkpt>
<trkpt lat="-27.0013237" lon="152.7908888">
<ele>137.841</ele>
<time>2016-03-02T01:29:59.284Z</time>
</trkpt>
<trkpt lat="-27.0013709" lon="152.7903379">
<ele>136.459</ele>
<time>2016-03-02T01:30:01.341Z</time>
</trkpt>
<trkpt lat="-27.0014407" lon="152.7895181">
<ele>135.428</ele>
<time>2016-03-02T01:30:04.360Z</time>
</trkpt>
<trkpt lat="-27.0014746" lon="152.7889731">
<ele>135.131</ele>
<time>2016-03-02T01:30:06.386Z</time>
</trkpt>
<trkpt lat="-27.0015380" lon="152.7884767">
<ele>135.315</ele>
<time>2016-03-02T01:30:08.291Z</time>
</trkpt>
<trkpt lat="-27.0016072" lon="152.7879980">
<ele>135.223</ele>
<time>2016-03-02T01:30:10.171Z</time>
</trkpt>
<trkpt lat="-27.0016521" lon="152.7874865">
<ele>134.593</ele>
<time>2016-03-02T01:30:12.183Z</time>
</trkpt>
<trkpt lat="-27.0017422" lon="152.7867269">
<ele>133.690</ele>
<time>2016-03-02T01:30:15.184Z</time>
</trkpt>
<trkpt lat="-27.0018555" lon="152.7862429">
<ele>132.459</ele>
<time>2016-03-02T01:30:17.158Z</time>
</trkpt>
<trkpt lat="-27.0020926" lon="152.7855580">
<ele>131.027</ele>
<time>2016-03-02T01:30:20.082Z</time>
</trkpt>
<trkpt lat="-27.0022792" lon="152.7850966">
<ele>129.930</ele>
<time>2016-03-02T01:30:22.093Z</time>
</trkpt>
<trkpt lat="-27.0026522" lon="152.7844332">
<ele>129.741</ele>
<time>2016-03-02T01:30:25.117Z</time>
</trkpt>
<trkpt lat="-27.0028913" lon="152.7840130">
<ele>130.455</ele>
<time>2016-03-02T01:30:27.026Z</time>
</trkpt>
<trkpt lat="-27.0031522" lon="152.7835958">
<ele>131.250</ele>
<time>2016-03-02T01:30:29.011Z</time>
</trkpt>
<trkpt lat="-27.0034023" lon="152.7831867">
<ele>131.398</ele>
<time>2016-03-02T01:30:30.958Z</time>
</trkpt>
<trkpt lat="-27.0036602" lon="152.7827857">
<ele>131.041</ele>
<time>2016-03-02T01:30:32.927Z</time>
</trkpt>
<trkpt lat="-27.0039000" lon="152.7823901">
<ele>130.555</ele>
<time>2016-03-02T01:30:34.859Z</time>
</trkpt>
<trkpt lat="-27.0042651" lon="152.7817687">
<ele>130.018</ele>
<time>2016-03-02T01:30:37.889Z</time>
</trkpt>
<trkpt lat="-27.0046183" lon="152.7811608">
<ele>129.475</ele>
<time>2016-03-02T01:30:40.834Z</time>
</trkpt>
<trkpt lat="-27.0049236" lon="152.7807796">
<ele>129.209</ele>
<time>2016-03-02T01:30:42.879Z</time>
</trkpt>
<trkpt lat="-27.0052439" lon="152.7804020">
<ele>129.575</ele>
<time>2016-03-02T01:30:44.905Z</time>
</trkpt>
<trkpt lat="-27.0055974" lon="152.7800336">
<ele>130.544</ele>
<time>2016-03-02T01:30:46.954Z</time>
</trkpt>
<trkpt lat="-27.0061847" lon="152.7795770">
<ele>131.634</ele>
<time>2016-03-02T01:30:49.951Z</time>
</trkpt>
<trkpt lat="-27.0068206" lon="152.7791929">
<ele>132.521</ele>
<time>2016-03-02T01:30:52.971Z</time>
</trkpt>
<trkpt lat="-27.0072331" lon="152.7789725">
<ele>133.168</ele>
<time>2016-03-02T01:30:54.880Z</time>
</trkpt>
<trkpt lat="-27.0079065" lon="152.7787291">
<ele>133.513</ele>
<time>2016-03-02T01:30:57.860Z</time>
</trkpt>
<trkpt lat="-27.0083293" lon="152.7786060">
<ele>133.608</ele>
<time>2016-03-02T01:30:59.726Z</time>
</trkpt>
<trkpt lat="-27.0087707" lon="152.7785095">
<ele>133.645</ele>
<time>2016-03-02T01:31:01.691Z</time>
</trkpt>
<trkpt lat="-27.0092062" lon="152.7784479">
<ele>133.717</ele>
<time>2016-03-02T01:31:03.658Z</time>
</trkpt>
<trkpt lat="-27.0096515" lon="152.7784316">
<ele>133.912</ele>
<time>2016-03-02T01:31:05.674Z</time>
</trkpt>
<trkpt lat="-27.0101051" lon="152.7784192">
<ele>134.737</ele>
<time>2016-03-02T01:31:07.719Z</time>
</trkpt>
<trkpt lat="-27.0105497" lon="152.7784159">
<ele>136.658</ele>
<time>2016-03-02T01:31:09.723Z</time>
</trkpt>
<trkpt lat="-27.0112151" lon="152.7784779">
<ele>139.281</ele>
<time>2016-03-02T01:31:12.730Z</time>
</trkpt>
<trkpt lat="-27.0116856" lon="152.7785661">
<ele>141.891</ele>
<time>2016-03-02T01:31:14.830Z</time>
</trkpt>
<trkpt lat="-27.0121395" lon="152.7786393">
<ele>144.276</ele>
<time>2016-03-02T01:31:16.823Z</time>
</trkpt>
<trkpt lat="-27.0127825" lon="152.7787243">
<ele>146.296</ele>
<time>2016-03-02T01:31:19.719Z</time>
</trkpt>
<trkpt lat="-27.0132053" lon="152.7787839">
<ele>147.690</ele>
<time>2016-03-02T01:31:21.669Z</time>
</trkpt>
<trkpt lat="-27.0136510" lon="152.7788474">
<ele>148.467</ele>
<time>2016-03-02T01:31:23.719Z</time>
</trkpt>
<trkpt lat="-27.0143348" lon="152.7789236">
<ele>148.896</ele>
<time>2016-03-02T01:31:26.795Z</time>
</trkpt>
<trkpt lat="-27.0150265" lon="152.7789059">
<ele>149.255</ele>
<time>2016-03-02T01:31:29.835Z</time>
</trkpt>
<trkpt lat="-27.0154603" lon="152.7788761">
<ele>149.843</ele>
<time>2016-03-02T01:31:31.755Z</time>
</trkpt>
<trkpt lat="-27.0158966" lon="152.7789124">
<ele>150.682</ele>
<time>2016-03-02T01:31:33.718Z</time>
</trkpt>
<trkpt lat="-27.0163464" lon="152.7789592">
<ele>151.566</ele>
<time>2016-03-02T01:31:35.745Z</time>
</trkpt>
<trkpt lat="-27.0167822" lon="152.7790328">
<ele>152.440</ele>
<time>2016-03-02T01:31:37.722Z</time>
</trkpt>
<trkpt lat="-27.0174424" lon="152.7791354">
<ele>153.425</ele>
<time>2016-03-02T01:31:40.728Z</time>
</trkpt>
<trkpt lat="-27.0178831" lon="152.7791834">
<ele>155.060</ele>
<time>2016-03-02T01:31:42.720Z</time>
</trkpt>
<trkpt lat="-27.0185293" lon="152.7792710">
<ele>157.692</ele>
<time>2016-03-02T01:31:45.650Z</time>
</trkpt>
<trkpt lat="-27.0189834" lon="152.7793996">
<ele>160.812</ele>
<time>2016-03-02T01:31:47.736Z</time>
</trkpt>
<trkpt lat="-27.0194252" lon="152.7795652">
<ele>163.867</ele>
<time>2016-03-02T01:31:49.767Z</time>
</trkpt>
<trkpt lat="-27.0198627" lon="152.7797294">
<ele>166.586</ele>
<time>2016-03-02T01:31:51.771Z</time>
</trkpt>
<trkpt lat="-27.0202923" lon="152.7798980">
<ele>168.684</ele>
<time>2016-03-02T01:31:53.777Z</time>
</trkpt>
<trkpt lat="-27.0209371" lon="152.7801491">
<ele>170.327</ele>
<time>2016-03-02T01:31:56.832Z</time>
</trkpt>
<trkpt lat="-27.0213505" lon="152.7803197">
<ele>172.125</ele>
<time>2016-03-02T01:31:58.807Z</time>
</trkpt>
<trkpt lat="-27.0217805" lon="152.7804961">
<ele>174.321</ele>
<time>2016-03-02T01:32:00.839Z</time>
</trkpt>
<trkpt lat="-27.0223645" lon="152.7807327">
<ele>176.453</ele>
<time>2016-03-02T01:32:03.692Z</time>
</trkpt>
<trkpt lat="-27.0227078" lon="152.7808596">
<ele>178.063</ele>
<time>2016-03-02T01:32:05.490Z</time>
</trkpt>
<trkpt lat="-27.0230389" lon="152.7809785">
<ele>179.000</ele>
<time>2016-03-02T01:32:07.348Z</time>
</trkpt>
<trkpt lat="-27.0233518" lon="152.7810482">
<ele>179.327</ele>
<time>2016-03-02T01:32:09.166Z</time>
</trkpt>
<trkpt lat="-27.0236605" lon="152.7809505">
<ele>179.373</ele>
<time>2016-03-02T01:32:11.095Z</time>
</trkpt>
<trkpt lat="-27.0239933" lon="152.7805751">
<ele>179.664</ele>
<time>2016-03-02T01:32:14.054Z</time>
</trkpt>
<trkpt lat="-27.0240617" lon="152.7802252">
<ele>180.895</ele>
<time>2016-03-02T01:32:16.118Z</time>
</trkpt>
<trkpt lat="-27.0241499" lon="152.7797866">
<ele>183.133</ele>
<time>2016-03-02T01:32:18.905Z</time>
</trkpt>
<trkpt lat="-27.0243495" lon="152.7796216">
<ele>185.420</ele>
<time>2016-03-02T01:32:20.756Z</time>
</trkpt>
<trkpt lat="-27.0245650" lon="152.7795379">
<ele>187.246</ele>
<time>2016-03-02T01:32:22.631Z</time>
</trkpt>
<trkpt lat="-27.0249878" lon="152.7795843">
<ele>189.052</ele>
<time>2016-03-02T01:32:26.139Z</time>
</trkpt>
<trkpt lat="-27.0253728" lon="152.7794602">
<ele>191.486</ele>
<time>2016-03-02T01:32:29.158Z</time>
</trkpt>
<trkpt lat="-27.0256637" lon="152.7792394">
<ele>194.583</ele>
<time>2016-03-02T01:32:31.870Z</time>
</trkpt>
<trkpt lat="-27.0256871" lon="152.7788987">
<ele>197.646</ele>
<time>2016-03-02T01:32:34.377Z</time>
</trkpt>
<trkpt lat="-27.0256610" lon="152.7786055">
<ele>200.368</ele>
<time>2016-03-02T01:32:36.573Z</time>
</trkpt>
<trkpt lat="-27.0256751" lon="152.7782211">
<ele>202.739</ele>
<time>2016-03-02T01:32:39.397Z</time>
</trkpt>
<trkpt lat="-27.0258145" lon="152.7780906">
<ele>204.113</ele>
<time>2016-03-02T01:32:41.008Z</time>
</trkpt>
<trkpt lat="-27.0260061" lon="152.7781196">
<ele>204.201</ele>
<time>2016-03-02T01:32:43.000Z</time>
</trkpt>
<trkpt lat="-27.0264233" lon="152.7784907">
<ele>203.673</ele>
<time>2016-03-02T01:32:47.792Z</time>
</trkpt>
<trkpt lat="-27.0267672" lon="152.7788455">
<ele>203.207</ele>
<time>2016-03-02T01:32:50.927Z</time>
</trkpt>
<trkpt lat="-27.0270614" lon="152.7791891">
<ele>202.760</ele>
<time>2016-03-02T01:32:53.830Z</time>
</trkpt>
<trkpt lat="-27.0273595" lon="152.7793556">
<ele>201.285</ele>
<time>2016-03-02T01:32:56.377Z</time>
</trkpt>
<trkpt lat="-27.0275707" lon="152.7793545">
<ele>197.966</ele>
<time>2016-03-02T01:32:58.253Z</time>
</trkpt>
<trkpt lat="-27.0278950" lon="152.7793067">
<ele>193.618</ele>
<time>2016-03-02T01:33:00.945Z</time>
</trkpt>
<trkpt lat="-27.0282495" lon="152.7792205">
<ele>189.687</ele>
<time>2016-03-02T01:33:03.439Z</time>
</trkpt>
<trkpt lat="-27.0285549" lon="152.7792231">
<ele>186.584</ele>
<time>2016-03-02T01:33:05.433Z</time>
</trkpt>
<trkpt lat="-27.0290734" lon="152.7793129">
<ele>184.222</ele>
<time>2016-03-02T01:33:08.805Z</time>
</trkpt>
<trkpt lat="-27.0293865" lon="152.7792898">
<ele>182.094</ele>
<time>2016-03-02T01:33:10.695Z</time>
</trkpt>
<trkpt lat="-27.0300131" lon="152.7791642">
<ele>179.228</ele>
<time>2016-03-02T01:33:14.316Z</time>
</trkpt>
<trkpt lat="-27.0303306" lon="152.7789081">
<ele>175.791</ele>
<time>2016-03-02T01:33:16.392Z</time>
</trkpt>
<trkpt lat="-27.0306466" lon="152.7786313">
<ele>173.129</ele>
<time>2016-03-02T01:33:18.452Z</time>
</trkpt>
<trkpt lat="-27.0311408" lon="152.7782679">
<ele>171.828</ele>
<time>2016-03-02T01:33:21.489Z</time>
</trkpt>
<trkpt lat="-27.0315187" lon="152.7781403">
<ele>172.444</ele>
<time>2016-03-02T01:33:23.567Z</time>
</trkpt>
<trkpt lat="-27.0320789" lon="152.7781122">
<ele>175.984</ele>
<time>2016-03-02T01:33:26.786Z</time>
</trkpt>
<trkpt lat="-27.0324063" lon="152.7781028">
<ele>181.538</ele>
<time>2016-03-02T01:33:28.861Z</time>
</trkpt>
<trkpt lat="-27.0328121" lon="152.7779088">
<ele>186.638</ele>
<time>2016-03-02T01:33:31.924Z</time>
</trkpt>
<trkpt lat="-27.0331799" lon="152.7776754">
<ele>190.215</ele>
<time>2016-03-02T01:33:34.940Z</time>
</trkpt>
<trkpt lat="-27.0334868" lon="152.7773859">
<ele>193.215</ele>
<time>2016-03-02T01:33:37.770Z</time>
</trkpt>
<trkpt lat="-27.0336889" lon="152.7771461">
<ele>196.910</ele>
<time>2016-03-02T01:33:39.948Z</time>
</trkpt>
<trkpt lat="-27.0339055" lon="152.7770205">
<ele>201.499</ele>
<time>2016-03-02T01:33:41.807Z</time>
</trkpt>
<trkpt lat="-27.0342331" lon="152.7767612">
<ele>206.150</ele>
<time>2016-03-02T01:33:45.113Z</time>
</trkpt>
<trkpt lat="-27.0344731" lon="152.7764910">
<ele>210.700</ele>
<time>2016-03-02T01:33:48.362Z</time>
</trkpt>
<trkpt lat="-27.0346805" lon="152.7764524">
<ele>215.465</ele>
<time>2016-03-02T01:33:50.397Z</time>
</trkpt>
<trkpt lat="-27.0349298" lon="152.7766925">
<ele>220.312</ele>
<time>2016-03-02T01:33:53.470Z</time>
</trkpt>
<trkpt lat="-27.0351748" lon="152.7769498">
<ele>225.227</ele>
<time>2016-03-02T01:33:56.416Z</time>
</trkpt>
<trkpt lat="-27.0355848" lon="152.7770179">
<ele>230.083</ele>
<time>2016-03-02T01:33:59.855Z</time>
</trkpt>
<trkpt lat="-27.0357926" lon="152.7771501">
<ele>234.421</ele>
<time>2016-03-02T01:34:01.725Z</time>
</trkpt>
<trkpt lat="-27.0360177" lon="152.7772958">
<ele>238.348</ele>
<time>2016-03-02T01:34:03.819Z</time>
</trkpt>
<trkpt lat="-27.0362631" lon="152.7773794">
<ele>242.192</ele>
<time>2016-03-02T01:34:06.001Z</time>
</trkpt>
<trkpt lat="-27.0364902" lon="152.7773646">
<ele>245.685</ele>
<time>2016-03-02T01:34:07.957Z</time>
</trkpt>
<trkpt lat="-27.0368339" lon="152.7772878">
<ele>248.493</ele>
<time>2016-03-02T01:34:10.962Z</time>
</trkpt>
<trkpt lat="-27.0371698" lon="152.7773960">
<ele>250.838</ele>
<time>2016-03-02T01:34:13.785Z</time>
</trkpt>
<trkpt lat="-27.0374196" lon="152.7774747">
<ele>253.375</ele>
<time>2016-03-02T01:34:15.813Z</time>
</trkpt>
<trkpt lat="-27.0376931" lon="152.7773383">
<ele>256.240</ele>
<time>2016-03-02T01:34:18.262Z</time>
</trkpt>
<trkpt lat="-27.0379355" lon="152.7772583">
<ele>259.366</ele>
<time>2016-03-02T01:34:20.377Z</time>
</trkpt>
<trkpt lat="-27.0382732" lon="152.7773037">
<ele>262.762</ele>
<time>2016-03-02T01:34:23.192Z</time>
</trkpt>
<trkpt lat="-27.0386362" lon="152.7771913">
<ele>266.417</ele>
<time>2016-03-02T01:34:26.211Z</time>
</trkpt>
<trkpt lat="-27.0389739" lon="152.7769734">
<ele>270.109</ele>
<time>2016-03-02T01:34:29.426Z</time>
</trkpt>
<trkpt lat="-27.0392096" lon="152.7769038">
<ele>273.881</ele>
<time>2016-03-02T01:34:31.428Z</time>
</trkpt>
<trkpt lat="-27.0395629" lon="152.7771177">
<ele>277.658</ele>
<time>2016-03-02T01:34:34.617Z</time>
</trkpt>
<trkpt lat="-27.0398040" lon="152.7772098">
<ele>281.307</ele>
<time>2016-03-02T01:34:36.508Z</time>
</trkpt>
<trkpt lat="-27.0401860" lon="152.7772431">
<ele>284.896</ele>
<time>2016-03-02T01:34:39.122Z</time>
</trkpt>
<trkpt lat="-27.0406223" lon="152.7773431">
<ele>288.486</ele>
<time>2016-03-02T01:34:41.837Z</time>
</trkpt>
<trkpt lat="-27.0411203" lon="152.7774581">
<ele>292.162</ele>
<time>2016-03-02T01:34:44.755Z</time>
</trkpt>
<trkpt lat="-27.0414736" lon="152.7774966">
<ele>296.810</ele>
<time>2016-03-02T01:34:46.830Z</time>
</trkpt>
<trkpt lat="-27.0418053" lon="152.7774809">
<ele>302.775</ele>
<time>2016-03-02T01:34:48.796Z</time>
</trkpt>
<trkpt lat="-27.0421537" lon="152.7774881">
<ele>308.610</ele>
<time>2016-03-02T01:34:50.859Z</time>
</trkpt>
<trkpt lat="-27.0424971" lon="152.7774448">
<ele>312.954</ele>
<time>2016-03-02T01:34:52.890Z</time>
</trkpt>
<trkpt lat="-27.0430052" lon="152.7774876">
<ele>316.377</ele>
<time>2016-03-02T01:34:55.862Z</time>
</trkpt>
<trkpt lat="-27.0433566" lon="152.7774970">
<ele>320.027</ele>
<time>2016-03-02T01:34:57.863Z</time>
</trkpt>
<trkpt lat="-27.0437036" lon="152.7774582">
<ele>324.288</ele>
<time>2016-03-02T01:34:59.829Z</time>
</trkpt>
<trkpt lat="-27.0442255" lon="152.7772498">
<ele>329.088</ele>
<time>2016-03-02T01:35:02.977Z</time>
</trkpt>
<trkpt lat="-27.0445602" lon="152.7770946">
<ele>334.764</ele>
<time>2016-03-02T01:35:05.374Z</time>
</trkpt>
<trkpt lat="-27.0448352" lon="152.7769083">
<ele>340.732</ele>
<time>2016-03-02T01:35:07.882Z</time>
</trkpt>
<trkpt lat="-27.0450909" lon="152.7768080">
<ele>345.186</ele>
<time>2016-03-02T01:35:10.252Z</time>
</trkpt>
<trkpt lat="-27.0453939" lon="152.7766611">
<ele>347.624</ele>
<time>2016-03-02T01:35:13.121Z</time>
</trkpt>
<trkpt lat="-27.0455634" lon="152.7764991">
<ele>348.887</ele>
<time>2016-03-02T01:35:14.980Z</time>
</trkpt>
<trkpt lat="-27.0456556" lon="152.7761255">
<ele>349.851</ele>
<time>2016-03-02T01:35:17.957Z</time>
</trkpt>
<trkpt lat="-27.0457607" lon="152.7758759">
<ele>351.787</ele>
<time>2016-03-02T01:35:20.158Z</time>
</trkpt>
<trkpt lat="-27.0459309" lon="152.7757239">
<ele>355.111</ele>
<time>2016-03-02T01:35:22.211Z</time>
</trkpt>
<trkpt lat="-27.0462104" lon="152.7755207">
<ele>358.624</ele>
<time>2016-03-02T01:35:25.358Z</time>
</trkpt>
<trkpt lat="-27.0463726" lon="152.7752467">
<ele>361.667</ele>
<time>2016-03-02T01:35:27.739Z</time>
</trkpt>
<trkpt lat="-27.0463835" lon="152.7749349">
<ele>364.883</ele>
<time>2016-03-02T01:35:29.842Z</time>
</trkpt>
<trkpt lat="-27.0463227" lon="152.7745686">
<ele>368.622</ele>
<time>2016-03-02T01:35:32.368Z</time>
</trkpt>
<trkpt lat="-27.0463396" lon="152.7742663">
<ele>372.425</ele>
<time>2016-03-02T01:35:34.377Z</time>
</trkpt>
<trkpt lat="-27.0462932" lon="152.7740057">
<ele>375.681</ele>
<time>2016-03-02T01:35:36.027Z</time>
</trkpt>
<trkpt lat="-27.0462108" lon="152.7735512">
<ele>378.319</ele>
<time>2016-03-02T01:35:38.754Z</time>
</trkpt>
<trkpt lat="-27.0462498" lon="152.7732109">
<ele>381.328</ele>
<time>2016-03-02T01:35:40.636Z</time>
</trkpt>
<trkpt lat="-27.0464311" lon="152.7727277">
<ele>384.947</ele>
<time>2016-03-02T01:35:43.327Z</time>
</trkpt>
<trkpt lat="-27.0467973" lon="152.7723282">
<ele>388.644</ele>
<time>2016-03-02T01:35:46.035Z</time>
</trkpt>
<trkpt lat="-27.0473226" lon="152.7720277">
<ele>392.401</ele>
<time>2016-03-02T01:35:49.012Z</time>
</trkpt>
<trkpt lat="-27.0478677" lon="152.7717476">
<ele>396.969</ele>
<time>2016-03-02T01:35:52.008Z</time>
</trkpt>
<trkpt lat="-27.0484126" lon="152.7714511">
<ele>402.561</ele>
<time>2016-03-02T01:35:55.090Z</time>
</trkpt>
<trkpt lat="-27.0489496" lon="152.7711665">
<ele>408.316</ele>
<time>2016-03-02T01:35:58.289Z</time>
</trkpt>
<trkpt lat="-27.0492833" lon="152.7710084">
<ele>412.871</ele>
<time>2016-03-02T01:36:00.263Z</time>
</trkpt>
<trkpt lat="-27.0496237" lon="152.7708947">
<ele>415.624</ele>
<time>2016-03-02T01:36:02.188Z</time>
</trkpt>
<trkpt lat="-27.0501751" lon="152.7708501">
<ele>416.993</ele>
<time>2016-03-02T01:36:05.117Z</time>
</trkpt>
<trkpt lat="-27.0505430" lon="152.7708985">
<ele>418.022</ele>
<time>2016-03-02T01:36:06.955Z</time>
</trkpt>
<trkpt lat="-27.0509259" lon="152.7710540">
<ele>419.026</ele>
<time>2016-03-02T01:36:08.928Z</time>
</trkpt>
<trkpt lat="-27.0514531" lon="152.7713912">
<ele>419.686</ele>
<time>2016-03-02T01:36:11.794Z</time>
</trkpt>
<trkpt lat="-27.0519520" lon="152.7718361">
<ele>419.664</ele>
<time>2016-03-02T01:36:14.784Z</time>
</trkpt>
<trkpt lat="-27.0524194" lon="152.7722891">
<ele>418.829</ele>
<time>2016-03-02T01:36:17.610Z</time>
</trkpt>
<trkpt lat="-27.0529104" lon="152.7727876">
<ele>417.432</ele>
<time>2016-03-02T01:36:20.534Z</time>
</trkpt>
<trkpt lat="-27.0534443" lon="152.7732617">
<ele>415.861</ele>
<time>2016-03-02T01:36:23.356Z</time>
</trkpt>
<trkpt lat="-27.0538447" lon="152.7735416">
<ele>414.449</ele>
<time>2016-03-02T01:36:25.188Z</time>
</trkpt>
<trkpt lat="-27.0546523" lon="152.7737787">
<ele>413.523</ele>
<time>2016-03-02T01:36:28.064Z</time>
</trkpt>
<trkpt lat="-27.0555535" lon="152.7740340">
<ele>414.217</ele>
<time>2016-03-02T01:36:31.151Z</time>
</trkpt>
<trkpt lat="-27.0561477" lon="152.7742130">
<ele>417.749</ele>
<time>2016-03-02T01:36:33.287Z</time>
</trkpt>
<trkpt lat="-27.0567015" lon="152.7743672">
<ele>422.787</ele>
<time>2016-03-02T01:36:35.331Z</time>
</trkpt>
<trkpt lat="-27.0575078" lon="152.7745925">
<ele>426.105</ele>
<time>2016-03-02T01:36:38.593Z</time>
</trkpt>
<trkpt lat="-27.0581846" lon="152.7747960">
<ele>426.453</ele>
<time>2016-03-02T01:36:41.632Z</time>
</trkpt>
<trkpt lat="-27.0585808" lon="152.7749939">
<ele>424.416</ele>
<time>2016-03-02T01:36:43.523Z</time>
</trkpt>
<trkpt lat="-27.0591463" lon="152.7754598">
<ele>421.217</ele>
<time>2016-03-02T01:36:46.498Z</time>
</trkpt>
<trkpt lat="-27.0594715" lon="152.7758310">
<ele>418.860</ele>
<time>2016-03-02T01:36:48.415Z</time>
</trkpt>
<trkpt lat="-27.0599312" lon="152.7764956">
<ele>419.102</ele>
<time>2016-03-02T01:36:51.447Z</time>
</trkpt>
<trkpt lat="-27.0602423" lon="152.7769183">
<ele>421.756</ele>
<time>2016-03-02T01:36:53.437Z</time>
</trkpt>
<trkpt lat="-27.0605404" lon="152.7773270">
<ele>425.241</ele>
<time>2016-03-02T01:36:55.353Z</time>
</trkpt>
<trkpt lat="-27.0610129" lon="152.7779476">
<ele>428.040</ele>
<time>2016-03-02T01:36:58.300Z</time>
</trkpt>
<trkpt lat="-27.0615453" lon="152.7785550">
<ele>429.786</ele>
<time>2016-03-02T01:37:01.508Z</time>
</trkpt>
<trkpt lat="-27.0619123" lon="152.7789074">
<ele>430.907</ele>
<time>2016-03-02T01:37:03.645Z</time>
</trkpt>
<trkpt lat="-27.0624304" lon="152.7793857">
<ele>431.823</ele>
<time>2016-03-02T01:37:06.684Z</time>
</trkpt>
<trkpt lat="-27.0627695" lon="152.7796973">
<ele>433.086</ele>
<time>2016-03-02T01:37:08.729Z</time>
</trkpt>
<trkpt lat="-27.0632650" lon="152.7801522">
<ele>435.413</ele>
<time>2016-03-02T01:37:11.844Z</time>
</trkpt>
<trkpt lat="-27.0635976" lon="152.7804043">
<ele>438.750</ele>
<time>2016-03-02T01:37:13.804Z</time>
</trkpt>
<trkpt lat="-27.0641480" lon="152.7806944">
<ele>441.995</ele>
<time>2016-03-02T01:37:16.748Z</time>
</trkpt>
<trkpt lat="-27.0647440" lon="152.7808325">
<ele>444.494</ele>
<time>2016-03-02T01:37:19.669Z</time>
</trkpt>
<trkpt lat="-27.0651640" lon="152.7808649">
<ele>447.356</ele>
<time>2016-03-02T01:37:21.683Z</time>
</trkpt>
<trkpt lat="-27.0655878" lon="152.7808724">
<ele>451.325</ele>
<time>2016-03-02T01:37:23.687Z</time>
</trkpt>
<trkpt lat="-27.0662232" lon="152.7808909">
<ele>455.249</ele>
<time>2016-03-02T01:37:26.637Z</time>
</trkpt>
<trkpt lat="-27.0668654" lon="152.7809701">
<ele>458.730</ele>
<time>2016-03-02T01:37:29.612Z</time>
</trkpt>
<trkpt lat="-27.0674994" lon="152.7810681">
<ele>462.697</ele>
<time>2016-03-02T01:37:32.555Z</time>
</trkpt>
<trkpt lat="-27.0679246" lon="152.7811266">
<ele>466.805</ele>
<time>2016-03-02T01:37:34.534Z</time>
</trkpt>
<trkpt lat="-27.0685686" lon="152.7812425">
<ele>470.212</ele>
<time>2016-03-02T01:37:37.586Z</time>
</trkpt>
<trkpt lat="-27.0691560" lon="152.7814127">
<ele>472.821</ele>
<time>2016-03-02T01:37:40.446Z</time>
</trkpt>
<trkpt lat="-27.0697775" lon="152.7815650">
<ele>474.073</ele>
<time>2016-03-02T01:37:43.393Z</time>
</trkpt>
<trkpt lat="-27.0702040" lon="152.7816414">
<ele>473.091</ele>
<time>2016-03-02T01:37:45.361Z</time>
</trkpt>
<trkpt lat="-27.0706568" lon="152.7816877">
<ele>470.636</ele>
<time>2016-03-02T01:37:47.449Z</time>
</trkpt>
<trkpt lat="-27.0710963" lon="152.7816492">
<ele>468.358</ele>
<time>2016-03-02T01:37:49.495Z</time>
</trkpt>
<trkpt lat="-27.0715235" lon="152.7816360">
<ele>467.092</ele>
<time>2016-03-02T01:37:51.492Z</time>
</trkpt>
<trkpt lat="-27.0721595" lon="152.7817514">
<ele>466.598</ele>
<time>2016-03-02T01:37:54.554Z</time>
</trkpt>
<trkpt lat="-27.0727580" lon="152.7819448">
<ele>465.771</ele>
<time>2016-03-02T01:37:57.560Z</time>
</trkpt>
<trkpt lat="-27.0733716" lon="152.7819891">
<ele>463.191</ele>
<time>2016-03-02T01:38:00.437Z</time>
</trkpt>
<trkpt lat="-27.0737876" lon="152.7819253">
<ele>458.523</ele>
<time>2016-03-02T01:38:02.356Z</time>
</trkpt>
<trkpt lat="-27.0744574" lon="152.7818336">
<ele>453.395</ele>
<time>2016-03-02T01:38:05.421Z</time>
</trkpt>
<trkpt lat="-27.0748906" lon="152.7818609">
<ele>450.104</ele>
<time>2016-03-02T01:38:07.465Z</time>
</trkpt>
<trkpt lat="-27.0753175" lon="152.7819155">
<ele>449.296</ele>
<time>2016-03-02T01:38:09.523Z</time>
</trkpt>
<trkpt lat="-27.0757273" lon="152.7819802">
<ele>449.792</ele>
<time>2016-03-02T01:38:11.501Z</time>
</trkpt>
<trkpt lat="-27.0763460" lon="152.7819565">
<ele>450.192</ele>
<time>2016-03-02T01:38:14.407Z</time>
</trkpt>
<trkpt lat="-27.0767676" lon="152.7818575">
<ele>449.896</ele>
<time>2016-03-02T01:38:16.418Z</time>
</trkpt>
<trkpt lat="-27.0771641" lon="152.7816781">
<ele>449.461</ele>
<time>2016-03-02T01:38:18.402Z</time>
</trkpt>
<trkpt lat="-27.0777086" lon="152.7812927">
<ele>449.511</ele>
<time>2016-03-02T01:38:21.393Z</time>
</trkpt>
<trkpt lat="-27.0781751" lon="152.7807809">
<ele>450.266</ele>
<time>2016-03-02T01:38:24.616Z</time>
</trkpt>
<trkpt lat="-27.0784314" lon="152.7804321">
<ele>452.247</ele>
<time>2016-03-02T01:38:26.740Z</time>
</trkpt>
<trkpt lat="-27.0787881" lon="152.7799442">
<ele>455.207</ele>
<time>2016-03-02T01:38:29.956Z</time>
</trkpt>
<trkpt lat="-27.0789604" lon="152.7796142">
<ele>457.931</ele>
<time>2016-03-02T01:38:31.951Z</time>
</trkpt>
<trkpt lat="-27.0790664" lon="152.7792407">
<ele>459.748</ele>
<time>2016-03-02T01:38:34.014Z</time>
</trkpt>
<trkpt lat="-27.0791635" lon="152.7786743">
<ele>460.994</ele>
<time>2016-03-02T01:38:37.089Z</time>
</trkpt>
<trkpt lat="-27.0792062" lon="152.7781147">
<ele>462.610</ele>
<time>2016-03-02T01:38:40.069Z</time>
</trkpt>
<trkpt lat="-27.0792244" lon="152.7775639">
<ele>465.227</ele>
<time>2016-03-02T01:38:42.921Z</time>
</trkpt>
<trkpt lat="-27.0791918" lon="152.7769884">
<ele>468.022</ele>
<time>2016-03-02T01:38:45.870Z</time>
</trkpt>
<trkpt lat="-27.0790704" lon="152.7764318">
<ele>469.682</ele>
<time>2016-03-02T01:38:48.796Z</time>
</trkpt>
<trkpt lat="-27.0790073" lon="152.7760419">
<ele>469.965</ele>
<time>2016-03-02T01:38:50.829Z</time>
</trkpt>
<trkpt lat="-27.0789467" lon="152.7754743">
<ele>469.748</ele>
<time>2016-03-02T01:38:53.803Z</time>
</trkpt>
<trkpt lat="-27.0790186" lon="152.7748956">
<ele>469.756</ele>
<time>2016-03-02T01:38:56.945Z</time>
</trkpt>
<trkpt lat="-27.0791392" lon="152.7745521">
<ele>469.836</ele>
<time>2016-03-02T01:38:58.986Z</time>
</trkpt>
<trkpt lat="-27.0793422" lon="152.7740719">
<ele>469.658</ele>
<time>2016-03-02T01:39:01.992Z</time>
</trkpt>
<trkpt lat="-27.0794934" lon="152.7737765">
<ele>469.325</ele>
<time>2016-03-02T01:39:03.916Z</time>
</trkpt>
<trkpt lat="-27.0797800" lon="152.7733461">
<ele>469.009</ele>
<time>2016-03-02T01:39:06.896Z</time>
</trkpt>
<trkpt lat="-27.0800323" lon="152.7731127">
<ele>468.680</ele>
<time>2016-03-02T01:39:09.007Z</time>
</trkpt>
<trkpt lat="-27.0803037" lon="152.7728535">
<ele>467.989</ele>
<time>2016-03-02T01:39:11.380Z</time>
</trkpt>
<trkpt lat="-27.0805325" lon="152.7726196">
<ele>466.564</ele>
<time>2016-03-02T01:39:13.447Z</time>
</trkpt>
<trkpt lat="-27.0807310" lon="152.7721965">
<ele>464.838</ele>
<time>2016-03-02T01:39:16.266Z</time>
</trkpt>
<trkpt lat="-27.0808029" lon="152.7718715">
<ele>463.675</ele>
<time>2016-03-02T01:39:18.235Z</time>
</trkpt>
<trkpt lat="-27.0808429" lon="152.7715383">
<ele>463.321</ele>
<time>2016-03-02T01:39:20.213Z</time>
</trkpt>
<trkpt lat="-27.0808220" lon="152.7711948">
<ele>463.486</ele>
<time>2016-03-02T01:39:22.259Z</time>
</trkpt>
<trkpt lat="-27.0806896" lon="152.7707170">
<ele>463.902</ele>
<time>2016-03-02T01:39:25.307Z</time>
</trkpt>
<trkpt lat="-27.0806018" lon="152.7703946">
<ele>464.845</ele>
<time>2016-03-02T01:39:27.322Z</time>
</trkpt>
<trkpt lat="-27.0807068" lon="152.7699443">
<ele>466.912</ele>
<time>2016-03-02T01:39:29.988Z</time>
</trkpt>
<trkpt lat="-27.0808670" lon="152.7694383">
<ele>469.848</ele>
<time>2016-03-02T01:39:32.868Z</time>
</trkpt>
<trkpt lat="-27.0809039" lon="152.7688903">
<ele>472.457</ele>
<time>2016-03-02T01:39:35.646Z</time>
</trkpt>
<trkpt lat="-27.0809313" lon="152.7683139">
<ele>474.121</ele>
<time>2016-03-02T01:39:38.335Z</time>
</trkpt>
<trkpt lat="-27.0809642" lon="152.7676637">
<ele>475.553</ele>
<time>2016-03-02T01:39:41.038Z</time>
</trkpt>
<trkpt lat="-27.0810123" lon="152.7668825">
<ele>478.404</ele>
<time>2016-03-02T01:39:44.058Z</time>
</trkpt>
<trkpt lat="-27.0810413" lon="152.7661125">
<ele>482.730</ele>
<time>2016-03-02T01:39:47.052Z</time>
</trkpt>
<trkpt lat="-27.0810691" lon="152.7655980">
<ele>486.097</ele>
<time>2016-03-02T01:39:49.106Z</time>
</trkpt>
<trkpt lat="-27.0812029" lon="152.7648755">
<ele>486.951</ele>
<time>2016-03-02T01:39:52.175Z</time>
</trkpt>
<trkpt lat="-27.0813820" lon="152.7644379">
<ele>486.379</ele>
<time>2016-03-02T01:39:54.227Z</time>
</trkpt>
<trkpt lat="-27.0817608" lon="152.7638976">
<ele>485.847</ele>
<time>2016-03-02T01:39:57.303Z</time>
</trkpt>
<trkpt lat="-27.0820165" lon="152.7635485">
<ele>485.841</ele>
<time>2016-03-02T01:39:59.404Z</time>
</trkpt>
<trkpt lat="-27.0823427" lon="152.7630123">
<ele>485.828</ele>
<time>2016-03-02T01:40:02.573Z</time>
</trkpt>
<trkpt lat="-27.0824554" lon="152.7626326">
<ele>484.399</ele>
<time>2016-03-02T01:40:04.498Z</time>
</trkpt>
<trkpt lat="-27.0824585" lon="152.7622531">
<ele>481.071</ele>
<time>2016-03-02T01:40:06.327Z</time>
</trkpt>
<trkpt lat="-27.0824031" lon="152.7618209">
<ele>477.555</ele>
<time>2016-03-02T01:40:08.471Z</time>
</trkpt>
<trkpt lat="-27.0823540" lon="152.7611903">
<ele>475.598</ele>
<time>2016-03-02T01:40:11.788Z</time>
</trkpt>
<trkpt lat="-27.0825131" lon="152.7606595">
<ele>474.846</ele>
<time>2016-03-02T01:40:14.816Z</time>
</trkpt>
<trkpt lat="-27.0829173" lon="152.7603330">
<ele>474.316</ele>
<time>2016-03-02T01:40:17.803Z</time>
</trkpt>
<trkpt lat="-27.0833725" lon="152.7601236">
<ele>473.907</ele>
<time>2016-03-02T01:40:20.515Z</time>
</trkpt>
<trkpt lat="-27.0836612" lon="152.7599075">
<ele>474.023</ele>
<time>2016-03-02T01:40:22.314Z</time>
</trkpt>
<trkpt lat="-27.0840679" lon="152.7594084">
<ele>475.027</ele>
<time>2016-03-02T01:40:25.199Z</time>
</trkpt>
<trkpt lat="-27.0843548" lon="152.7590586">
<ele>477.429</ele>
<time>2016-03-02T01:40:27.216Z</time>
</trkpt>
<trkpt lat="-27.0846400" lon="152.7587092">
<ele>480.702</ele>
<time>2016-03-02T01:40:29.237Z</time>
</trkpt>
<trkpt lat="-27.0850536" lon="152.7581975">
<ele>483.204</ele>
<time>2016-03-02T01:40:32.253Z</time>
</trkpt>
<trkpt lat="-27.0853089" lon="152.7578491">
<ele>484.676</ele>
<time>2016-03-02T01:40:34.221Z</time>
</trkpt>
<trkpt lat="-27.0855176" lon="152.7574619">
<ele>486.340</ele>
<time>2016-03-02T01:40:36.184Z</time>
</trkpt>
<trkpt lat="-27.0857564" lon="152.7568092">
<ele>488.474</ele>
<time>2016-03-02T01:40:39.194Z</time>
</trkpt>
<trkpt lat="-27.0858622" lon="152.7563522">
<ele>490.333</ele>
<time>2016-03-02T01:40:41.180Z</time>
</trkpt>
<trkpt lat="-27.0860294" lon="152.7556503">
<ele>491.420</ele>
<time>2016-03-02T01:40:44.178Z</time>
</trkpt>
<trkpt lat="-27.0861788" lon="152.7552042">
<ele>491.852</ele>
<time>2016-03-02T01:40:46.125Z</time>
</trkpt>
<trkpt lat="-27.0863906" lon="152.7547625">
<ele>492.124</ele>
<time>2016-03-02T01:40:48.170Z</time>
</trkpt>
<trkpt lat="-27.0867217" lon="152.7541280">
<ele>492.701</ele>
<time>2016-03-02T01:40:51.176Z</time>
</trkpt>
<trkpt lat="-27.0869893" lon="152.7534766">
<ele>493.974</ele>
<time>2016-03-02T01:40:54.120Z</time>
</trkpt>
<trkpt lat="-27.0871216" lon="152.7530234">
<ele>496.126</ele>
<time>2016-03-02T01:40:56.078Z</time>
</trkpt>
<trkpt lat="-27.0872952" lon="152.7523424">
<ele>498.864</ele>
<time>2016-03-02T01:40:58.953Z</time>
</trkpt>
<trkpt lat="-27.0874117" lon="152.7518550">
<ele>502.015</ele>
<time>2016-03-02T01:41:00.989Z</time>
</trkpt>
<trkpt lat="-27.0875953" lon="152.7511338">
<ele>505.697</ele>
<time>2016-03-02T01:41:03.983Z</time>
</trkpt>
<trkpt lat="-27.0877122" lon="152.7506522">
<ele>510.110</ele>
<time>2016-03-02T01:41:05.982Z</time>
</trkpt>
<trkpt lat="-27.0878306" lon="152.7501869">
<ele>514.839</ele>
<time>2016-03-02T01:41:07.936Z</time>
</trkpt>
<trkpt lat="-27.0879479" lon="152.7497202">
<ele>518.793</ele>
<time>2016-03-02T01:41:09.900Z</time>
</trkpt>
<trkpt lat="-27.0881253" lon="152.7490163">
<ele>521.710</ele>
<time>2016-03-02T01:41:12.879Z</time>
</trkpt>
<trkpt lat="-27.0882687" lon="152.7485517">
<ele>524.683</ele>
<time>2016-03-02T01:41:14.895Z</time>
</trkpt>
<trkpt lat="-27.0885903" lon="152.7479269">
<ele>527.860</ele>
<time>2016-03-02T01:41:17.896Z</time>
</trkpt>
<trkpt lat="-27.0890217" lon="152.7473941">
<ele>530.455</ele>
<time>2016-03-02T01:41:21.002Z</time>
</trkpt>
<trkpt lat="-27.0893540" lon="152.7471434">
<ele>532.134</ele>
<time>2016-03-02T01:41:22.978Z</time>
</trkpt>
<trkpt lat="-27.0897219" lon="152.7469384">
<ele>532.911</ele>
<time>2016-03-02T01:41:25.048Z</time>
</trkpt>
<trkpt lat="-27.0901026" lon="152.7468065">
<ele>532.620</ele>
<time>2016-03-02T01:41:27.090Z</time>
</trkpt>
<trkpt lat="-27.0906634" lon="152.7467142">
<ele>531.588</ele>
<time>2016-03-02T01:41:29.998Z</time>
</trkpt>
<trkpt lat="-27.0910498" lon="152.7467493">
<ele>530.235</ele>
<time>2016-03-02T01:41:31.939Z</time>
</trkpt>
<trkpt lat="-27.0916453" lon="152.7469466">
<ele>528.626</ele>
<time>2016-03-02T01:41:34.906Z</time>
</trkpt>
<trkpt lat="-27.0920185" lon="152.7471587">
<ele>526.830</ele>
<time>2016-03-02T01:41:36.867Z</time>
</trkpt>
<trkpt lat="-27.0925643" lon="152.7475448">
<ele>525.147</ele>
<time>2016-03-02T01:41:39.863Z</time>
</trkpt>
<trkpt lat="-27.0929006" lon="152.7478538">
<ele>523.515</ele>
<time>2016-03-02T01:41:41.892Z</time>
</trkpt>
<trkpt lat="-27.0932390" lon="152.7481556">
<ele>521.822</ele>
<time>2016-03-02T01:41:43.918Z</time>
</trkpt>
<trkpt lat="-27.0937876" lon="152.7485189">
<ele>520.228</ele>
<time>2016-03-02T01:41:46.923Z</time>
</trkpt>
<trkpt lat="-27.0941785" lon="152.7486945">
<ele>518.460</ele>
<time>2016-03-02T01:41:48.905Z</time>
</trkpt>
<trkpt lat="-27.0945952" lon="152.7487942">
<ele>516.326</ele>
<time>2016-03-02T01:41:50.904Z</time>
</trkpt>
<trkpt lat="-27.0952268" lon="152.7487554">
<ele>514.148</ele>
<time>2016-03-02T01:41:53.795Z</time>
</trkpt>
<trkpt lat="-27.0956607" lon="152.7486639">
<ele>511.771</ele>
<time>2016-03-02T01:41:55.781Z</time>
</trkpt>
<trkpt lat="-27.0960998" lon="152.7485764">
<ele>509.094</ele>
<time>2016-03-02T01:41:57.778Z</time>
</trkpt>
<trkpt lat="-27.0967706" lon="152.7484443">
<ele>506.444</ele>
<time>2016-03-02T01:42:00.838Z</time>
</trkpt>
<trkpt lat="-27.0972014" lon="152.7483581">
<ele>503.825</ele>
<time>2016-03-02T01:42:02.812Z</time>
</trkpt>
<trkpt lat="-27.0978621" lon="152.7482667">
<ele>501.374</ele>
<time>2016-03-02T01:42:05.838Z</time>
</trkpt>
<trkpt lat="-27.0983015" lon="152.7482677">
<ele>499.551</ele>
<time>2016-03-02T01:42:07.840Z</time>
</trkpt>
<trkpt lat="-27.0987308" lon="152.7483247">
<ele>498.585</ele>
<time>2016-03-02T01:42:09.788Z</time>
</trkpt>
<trkpt lat="-27.0991671" lon="152.7484536">
<ele>498.411</ele>
<time>2016-03-02T01:42:11.799Z</time>
</trkpt>
<trkpt lat="-27.0997926" lon="152.7487469">
<ele>499.059</ele>
<time>2016-03-02T01:42:14.797Z</time>
</trkpt>
<trkpt lat="-27.1001845" lon="152.7490107">
<ele>500.504</ele>
<time>2016-03-02T01:42:16.836Z</time>
</trkpt>
<trkpt lat="-27.1005342" lon="152.7493094">
<ele>502.080</ele>
<time>2016-03-02T01:42:18.828Z</time>
</trkpt>
<trkpt lat="-27.1008399" lon="152.7496445">
<ele>502.857</ele>
<time>2016-03-02T01:42:20.829Z</time>
</trkpt>
<trkpt lat="-27.1011113" lon="152.7499999">
<ele>502.620</ele>
<time>2016-03-02T01:42:22.870Z</time>
</trkpt>
<trkpt lat="-27.1013768" lon="152.7503331">
<ele>501.457</ele>
<time>2016-03-02T01:42:24.860Z</time>
</trkpt>
<trkpt lat="-27.1016763" lon="152.7506214">
<ele>499.176</ele>
<time>2016-03-02T01:42:26.830Z</time>
</trkpt>
<trkpt lat="-27.1022069" lon="152.7509462">
<ele>496.343</ele>
<time>2016-03-02T01:42:29.731Z</time>
</trkpt>
<trkpt lat="-27.1026117" lon="152.7510879">
<ele>494.912</ele>
<time>2016-03-02T01:42:31.702Z</time>
</trkpt>
<trkpt lat="-27.1030331" lon="152.7512110">
<ele>496.031</ele>
<time>2016-03-02T01:42:33.730Z</time>
</trkpt>
<trkpt lat="-27.1034402" lon="152.7513265">
<ele>498.925</ele>
<time>2016-03-02T01:42:35.707Z</time>
</trkpt>
<trkpt lat="-27.1040520" lon="152.7514482">
<ele>501.981</ele>
<time>2016-03-02T01:42:38.587Z</time>
</trkpt>
<trkpt lat="-27.1045132" lon="152.7514494">
<ele>504.184</ele>
<time>2016-03-02T01:42:40.636Z</time>
</trkpt>
<trkpt lat="-27.1049720" lon="152.7513903">
<ele>505.690</ele>
<time>2016-03-02T01:42:42.637Z</time>
</trkpt>
<trkpt lat="-27.1054384" lon="152.7512981">
<ele>507.073</ele>
<time>2016-03-02T01:42:44.671Z</time>
</trkpt>
<trkpt lat="-27.1061262" lon="152.7511510">
<ele>508.613</ele>
<time>2016-03-02T01:42:47.677Z</time>
</trkpt>
<trkpt lat="-27.1068146" lon="152.7510038">
<ele>510.309</ele>
<time>2016-03-02T01:42:50.676Z</time>
</trkpt>
<trkpt lat="-27.1075074" lon="152.7508521">
<ele>511.846</ele>
<time>2016-03-02T01:42:53.719Z</time>
</trkpt>
<trkpt lat="-27.1079544" lon="152.7507313">
<ele>513.004</ele>
<time>2016-03-02T01:42:55.750Z</time>
</trkpt>
<trkpt lat="-27.1086298" lon="152.7505874">
<ele>513.835</ele>
<time>2016-03-02T01:42:58.955Z</time>
</trkpt>
<trkpt lat="-27.1092441" lon="152.7504788">
<ele>514.350</ele>
<time>2016-03-02T01:43:01.961Z</time>
</trkpt>
<trkpt lat="-27.1096578" lon="152.7504401">
<ele>514.220</ele>
<time>2016-03-02T01:43:03.902Z</time>
</trkpt>
<trkpt lat="-27.1100861" lon="152.7504584">
<ele>513.304</ele>
<time>2016-03-02T01:43:05.839Z</time>
</trkpt>
<trkpt lat="-27.1105255" lon="152.7505084">
<ele>512.479</ele>
<time>2016-03-02T01:43:07.805Z</time>
</trkpt>
<trkpt lat="-27.1109569" lon="152.7506077">
<ele>512.541</ele>
<time>2016-03-02T01:43:09.760Z</time>
</trkpt>
<trkpt lat="-27.1116084" lon="152.7508201">
<ele>513.144</ele>
<time>2016-03-02T01:43:12.765Z</time>
</trkpt>
<trkpt lat="-27.1120408" lon="152.7510013">
<ele>513.652</ele>
<time>2016-03-02T01:43:14.858Z</time>
</trkpt>
<trkpt lat="-27.1124404" lon="152.7512007">
<ele>513.810</ele>
<time>2016-03-02T01:43:16.894Z</time>
</trkpt>
<trkpt lat="-27.1130127" lon="152.7514379">
<ele>513.627</ele>
<time>2016-03-02T01:43:19.869Z</time>
</trkpt>
<trkpt lat="-27.1133804" lon="152.7516139">
<ele>513.278</ele>
<time>2016-03-02T01:43:21.821Z</time>
</trkpt>
<trkpt lat="-27.1139543" lon="152.7518891">
<ele>513.021</ele>
<time>2016-03-02T01:43:24.801Z</time>
</trkpt>
<trkpt lat="-27.1143443" lon="152.7520780">
<ele>513.284</ele>
<time>2016-03-02T01:43:26.830Z</time>
</trkpt>
<trkpt lat="-27.1147313" lon="152.7522664">
<ele>514.181</ele>
<time>2016-03-02T01:43:28.872Z</time>
</trkpt>
<trkpt lat="-27.1152641" lon="152.7525967">
<ele>515.030</ele>
<time>2016-03-02T01:43:31.884Z</time>
</trkpt>
<trkpt lat="-27.1157120" lon="152.7530572">
<ele>515.174</ele>
<time>2016-03-02T01:43:34.926Z</time>
</trkpt>
<trkpt lat="-27.1160778" lon="152.7535504">
<ele>514.795</ele>
<time>2016-03-02T01:43:37.807Z</time>
</trkpt>
<trkpt lat="-27.1163543" lon="152.7538805">
<ele>514.381</ele>
<time>2016-03-02T01:43:39.824Z</time>
</trkpt>
<trkpt lat="-27.1168477" lon="152.7542946">
<ele>514.170</ele>
<time>2016-03-02T01:43:42.855Z</time>
</trkpt>
<trkpt lat="-27.1174295" lon="152.7545104">
<ele>513.804</ele>
<time>2016-03-02T01:43:45.858Z</time>
</trkpt>
<trkpt lat="-27.1180043" lon="152.7547257">
<ele>512.930</ele>
<time>2016-03-02T01:43:48.854Z</time>
</trkpt>
<trkpt lat="-27.1185689" lon="152.7549304">
<ele>511.510</ele>
<time>2016-03-02T01:43:51.815Z</time>
</trkpt>
<trkpt lat="-27.1189303" lon="152.7551046">
<ele>509.581</ele>
<time>2016-03-02T01:43:53.784Z</time>
</trkpt>
<trkpt lat="-27.1192991" lon="152.7553321">
<ele>507.447</ele>
<time>2016-03-02T01:43:55.863Z</time>
</trkpt>
<trkpt lat="-27.1198140" lon="152.7556549">
<ele>505.739</ele>
<time>2016-03-02T01:43:58.784Z</time>
</trkpt>
<trkpt lat="-27.1203207" lon="152.7559918">
<ele>504.611</ele>
<time>2016-03-02T01:44:01.718Z</time>
</trkpt>
<trkpt lat="-27.1206719" lon="152.7562111">
<ele>503.172</ele>
<time>2016-03-02T01:44:03.698Z</time>
</trkpt>
<trkpt lat="-27.1211958" lon="152.7565525">
<ele>500.599</ele>
<time>2016-03-02T01:44:06.633Z</time>
</trkpt>
<trkpt lat="-27.1217420" lon="152.7569147">
<ele>497.453</ele>
<time>2016-03-02T01:44:09.745Z</time>
</trkpt>
<trkpt lat="-27.1221859" lon="152.7573495">
<ele>494.931</ele>
<time>2016-03-02T01:44:12.723Z</time>
</trkpt>
<trkpt lat="-27.1224407" lon="152.7576725">
<ele>493.947</ele>
<time>2016-03-02T01:44:14.664Z</time>
</trkpt>
<trkpt lat="-27.1226574" lon="152.7580590">
<ele>494.674</ele>
<time>2016-03-02T01:44:16.706Z</time>
</trkpt>
<trkpt lat="-27.1228508" lon="152.7586935">
<ele>496.157</ele>
<time>2016-03-02T01:44:19.761Z</time>
</trkpt>
<trkpt lat="-27.1229966" lon="152.7590977">
<ele>497.358</ele>
<time>2016-03-02T01:44:21.787Z</time>
</trkpt>
<trkpt lat="-27.1231557" lon="152.7594863">
<ele>498.052</ele>
<time>2016-03-02T01:44:23.768Z</time>
</trkpt>
<trkpt lat="-27.1233053" lon="152.7598896">
<ele>498.416</ele>
<time>2016-03-02T01:44:25.783Z</time>
</trkpt>
<trkpt lat="-27.1235370" lon="152.7604925">
<ele>498.420</ele>
<time>2016-03-02T01:44:28.837Z</time>
</trkpt>
<trkpt lat="-27.1236953" lon="152.7610997">
<ele>498.061</ele>
<time>2016-03-02T01:44:31.724Z</time>
</trkpt>
<trkpt lat="-27.1237919" lon="152.7617764">
<ele>497.634</ele>
<time>2016-03-02T01:44:34.772Z</time>
</trkpt>
<trkpt lat="-27.1238578" lon="152.7622248">
<ele>497.385</ele>
<time>2016-03-02T01:44:36.808Z</time>
</trkpt>
<trkpt lat="-27.1239457" lon="152.7628714">
<ele>496.958</ele>
<time>2016-03-02T01:44:39.703Z</time>
</trkpt>
<trkpt lat="-27.1240014" lon="152.7633410">
<ele>495.795</ele>
<time>2016-03-02T01:44:41.769Z</time>
</trkpt>
<trkpt lat="-27.1241384" lon="152.7639983">
<ele>494.186</ele>
<time>2016-03-02T01:44:44.756Z</time>
</trkpt>
<trkpt lat="-27.1243438" lon="152.7646177">
<ele>493.050</ele>
<time>2016-03-02T01:44:47.833Z</time>
</trkpt>
<trkpt lat="-27.1245041" lon="152.7649749">
<ele>492.705</ele>
<time>2016-03-02T01:44:49.813Z</time>
</trkpt>
<trkpt lat="-27.1246678" lon="152.7653144">
<ele>492.841</ele>
<time>2016-03-02T01:44:51.800Z</time>
</trkpt>
<trkpt lat="-27.1249096" lon="152.7656273">
<ele>493.105</ele>
<time>2016-03-02T01:44:53.972Z</time>
</trkpt>
<trkpt lat="-27.1251623" lon="152.7658639">
<ele>493.161</ele>
<time>2016-03-02T01:44:55.914Z</time>
</trkpt>
<trkpt lat="-27.1256941" lon="152.7660169">
<ele>492.759</ele>
<time>2016-03-02T01:44:58.988Z</time>
</trkpt>
<trkpt lat="-27.1260615" lon="152.7661719">
<ele>491.948</ele>
<time>2016-03-02T01:45:01.100Z</time>
</trkpt>
<trkpt lat="-27.1265561" lon="152.7664878">
<ele>490.796</ele>
<time>2016-03-02T01:45:04.092Z</time>
</trkpt>
<trkpt lat="-27.1268709" lon="152.7667231">
<ele>489.362</ele>
<time>2016-03-02T01:45:06.094Z</time>
</trkpt>
<trkpt lat="-27.1272786" lon="152.7671445">
<ele>487.733</ele>
<time>2016-03-02T01:45:09.046Z</time>
</trkpt>
<trkpt lat="-27.1274889" lon="152.7674900">
<ele>485.419</ele>
<time>2016-03-02T01:45:11.027Z</time>
</trkpt>
<trkpt lat="-27.1275490" lon="152.7679345">
<ele>482.064</ele>
<time>2016-03-02T01:45:13.161Z</time>
</trkpt>
<trkpt lat="-27.1275495" lon="152.7683366">
<ele>478.492</ele>
<time>2016-03-02T01:45:15.071Z</time>
</trkpt>
<trkpt lat="-27.1272948" lon="152.7689307">
<ele>475.467</ele>
<time>2016-03-02T01:45:18.250Z</time>
</trkpt>
<trkpt lat="-27.1267780" lon="152.7692057">
<ele>472.502</ele>
<time>2016-03-02T01:45:21.396Z</time>
</trkpt>
<trkpt lat="-27.1262004" lon="152.7692805">
<ele>469.316</ele>
<time>2016-03-02T01:45:24.667Z</time>
</trkpt>
<trkpt lat="-27.1258627" lon="152.7693562">
<ele>466.669</ele>
<time>2016-03-02T01:45:26.659Z</time>
</trkpt>
<trkpt lat="-27.1253651" lon="152.7695234">
<ele>465.040</ele>
<time>2016-03-02T01:45:29.692Z</time>
</trkpt>
<trkpt lat="-27.1251561" lon="152.7698423">
<ele>464.172</ele>
<time>2016-03-02T01:45:31.692Z</time>
</trkpt>
<trkpt lat="-27.1250241" lon="152.7702464">
<ele>464.078</ele>
<time>2016-03-02T01:45:33.896Z</time>
</trkpt>
<trkpt lat="-27.1248970" lon="152.7708487">
<ele>465.152</ele>
<time>2016-03-02T01:45:37.138Z</time>
</trkpt>
<trkpt lat="-27.1247185" lon="152.7713730">
<ele>467.065</ele>
<time>2016-03-02T01:45:39.951Z</time>
</trkpt>
<trkpt lat="-27.1243008" lon="152.7717460">
<ele>468.852</ele>
<time>2016-03-02T01:45:42.700Z</time>
</trkpt>
<trkpt lat="-27.1237486" lon="152.7720341">
<ele>470.497</ele>
<time>2016-03-02T01:45:45.591Z</time>
</trkpt>
<trkpt lat="-27.1234026" lon="152.7722831">
<ele>472.292</ele>
<time>2016-03-02T01:45:47.463Z</time>
</trkpt>
<trkpt lat="-27.1229307" lon="152.7728083">
<ele>473.598</ele>
<time>2016-03-02T01:45:50.314Z</time>
</trkpt>
<trkpt lat="-27.1226379" lon="152.7732301">
<ele>473.992</ele>
<time>2016-03-02T01:45:52.328Z</time>
</trkpt>
<trkpt lat="-27.1221744" lon="152.7738336">
<ele>474.233</ele>
<time>2016-03-02T01:45:55.388Z</time>
</trkpt>
<trkpt lat="-27.1218413" lon="152.7742010">
<ele>474.967</ele>
<time>2016-03-02T01:45:57.494Z</time>
</trkpt>
<trkpt lat="-27.1213585" lon="152.7746662">
<ele>475.811</ele>
<time>2016-03-02T01:46:00.667Z</time>
</trkpt>
<trkpt lat="-27.1210630" lon="152.7749421">
<ele>476.034</ele>
<time>2016-03-02T01:46:02.698Z</time>
</trkpt>
<trkpt lat="-27.1207721" lon="152.7752116">
<ele>475.450</ele>
<time>2016-03-02T01:46:04.783Z</time>
</trkpt>
<trkpt lat="-27.1204770" lon="152.7754587">
<ele>474.498</ele>
<time>2016-03-02T01:46:06.842Z</time>
</trkpt>
<trkpt lat="-27.1201392" lon="152.7758969">
<ele>473.818</ele>
<time>2016-03-02T01:46:09.638Z</time>
</trkpt>
<trkpt lat="-27.1199407" lon="152.7762422">
<ele>473.579</ele>
<time>2016-03-02T01:46:11.542Z</time>
</trkpt>
<trkpt lat="-27.1197074" lon="152.7768710">
<ele>473.662</ele>
<time>2016-03-02T01:46:14.598Z</time>
</trkpt>
<trkpt lat="-27.1194592" lon="152.7774850">
<ele>473.919</ele>
<time>2016-03-02T01:46:17.663Z</time>
</trkpt>
<trkpt lat="-27.1192634" lon="152.7778994">
<ele>473.611</ele>
<time>2016-03-02T01:46:19.793Z</time>
</trkpt>
<trkpt lat="-27.1190280" lon="152.7782189">
<ele>472.161</ele>
<time>2016-03-02T01:46:21.639Z</time>
</trkpt>
<trkpt lat="-27.1187512" lon="152.7785375">
<ele>470.362</ele>
<time>2016-03-02T01:46:23.609Z</time>
</trkpt>
<trkpt lat="-27.1183022" lon="152.7790064">
<ele>469.385</ele>
<time>2016-03-02T01:46:26.628Z</time>
</trkpt>
<trkpt lat="-27.1178586" lon="152.7794577">
<ele>469.516</ele>
<time>2016-03-02T01:46:29.574Z</time>
</trkpt>
<trkpt lat="-27.1175495" lon="152.7797571">
<ele>470.359</ele>
<time>2016-03-02T01:46:31.593Z</time>
</trkpt>
<trkpt lat="-27.1172345" lon="152.7800303">
<ele>471.219</ele>
<time>2016-03-02T01:46:33.574Z</time>
</trkpt>
<trkpt lat="-27.1169072" lon="152.7803000">
<ele>471.464</ele>
<time>2016-03-02T01:46:35.602Z</time>
</trkpt>
<trkpt lat="-27.1165145" lon="152.7807998">
<ele>471.001</ele>
<time>2016-03-02T01:46:38.572Z</time>
</trkpt>
<trkpt lat="-27.1162049" lon="152.7813692">
<ele>469.577</ele>
<time>2016-03-02T01:46:41.452Z</time>
</trkpt>
<trkpt lat="-27.1161130" lon="152.7818335">
<ele>467.189</ele>
<time>2016-03-02T01:46:43.453Z</time>
</trkpt>
<trkpt lat="-27.1161170" lon="152.7825558">
<ele>465.015</ele>
<time>2016-03-02T01:46:46.419Z</time>
</trkpt>
<trkpt lat="-27.1161428" lon="152.7830391">
<ele>463.955</ele>
<time>2016-03-02T01:46:48.401Z</time>
</trkpt>
<trkpt lat="-27.1161800" lon="152.7835094">
<ele>463.593</ele>
<time>2016-03-02T01:46:50.353Z</time>
</trkpt>
<trkpt lat="-27.1162054" lon="152.7842585">
<ele>463.588</ele>
<time>2016-03-02T01:46:53.652Z</time>
</trkpt>
<trkpt lat="-27.1161985" lon="152.7846907">
<ele>464.088</ele>
<time>2016-03-02T01:46:55.646Z</time>
</trkpt>
<trkpt lat="-27.1161849" lon="152.7853308">
<ele>465.111</ele>
<time>2016-03-02T01:46:58.677Z</time>
</trkpt>
<trkpt lat="-27.1161924" lon="152.7857559">
<ele>466.369</ele>
<time>2016-03-02T01:47:00.849Z</time>
</trkpt>
<trkpt lat="-27.1162009" lon="152.7861482">
<ele>467.686</ele>
<time>2016-03-02T01:47:02.904Z</time>
</trkpt>
<trkpt lat="-27.1162735" lon="152.7867121">
<ele>468.934</ele>
<time>2016-03-02T01:47:05.939Z</time>
</trkpt>
<trkpt lat="-27.1164190" lon="152.7872381">
<ele>469.925</ele>
<time>2016-03-02T01:47:08.864Z</time>
</trkpt>
<trkpt lat="-27.1166779" lon="152.7877210">
<ele>470.620</ele>
<time>2016-03-02T01:47:11.903Z</time>
</trkpt>
<trkpt lat="-27.1170196" lon="152.7881239">
<ele>470.876</ele>
<time>2016-03-02T01:47:15.032Z</time>
</trkpt>
<trkpt lat="-27.1172433" lon="152.7883601">
<ele>470.345</ele>
<time>2016-03-02T01:47:16.999Z</time>
</trkpt>
<trkpt lat="-27.1175455" lon="152.7884698">
<ele>468.739</ele>
<time>2016-03-02T01:47:19.065Z</time>
</trkpt>
<trkpt lat="-27.1179863" lon="152.7886554">
<ele>466.314</ele>
<time>2016-03-02T01:47:22.230Z</time>
</trkpt>
<trkpt lat="-27.1183979" lon="152.7888440">
<ele>463.865</ele>
<time>2016-03-02T01:47:25.266Z</time>
</trkpt>
<trkpt lat="-27.1186576" lon="152.7889652">
<ele>461.572</ele>
<time>2016-03-02T01:47:27.075Z</time>
</trkpt>
<trkpt lat="-27.1188664" lon="152.7892320">
<ele>458.949</ele>
<time>2016-03-02T01:47:29.001Z</time>
</trkpt>
<trkpt lat="-27.1190447" lon="152.7895590">
<ele>456.252</ele>
<time>2016-03-02T01:47:31.119Z</time>
</trkpt>
<trkpt lat="-27.1192718" lon="152.7898453">
<ele>454.245</ele>
<time>2016-03-02T01:47:33.262Z</time>
</trkpt>
<trkpt lat="-27.1195651" lon="152.7902596">
<ele>453.098</ele>
<time>2016-03-02T01:47:36.193Z</time>
</trkpt>
<trkpt lat="-27.1197459" lon="152.7907896">
<ele>452.615</ele>
<time>2016-03-02T01:47:39.194Z</time>
</trkpt>
<trkpt lat="-27.1198405" lon="152.7911808">
<ele>453.140</ele>
<time>2016-03-02T01:47:41.294Z</time>
</trkpt>
<trkpt lat="-27.1199698" lon="152.7915291">
<ele>454.743</ele>
<time>2016-03-02T01:47:43.287Z</time>
</trkpt>
<trkpt lat="-27.1202509" lon="152.7919922">
<ele>456.317</ele>
<time>2016-03-02T01:47:46.293Z</time>
</trkpt>
<trkpt lat="-27.1204978" lon="152.7922219">
<ele>456.868</ele>
<time>2016-03-02T01:47:48.182Z</time>
</trkpt>
<trkpt lat="-27.1209293" lon="152.7925431">
<ele>456.410</ele>
<time>2016-03-02T01:47:51.186Z</time>
</trkpt>
<trkpt lat="-27.1212513" lon="152.7926918">
<ele>455.382</ele>
<time>2016-03-02T01:47:53.196Z</time>
</trkpt>
<trkpt lat="-27.1215663" lon="152.7928329">
<ele>454.224</ele>
<time>2016-03-02T01:47:55.137Z</time>
</trkpt>
<trkpt lat="-27.1220331" lon="152.7930911">
<ele>453.076</ele>
<time>2016-03-02T01:47:58.077Z</time>
</trkpt>
<trkpt lat="-27.1223166" lon="152.7933184">
<ele>451.957</ele>
<time>2016-03-02T01:48:00.030Z</time>
</trkpt>
<trkpt lat="-27.1225870" lon="152.7935905">
<ele>451.002</ele>
<time>2016-03-02T01:48:02.066Z</time>
</trkpt>
<trkpt lat="-27.1229489" lon="152.7940226">
<ele>450.162</ele>
<time>2016-03-02T01:48:05.015Z</time>
</trkpt>
<trkpt lat="-27.1231491" lon="152.7943473">
<ele>448.920</ele>
<time>2016-03-02T01:48:07.037Z</time>
</trkpt>
<trkpt lat="-27.1233632" lon="152.7946754">
<ele>447.138</ele>
<time>2016-03-02T01:48:09.214Z</time>
</trkpt>
<trkpt lat="-27.1236530" lon="152.7951682">
<ele>445.664</ele>
<time>2016-03-02T01:48:12.840Z</time>
</trkpt>
<trkpt lat="-27.1238350" lon="152.7954404">
<ele>444.697</ele>
<time>2016-03-02T01:48:15.302Z</time>
</trkpt>
<trkpt lat="-27.1239419" lon="152.7957006">
<ele>442.967</ele>
<time>2016-03-02T01:48:17.373Z</time>
</trkpt>
<trkpt lat="-27.1237857" lon="152.7960488">
<ele>439.812</ele>
<time>2016-03-02T01:48:19.995Z</time>
</trkpt>
<trkpt lat="-27.1237300" lon="152.7964845">
<ele>436.472</ele>
<time>2016-03-02T01:48:22.641Z</time>
</trkpt>
<trkpt lat="-27.1238395" lon="152.7967826">
<ele>434.618</ele>
<time>2016-03-02T01:48:24.472Z</time>
</trkpt>
<trkpt lat="-27.1240720" lon="152.7970163">
<ele>434.602</ele>
<time>2016-03-02T01:48:26.402Z</time>
</trkpt>
<trkpt lat="-27.1245331" lon="152.7972230">
<ele>435.640</ele>
<time>2016-03-02T01:48:29.343Z</time>
</trkpt>
<trkpt lat="-27.1247776" lon="152.7974867">
<ele>436.750</ele>
<time>2016-03-02T01:48:31.280Z</time>
</trkpt>
<trkpt lat="-27.1250595" lon="152.7979853">
<ele>437.384</ele>
<time>2016-03-02T01:48:34.553Z</time>
</trkpt>
<trkpt lat="-27.1252151" lon="152.7983513">
<ele>437.401</ele>
<time>2016-03-02T01:48:37.278Z</time>
</trkpt>
<trkpt lat="-27.1253407" lon="152.7986208">
<ele>436.968</ele>
<time>2016-03-02T01:48:39.488Z</time>
</trkpt>
<trkpt lat="-27.1256381" lon="152.7988674">
<ele>435.961</ele>
<time>2016-03-02T01:48:42.313Z</time>
</trkpt>
<trkpt lat="-27.1259979" lon="152.7989752">
<ele>434.008</ele>
<time>2016-03-02T01:48:44.835Z</time>
</trkpt>
<trkpt lat="-27.1261819" lon="152.7993864">
<ele>431.562</ele>
<time>2016-03-02T01:48:47.226Z</time>
</trkpt>
<trkpt lat="-27.1262506" lon="152.7997523">
<ele>429.722</ele>
<time>2016-03-02T01:48:49.124Z</time>
</trkpt>
<trkpt lat="-27.1262925" lon="152.8003643">
<ele>428.913</ele>
<time>2016-03-02T01:48:52.295Z</time>
</trkpt>
<trkpt lat="-27.1262074" lon="152.8007355">
<ele>428.712</ele>
<time>2016-03-02T01:48:54.333Z</time>
</trkpt>
<trkpt lat="-27.1261838" lon="152.8011256">
<ele>428.140</ele>
<time>2016-03-02T01:48:56.392Z</time>
</trkpt>
<trkpt lat="-27.1262804" lon="152.8016936">
<ele>426.651</ele>
<time>2016-03-02T01:48:59.339Z</time>
</trkpt>
<trkpt lat="-27.1265878" lon="152.8021076">
<ele>424.830</ele>
<time>2016-03-02T01:49:01.931Z</time>
</trkpt>
<trkpt lat="-27.1270693" lon="152.8024294">
<ele>422.873</ele>
<time>2016-03-02T01:49:04.796Z</time>
</trkpt>
<trkpt lat="-27.1274078" lon="152.8026241">
<ele>420.534</ele>
<time>2016-03-02T01:49:06.736Z</time>
</trkpt>
<trkpt lat="-27.1277590" lon="152.8028132">
<ele>418.221</ele>
<time>2016-03-02T01:49:08.737Z</time>
</trkpt>
<trkpt lat="-27.1282837" lon="152.8031054">
<ele>416.141</ele>
<time>2016-03-02T01:49:11.824Z</time>
</trkpt>
<trkpt lat="-27.1285960" lon="152.8033386">
<ele>414.103</ele>
<time>2016-03-02T01:49:13.832Z</time>
</trkpt>
<trkpt lat="-27.1289351" lon="152.8038179">
<ele>412.250</ele>
<time>2016-03-02T01:49:16.782Z</time>
</trkpt>
<trkpt lat="-27.1292407" lon="152.8043378">
<ele>410.652</ele>
<time>2016-03-02T01:49:19.868Z</time>
</trkpt>
<trkpt lat="-27.1294575" lon="152.8046562">
<ele>408.932</ele>
<time>2016-03-02T01:49:21.928Z</time>
</trkpt>
<trkpt lat="-27.1298256" lon="152.8050591">
<ele>406.583</ele>
<time>2016-03-02T01:49:25.035Z</time>
</trkpt>
<trkpt lat="-27.1302795" lon="152.8053376">
<ele>403.608</ele>
<time>2016-03-02T01:49:28.202Z</time>
</trkpt>
<trkpt lat="-27.1305099" lon="152.8055554">
<ele>400.249</ele>
<time>2016-03-02T01:49:29.960Z</time>
</trkpt>
<trkpt lat="-27.1306398" lon="152.8061355">
<ele>397.085</ele>
<time>2016-03-02T01:49:32.987Z</time>
</trkpt>
<trkpt lat="-27.1307607" lon="152.8065099">
<ele>395.164</ele>
<time>2016-03-02T01:49:35.206Z</time>
</trkpt>
<trkpt lat="-27.1309375" lon="152.8068227">
<ele>394.725</ele>
<time>2016-03-02T01:49:37.493Z</time>
</trkpt>
<trkpt lat="-27.1313092" lon="152.8071344">
<ele>395.005</ele>
<time>2016-03-02T01:49:40.881Z</time>
</trkpt>
<trkpt lat="-27.1315570" lon="152.8071410">
<ele>395.123</ele>
<time>2016-03-02T01:49:42.477Z</time>
</trkpt>
<trkpt lat="-27.1318249" lon="152.8070370">
<ele>394.724</ele>
<time>2016-03-02T01:49:44.118Z</time>
</trkpt>
<trkpt lat="-27.1323563" lon="152.8068732">
<ele>394.459</ele>
<time>2016-03-02T01:49:47.248Z</time>
</trkpt>
<trkpt lat="-27.1327379" lon="152.8068271">
<ele>394.955</ele>
<time>2016-03-02T01:49:49.528Z</time>
</trkpt>
<trkpt lat="-27.1332169" lon="152.8068259">
<ele>395.777</ele>
<time>2016-03-02T01:49:52.315Z</time>
</trkpt>
<trkpt lat="-27.1335266" lon="152.8069422">
<ele>396.029</ele>
<time>2016-03-02T01:49:54.142Z</time>
</trkpt>
<trkpt lat="-27.1338434" lon="152.8071511">
<ele>395.486</ele>
<time>2016-03-02T01:49:56.193Z</time>
</trkpt>
<trkpt lat="-27.1341486" lon="152.8073699">
<ele>395.192</ele>
<time>2016-03-02T01:49:58.231Z</time>
</trkpt>
<trkpt lat="-27.1344636" lon="152.8075547">
<ele>396.029</ele>
<time>2016-03-02T01:50:00.235Z</time>
</trkpt>
<trkpt lat="-27.1347923" lon="152.8076848">
<ele>397.578</ele>
<time>2016-03-02T01:50:02.207Z</time>
</trkpt>
<trkpt lat="-27.1353063" lon="152.8077971">
<ele>399.232</ele>
<time>2016-03-02T01:50:05.193Z</time>
</trkpt>
<trkpt lat="-27.1358220" lon="152.8079305">
<ele>401.070</ele>
<time>2016-03-02T01:50:08.240Z</time>
</trkpt>
<trkpt lat="-27.1361565" lon="152.8080189">
<ele>403.464</ele>
<time>2016-03-02T01:50:10.239Z</time>
</trkpt>
<trkpt lat="-27.1364958" lon="152.8080923">
<ele>406.276</ele>
<time>2016-03-02T01:50:12.352Z</time>
</trkpt>
<trkpt lat="-27.1368346" lon="152.8081238">
<ele>408.949</ele>
<time>2016-03-02T01:50:14.502Z</time>
</trkpt>
<trkpt lat="-27.1373012" lon="152.8080614">
<ele>411.163</ele>
<time>2016-03-02T01:50:17.526Z</time>
</trkpt>
<trkpt lat="-27.1376095" lon="152.8079858">
<ele>412.739</ele>
<time>2016-03-02T01:50:19.557Z</time>
</trkpt>
<trkpt lat="-27.1379125" lon="152.8079275">
<ele>413.488</ele>
<time>2016-03-02T01:50:21.519Z</time>
</trkpt>
<trkpt lat="-27.1383808" lon="152.8079678">
<ele>413.204</ele>
<time>2016-03-02T01:50:24.452Z</time>
</trkpt>
<trkpt lat="-27.1386886" lon="152.8080675">
<ele>411.774</ele>
<time>2016-03-02T01:50:26.428Z</time>
</trkpt>
<trkpt lat="-27.1391300" lon="152.8083087">
<ele>409.428</ele>
<time>2016-03-02T01:50:29.487Z</time>
</trkpt>
<trkpt lat="-27.1395780" lon="152.8085168">
<ele>406.750</ele>
<time>2016-03-02T01:50:32.626Z</time>
</trkpt>
<trkpt lat="-27.1400166" lon="152.8087070">
<ele>404.169</ele>
<time>2016-03-02T01:50:35.840Z</time>
</trkpt>
<trkpt lat="-27.1404203" lon="152.8088937">
<ele>401.408</ele>
<time>2016-03-02T01:50:38.999Z</time>
</trkpt>
<trkpt lat="-27.1408196" lon="152.8089931">
<ele>398.122</ele>
<time>2016-03-02T01:50:42.093Z</time>
</trkpt>
<trkpt lat="-27.1410506" lon="152.8088487">
<ele>394.431</ele>
<time>2016-03-02T01:50:44.183Z</time>
</trkpt>
<trkpt lat="-27.1414469" lon="152.8087534">
<ele>390.879</ele>
<time>2016-03-02T01:50:47.532Z</time>
</trkpt>
<trkpt lat="-27.1417829" lon="152.8088680">
<ele>388.125</ele>
<time>2016-03-02T01:50:50.485Z</time>
</trkpt>
<trkpt lat="-27.1419660" lon="152.8092074">
<ele>385.937</ele>
<time>2016-03-02T01:50:53.437Z</time>
</trkpt>
<trkpt lat="-27.1420603" lon="152.8094637">
<ele>383.900</ele>
<time>2016-03-02T01:50:55.449Z</time>
</trkpt>
<trkpt lat="-27.1423125" lon="152.8095371">
<ele>382.163</ele>
<time>2016-03-02T01:50:57.523Z</time>
</trkpt>
<trkpt lat="-27.1426885" lon="152.8096415">
<ele>380.697</ele>
<time>2016-03-02T01:51:00.693Z</time>
</trkpt>
<trkpt lat="-27.1428932" lon="152.8098276">
<ele>379.262</ele>
<time>2016-03-02T01:51:02.869Z</time>
</trkpt>
<trkpt lat="-27.1430093" lon="152.8100499">
<ele>377.993</ele>
<time>2016-03-02T01:51:04.786Z</time>
</trkpt>
<trkpt lat="-27.1431473" lon="152.8104382">
<ele>376.994</ele>
<time>2016-03-02T01:51:07.820Z</time>
</trkpt>
<trkpt lat="-27.1433228" lon="152.8106183">
<ele>375.823</ele>
<time>2016-03-02T01:51:09.639Z</time>
</trkpt>
<trkpt lat="-27.1437182" lon="152.8105636">
<ele>373.954</ele>
<time>2016-03-02T01:51:12.557Z</time>
</trkpt>
<trkpt lat="-27.1439698" lon="152.8106289">
<ele>371.818</ele>
<time>2016-03-02T01:51:14.386Z</time>
</trkpt>
<trkpt lat="-27.1441663" lon="152.8108472">
<ele>370.051</ele>
<time>2016-03-02T01:51:16.230Z</time>
</trkpt>
<trkpt lat="-27.1444360" lon="152.8111967">
<ele>368.727</ele>
<time>2016-03-02T01:51:18.817Z</time>
</trkpt>
<trkpt lat="-27.1448450" lon="152.8114397">
<ele>367.490</ele>
<time>2016-03-02T01:51:21.612Z</time>
</trkpt>
<trkpt lat="-27.1453510" lon="152.8115540">
<ele>365.897</ele>
<time>2016-03-02T01:51:24.636Z</time>
</trkpt>
<trkpt lat="-27.1456371" lon="152.8117294">
<ele>363.809</ele>
<time>2016-03-02T01:51:26.461Z</time>
</trkpt>
<trkpt lat="-27.1459013" lon="152.8120040">
<ele>361.412</ele>
<time>2016-03-02T01:51:28.435Z</time>
</trkpt>
<trkpt lat="-27.1463101" lon="152.8124165">
<ele>359.220</ele>
<time>2016-03-02T01:51:31.414Z</time>
</trkpt>
<trkpt lat="-27.1465952" lon="152.8126321">
<ele>357.544</ele>
<time>2016-03-02T01:51:33.296Z</time>
</trkpt>
<trkpt lat="-27.1470662" lon="152.8129847">
<ele>355.804</ele>
<time>2016-03-02T01:51:36.578Z</time>
</trkpt>
<trkpt lat="-27.1473343" lon="152.8132288">
<ele>353.452</ele>
<time>2016-03-02T01:51:38.724Z</time>
</trkpt>
<trkpt lat="-27.1476214" lon="152.8136851">
<ele>351.008</ele>
<time>2016-03-02T01:51:41.955Z</time>
</trkpt>
<trkpt lat="-27.1476654" lon="152.8140255">
<ele>348.746</ele>
<time>2016-03-02T01:51:44.003Z</time>
</trkpt>
<trkpt lat="-27.1475944" lon="152.8145492">
<ele>346.100</ele>
<time>2016-03-02T01:51:47.244Z</time>
</trkpt>
<trkpt lat="-27.1475789" lon="152.8148839">
<ele>342.925</ele>
<time>2016-03-02T01:51:49.317Z</time>
</trkpt>
<trkpt lat="-27.1477242" lon="152.8153335">
<ele>339.874</ele>
<time>2016-03-02T01:51:52.247Z</time>
</trkpt>
<trkpt lat="-27.1479325" lon="152.8155554">
<ele>337.583</ele>
<time>2016-03-02T01:51:54.198Z</time>
</trkpt>
<trkpt lat="-27.1482005" lon="152.8156885">
<ele>336.391</ele>
<time>2016-03-02T01:51:56.196Z</time>
</trkpt>
<trkpt lat="-27.1486483" lon="152.8157804">
<ele>335.898</ele>
<time>2016-03-02T01:51:59.323Z</time>
</trkpt>
<trkpt lat="-27.1489850" lon="152.8160926">
<ele>335.044</ele>
<time>2016-03-02T01:52:02.311Z</time>
</trkpt>
<trkpt lat="-27.1491408" lon="152.8165280">
<ele>333.081</ele>
<time>2016-03-02T01:52:05.295Z</time>
</trkpt>
<trkpt lat="-27.1492151" lon="152.8168481">
<ele>330.325</ele>
<time>2016-03-02T01:52:07.466Z</time>
</trkpt>
<trkpt lat="-27.1492848" lon="152.8171565">
<ele>327.600</ele>
<time>2016-03-02T01:52:09.550Z</time>
</trkpt>
<trkpt lat="-27.1494751" lon="152.8175380">
<ele>325.216</ele>
<time>2016-03-02T01:52:12.225Z</time>
</trkpt>
<trkpt lat="-27.1498403" lon="152.8178139">
<ele>322.849</ele>
<time>2016-03-02T01:52:15.154Z</time>
</trkpt>
<trkpt lat="-27.1501339" lon="152.8179499">
<ele>320.271</ele>
<time>2016-03-02T01:52:17.463Z</time>
</trkpt>
<trkpt lat="-27.1505592" lon="152.8181172">
<ele>317.971</ele>
<time>2016-03-02T01:52:21.187Z</time>
</trkpt>
<trkpt lat="-27.1507917" lon="152.8182323">
<ele>316.056</ele>
<time>2016-03-02T01:52:23.276Z</time>
</trkpt>
<trkpt lat="-27.1509252" lon="152.8184414">
<ele>313.806</ele>
<time>2016-03-02T01:52:25.137Z</time>
</trkpt>
<trkpt lat="-27.1509156" lon="152.8188575">
<ele>310.870</ele>
<time>2016-03-02T01:52:28.145Z</time>
</trkpt>
<trkpt lat="-27.1508333" lon="152.8191121">
<ele>307.953</ele>
<time>2016-03-02T01:52:29.959Z</time>
</trkpt>
<trkpt lat="-27.1508168" lon="152.8193751">
<ele>305.987</ele>
<time>2016-03-02T01:52:31.682Z</time>
</trkpt>
<trkpt lat="-27.1509066" lon="152.8196338">
<ele>305.205</ele>
<time>2016-03-02T01:52:33.431Z</time>
</trkpt>
<trkpt lat="-27.1512208" lon="152.8199586">
<ele>304.966</ele>
<time>2016-03-02T01:52:36.482Z</time>
</trkpt>
<trkpt lat="-27.1515382" lon="152.8202784">
<ele>304.727</ele>
<time>2016-03-02T01:52:39.394Z</time>
</trkpt>
<trkpt lat="-27.1516902" lon="152.8205317">
<ele>303.593</ele>
<time>2016-03-02T01:52:41.132Z</time>
</trkpt>
<trkpt lat="-27.1517254" lon="152.8208950">
<ele>301.126</ele>
<time>2016-03-02T01:52:43.148Z</time>
</trkpt>
<trkpt lat="-27.1517170" lon="152.8214341">
<ele>298.560</ele>
<time>2016-03-02T01:52:46.090Z</time>
</trkpt>
<trkpt lat="-27.1517550" lon="152.8217821">
<ele>296.891</ele>
<time>2016-03-02T01:52:48.024Z</time>
</trkpt>
<trkpt lat="-27.1517957" lon="152.8221375">
<ele>295.626</ele>
<time>2016-03-02T01:52:50.063Z</time>
</trkpt>
<trkpt lat="-27.1518352" lon="152.8224800">
<ele>294.409</ele>
<time>2016-03-02T01:52:52.083Z</time>
</trkpt>
<trkpt lat="-27.1518746" lon="152.8228341">
<ele>293.003</ele>
<time>2016-03-02T01:52:54.337Z</time>
</trkpt>
<trkpt lat="-27.1519271" lon="152.8233201">
<ele>291.012</ele>
<time>2016-03-02T01:52:57.447Z</time>
</trkpt>
<trkpt lat="-27.1521265" lon="152.8237335">
<ele>288.116</ele>
<time>2016-03-02T01:53:00.289Z</time>
</trkpt>
<trkpt lat="-27.1523499" lon="152.8239293">
<ele>284.596</ele>
<time>2016-03-02T01:53:02.156Z</time>
</trkpt>
<trkpt lat="-27.1527203" lon="152.8242173">
<ele>281.666</ele>
<time>2016-03-02T01:53:05.183Z</time>
</trkpt>
<trkpt lat="-27.1529776" lon="152.8244266">
<ele>280.248</ele>
<time>2016-03-02T01:53:07.423Z</time>
</trkpt>
<trkpt lat="-27.1532702" lon="152.8247910">
<ele>279.469</ele>
<time>2016-03-02T01:53:10.653Z</time>
</trkpt>
<trkpt lat="-27.1534138" lon="152.8250425">
<ele>277.807</ele>
<time>2016-03-02T01:53:12.809Z</time>
</trkpt>
<trkpt lat="-27.1536739" lon="152.8253886">
<ele>275.031</ele>
<time>2016-03-02T01:53:16.494Z</time>
</trkpt>
<trkpt lat="-27.1537792" lon="152.8256353">
<ele>272.068</ele>
<time>2016-03-02T01:53:18.659Z</time>
</trkpt>
<trkpt lat="-27.1538811" lon="152.8258399">
<ele>269.456</ele>
<time>2016-03-02T01:53:20.463Z</time>
</trkpt>
<trkpt lat="-27.1541752" lon="152.8259737">
<ele>266.777</ele>
<time>2016-03-02T01:53:23.099Z</time>
</trkpt>
<trkpt lat="-27.1544813" lon="152.8257986">
<ele>263.759</ele>
<time>2016-03-02T01:53:25.771Z</time>
</trkpt>
<trkpt lat="-27.1547696" lon="152.8255600">
<ele>261.231</ele>
<time>2016-03-02T01:53:28.492Z</time>
</trkpt>
<trkpt lat="-27.1550524" lon="152.8254760">
<ele>259.620</ele>
<time>2016-03-02T01:53:30.815Z</time>
</trkpt>
<trkpt lat="-27.1554449" lon="152.8254527">
<ele>258.285</ele>
<time>2016-03-02T01:53:34.146Z</time>
</trkpt>
<trkpt lat="-27.1556941" lon="152.8254695">
<ele>256.859</ele>
<time>2016-03-02T01:53:36.280Z</time>
</trkpt>
<trkpt lat="-27.1558948" lon="152.8253336">
<ele>254.967</ele>
<time>2016-03-02T01:53:38.280Z</time>
</trkpt>
<trkpt lat="-27.1560597" lon="152.8249848">
<ele>252.132</ele>
<time>2016-03-02T01:53:41.289Z</time>
</trkpt>
<trkpt lat="-27.1562193" lon="152.8246374">
<ele>248.615</ele>
<time>2016-03-02T01:53:44.168Z</time>
</trkpt>
<trkpt lat="-27.1565498" lon="152.8245097">
<ele>244.732</ele>
<time>2016-03-02T01:53:46.868Z</time>
</trkpt>
<trkpt lat="-27.1569163" lon="152.8246348">
<ele>240.783</ele>
<time>2016-03-02T01:53:49.707Z</time>
</trkpt>
<trkpt lat="-27.1573138" lon="152.8246489">
<ele>237.479</ele>
<time>2016-03-02T01:53:52.786Z</time>
</trkpt>
<trkpt lat="-27.1576977" lon="152.8248266">
<ele>234.894</ele>
<time>2016-03-02T01:53:56.439Z</time>
</trkpt>
<trkpt lat="-27.1579481" lon="152.8249418">
<ele>232.653</ele>
<time>2016-03-02T01:53:58.915Z</time>
</trkpt>
<trkpt lat="-27.1582807" lon="152.8248943">
<ele>230.531</ele>
<time>2016-03-02T01:54:02.041Z</time>
</trkpt>
<trkpt lat="-27.1585881" lon="152.8247807">
<ele>228.037</ele>
<time>2016-03-02T01:54:05.071Z</time>
</trkpt>
<trkpt lat="-27.1588683" lon="152.8249690">
<ele>224.983</ele>
<time>2016-03-02T01:54:07.999Z</time>
</trkpt>
<trkpt lat="-27.1590716" lon="152.8252507">
<ele>221.976</ele>
<time>2016-03-02T01:54:10.633Z</time>
</trkpt>
<trkpt lat="-27.1593913" lon="152.8252917">
<ele>219.304</ele>
<time>2016-03-02T01:54:12.993Z</time>
</trkpt>
<trkpt lat="-27.1597208" lon="152.8250606">
<ele>216.919</ele>
<time>2016-03-02T01:54:15.823Z</time>
</trkpt>
<trkpt lat="-27.1599512" lon="152.8248828">
<ele>215.122</ele>
<time>2016-03-02T01:54:17.909Z</time>
</trkpt>
<trkpt lat="-27.1601622" lon="152.8246653">
<ele>214.105</ele>
<time>2016-03-02T01:54:20.088Z</time>
</trkpt>
<trkpt lat="-27.1604709" lon="152.8243894">
<ele>213.154</ele>
<time>2016-03-02T01:54:23.190Z</time>
</trkpt>
<trkpt lat="-27.1608455" lon="152.8242670">
<ele>211.586</ele>
<time>2016-03-02T01:54:26.188Z</time>
</trkpt>
<trkpt lat="-27.1610643" lon="152.8241642">
<ele>209.240</ele>
<time>2016-03-02T01:54:27.898Z</time>
</trkpt>
<trkpt lat="-27.1613302" lon="152.8238351">
<ele>206.167</ele>
<time>2016-03-02T01:54:30.686Z</time>
</trkpt>
<trkpt lat="-27.1614859" lon="152.8235641">
<ele>203.099</ele>
<time>2016-03-02T01:54:32.721Z</time>
</trkpt>
<trkpt lat="-27.1618505" lon="152.8232804">
<ele>200.925</ele>
<time>2016-03-02T01:54:35.943Z</time>
</trkpt>
<trkpt lat="-27.1622181" lon="152.8230881">
<ele>199.248</ele>
<time>2016-03-02T01:54:38.838Z</time>
</trkpt>
<trkpt lat="-27.1625014" lon="152.8230747">
<ele>197.290</ele>
<time>2016-03-02T01:54:40.767Z</time>
</trkpt>
<trkpt lat="-27.1627783" lon="152.8231211">
<ele>195.157</ele>
<time>2016-03-02T01:54:42.542Z</time>
</trkpt>
<trkpt lat="-27.1631746" lon="152.8233466">
<ele>193.381</ele>
<time>2016-03-02T01:54:45.180Z</time>
</trkpt>
<trkpt lat="-27.1634384" lon="152.8235702">
<ele>191.907</ele>
<time>2016-03-02T01:54:47.138Z</time>
</trkpt>
<trkpt lat="-27.1636997" lon="152.8238160">
<ele>190.514</ele>
<time>2016-03-02T01:54:49.412Z</time>
</trkpt>
<trkpt lat="-27.1640648" lon="152.8241786">
<ele>189.455</ele>
<time>2016-03-02T01:54:53.129Z</time>
</trkpt>
<trkpt lat="-27.1643060" lon="152.8245128">
<ele>188.567</ele>
<time>2016-03-02T01:54:56.034Z</time>
</trkpt>
<trkpt lat="-27.1643702" lon="152.8249192">
<ele>186.271</ele>
<time>2016-03-02T01:54:58.724Z</time>
</trkpt>
<trkpt lat="-27.1642943" lon="152.8252102">
<ele>182.201</ele>
<time>2016-03-02T01:55:00.712Z</time>
</trkpt>
<trkpt lat="-27.1641536" lon="152.8256550">
<ele>178.268</ele>
<time>2016-03-02T01:55:04.302Z</time>
</trkpt>
<trkpt lat="-27.1640011" lon="152.8260804">
<ele>175.065</ele>
<time>2016-03-02T01:55:08.460Z</time>
</trkpt>
<trkpt lat="-27.1639223" lon="152.8264091">
<ele>171.584</ele>
<time>2016-03-02T01:55:11.187Z</time>
</trkpt>
<trkpt lat="-27.1640195" lon="152.8267167">
<ele>167.751</ele>
<time>2016-03-02T01:55:13.410Z</time>
</trkpt>
<trkpt lat="-27.1641550" lon="152.8268574">
<ele>164.192</ele>
<time>2016-03-02T01:55:14.729Z</time>
</trkpt>
<trkpt lat="-27.1645961" lon="152.8269622">
<ele>161.742</ele>
<time>2016-03-02T01:55:17.806Z</time>
</trkpt>
<trkpt lat="-27.1650139" lon="152.8270612">
<ele>160.767</ele>
<time>2016-03-02T01:55:20.545Z</time>
</trkpt>
<trkpt lat="-27.1654536" lon="152.8270382">
<ele>160.438</ele>
<time>2016-03-02T01:55:23.241Z</time>
</trkpt>
<trkpt lat="-27.1657766" lon="152.8269630">
<ele>159.811</ele>
<time>2016-03-02T01:55:25.243Z</time>
</trkpt>
<trkpt lat="-27.1660817" lon="152.8268395">
<ele>158.739</ele>
<time>2016-03-02T01:55:27.184Z</time>
</trkpt>
<trkpt lat="-27.1665577" lon="152.8267120">
<ele>157.568</ele>
<time>2016-03-02T01:55:30.101Z</time>
</trkpt>
<trkpt lat="-27.1670535" lon="152.8266119">
<ele>156.260</ele>
<time>2016-03-02T01:55:33.170Z</time>
</trkpt>
<trkpt lat="-27.1675470" lon="152.8266548">
<ele>154.493</ele>
<time>2016-03-02T01:55:36.335Z</time>
</trkpt>
<trkpt lat="-27.1679837" lon="152.8268559">
<ele>152.170</ele>
<time>2016-03-02T01:55:39.524Z</time>
</trkpt>
<trkpt lat="-27.1683862" lon="152.8270971">
<ele>149.155</ele>
<time>2016-03-02T01:55:42.850Z</time>
</trkpt>
<trkpt lat="-27.1686500" lon="152.8272057">
<ele>145.369</ele>
<time>2016-03-02T01:55:45.010Z</time>
</trkpt>
<trkpt lat="-27.1689284" lon="152.8272253">
<ele>141.297</ele>
<time>2016-03-02T01:55:47.145Z</time>
</trkpt>
<trkpt lat="-27.1692369" lon="152.8269616">
<ele>137.698</ele>
<time>2016-03-02T01:55:50.013Z</time>
</trkpt>
<trkpt lat="-27.1693549" lon="152.8267011">
<ele>134.783</ele>
<time>2016-03-02T01:55:51.886Z</time>
</trkpt>
<trkpt lat="-27.1694071" lon="152.8262410">
<ele>132.380</ele>
<time>2016-03-02T01:55:54.629Z</time>
</trkpt>
<trkpt lat="-27.1695228" lon="152.8259682">
<ele>130.387</ele>
<time>2016-03-02T01:55:56.320Z</time>
</trkpt>
<trkpt lat="-27.1697390" lon="152.8257575">
<ele>128.884</ele>
<time>2016-03-02T01:55:58.036Z</time>
</trkpt>
<trkpt lat="-27.1701495" lon="152.8254069">
<ele>127.787</ele>
<time>2016-03-02T01:56:01.308Z</time>
</trkpt>
<trkpt lat="-27.1704353" lon="152.8252165">
<ele>126.840</ele>
<time>2016-03-02T01:56:03.400Z</time>
</trkpt>
<trkpt lat="-27.1708704" lon="152.8250824">
<ele>125.891</ele>
<time>2016-03-02T01:56:06.127Z</time>
</trkpt>
<trkpt lat="-27.1713757" lon="152.8251110">
<ele>124.747</ele>
<time>2016-03-02T01:56:09.211Z</time>
</trkpt>
<trkpt lat="-27.1716917" lon="152.8251559">
<ele>123.365</ele>
<time>2016-03-02T01:56:11.197Z</time>
</trkpt>
<trkpt lat="-27.1721851" lon="152.8251413">
<ele>121.775</ele>
<time>2016-03-02T01:56:14.211Z</time>
</trkpt>
<trkpt lat="-27.1724768" lon="152.8250114">
<ele>119.719</ele>
<time>2016-03-02T01:56:16.077Z</time>
</trkpt>
<trkpt lat="-27.1729622" lon="152.8249316">
<ele>117.082</ele>
<time>2016-03-02T01:56:18.969Z</time>
</trkpt>
<trkpt lat="-27.1733036" lon="152.8249563">
<ele>114.237</ele>
<time>2016-03-02T01:56:21.004Z</time>
</trkpt>
<trkpt lat="-27.1738243" lon="152.8250112">
<ele>111.796</ele>
<time>2016-03-02T01:56:24.169Z</time>
</trkpt>
<trkpt lat="-27.1741477" lon="152.8250573">
<ele>110.096</ele>
<time>2016-03-02T01:56:26.120Z</time>
</trkpt>
<trkpt lat="-27.1744519" lon="152.8251990">
<ele>108.283</ele>
<time>2016-03-02T01:56:28.046Z</time>
</trkpt>
<trkpt lat="-27.1748363" lon="152.8255926">
<ele>105.428</ele>
<time>2016-03-02T01:56:31.046Z</time>
</trkpt>
<trkpt lat="-27.1752201" lon="152.8259899">
<ele>102.089</ele>
<time>2016-03-02T01:56:33.911Z</time>
</trkpt>
<trkpt lat="-27.1755119" lon="152.8261965">
<ele>98.960</ele>
<time>2016-03-02T01:56:35.760Z</time>
</trkpt>
<trkpt lat="-27.1758851" lon="152.8262950">
<ele>95.888</ele>
<time>2016-03-02T01:56:37.805Z</time>
</trkpt>
<trkpt lat="-27.1764224" lon="152.8264375">
<ele>93.239</ele>
<time>2016-03-02T01:56:40.802Z</time>
</trkpt>
<trkpt lat="-27.1769759" lon="152.8265841">
<ele>91.592</ele>
<time>2016-03-02T01:56:43.939Z</time>
</trkpt>
<trkpt lat="-27.1774943" lon="152.8267191">
<ele>90.729</ele>
<time>2016-03-02T01:56:46.819Z</time>
</trkpt>
<trkpt lat="-27.1778590" lon="152.8268052">
<ele>90.196</ele>
<time>2016-03-02T01:56:48.841Z</time>
</trkpt>
<trkpt lat="-27.1782179" lon="152.8268923">
<ele>89.786</ele>
<time>2016-03-02T01:56:50.830Z</time>
</trkpt>
<trkpt lat="-27.1787486" lon="152.8270101">
<ele>89.573</ele>
<time>2016-03-02T01:56:53.750Z</time>
</trkpt>
<trkpt lat="-27.1792886" lon="152.8271544">
<ele>89.634</ele>
<time>2016-03-02T01:56:56.731Z</time>
</trkpt>
<trkpt lat="-27.1796461" lon="152.8272492">
<ele>89.721</ele>
<time>2016-03-02T01:56:58.699Z</time>
</trkpt>
<trkpt lat="-27.1800125" lon="152.8273410">
<ele>89.236</ele>
<time>2016-03-02T01:57:00.716Z</time>
</trkpt>
<trkpt lat="-27.1803768" lon="152.8274346">
<ele>87.680</ele>
<time>2016-03-02T01:57:02.730Z</time>
</trkpt>
<trkpt lat="-27.1809233" lon="152.8275470">
<ele>85.380</ele>
<time>2016-03-02T01:57:05.680Z</time>
</trkpt>
<trkpt lat="-27.1812948" lon="152.8275702">
<ele>83.287</ele>
<time>2016-03-02T01:57:07.651Z</time>
</trkpt>
<trkpt lat="-27.1816836" lon="152.8275844">
<ele>82.020</ele>
<time>2016-03-02T01:57:09.739Z</time>
</trkpt>
<trkpt lat="-27.1822303" lon="152.8276848">
<ele>81.176</ele>
<time>2016-03-02T01:57:12.750Z</time>
</trkpt>
<trkpt lat="-27.1825819" lon="152.8277789">
<ele>79.669</ele>
<time>2016-03-02T01:57:14.731Z</time>
</trkpt>
<trkpt lat="-27.1831099" lon="152.8279158">
<ele>77.252</ele>
<time>2016-03-02T01:57:17.785Z</time>
</trkpt>
<trkpt lat="-27.1834605" lon="152.8280132">
<ele>74.731</ele>
<time>2016-03-02T01:57:19.923Z</time>
</trkpt>
<trkpt lat="-27.1839375" lon="152.8282319">
<ele>72.724</ele>
<time>2016-03-02T01:57:23.122Z</time>
</trkpt>
<trkpt lat="-27.1842020" lon="152.8284404">
<ele>70.824</ele>
<time>2016-03-02T01:57:25.206Z</time>
</trkpt>
<trkpt lat="-27.1844565" lon="152.8286469">
<ele>68.422</ele>
<time>2016-03-02T01:57:27.340Z</time>
</trkpt>
<trkpt lat="-27.1848502" lon="152.8289031">
<ele>65.741</ele>
<time>2016-03-02T01:57:30.300Z</time>
</trkpt>
<trkpt lat="-27.1851387" lon="152.8289434">
<ele>63.094</ele>
<time>2016-03-02T01:57:32.002Z</time>
</trkpt>
<trkpt lat="-27.1855968" lon="152.8287961">
<ele>60.488</ele>
<time>2016-03-02T01:57:34.590Z</time>
</trkpt>
<trkpt lat="-27.1859100" lon="152.8285888">
<ele>58.480</ele>
<time>2016-03-02T01:57:36.562Z</time>
</trkpt>
<trkpt lat="-27.1863950" lon="152.8282647">
<ele>57.521</ele>
<time>2016-03-02T01:57:39.830Z</time>
</trkpt>
<trkpt lat="-27.1866962" lon="152.8280495">
<ele>57.179</ele>
<time>2016-03-02T01:57:42.035Z</time>
</trkpt>
<trkpt lat="-27.1869813" lon="152.8278469">
<ele>56.796</ele>
<time>2016-03-02T01:57:44.180Z</time>
</trkpt>
<trkpt lat="-27.1873695" lon="152.8275527">
<ele>56.005</ele>
<time>2016-03-02T01:57:47.154Z</time>
</trkpt>
<trkpt lat="-27.1876002" lon="152.8273218">
<ele>54.919</ele>
<time>2016-03-02T01:57:49.154Z</time>
</trkpt>
<trkpt lat="-27.1879559" lon="152.8269607">
<ele>54.037</ele>
<time>2016-03-02T01:57:52.312Z</time>
</trkpt>
<trkpt lat="-27.1881649" lon="152.8267283">
<ele>53.668</ele>
<time>2016-03-02T01:57:54.268Z</time>
</trkpt>
<trkpt lat="-27.1884131" lon="152.8265436">
<ele>53.752</ele>
<time>2016-03-02T01:57:56.231Z</time>
</trkpt>
<trkpt lat="-27.1886980" lon="152.8264222">
<ele>54.153</ele>
<time>2016-03-02T01:57:58.197Z</time>
</trkpt>
<trkpt lat="-27.1889984" lon="152.8263752">
<ele>54.608</ele>
<time>2016-03-02T01:58:00.136Z</time>
</trkpt>
<trkpt lat="-27.1893167" lon="152.8264053">
<ele>54.960</ele>
<time>2016-03-02T01:58:02.184Z</time>
</trkpt>
<trkpt lat="-27.1897754" lon="152.8264367">
<ele>55.237</ele>
<time>2016-03-02T01:58:05.130Z</time>
</trkpt>
<trkpt lat="-27.1900714" lon="152.8264750">
<ele>55.354</ele>
<time>2016-03-02T01:58:07.023Z</time>
</trkpt>
<trkpt lat="-27.1903869" lon="152.8264980">
<ele>55.179</ele>
<time>2016-03-02T01:58:09.016Z</time>
</trkpt>
<trkpt lat="-27.1908634" lon="152.8265265">
<ele>54.812</ele>
<time>2016-03-02T01:58:12.056Z</time>
</trkpt>
<trkpt lat="-27.1911829" lon="152.8265536">
<ele>54.507</ele>
<time>2016-03-02T01:58:14.111Z</time>
</trkpt>
<trkpt lat="-27.1914820" lon="152.8265716">
<ele>54.264</ele>
<time>2016-03-02T01:58:16.054Z</time>
</trkpt>
<trkpt lat="-27.1918040" lon="152.8265966">
<ele>53.951</ele>
<time>2016-03-02T01:58:18.301Z</time>
</trkpt>
<trkpt lat="-27.1922409" lon="152.8266249">
<ele>53.666</ele>
<time>2016-03-02T01:58:21.424Z</time>
</trkpt>
<trkpt lat="-27.1926507" lon="152.8266623">
<ele>53.228</ele>
<time>2016-03-02T01:58:24.331Z</time>
</trkpt>
<trkpt lat="-27.1930861" lon="152.8266452">
<ele>52.337</ele>
<time>2016-03-02T01:58:27.354Z</time>
</trkpt>
<trkpt lat="-27.1933645" lon="152.8265870">
<ele>51.362</ele>
<time>2016-03-02T01:58:29.313Z</time>
</trkpt>
<trkpt lat="-27.1936344" lon="152.8264962">
<ele>50.904</ele>
<time>2016-03-02T01:58:31.269Z</time>
</trkpt>
<trkpt lat="-27.1940627" lon="152.8263647">
<ele>50.989</ele>
<time>2016-03-02T01:58:34.349Z</time>
</trkpt>
<trkpt lat="-27.1943345" lon="152.8262712">
<ele>51.165</ele>
<time>2016-03-02T01:58:36.315Z</time>
</trkpt>
<trkpt lat="-27.1946116" lon="152.8261899">
<ele>50.849</ele>
<time>2016-03-02T01:58:38.392Z</time>
</trkpt>
<trkpt lat="-27.1950650" lon="152.8260972">
<ele>49.987</ele>
<time>2016-03-02T01:58:42.736Z</time>
</trkpt>
<trkpt lat="-27.1953096" lon="152.8260379">
<ele>49.035</ele>
<time>2016-03-02T01:58:47.196Z</time>
</trkpt>
<trkpt lat="-27.1955217" lon="152.8259901">
<ele>48.354</ele>
<time>2016-03-02T01:58:50.516Z</time>
</trkpt>
<trkpt lat="-27.1957629" lon="152.8259657">
<ele>47.870</ele>
<time>2016-03-02T01:58:53.160Z</time>
</trkpt>
<trkpt lat="-27.1958806" lon="152.8259456">
<ele>47.049</ele>
<time>2016-03-02T01:58:54.321Z</time>
</trkpt>
<trkpt lat="-27.1959139" lon="152.8257823">
<ele>45.718</ele>
<time>2016-03-02T01:58:55.820Z</time>
</trkpt>
<trkpt lat="-27.1959475" lon="152.8254501">
<ele>44.736</ele>
<time>2016-03-02T01:58:58.996Z</time>
</trkpt>
<trkpt lat="-27.1959694" lon="152.8251098">
<ele>44.766</ele>
<time>2016-03-02T01:59:02.581Z</time>
</trkpt>
<trkpt lat="-27.1960097" lon="152.8248104">
<ele>45.390</ele>
<time>2016-03-02T01:59:05.678Z</time>
</trkpt>
<trkpt lat="-27.1960532" lon="152.8246315">
<ele>45.916</ele>
<time>2016-03-02T01:59:07.568Z</time>
</trkpt>
<trkpt lat="-27.1961851" lon="152.8243851">
<ele>46.075</ele>
<time>2016-03-02T01:59:10.391Z</time>
</trkpt>
<trkpt lat="-27.1963191" lon="152.8241070">
<ele>45.927</ele>
<time>2016-03-02T01:59:13.047Z</time>
</trkpt>
<trkpt lat="-27.1964582" lon="152.8238752">
<ele>45.628</ele>
<time>2016-03-02T01:59:15.289Z</time>
</trkpt>
<trkpt lat="-27.1965890" lon="152.8236777">
<ele>45.354</ele>
<time>2016-03-02T01:59:17.372Z</time>
</trkpt>
<trkpt lat="-27.1967705" lon="152.8233496">
<ele>45.226</ele>
<time>2016-03-02T01:59:21.537Z</time>
</trkpt>
<trkpt lat="-27.1968820" lon="152.8231345">
<ele>45.262</ele>
<time>2016-03-02T01:59:25.292Z</time>
</trkpt>
<trkpt lat="-27.1969916" lon="152.8229858">
<ele>45.400</ele>
<time>2016-03-02T01:59:27.787Z</time>
</trkpt>
<trkpt lat="-27.1971054" lon="152.8227994">
<ele>45.528</ele>
<time>2016-03-02T01:59:29.955Z</time>
</trkpt>
<trkpt lat="-27.1972195" lon="152.8227327">
<ele>45.625</ele>
<time>2016-03-02T01:59:31.221Z</time>
</trkpt>
<trkpt lat="-27.1974241" lon="152.8228648">
<ele>45.824</ele>
<time>2016-03-02T01:59:33.373Z</time>
</trkpt>
<trkpt lat="-27.1975987" lon="152.8229810">
<ele>46.592</ele>
<time>2016-03-02T01:59:35.060Z</time>
</trkpt>
<trkpt lat="-27.1978981" lon="152.8230948">
<ele>48.205</ele>
<time>2016-03-02T01:59:37.561Z</time>
</trkpt>
<trkpt lat="-27.1981320" lon="152.8231524">
<ele>50.118</ele>
<time>2016-03-02T01:59:39.437Z</time>
</trkpt>
<trkpt lat="-27.1983851" lon="152.8232090">
<ele>51.533</ele>
<time>2016-03-02T01:59:41.479Z</time>
</trkpt>
<trkpt lat="-27.1986352" lon="152.8232600">
<ele>52.132</ele>
<time>2016-03-02T01:59:43.515Z</time>
</trkpt>
<trkpt lat="-27.1988921" lon="152.8233129">
<ele>51.894</ele>
<time>2016-03-02T01:59:45.604Z</time>
</trkpt>
<trkpt lat="-27.1991408" lon="152.8233785">
<ele>51.101</ele>
<time>2016-03-02T01:59:47.625Z</time>
</trkpt>
<trkpt lat="-27.1994936" lon="152.8234651">
<ele>50.256</ele>
<time>2016-03-02T01:59:50.464Z</time>
</trkpt>
<trkpt lat="-27.1998738" lon="152.8235507">
<ele>49.703</ele>
<time>2016-03-02T01:59:53.553Z</time>
</trkpt>
<trkpt lat="-27.2001189" lon="152.8236220">
<ele>49.422</ele>
<time>2016-03-02T01:59:55.531Z</time>
</trkpt>
<trkpt lat="-27.2003377" lon="152.8237519">
<ele>49.108</ele>
<time>2016-03-02T01:59:57.430Z</time>
</trkpt>
<trkpt lat="-27.2005293" lon="152.8239367">
<ele>48.395</ele>
<time>2016-03-02T01:59:59.349Z</time>
</trkpt>
<trkpt lat="-27.2007252" lon="152.8241246">
<ele>47.421</ele>
<time>2016-03-02T02:00:01.301Z</time>
</trkpt>
<trkpt lat="-27.2009225" lon="152.8243091">
<ele>46.729</ele>
<time>2016-03-02T02:00:03.241Z</time>
</trkpt>
<trkpt lat="-27.2012212" lon="152.8245965">
<ele>46.544</ele>
<time>2016-03-02T02:00:06.112Z</time>
</trkpt>
<trkpt lat="-27.2015223" lon="152.8248653">
<ele>46.673</ele>
<time>2016-03-02T02:00:08.725Z</time>
</trkpt>
<trkpt lat="-27.2018498" lon="152.8251619">
<ele>46.977</ele>
<time>2016-03-02T02:00:11.226Z</time>
</trkpt>
<trkpt lat="-27.2020894" lon="152.8253826">
<ele>47.418</ele>
<time>2016-03-02T02:00:12.843Z</time>
</trkpt>
<trkpt lat="-27.2023597" lon="152.8256398">
<ele>47.835</ele>
<time>2016-03-02T02:00:14.643Z</time>
</trkpt>
<trkpt lat="-27.2028393" lon="152.8260858">
<ele>48.700</ele>
<time>2016-03-02T02:00:17.645Z</time>
</trkpt>
<trkpt lat="-27.2031520" lon="152.8263923">
<ele>50.525</ele>
<time>2016-03-02T02:00:19.640Z</time>
</trkpt>
<trkpt lat="-27.2036263" lon="152.8268435">
<ele>52.557</ele>
<time>2016-03-02T02:00:22.710Z</time>
</trkpt>
<trkpt lat="-27.2039471" lon="152.8271368">
<ele>53.805</ele>
<time>2016-03-02T02:00:24.795Z</time>
</trkpt>
<trkpt lat="-27.2041020" lon="152.8272812">
<ele>54.154</ele>
<time>2016-03-02T02:00:25.810Z</time>
</trkpt>
<trkpt lat="-27.2047408" lon="152.8277983">
<ele>53.776</ele>
<time>2016-03-02T02:00:29.623Z</time>
</trkpt>
<trkpt lat="-27.2050598" lon="152.8280818">
<ele>53.059</ele>
<time>2016-03-02T02:00:31.585Z</time>
</trkpt>
<trkpt lat="-27.2054046" lon="152.8283551">
<ele>52.452</ele>
<time>2016-03-02T02:00:33.617Z</time>
</trkpt>
<trkpt lat="-27.2059417" lon="152.8286811">
<ele>52.126</ele>
<time>2016-03-02T02:00:36.542Z</time>
</trkpt>
<trkpt lat="-27.2065055" lon="152.8289951">
<ele>52.015</ele>
<time>2016-03-02T02:00:39.534Z</time>
</trkpt>
<trkpt lat="-27.2070404" lon="152.8293919">
<ele>51.941</ele>
<time>2016-03-02T02:00:42.577Z</time>
</trkpt>
<trkpt lat="-27.2073776" lon="152.8296725">
<ele>51.681</ele>
<time>2016-03-02T02:00:44.576Z</time>
</trkpt>
<trkpt lat="-27.2079053" lon="152.8300676">
<ele>51.314</ele>
<time>2016-03-02T02:00:47.590Z</time>
</trkpt>
<trkpt lat="-27.2084413" lon="152.8303919">
<ele>51.103</ele>
<time>2016-03-02T02:00:50.464Z</time>
</trkpt>
<trkpt lat="-27.2090134" lon="152.8307090">
<ele>51.418</ele>
<time>2016-03-02T02:00:53.473Z</time>
</trkpt>
<trkpt lat="-27.2093863" lon="152.8309172">
<ele>52.366</ele>
<time>2016-03-02T02:00:55.435Z</time>
</trkpt>
<trkpt lat="-27.2099650" lon="152.8312280">
<ele>53.434</ele>
<time>2016-03-02T02:00:58.471Z</time>
</trkpt>
<trkpt lat="-27.2105430" lon="152.8315159">
<ele>54.043</ele>
<time>2016-03-02T02:01:01.508Z</time>
</trkpt>
<trkpt lat="-27.2109254" lon="152.8316794">
<ele>54.133</ele>
<time>2016-03-02T02:01:03.498Z</time>
</trkpt>
<trkpt lat="-27.2113231" lon="152.8318186">
<ele>53.619</ele>
<time>2016-03-02T02:01:05.535Z</time>
</trkpt>
<trkpt lat="-27.2118985" lon="152.8320574">
<ele>52.397</ele>
<time>2016-03-02T02:01:08.566Z</time>
</trkpt>
<trkpt lat="-27.2124635" lon="152.8322650">
<ele>50.555</ele>
<time>2016-03-02T02:01:11.514Z</time>
</trkpt>
<trkpt lat="-27.2128533" lon="152.8324020">
<ele>48.470</ele>
<time>2016-03-02T02:01:13.520Z</time>
</trkpt>
<trkpt lat="-27.2134441" lon="152.8326179">
<ele>46.614</ele>
<time>2016-03-02T02:01:16.602Z</time>
</trkpt>
<trkpt lat="-27.2138293" lon="152.8327726">
<ele>45.347</ele>
<time>2016-03-02T02:01:18.682Z</time>
</trkpt>
<trkpt lat="-27.2141990" lon="152.8329191">
<ele>44.604</ele>
<time>2016-03-02T02:01:20.688Z</time>
</trkpt>
<trkpt lat="-27.2147556" lon="152.8330918">
<ele>44.056</ele>
<time>2016-03-02T02:01:23.660Z</time>
</trkpt>
<trkpt lat="-27.2151350" lon="152.8331659">
<ele>43.638</ele>
<time>2016-03-02T02:01:25.614Z</time>
</trkpt>
<trkpt lat="-27.2157124" lon="152.8332427">
<ele>43.523</ele>
<time>2016-03-02T02:01:28.445Z</time>
</trkpt>
<trkpt lat="-27.2163358" lon="152.8332665">
<ele>43.633</ele>
<time>2016-03-02T02:01:31.218Z</time>
</trkpt>
<trkpt lat="-27.2168062" lon="152.8332464">
<ele>44.242</ele>
<time>2016-03-02T02:01:33.228Z</time>
</trkpt>
<trkpt lat="-27.2175061" lon="152.8331415">
<ele>45.878</ele>
<time>2016-03-02T02:01:36.118Z</time>
</trkpt>
<trkpt lat="-27.2179882" lon="152.8330185">
<ele>48.180</ele>
<time>2016-03-02T02:01:38.117Z</time>
</trkpt>
<trkpt lat="-27.2186864" lon="152.8327806">
<ele>50.238</ele>
<time>2016-03-02T02:01:41.037Z</time>
</trkpt>
<trkpt lat="-27.2191455" lon="152.8325728">
<ele>51.808</ele>
<time>2016-03-02T02:01:43.006Z</time>
</trkpt>
<trkpt lat="-27.2198320" lon="152.8322269">
<ele>53.084</ele>
<time>2016-03-02T02:01:45.983Z</time>
</trkpt>
<trkpt lat="-27.2203008" lon="152.8320037">
<ele>54.046</ele>
<time>2016-03-02T02:01:48.004Z</time>
</trkpt>
<trkpt lat="-27.2207734" lon="152.8317668">
<ele>54.756</ele>
<time>2016-03-02T02:01:50.058Z</time>
</trkpt>
<trkpt lat="-27.2214630" lon="152.8314143">
<ele>55.533</ele>
<time>2016-03-02T02:01:53.003Z</time>
</trkpt>
<trkpt lat="-27.2219415" lon="152.8311857">
<ele>56.368</ele>
<time>2016-03-02T02:01:55.018Z</time>
</trkpt>
<trkpt lat="-27.2226331" lon="152.8308418">
<ele>57.091</ele>
<time>2016-03-02T02:01:57.982Z</time>
</trkpt>
<trkpt lat="-27.2233090" lon="152.8305025">
<ele>57.756</ele>
<time>2016-03-02T02:02:00.931Z</time>
</trkpt>
<trkpt lat="-27.2237649" lon="152.8302851">
<ele>58.652</ele>
<time>2016-03-02T02:02:02.931Z</time>
</trkpt>
<trkpt lat="-27.2242293" lon="152.8300975">
<ele>59.840</ele>
<time>2016-03-02T02:02:04.944Z</time>
</trkpt>
<trkpt lat="-27.2247025" lon="152.8299491">
<ele>61.301</ele>
<time>2016-03-02T02:02:06.957Z</time>
</trkpt>
<trkpt lat="-27.2254165" lon="152.8297884">
<ele>63.041</ele>
<time>2016-03-02T02:02:09.972Z</time>
</trkpt>
<trkpt lat="-27.2258964" lon="152.8297154">
<ele>65.120</ele>
<time>2016-03-02T02:02:11.976Z</time>
</trkpt>
<trkpt lat="-27.2263827" lon="152.8296745">
<ele>67.293</ele>
<time>2016-03-02T02:02:13.990Z</time>
</trkpt>
<trkpt lat="-27.2271135" lon="152.8297061">
<ele>68.939</ele>
<time>2016-03-02T02:02:17.015Z</time>
</trkpt>
<trkpt lat="-27.2275927" lon="152.8297317">
<ele>69.627</ele>
<time>2016-03-02T02:02:19.015Z</time>
</trkpt>
<trkpt lat="-27.2282947" lon="152.8297657">
<ele>69.829</ele>
<time>2016-03-02T02:02:21.937Z</time>
</trkpt>
<trkpt lat="-27.2287796" lon="152.8297981">
<ele>70.120</ele>
<time>2016-03-02T02:02:23.938Z</time>
</trkpt>
<trkpt lat="-27.2292682" lon="152.8298185">
<ele>70.981</ele>
<time>2016-03-02T02:02:25.946Z</time>
</trkpt>
<trkpt lat="-27.2299986" lon="152.8298697">
<ele>72.453</ele>
<time>2016-03-02T02:02:28.925Z</time>
</trkpt>
<trkpt lat="-27.2304869" lon="152.8299000">
<ele>74.045</ele>
<time>2016-03-02T02:02:30.926Z</time>
</trkpt>
<trkpt lat="-27.2309786" lon="152.8299241">
<ele>75.638</ele>
<time>2016-03-02T02:02:32.946Z</time>
</trkpt>
<trkpt lat="-27.2314615" lon="152.8299786">
<ele>77.479</ele>
<time>2016-03-02T02:02:34.937Z</time>
</trkpt>
<trkpt lat="-27.2321813" lon="152.8301052">
<ele>79.281</ele>
<time>2016-03-02T02:02:37.901Z</time>
</trkpt>
<trkpt lat="-27.2329065" lon="152.8302863">
<ele>80.927</ele>
<time>2016-03-02T02:02:40.869Z</time>
</trkpt>
<trkpt lat="-27.2333865" lon="152.8304428">
<ele>82.793</ele>
<time>2016-03-02T02:02:42.843Z</time>
</trkpt>
<trkpt lat="-27.2338713" lon="152.8306215">
<ele>84.874</ele>
<time>2016-03-02T02:02:44.850Z</time>
</trkpt>
<trkpt lat="-27.2345767" lon="152.8309435">
<ele>86.553</ele>
<time>2016-03-02T02:02:47.877Z</time>
</trkpt>
<trkpt lat="-27.2350308" lon="152.8311778">
<ele>87.414</ele>
<time>2016-03-02T02:02:49.889Z</time>
</trkpt>
<trkpt lat="-27.2354826" lon="152.8314052">
<ele>87.228</ele>
<time>2016-03-02T02:02:51.888Z</time>
</trkpt>
<trkpt lat="-27.2361601" lon="152.8317620">
<ele>86.148</ele>
<time>2016-03-02T02:02:54.900Z</time>
</trkpt>
<trkpt lat="-27.2368526" lon="152.8320786">
<ele>84.847</ele>
<time>2016-03-02T02:02:57.880Z</time>
</trkpt>
<trkpt lat="-27.2373325" lon="152.8322477">
<ele>83.349</ele>
<time>2016-03-02T02:02:59.864Z</time>
</trkpt>
<trkpt lat="-27.2380794" lon="152.8324251">
<ele>81.338</ele>
<time>2016-03-02T02:03:02.871Z</time>
</trkpt>
<trkpt lat="-27.2388268" lon="152.8325063">
<ele>78.904</ele>
<time>2016-03-02T02:03:05.866Z</time>
</trkpt>
<trkpt lat="-27.2395651" lon="152.8325155">
<ele>76.095</ele>
<time>2016-03-02T02:03:08.839Z</time>
</trkpt>
<trkpt lat="-27.2400611" lon="152.8325226">
<ele>73.491</ele>
<time>2016-03-02T02:03:10.841Z</time>
</trkpt>
<trkpt lat="-27.2408106" lon="152.8326287">
<ele>72.026</ele>
<time>2016-03-02T02:03:13.873Z</time>
</trkpt>
<trkpt lat="-27.2415478" lon="152.8328644">
<ele>71.702</ele>
<time>2016-03-02T02:03:16.924Z</time>
</trkpt>
<trkpt lat="-27.2420121" lon="152.8330586">
<ele>71.902</ele>
<time>2016-03-02T02:03:18.902Z</time>
</trkpt>
<trkpt lat="-27.2427115" lon="152.8333491">
<ele>71.872</ele>
<time>2016-03-02T02:03:21.894Z</time>
</trkpt>
<trkpt lat="-27.2431905" lon="152.8334932">
<ele>70.906</ele>
<time>2016-03-02T02:03:23.876Z</time>
</trkpt>
<trkpt lat="-27.2439299" lon="152.8336396">
<ele>69.199</ele>
<time>2016-03-02T02:03:26.873Z</time>
</trkpt>
<trkpt lat="-27.2446654" lon="152.8337705">
<ele>67.885</ele>
<time>2016-03-02T02:03:29.838Z</time>
</trkpt>
<trkpt lat="-27.2453876" lon="152.8339963">
<ele>67.567</ele>
<time>2016-03-02T02:03:32.799Z</time>
</trkpt>
<trkpt lat="-27.2460576" lon="152.8343847">
<ele>67.821</ele>
<time>2016-03-02T02:03:35.763Z</time>
</trkpt>
<trkpt lat="-27.2466600" lon="152.8348965">
<ele>67.999</ele>
<time>2016-03-02T02:03:38.736Z</time>
</trkpt>
<trkpt lat="-27.2470178" lon="152.8352776">
<ele>67.611</ele>
<time>2016-03-02T02:03:40.680Z</time>
</trkpt>
<trkpt lat="-27.2473883" lon="152.8356714">
<ele>66.192</ele>
<time>2016-03-02T02:03:42.677Z</time>
</trkpt>
<trkpt lat="-27.2477589" lon="152.8360846">
<ele>63.629</ele>
<time>2016-03-02T02:03:44.719Z</time>
</trkpt>
<trkpt lat="-27.2483002" lon="152.8366980">
<ele>59.974</ele>
<time>2016-03-02T02:03:47.774Z</time>
</trkpt>
<trkpt lat="-27.2486589" lon="152.8370857">
<ele>55.752</ele>
<time>2016-03-02T02:03:49.752Z</time>
</trkpt>
<trkpt lat="-27.2489958" lon="152.8374957">
<ele>52.261</ele>
<time>2016-03-02T02:03:51.710Z</time>
</trkpt>
<trkpt lat="-27.2494313" lon="152.8382027">
<ele>50.409</ele>
<time>2016-03-02T02:03:54.673Z</time>
</trkpt>
<trkpt lat="-27.2496696" lon="152.8387254">
<ele>50.254</ele>
<time>2016-03-02T02:03:56.666Z</time>
</trkpt>
<trkpt lat="-27.2499549" lon="152.8395649">
<ele>51.741</ele>
<time>2016-03-02T02:03:59.759Z</time>
</trkpt>
<trkpt lat="-27.2501241" lon="152.8403859">
<ele>54.482</ele>
<time>2016-03-02T02:04:02.871Z</time>
</trkpt>
<trkpt lat="-27.2502466" lon="152.8411286">
<ele>57.426</ele>
<time>2016-03-02T02:04:05.823Z</time>
</trkpt>
<trkpt lat="-27.2503338" lon="152.8416217">
<ele>58.912</ele>
<time>2016-03-02T02:04:07.788Z</time>
</trkpt>
<trkpt lat="-27.2504294" lon="152.8421045">
<ele>58.125</ele>
<time>2016-03-02T02:04:09.708Z</time>
</trkpt>
<trkpt lat="-27.2506319" lon="152.8428470">
<ele>55.685</ele>
<time>2016-03-02T02:04:12.671Z</time>
</trkpt>
<trkpt lat="-27.2508185" lon="152.8433354">
<ele>52.554</ele>
<time>2016-03-02T02:04:14.691Z</time>
</trkpt>
<trkpt lat="-27.2511340" lon="152.8440296">
<ele>49.643</ele>
<time>2016-03-02T02:04:17.674Z</time>
</trkpt>
<trkpt lat="-27.2513828" lon="152.8444398">
<ele>47.279</ele>
<time>2016-03-02T02:04:19.584Z</time>
</trkpt>
<trkpt lat="-27.2516636" lon="152.8448449">
<ele>45.251</ele>
<time>2016-03-02T02:04:21.542Z</time>
</trkpt>
<trkpt lat="-27.2519524" lon="152.8452339">
<ele>43.394</ele>
<time>2016-03-02T02:04:23.410Z</time>
</trkpt>
<trkpt lat="-27.2524386" lon="152.8458698">
<ele>41.722</ele>
<time>2016-03-02T02:04:26.249Z</time>
</trkpt>
<trkpt lat="-27.2528044" lon="152.8463534">
<ele>41.100</ele>
<time>2016-03-02T02:04:28.180Z</time>
</trkpt>
<trkpt lat="-27.2533730" lon="152.8471713">
<ele>43.589</ele>
<time>2016-03-02T02:04:31.277Z</time>
</trkpt>
<trkpt lat="-27.2537467" lon="152.8476929">
<ele>48.941</ele>
<time>2016-03-02T02:04:33.357Z</time>
</trkpt>
<trkpt lat="-27.2540877" lon="152.8481659">
<ele>53.399</ele>
<time>2016-03-02T02:04:35.334Z</time>
</trkpt>
<trkpt lat="-27.2545947" lon="152.8488412">
<ele>54.006</ele>
<time>2016-03-02T02:04:38.310Z</time>
</trkpt>
<trkpt lat="-27.2551576" lon="152.8494231">
<ele>51.731</ele>
<time>2016-03-02T02:04:41.275Z</time>
</trkpt>
<trkpt lat="-27.2555594" lon="152.8497937">
<ele>49.141</ele>
<time>2016-03-02T02:04:43.286Z</time>
</trkpt>
<trkpt lat="-27.2561957" lon="152.8502959">
<ele>47.729</ele>
<time>2016-03-02T02:04:46.285Z</time>
</trkpt>
<trkpt lat="-27.2566404" lon="152.8505969">
<ele>47.590</ele>
<time>2016-03-02T02:04:48.272Z</time>
</trkpt>
<trkpt lat="-27.2573601" lon="152.8509834">
<ele>48.650</ele>
<time>2016-03-02T02:04:51.311Z</time>
</trkpt>
<trkpt lat="-27.2578461" lon="152.8511940">
<ele>50.387</ele>
<time>2016-03-02T02:04:53.297Z</time>
</trkpt>
<trkpt lat="-27.2583487" lon="152.8513726">
<ele>51.789</ele>
<time>2016-03-02T02:04:55.317Z</time>
</trkpt>
<trkpt lat="-27.2590984" lon="152.8515886">
<ele>52.173</ele>
<time>2016-03-02T02:04:58.295Z</time>
</trkpt>
<trkpt lat="-27.2598707" lon="152.8516993">
<ele>51.674</ele>
<time>2016-03-02T02:05:01.275Z</time>
</trkpt>
<trkpt lat="-27.2606537" lon="152.8517370">
<ele>50.335</ele>
<time>2016-03-02T02:05:04.234Z</time>
</trkpt>
<trkpt lat="-27.2611876" lon="152.8517158">
<ele>47.951</ele>
<time>2016-03-02T02:05:06.227Z</time>
</trkpt>
<trkpt lat="-27.2617185" lon="152.8516625">
<ele>45.131</ele>
<time>2016-03-02T02:05:08.210Z</time>
</trkpt>
<trkpt lat="-27.2622507" lon="152.8515717">
<ele>43.102</ele>
<time>2016-03-02T02:05:10.225Z</time>
</trkpt>
<trkpt lat="-27.2630365" lon="152.8514335">
<ele>42.569</ele>
<time>2016-03-02T02:05:13.263Z</time>
</trkpt>
<trkpt lat="-27.2635379" lon="152.8513356">
<ele>43.742</ele>
<time>2016-03-02T02:05:15.250Z</time>
</trkpt>
<trkpt lat="-27.2640437" lon="152.8512256">
<ele>45.956</ele>
<time>2016-03-02T02:05:17.271Z</time>
</trkpt>
<trkpt lat="-27.2645476" lon="152.8511373">
<ele>48.313</ele>
<time>2016-03-02T02:05:19.283Z</time>
</trkpt>
<trkpt lat="-27.2652907" lon="152.8509907">
<ele>50.434</ele>
<time>2016-03-02T02:05:22.261Z</time>
</trkpt>
<trkpt lat="-27.2660536" lon="152.8508526">
<ele>52.435</ele>
<time>2016-03-02T02:05:25.305Z</time>
</trkpt>
<trkpt lat="-27.2665583" lon="152.8507651">
<ele>54.329</ele>
<time>2016-03-02T02:05:27.301Z</time>
</trkpt>
<trkpt lat="-27.2670684" lon="152.8506663">
<ele>55.430</ele>
<time>2016-03-02T02:05:29.313Z</time>
</trkpt>
<trkpt lat="-27.2675764" lon="152.8505561">
<ele>55.269</ele>
<time>2016-03-02T02:05:31.319Z</time>
</trkpt>
<trkpt lat="-27.2683298" lon="152.8504161">
<ele>54.594</ele>
<time>2016-03-02T02:05:34.284Z</time>
</trkpt>
<trkpt lat="-27.2688393" lon="152.8503091">
<ele>53.747</ele>
<time>2016-03-02T02:05:36.293Z</time>
</trkpt>
<trkpt lat="-27.2695988" lon="152.8501475">
<ele>52.591</ele>
<time>2016-03-02T02:05:39.282Z</time>
</trkpt>
<trkpt lat="-27.2701027" lon="152.8500641">
<ele>51.415</ele>
<time>2016-03-02T02:05:41.250Z</time>
</trkpt>
<trkpt lat="-27.2706065" lon="152.8499728">
<ele>50.559</ele>
<time>2016-03-02T02:05:43.220Z</time>
</trkpt>
<trkpt lat="-27.2713693" lon="152.8498316">
<ele>50.089</ele>
<time>2016-03-02T02:05:46.220Z</time>
</trkpt>
<trkpt lat="-27.2718751" lon="152.8497422">
<ele>49.930</ele>
<time>2016-03-02T02:05:48.217Z</time>
</trkpt>
<trkpt lat="-27.2726216" lon="152.8495962">
<ele>49.321</ele>
<time>2016-03-02T02:05:51.178Z</time>
</trkpt>
<trkpt lat="-27.2731227" lon="152.8495050">
<ele>48.105</ele>
<time>2016-03-02T02:05:53.144Z</time>
</trkpt>
<trkpt lat="-27.2736250" lon="152.8493995">
<ele>47.029</ele>
<time>2016-03-02T02:05:55.100Z</time>
</trkpt>
<trkpt lat="-27.2743922" lon="152.8492180">
<ele>46.042</ele>
<time>2016-03-02T02:05:58.104Z</time>
</trkpt>
<trkpt lat="-27.2749018" lon="152.8490686">
<ele>44.766</ele>
<time>2016-03-02T02:06:00.129Z</time>
</trkpt>
<trkpt lat="-27.2754032" lon="152.8489238">
<ele>44.081</ele>
<time>2016-03-02T02:06:02.124Z</time>
</trkpt>
<trkpt lat="-27.2761510" lon="152.8486742">
<ele>44.724</ele>
<time>2016-03-02T02:06:05.128Z</time>
</trkpt>
<trkpt lat="-27.2766381" lon="152.8484826">
<ele>46.338</ele>
<time>2016-03-02T02:06:07.148Z</time>
</trkpt>
<trkpt lat="-27.2773378" lon="152.8481902">
<ele>48.017</ele>
<time>2016-03-02T02:06:10.116Z</time>
</trkpt>
<trkpt lat="-27.2777969" lon="152.8479862">
<ele>48.864</ele>
<time>2016-03-02T02:06:12.079Z</time>
</trkpt>
<trkpt lat="-27.2784901" lon="152.8476500">
<ele>48.656</ele>
<time>2016-03-02T02:06:15.059Z</time>
</trkpt>
<trkpt lat="-27.2791735" lon="152.8472894">
<ele>48.107</ele>
<time>2016-03-02T02:06:18.019Z</time>
</trkpt>
<trkpt lat="-27.2798581" lon="152.8469110">
<ele>47.840</ele>
<time>2016-03-02T02:06:21.022Z</time>
</trkpt>
<trkpt lat="-27.2805334" lon="152.8465573">
<ele>47.641</ele>
<time>2016-03-02T02:06:23.983Z</time>
</trkpt>
<trkpt lat="-27.2809848" lon="152.8463243">
<ele>46.844</ele>
<time>2016-03-02T02:06:25.957Z</time>
</trkpt>
<trkpt lat="-27.2814424" lon="152.8460777">
<ele>45.266</ele>
<time>2016-03-02T02:06:27.953Z</time>
</trkpt>
<trkpt lat="-27.2821419" lon="152.8457127">
<ele>43.606</ele>
<time>2016-03-02T02:06:30.980Z</time>
</trkpt>
<trkpt lat="-27.2828124" lon="152.8453115">
<ele>42.567</ele>
<time>2016-03-02T02:06:33.993Z</time>
</trkpt>
<trkpt lat="-27.2832441" lon="152.8450708">
<ele>42.167</ele>
<time>2016-03-02T02:06:35.971Z</time>
</trkpt>
<trkpt lat="-27.2838668" lon="152.8447259">
<ele>41.968</ele>
<time>2016-03-02T02:06:38.792Z</time>
</trkpt>
<trkpt lat="-27.2843266" lon="152.8444777">
<ele>41.665</ele>
<time>2016-03-02T02:06:40.785Z</time>
</trkpt>
<trkpt lat="-27.2847944" lon="152.8442221">
<ele>41.275</ele>
<time>2016-03-02T02:06:42.793Z</time>
</trkpt>
<trkpt lat="-27.2855178" lon="152.8438592">
<ele>41.006</ele>
<time>2016-03-02T02:06:45.848Z</time>
</trkpt>
<trkpt lat="-27.2860034" lon="152.8436345">
<ele>41.115</ele>
<time>2016-03-02T02:06:47.873Z</time>
</trkpt>
<trkpt lat="-27.2867468" lon="152.8433996">
<ele>41.848</ele>
<time>2016-03-02T02:06:50.848Z</time>
</trkpt>
<trkpt lat="-27.2874999" lon="152.8432008">
<ele>43.026</ele>
<time>2016-03-02T02:06:53.818Z</time>
</trkpt>
<trkpt lat="-27.2882612" lon="152.8430003">
<ele>44.004</ele>
<time>2016-03-02T02:06:56.801Z</time>
</trkpt>
<trkpt lat="-27.2890316" lon="152.8428071">
<ele>44.288</ele>
<time>2016-03-02T02:06:59.797Z</time>
</trkpt>
<trkpt lat="-27.2895427" lon="152.8426819">
<ele>43.898</ele>
<time>2016-03-02T02:07:01.798Z</time>
</trkpt>
<trkpt lat="-27.2900513" lon="152.8425547">
<ele>43.058</ele>
<time>2016-03-02T02:07:03.833Z</time>
</trkpt>
<trkpt lat="-27.2905514" lon="152.8424386">
<ele>42.002</ele>
<time>2016-03-02T02:07:05.834Z</time>
</trkpt>
<trkpt lat="-27.2913095" lon="152.8422723">
<ele>41.050</ele>
<time>2016-03-02T02:07:08.833Z</time>
</trkpt>
<trkpt lat="-27.2920799" lon="152.8421447">
<ele>40.473</ele>
<time>2016-03-02T02:07:11.855Z</time>
</trkpt>
<trkpt lat="-27.2928411" lon="152.8420669">
<ele>40.275</ele>
<time>2016-03-02T02:07:14.849Z</time>
</trkpt>
<trkpt lat="-27.2933462" lon="152.8420754">
<ele>40.270</ele>
<time>2016-03-02T02:07:16.843Z</time>
</trkpt>
<trkpt lat="-27.2938566" lon="152.8421077">
<ele>40.450</ele>
<time>2016-03-02T02:07:18.853Z</time>
</trkpt>
<trkpt lat="-27.2943611" lon="152.8421604">
<ele>40.822</ele>
<time>2016-03-02T02:07:20.832Z</time>
</trkpt>
<trkpt lat="-27.2951252" lon="152.8422872">
<ele>41.164</ele>
<time>2016-03-02T02:07:23.860Z</time>
</trkpt>
<trkpt lat="-27.2958592" lon="152.8424367">
<ele>41.291</ele>
<time>2016-03-02T02:07:26.811Z</time>
</trkpt>
<trkpt lat="-27.2963530" lon="152.8425481">
<ele>41.367</ele>
<time>2016-03-02T02:07:28.807Z</time>
</trkpt>
<trkpt lat="-27.2968482" lon="152.8426480">
<ele>41.603</ele>
<time>2016-03-02T02:07:30.781Z</time>
</trkpt>
<trkpt lat="-27.2975970" lon="152.8428263">
<ele>41.964</ele>
<time>2016-03-02T02:07:33.785Z</time>
</trkpt>
<trkpt lat="-27.2983360" lon="152.8429922">
<ele>42.239</ele>
<time>2016-03-02T02:07:36.773Z</time>
</trkpt>
<trkpt lat="-27.2990653" lon="152.8431693">
<ele>42.140</ele>
<time>2016-03-02T02:07:39.773Z</time>
</trkpt>
<trkpt lat="-27.2995485" lon="152.8432909">
<ele>41.577</ele>
<time>2016-03-02T02:07:41.800Z</time>
</trkpt>
<trkpt lat="-27.3002568" lon="152.8434132">
<ele>40.901</ele>
<time>2016-03-02T02:07:44.787Z</time>
</trkpt>
<trkpt lat="-27.3009592" lon="152.8434148">
<ele>40.492</ele>
<time>2016-03-02T02:07:47.763Z</time>
</trkpt>
<trkpt lat="-27.3016532" lon="152.8433109">
<ele>40.373</ele>
<time>2016-03-02T02:07:50.711Z</time>
</trkpt>
<trkpt lat="-27.3021192" lon="152.8432057">
<ele>40.917</ele>
<time>2016-03-02T02:07:52.675Z</time>
</trkpt>
<trkpt lat="-27.3025985" lon="152.8430688">
<ele>42.718</ele>
<time>2016-03-02T02:07:54.718Z</time>
</trkpt>
<trkpt lat="-27.3032953" lon="152.8429392">
<ele>45.760</ele>
<time>2016-03-02T02:07:57.621Z</time>
</trkpt>
<trkpt lat="-27.3040254" lon="152.8427962">
<ele>49.431</ele>
<time>2016-03-02T02:08:00.634Z</time>
</trkpt>
<trkpt lat="-27.3047500" lon="152.8426656">
<ele>53.377</ele>
<time>2016-03-02T02:08:03.618Z</time>
</trkpt>
<trkpt lat="-27.3052304" lon="152.8425791">
<ele>57.017</ele>
<time>2016-03-02T02:08:05.613Z</time>
</trkpt>
<trkpt lat="-27.3057145" lon="152.8425021">
<ele>59.036</ele>
<time>2016-03-02T02:08:07.605Z</time>
</trkpt>
<trkpt lat="-27.3064507" lon="152.8424691">
<ele>58.892</ele>
<time>2016-03-02T02:08:10.600Z</time>
</trkpt>
<trkpt lat="-27.3069553" lon="152.8425208">
<ele>57.702</ele>
<time>2016-03-02T02:08:12.670Z</time>
</trkpt>
<trkpt lat="-27.3076518" lon="152.8426610">
<ele>56.602</ele>
<time>2016-03-02T02:08:15.605Z</time>
</trkpt>
<trkpt lat="-27.3081091" lon="152.8428382">
<ele>55.971</ele>
<time>2016-03-02T02:08:17.627Z</time>
</trkpt>
<trkpt lat="-27.3085424" lon="152.8430866">
<ele>55.800</ele>
<time>2016-03-02T02:08:19.660Z</time>
</trkpt>
<trkpt lat="-27.3091323" lon="152.8435373">
<ele>56.480</ele>
<time>2016-03-02T02:08:22.630Z</time>
</trkpt>
<trkpt lat="-27.3095124" lon="152.8438815">
<ele>58.713</ele>
<time>2016-03-02T02:08:24.620Z</time>
</trkpt>
<trkpt lat="-27.3100162" lon="152.8444994">
<ele>61.839</ele>
<time>2016-03-02T02:08:27.614Z</time>
</trkpt>
<trkpt lat="-27.3103192" lon="152.8449689">
<ele>63.913</ele>
<time>2016-03-02T02:08:29.697Z</time>
</trkpt>
<trkpt lat="-27.3106601" lon="152.8456733">
<ele>64.151</ele>
<time>2016-03-02T02:08:32.635Z</time>
</trkpt>
<trkpt lat="-27.3108937" lon="152.8464244">
<ele>62.903</ele>
<time>2016-03-02T02:08:35.569Z</time>
</trkpt>
<trkpt lat="-27.3110311" lon="152.8472345">
<ele>60.825</ele>
<time>2016-03-02T02:08:38.536Z</time>
</trkpt>
<trkpt lat="-27.3110586" lon="152.8480807">
<ele>59.084</ele>
<time>2016-03-02T02:08:41.497Z</time>
</trkpt>
<trkpt lat="-27.3109963" lon="152.8486529">
<ele>58.418</ele>
<time>2016-03-02T02:08:43.465Z</time>
</trkpt>
<trkpt lat="-27.3108297" lon="152.8495119">
<ele>58.439</ele>
<time>2016-03-02T02:08:46.490Z</time>
</trkpt>
<trkpt lat="-27.3106331" lon="152.8503180">
<ele>58.382</ele>
<time>2016-03-02T02:08:49.432Z</time>
</trkpt>
<trkpt lat="-27.3104969" lon="152.8508637">
<ele>57.717</ele>
<time>2016-03-02T02:08:51.465Z</time>
</trkpt>
<trkpt lat="-27.3104327" lon="152.8511352">
<ele>56.738</ele>
<time>2016-03-02T02:08:52.475Z</time>
</trkpt>
<trkpt lat="-27.3103159" lon="152.8522375">
<ele>56.177</ele>
<time>2016-03-02T02:08:56.429Z</time>
</trkpt>
<trkpt lat="-27.3103777" lon="152.8530780">
<ele>56.258</ele>
<time>2016-03-02T02:08:59.377Z</time>
</trkpt>
<trkpt lat="-27.3104876" lon="152.8536408">
<ele>57.159</ele>
<time>2016-03-02T02:09:01.369Z</time>
</trkpt>
<trkpt lat="-27.3106621" lon="152.8541902">
<ele>59.347</ele>
<time>2016-03-02T02:09:03.380Z</time>
</trkpt>
<trkpt lat="-27.3109027" lon="152.8546948">
<ele>62.660</ele>
<time>2016-03-02T02:09:05.368Z</time>
</trkpt>
<trkpt lat="-27.3113384" lon="152.8553932">
<ele>66.013</ele>
<time>2016-03-02T02:09:08.350Z</time>
</trkpt>
<trkpt lat="-27.3116946" lon="152.8557890">
<ele>68.588</ele>
<time>2016-03-02T02:09:10.318Z</time>
</trkpt>
<trkpt lat="-27.3120947" lon="152.8561594">
<ele>70.814</ele>
<time>2016-03-02T02:09:12.340Z</time>
</trkpt>
<trkpt lat="-27.3127597" lon="152.8565998">
<ele>73.154</ele>
<time>2016-03-02T02:09:15.350Z</time>
</trkpt>
<trkpt lat="-27.3132319" lon="152.8568100">
<ele>75.359</ele>
<time>2016-03-02T02:09:17.393Z</time>
</trkpt>
<trkpt lat="-27.3139034" lon="152.8570351">
<ele>77.164</ele>
<time>2016-03-02T02:09:20.330Z</time>
</trkpt>
<trkpt lat="-27.3143282" lon="152.8572256">
<ele>78.374</ele>
<time>2016-03-02T02:09:22.317Z</time>
</trkpt>
<trkpt lat="-27.3149034" lon="152.8576460">
<ele>78.911</ele>
<time>2016-03-02T02:09:25.271Z</time>
</trkpt>
<trkpt lat="-27.3152715" lon="152.8579937">
<ele>79.696</ele>
<time>2016-03-02T02:09:27.271Z</time>
</trkpt>
<trkpt lat="-27.3156172" lon="152.8584077">
<ele>81.303</ele>
<time>2016-03-02T02:09:29.351Z</time>
</trkpt>
<trkpt lat="-27.3160737" lon="152.8590276">
<ele>82.902</ele>
<time>2016-03-02T02:09:32.318Z</time>
</trkpt>
<trkpt lat="-27.3164150" lon="152.8593901">
<ele>82.999</ele>
<time>2016-03-02T02:09:34.293Z</time>
</trkpt>
<trkpt lat="-27.3169911" lon="152.8598526">
<ele>81.364</ele>
<time>2016-03-02T02:09:37.281Z</time>
</trkpt>
<trkpt lat="-27.3174263" lon="152.8600801">
<ele>79.280</ele>
<time>2016-03-02T02:09:39.285Z</time>
</trkpt>
<trkpt lat="-27.3181381" lon="152.8603023">
<ele>77.656</ele>
<time>2016-03-02T02:09:42.309Z</time>
</trkpt>
<trkpt lat="-27.3188703" lon="152.8604911">
<ele>76.363</ele>
<time>2016-03-02T02:09:45.329Z</time>
</trkpt>
<trkpt lat="-27.3191169" lon="152.8605532">
<ele>75.454</ele>
<time>2016-03-02T02:09:46.344Z</time>
</trkpt>
<trkpt lat="-27.3200925" lon="152.8608199">
<ele>74.908</ele>
<time>2016-03-02T02:09:50.403Z</time>
</trkpt>
<trkpt lat="-27.3205526" lon="152.8609436">
<ele>74.467</ele>
<time>2016-03-02T02:09:52.462Z</time>
</trkpt>
<trkpt lat="-27.3209709" lon="152.8610554">
<ele>73.963</ele>
<time>2016-03-02T02:09:54.469Z</time>
</trkpt>
<trkpt lat="-27.3215512" lon="152.8612014">
<ele>72.872</ele>
<time>2016-03-02T02:09:57.391Z</time>
</trkpt>
<trkpt lat="-27.3219478" lon="152.8613001">
<ele>70.374</ele>
<time>2016-03-02T02:09:59.385Z</time>
</trkpt>
<trkpt lat="-27.3225472" lon="152.8614545">
<ele>66.867</ele>
<time>2016-03-02T02:10:02.374Z</time>
</trkpt>
<trkpt lat="-27.3231505" lon="152.8616269">
<ele>63.970</ele>
<time>2016-03-02T02:10:05.367Z</time>
</trkpt>
<trkpt lat="-27.3237438" lon="152.8618831">
<ele>62.548</ele>
<time>2016-03-02T02:10:08.378Z</time>
</trkpt>
<trkpt lat="-27.3242883" lon="152.8622520">
<ele>62.225</ele>
<time>2016-03-02T02:10:11.349Z</time>
</trkpt>
<trkpt lat="-27.3246147" lon="152.8625506">
<ele>62.333</ele>
<time>2016-03-02T02:10:13.359Z</time>
</trkpt>
<trkpt lat="-27.3250265" lon="152.8630484">
<ele>62.007</ele>
<time>2016-03-02T02:10:16.331Z</time>
</trkpt>
<trkpt lat="-27.3253916" lon="152.8635653">
<ele>60.370</ele>
<time>2016-03-02T02:10:19.300Z</time>
</trkpt>
<trkpt lat="-27.3256277" lon="152.8639189">
<ele>57.459</ele>
<time>2016-03-02T02:10:21.315Z</time>
</trkpt>
<trkpt lat="-27.3258694" lon="152.8642398">
<ele>54.580</ele>
<time>2016-03-02T02:10:23.240Z</time>
</trkpt>
<trkpt lat="-27.3262533" lon="152.8647306">
<ele>52.886</ele>
<time>2016-03-02T02:10:26.238Z</time>
</trkpt>
<trkpt lat="-27.3265022" lon="152.8650677">
<ele>52.172</ele>
<time>2016-03-02T02:10:28.245Z</time>
</trkpt>
<trkpt lat="-27.3269026" lon="152.8655642">
<ele>51.373</ele>
<time>2016-03-02T02:10:31.298Z</time>
</trkpt>
<trkpt lat="-27.3273457" lon="152.8659993">
<ele>50.113</ele>
<time>2016-03-02T02:10:34.285Z</time>
</trkpt>
<trkpt lat="-27.3276849" lon="152.8662411">
<ele>48.955</ele>
<time>2016-03-02T02:10:36.283Z</time>
</trkpt>
<trkpt lat="-27.3282417" lon="152.8665284">
<ele>48.492</ele>
<time>2016-03-02T02:10:39.277Z</time>
</trkpt>
<trkpt lat="-27.3288317" lon="152.8667416">
<ele>48.556</ele>
<time>2016-03-02T02:10:42.257Z</time>
</trkpt>
<trkpt lat="-27.3292351" lon="152.8668490">
<ele>48.763</ele>
<time>2016-03-02T02:10:44.269Z</time>
</trkpt>
<trkpt lat="-27.3298101" lon="152.8670331">
<ele>49.132</ele>
<time>2016-03-02T02:10:47.201Z</time>
</trkpt>
<trkpt lat="-27.3303782" lon="152.8673111">
<ele>50.333</ele>
<time>2016-03-02T02:10:50.232Z</time>
</trkpt>
<trkpt lat="-27.3309132" lon="152.8676756">
<ele>52.893</ele>
<time>2016-03-02T02:10:53.241Z</time>
</trkpt>
<trkpt lat="-27.3313882" lon="152.8681349">
<ele>56.782</ele>
<time>2016-03-02T02:10:56.221Z</time>
</trkpt>
<trkpt lat="-27.3318061" lon="152.8686708">
<ele>61.673</ele>
<time>2016-03-02T02:10:59.209Z</time>
</trkpt>
<trkpt lat="-27.3321336" lon="152.8693007">
<ele>66.463</ele>
<time>2016-03-02T02:11:02.234Z</time>
</trkpt>
<trkpt lat="-27.3322971" lon="152.8697517">
<ele>69.260</ele>
<time>2016-03-02T02:11:04.238Z</time>
</trkpt>
<trkpt lat="-27.3324941" lon="152.8704198">
<ele>69.614</ele>
<time>2016-03-02T02:11:07.123Z</time>
</trkpt>
<trkpt lat="-27.3327998" lon="152.8710865">
<ele>67.811</ele>
<time>2016-03-02T02:11:10.166Z</time>
</trkpt>
<trkpt lat="-27.3331067" lon="152.8714479">
<ele>63.130</ele>
<time>2016-03-02T02:11:12.186Z</time>
</trkpt>
<trkpt lat="-27.3334820" lon="152.8716985">
<ele>56.409</ele>
<time>2016-03-02T02:11:14.202Z</time>
</trkpt>
<trkpt lat="-27.3340692" lon="152.8719715">
<ele>50.872</ele>
<time>2016-03-02T02:11:17.181Z</time>
</trkpt>
<trkpt lat="-27.3344854" lon="152.8718944">
<ele>49.180</ele>
<time>2016-03-02T02:11:19.164Z</time>
</trkpt>
<trkpt lat="-27.3351209" lon="152.8717682">
<ele>51.838</ele>
<time>2016-03-02T02:11:22.143Z</time>
</trkpt>
<trkpt lat="-27.3355512" lon="152.8716426">
<ele>57.524</ele>
<time>2016-03-02T02:11:24.161Z</time>
</trkpt>
<trkpt lat="-27.3361947" lon="152.8714793">
<ele>64.029</ele>
<time>2016-03-02T02:11:27.180Z</time>
</trkpt>
<trkpt lat="-27.3366281" lon="152.8714204">
<ele>69.602</ele>
<time>2016-03-02T02:11:29.202Z</time>
</trkpt>
<trkpt lat="-27.3372706" lon="152.8714628">
<ele>73.210</ele>
<time>2016-03-02T02:11:32.214Z</time>
</trkpt>
<trkpt lat="-27.3376745" lon="152.8714934">
<ele>74.627</ele>
<time>2016-03-02T02:11:34.178Z</time>
</trkpt>
<trkpt lat="-27.3380739" lon="152.8715132">
<ele>74.097</ele>
<time>2016-03-02T02:11:36.175Z</time>
</trkpt>
<trkpt lat="-27.3384689" lon="152.8715367">
<ele>72.290</ele>
<time>2016-03-02T02:11:38.167Z</time>
</trkpt>
<trkpt lat="-27.3388664" lon="152.8715512">
<ele>70.298</ele>
<time>2016-03-02T02:11:40.162Z</time>
</trkpt>
<trkpt lat="-27.3394662" lon="152.8715737">
<ele>68.779</ele>
<time>2016-03-02T02:11:43.161Z</time>
</trkpt>
<trkpt lat="-27.3398681" lon="152.8715905">
<ele>67.696</ele>
<time>2016-03-02T02:11:45.176Z</time>
</trkpt>
<trkpt lat="-27.3404567" lon="152.8716328">
<ele>67.106</ele>
<time>2016-03-02T02:11:48.160Z</time>
</trkpt>
<trkpt lat="-27.3408466" lon="152.8716679">
<ele>67.363</ele>
<time>2016-03-02T02:11:50.170Z</time>
</trkpt>
<trkpt lat="-27.3412288" lon="152.8717076">
<ele>68.499</ele>
<time>2016-03-02T02:11:52.162Z</time>
</trkpt>
<trkpt lat="-27.3417914" lon="152.8717676">
<ele>70.080</ele>
<time>2016-03-02T02:11:55.131Z</time>
</trkpt>
<trkpt lat="-27.3423449" lon="152.8718242">
<ele>71.689</ele>
<time>2016-03-02T02:11:58.112Z</time>
</trkpt>
<trkpt lat="-27.3428570" lon="152.8720174">
<ele>73.495</ele>
<time>2016-03-02T02:12:01.010Z</time>
</trkpt>
<trkpt lat="-27.3433675" lon="152.8723557">
<ele>75.459</ele>
<time>2016-03-02T02:12:04.049Z</time>
</trkpt>
<trkpt lat="-27.3438826" lon="152.8727201">
<ele>76.807</ele>
<time>2016-03-02T02:12:07.062Z</time>
</trkpt>
<trkpt lat="-27.3442071" lon="152.8729670">
<ele>76.544</ele>
<time>2016-03-02T02:12:09.058Z</time>
</trkpt>
<trkpt lat="-27.3445155" lon="152.8731967">
<ele>74.496</ele>
<time>2016-03-02T02:12:11.076Z</time>
</trkpt>
<trkpt lat="-27.3447745" lon="152.8734238">
<ele>71.793</ele>
<time>2016-03-02T02:12:12.981Z</time>
</trkpt>
<trkpt lat="-27.3449780" lon="152.8737249">
<ele>70.042</ele>
<time>2016-03-02T02:12:14.948Z</time>
</trkpt>
<trkpt lat="-27.3451417" lon="152.8742934">
<ele>70.424</ele>
<time>2016-03-02T02:12:17.970Z</time>
</trkpt>
<trkpt lat="-27.3452076" lon="152.8749140">
<ele>72.876</ele>
<time>2016-03-02T02:12:21.009Z</time>
</trkpt>
<trkpt lat="-27.3453310" lon="152.8753062">
<ele>75.742</ele>
<time>2016-03-02T02:12:23.001Z</time>
</trkpt>
<trkpt lat="-27.3455483" lon="152.8758745">
<ele>77.514</ele>
<time>2016-03-02T02:12:25.968Z</time>
</trkpt>
<trkpt lat="-27.3457051" lon="152.8762587">
<ele>78.027</ele>
<time>2016-03-02T02:12:28.011Z</time>
</trkpt>
<trkpt lat="-27.3459279" lon="152.8768427">
<ele>77.728</ele>
<time>2016-03-02T02:12:31.107Z</time>
</trkpt>
<trkpt lat="-27.3460632" lon="152.8772106">
<ele>77.503</ele>
<time>2016-03-02T02:12:33.072Z</time>
</trkpt>
<trkpt lat="-27.3461528" lon="152.8775997">
<ele>77.894</ele>
<time>2016-03-02T02:12:35.091Z</time>
</trkpt>
<trkpt lat="-27.3462362" lon="152.8781804">
<ele>78.572</ele>
<time>2016-03-02T02:12:38.097Z</time>
</trkpt>
<trkpt lat="-27.3464464" lon="152.8787058">
<ele>79.516</ele>
<time>2016-03-02T02:12:41.078Z</time>
</trkpt>
<trkpt lat="-27.3466660" lon="152.8789977">
<ele>81.306</ele>
<time>2016-03-02T02:12:43.066Z</time>
</trkpt>
<trkpt lat="-27.3469840" lon="152.8794316">
<ele>83.560</ele>
<time>2016-03-02T02:12:45.965Z</time>
</trkpt>
<trkpt lat="-27.3472152" lon="152.8797350">
<ele>85.086</ele>
<time>2016-03-02T02:12:47.953Z</time>
</trkpt>
<trkpt lat="-27.3474594" lon="152.8800578">
<ele>85.001</ele>
<time>2016-03-02T02:12:50.002Z</time>
</trkpt>
<trkpt lat="-27.3477076" lon="152.8803548">
<ele>83.484</ele>
<time>2016-03-02T02:12:51.950Z</time>
</trkpt>
<trkpt lat="-27.3480565" lon="152.8808306">
<ele>81.601</ele>
<time>2016-03-02T02:12:54.907Z</time>
</trkpt>
<trkpt lat="-27.3482905" lon="152.8811132">
<ele>80.114</ele>
<time>2016-03-02T02:12:56.814Z</time>
</trkpt>
<trkpt lat="-27.3485525" lon="152.8813781">
<ele>79.074</ele>
<time>2016-03-02T02:12:58.919Z</time>
</trkpt>
<trkpt lat="-27.3489061" lon="152.8816879">
<ele>78.015</ele>
<time>2016-03-02T02:13:01.904Z</time>
</trkpt>
<trkpt lat="-27.3491108" lon="152.8818397">
<ele>75.852</ele>
<time>2016-03-02T02:13:03.843Z</time>
</trkpt>
<trkpt lat="-27.3492796" lon="152.8819805">
<ele>72.540</ele>
<time>2016-03-02T02:13:05.762Z</time>
</trkpt>
<trkpt lat="-27.3493732" lon="152.8821531">
<ele>69.238</ele>
<time>2016-03-02T02:13:07.678Z</time>
</trkpt>
<trkpt lat="-27.3494844" lon="152.8824023">
<ele>66.824</ele>
<time>2016-03-02T02:13:10.682Z</time>
</trkpt>
<trkpt lat="-27.3495739" lon="152.8825373">
<ele>65.568</ele>
<time>2016-03-02T02:13:12.715Z</time>
</trkpt>
<trkpt lat="-27.3496559" lon="152.8826478">
<ele>65.425</ele>
<time>2016-03-02T02:13:14.557Z</time>
</trkpt>
<trkpt lat="-27.3497418" lon="152.8828493">
<ele>66.013</ele>
<time>2016-03-02T02:13:17.540Z</time>
</trkpt>
<trkpt lat="-27.3497880" lon="152.8829774">
<ele>67.036</ele>
<time>2016-03-02T02:13:19.459Z</time>
</trkpt>
<trkpt lat="-27.3498189" lon="152.8831009">
<ele>68.226</ele>
<time>2016-03-02T02:13:21.317Z</time>
</trkpt>
<trkpt lat="-27.3498521" lon="152.8832557">
<ele>69.317</ele>
<time>2016-03-02T02:13:23.557Z</time>
</trkpt>
<trkpt lat="-27.3498843" lon="152.8834762">
<ele>70.365</ele>
<time>2016-03-02T02:13:26.656Z</time>
</trkpt>
<trkpt lat="-27.3499030" lon="152.8836757">
<ele>71.694</ele>
<time>2016-03-02T02:13:29.510Z</time>
</trkpt>
<trkpt lat="-27.3499148" lon="152.8838381">
<ele>73.361</ele>
<time>2016-03-02T02:13:31.717Z</time>
</trkpt>
<trkpt lat="-27.3499169" lon="152.8840563">
<ele>75.141</ele>
<time>2016-03-02T02:13:34.518Z</time>
</trkpt>
<trkpt lat="-27.3498926" lon="152.8842293">
<ele>76.948</ele>
<time>2016-03-02T02:13:36.641Z</time>
</trkpt>
<trkpt lat="-27.3498601" lon="152.8844949">
<ele>78.734</ele>
<time>2016-03-02T02:13:39.683Z</time>
</trkpt>
<trkpt lat="-27.3497924" lon="152.8847891">
<ele>80.357</ele>
<time>2016-03-02T02:13:42.788Z</time>
</trkpt>
<trkpt lat="-27.3497268" lon="152.8849953">
<ele>81.982</ele>
<time>2016-03-02T02:13:44.798Z</time>
</trkpt>
<trkpt lat="-27.3496120" lon="152.8853196">
<ele>83.756</ele>
<time>2016-03-02T02:13:47.800Z</time>
</trkpt>
<trkpt lat="-27.3494992" lon="152.8855424">
<ele>85.372</ele>
<time>2016-03-02T02:13:49.897Z</time>
</trkpt>
<trkpt lat="-27.3492981" lon="152.8858822">
<ele>86.679</ele>
<time>2016-03-02T02:13:52.945Z</time>
</trkpt>
<trkpt lat="-27.3491555" lon="152.8861055">
<ele>87.695</ele>
<time>2016-03-02T02:13:54.874Z</time>
</trkpt>
<trkpt lat="-27.3489199" lon="152.8864712">
<ele>88.016</ele>
<time>2016-03-02T02:13:57.843Z</time>
</trkpt>
<trkpt lat="-27.3486668" lon="152.8869118">
<ele>87.426</ele>
<time>2016-03-02T02:14:00.903Z</time>
</trkpt>
<trkpt lat="-27.3483585" lon="152.8873693">
<ele>86.394</ele>
<time>2016-03-02T02:14:03.955Z</time>
</trkpt>
<trkpt lat="-27.3481139" lon="152.8876695">
<ele>85.306</ele>
<time>2016-03-02T02:14:06.016Z</time>
</trkpt>
<trkpt lat="-27.3478471" lon="152.8879509">
<ele>84.046</ele>
<time>2016-03-02T02:14:08.042Z</time>
</trkpt>
<trkpt lat="-27.3475584" lon="152.8882131">
<ele>82.765</ele>
<time>2016-03-02T02:14:10.097Z</time>
</trkpt>
<trkpt lat="-27.3473005" lon="152.8884832">
<ele>81.760</ele>
<time>2016-03-02T02:14:12.074Z</time>
</trkpt>
<trkpt lat="-27.3469833" lon="152.8889134">
<ele>81.319</ele>
<time>2016-03-02T02:14:14.895Z</time>
</trkpt>
<trkpt lat="-27.3467894" lon="152.8892682">
<ele>81.638</ele>
<time>2016-03-02T02:14:16.977Z</time>
</trkpt>
<trkpt lat="-27.3466347" lon="152.8896197">
<ele>82.739</ele>
<time>2016-03-02T02:14:18.954Z</time>
</trkpt>
<trkpt lat="-27.3465234" lon="152.8899716">
<ele>84.305</ele>
<time>2016-03-02T02:14:20.854Z</time>
</trkpt>
<trkpt lat="-27.3464245" lon="152.8905482">
<ele>85.646</ele>
<time>2016-03-02T02:14:23.841Z</time>
</trkpt>
<trkpt lat="-27.3464458" lon="152.8909242">
<ele>86.256</ele>
<time>2016-03-02T02:14:25.749Z</time>
</trkpt>
<trkpt lat="-27.3464903" lon="152.8915173">
<ele>86.375</ele>
<time>2016-03-02T02:14:28.749Z</time>
</trkpt>
<trkpt lat="-27.3465772" lon="152.8919154">
<ele>86.322</ele>
<time>2016-03-02T02:14:30.760Z</time>
</trkpt>
<trkpt lat="-27.3467748" lon="152.8925142">
<ele>86.283</ele>
<time>2016-03-02T02:14:33.847Z</time>
</trkpt>
<trkpt lat="-27.3469021" lon="152.8931106">
<ele>86.449</ele>
<time>2016-03-02T02:14:36.880Z</time>
</trkpt>
<trkpt lat="-27.3469210" lon="152.8934799">
<ele>87.103</ele>
<time>2016-03-02T02:14:38.810Z</time>
</trkpt>
<trkpt lat="-27.3469140" lon="152.8938390">
<ele>88.281</ele>
<time>2016-03-02T02:14:40.747Z</time>
</trkpt>
<trkpt lat="-27.3469299" lon="152.8943837">
<ele>89.680</ele>
<time>2016-03-02T02:14:43.745Z</time>
</trkpt>
<trkpt lat="-27.3470041" lon="152.8949027">
<ele>91.051</ele>
<time>2016-03-02T02:14:46.712Z</time>
</trkpt>
<trkpt lat="-27.3471203" lon="152.8954159">
<ele>92.273</ele>
<time>2016-03-02T02:14:49.755Z</time>
</trkpt>
<trkpt lat="-27.3472194" lon="152.8957386">
<ele>93.167</ele>
<time>2016-03-02T02:14:51.737Z</time>
</trkpt>
<trkpt lat="-27.3473715" lon="152.8961997">
<ele>93.790</ele>
<time>2016-03-02T02:14:54.670Z</time>
</trkpt>
<trkpt lat="-27.3475111" lon="152.8966520">
<ele>94.640</ele>
<time>2016-03-02T02:14:57.652Z</time>
</trkpt>
<trkpt lat="-27.3476302" lon="152.8970811">
<ele>96.155</ele>
<time>2016-03-02T02:15:00.532Z</time>
</trkpt>
<trkpt lat="-27.3477011" lon="152.8973769">
<ele>98.354</ele>
<time>2016-03-02T02:15:02.495Z</time>
</trkpt>
<trkpt lat="-27.3477876" lon="152.8978426">
<ele>100.846</ele>
<time>2016-03-02T02:15:05.469Z</time>
</trkpt>
<trkpt lat="-27.3478380" lon="152.8981731">
<ele>102.849</ele>
<time>2016-03-02T02:15:07.468Z</time>
</trkpt>
<trkpt lat="-27.3478526" lon="152.8985349">
<ele>103.819</ele>
<time>2016-03-02T02:15:09.515Z</time>
</trkpt>
<trkpt lat="-27.3478439" lon="152.8988982">
<ele>103.977</ele>
<time>2016-03-02T02:15:11.463Z</time>
</trkpt>
<trkpt lat="-27.3478493" lon="152.8994764">
<ele>103.702</ele>
<time>2016-03-02T02:15:14.450Z</time>
</trkpt>
<trkpt lat="-27.3478692" lon="152.8998797">
<ele>103.273</ele>
<time>2016-03-02T02:15:16.526Z</time>
</trkpt>
<trkpt lat="-27.3479314" lon="152.9004484">
<ele>102.987</ele>
<time>2016-03-02T02:15:19.517Z</time>
</trkpt>
<trkpt lat="-27.3479842" lon="152.9008413">
<ele>103.073</ele>
<time>2016-03-02T02:15:21.594Z</time>
</trkpt>
<trkpt lat="-27.3480261" lon="152.9012088">
<ele>103.759</ele>
<time>2016-03-02T02:15:23.519Z</time>
</trkpt>
<trkpt lat="-27.3480846" lon="152.9015655">
<ele>104.971</ele>
<time>2016-03-02T02:15:25.417Z</time>
</trkpt>
<trkpt lat="-27.3481588" lon="152.9020997">
<ele>106.260</ele>
<time>2016-03-02T02:15:28.336Z</time>
</trkpt>
<trkpt lat="-27.3482041" lon="152.9026031">
<ele>107.358</ele>
<time>2016-03-02T02:15:31.241Z</time>
</trkpt>
<trkpt lat="-27.3481722" lon="152.9030923">
<ele>108.070</ele>
<time>2016-03-02T02:15:34.245Z</time>
</trkpt>
<trkpt lat="-27.3481238" lon="152.9033896">
<ele>107.957</ele>
<time>2016-03-02T02:15:36.176Z</time>
</trkpt>
<trkpt lat="-27.3480185" lon="152.9037002">
<ele>107.061</ele>
<time>2016-03-02T02:15:38.255Z</time>
</trkpt>
<trkpt lat="-27.3478054" lon="152.9041611">
<ele>105.857</ele>
<time>2016-03-02T02:15:41.368Z</time>
</trkpt>
<trkpt lat="-27.3475821" lon="152.9045959">
<ele>104.751</ele>
<time>2016-03-02T02:15:44.447Z</time>
</trkpt>
<trkpt lat="-27.3474381" lon="152.9048562">
<ele>103.095</ele>
<time>2016-03-02T02:15:46.455Z</time>
</trkpt>
<trkpt lat="-27.3472308" lon="152.9052267">
<ele>100.302</ele>
<time>2016-03-02T02:15:49.420Z</time>
</trkpt>
<trkpt lat="-27.3471078" lon="152.9055088">
<ele>96.854</ele>
<time>2016-03-02T02:15:51.578Z</time>
</trkpt>
<trkpt lat="-27.3468936" lon="152.9058607">
<ele>93.660</ele>
<time>2016-03-02T02:15:54.602Z</time>
</trkpt>
<trkpt lat="-27.3467671" lon="152.9060370">
<ele>90.752</ele>
<time>2016-03-02T02:15:56.294Z</time>
</trkpt>
<trkpt lat="-27.3465491" lon="152.9063555">
<ele>87.615</ele>
<time>2016-03-02T02:15:59.280Z</time>
</trkpt>
<trkpt lat="-27.3462697" lon="152.9067193">
<ele>84.293</ele>
<time>2016-03-02T02:16:02.411Z</time>
</trkpt>
<trkpt lat="-27.3459922" lon="152.9070617">
<ele>81.838</ele>
<time>2016-03-02T02:16:04.718Z</time>
</trkpt>
<trkpt lat="-27.3454525" lon="152.9076361">
<ele>81.392</ele>
<time>2016-03-02T02:16:08.230Z</time>
</trkpt>
<trkpt lat="-27.3451028" lon="152.9080274">
<ele>82.983</ele>
<time>2016-03-02T02:16:10.342Z</time>
</trkpt>
<trkpt lat="-27.3447766" lon="152.9084444">
<ele>83.866</ele>
<time>2016-03-02T02:16:12.430Z</time>
</trkpt>
<trkpt lat="-27.3443018" lon="152.9090022">
<ele>81.525</ele>
<time>2016-03-02T02:16:15.414Z</time>
</trkpt>
<trkpt lat="-27.3440263" lon="152.9093377">
<ele>76.312</ele>
<time>2016-03-02T02:16:17.287Z</time>
</trkpt>
<trkpt lat="-27.3436353" lon="152.9099071">
<ele>70.269</ele>
<time>2016-03-02T02:16:20.304Z</time>
</trkpt>
<trkpt lat="-27.3434502" lon="152.9103199">
<ele>64.075</ele>
<time>2016-03-02T02:16:22.248Z</time>
</trkpt>
<trkpt lat="-27.3433249" lon="152.9107674">
<ele>56.842</ele>
<time>2016-03-02T02:16:24.199Z</time>
</trkpt>
<trkpt lat="-27.3432414" lon="152.9114948">
<ele>49.327</ele>
<time>2016-03-02T02:16:27.182Z</time>
</trkpt>
<trkpt lat="-27.3433189" lon="152.9122359">
<ele>44.168</ele>
<time>2016-03-02T02:16:30.095Z</time>
</trkpt>
<trkpt lat="-27.3433986" lon="152.9127654">
<ele>42.139</ele>
<time>2016-03-02T02:16:32.118Z</time>
</trkpt>
<trkpt lat="-27.3434987" lon="152.9133091">
<ele>42.560</ele>
<time>2016-03-02T02:16:34.271Z</time>
</trkpt>
<trkpt lat="-27.3435526" lon="152.9140063">
<ele>44.853</ele>
<time>2016-03-02T02:16:37.162Z</time>
</trkpt>
<trkpt lat="-27.3434969" lon="152.9144423">
<ele>48.244</ele>
<time>2016-03-02T02:16:39.144Z</time>
</trkpt>
<trkpt lat="-27.3432582" lon="152.9150142">
<ele>51.548</ele>
<time>2016-03-02T02:16:42.071Z</time>
</trkpt>
<trkpt lat="-27.3430167" lon="152.9153586">
<ele>54.292</ele>
<time>2016-03-02T02:16:44.135Z</time>
</trkpt>
<trkpt lat="-27.3425441" lon="152.9157096">
<ele>56.465</ele>
<time>2016-03-02T02:16:47.134Z</time>
</trkpt>
<trkpt lat="-27.3421835" lon="152.9158612">
<ele>58.586</ele>
<time>2016-03-02T02:16:49.206Z</time>
</trkpt>
<trkpt lat="-27.3418355" lon="152.9159443">
<ele>61.619</ele>
<time>2016-03-02T02:16:51.136Z</time>
</trkpt>
<trkpt lat="-27.3412674" lon="152.9158733">
<ele>65.172</ele>
<time>2016-03-02T02:16:54.155Z</time>
</trkpt>
<trkpt lat="-27.3408859" lon="152.9157351">
<ele>68.426</ele>
<time>2016-03-02T02:16:56.136Z</time>
</trkpt>
<trkpt lat="-27.3404721" lon="152.9155988">
<ele>71.545</ele>
<time>2016-03-02T02:16:58.184Z</time>
</trkpt>
<trkpt lat="-27.3400605" lon="152.9154630">
<ele>74.504</ele>
<time>2016-03-02T02:17:00.202Z</time>
</trkpt>
<trkpt lat="-27.3394346" lon="152.9152757">
<ele>76.858</ele>
<time>2016-03-02T02:17:03.260Z</time>
</trkpt>
<trkpt lat="-27.3390238" lon="152.9151481">
<ele>78.804</ele>
<time>2016-03-02T02:17:05.278Z</time>
</trkpt>
<trkpt lat="-27.3386155" lon="152.9150300">
<ele>80.977</ele>
<time>2016-03-02T02:17:07.261Z</time>
</trkpt>
<trkpt lat="-27.3382028" lon="152.9149167">
<ele>83.296</ele>
<time>2016-03-02T02:17:09.258Z</time>
</trkpt>
<trkpt lat="-27.3375708" lon="152.9148836">
<ele>84.876</ele>
<time>2016-03-02T02:17:12.265Z</time>
</trkpt>
<trkpt lat="-27.3371609" lon="152.9149835">
<ele>85.461</ele>
<time>2016-03-02T02:17:14.288Z</time>
</trkpt>
<trkpt lat="-27.3365966" lon="152.9152906">
<ele>85.380</ele>
<time>2016-03-02T02:17:17.308Z</time>
</trkpt>
<trkpt lat="-27.3362672" lon="152.9155889">
<ele>85.006</ele>
<time>2016-03-02T02:17:19.311Z</time>
</trkpt>
<trkpt lat="-27.3359766" lon="152.9159162">
<ele>84.723</ele>
<time>2016-03-02T02:17:21.237Z</time>
</trkpt>
<trkpt lat="-27.3355368" lon="152.9164454">
<ele>85.211</ele>
<time>2016-03-02T02:17:24.276Z</time>
</trkpt>
<trkpt lat="-27.3352233" lon="152.9167328">
<ele>87.213</ele>
<time>2016-03-02T02:17:26.265Z</time>
</trkpt>
<trkpt lat="-27.3348658" lon="152.9169100">
<ele>90.627</ele>
<time>2016-03-02T02:17:28.268Z</time>
</trkpt>
<trkpt lat="-27.3344836" lon="152.9169473">
<ele>94.095</ele>
<time>2016-03-02T02:17:30.257Z</time>
</trkpt>
<trkpt lat="-27.3339102" lon="152.9168460">
<ele>96.565</ele>
<time>2016-03-02T02:17:33.275Z</time>
</trkpt>
<trkpt lat="-27.3335516" lon="152.9167686">
<ele>99.010</ele>
<time>2016-03-02T02:17:35.293Z</time>
</trkpt>
<trkpt lat="-27.3332294" lon="152.9167811">
<ele>102.216</ele>
<time>2016-03-02T02:17:37.253Z</time>
</trkpt>
<trkpt lat="-27.3328232" lon="152.9170271">
<ele>104.887</ele>
<time>2016-03-02T02:17:40.189Z</time>
</trkpt>
<trkpt lat="-27.3326440" lon="152.9173214">
<ele>106.022</ele>
<time>2016-03-02T02:17:42.179Z</time>
</trkpt>
<trkpt lat="-27.3325241" lon="152.9176813">
<ele>106.406</ele>
<time>2016-03-02T02:17:44.154Z</time>
</trkpt>
<trkpt lat="-27.3325211" lon="152.9181681">
<ele>107.243</ele>
<time>2016-03-02T02:17:46.456Z</time>
</trkpt>
<trkpt lat="-27.3324244" lon="152.9188189">
<ele>108.722</ele>
<time>2016-03-02T02:17:49.488Z</time>
</trkpt>
<trkpt lat="-27.3321406" lon="152.9193925">
<ele>109.890</ele>
<time>2016-03-02T02:17:52.429Z</time>
</trkpt>
<trkpt lat="-27.3318249" lon="152.9196733">
<ele>110.147</ele>
<time>2016-03-02T02:17:54.402Z</time>
</trkpt>
<trkpt lat="-27.3312630" lon="152.9200600">
<ele>109.830</ele>
<time>2016-03-02T02:17:57.602Z</time>
</trkpt>
<trkpt lat="-27.3307754" lon="152.9204462">
<ele>108.512</ele>
<time>2016-03-02T02:18:00.642Z</time>
</trkpt>
<trkpt lat="-27.3305447" lon="152.9207592">
<ele>105.443</ele>
<time>2016-03-02T02:18:02.591Z</time>
</trkpt>
<trkpt lat="-27.3303133" lon="152.9213166">
<ele>101.813</ele>
<time>2016-03-02T02:18:05.558Z</time>
</trkpt>
<trkpt lat="-27.3302997" lon="152.9217436">
<ele>99.510</ele>
<time>2016-03-02T02:18:07.528Z</time>
</trkpt>
<trkpt lat="-27.3304413" lon="152.9224057">
<ele>98.747</ele>
<time>2016-03-02T02:18:10.479Z</time>
</trkpt>
<trkpt lat="-27.3306374" lon="152.9231241">
<ele>98.801</ele>
<time>2016-03-02T02:18:13.512Z</time>
</trkpt>
<trkpt lat="-27.3307831" lon="152.9238697">
<ele>98.907</ele>
<time>2016-03-02T02:18:16.540Z</time>
</trkpt>
<trkpt lat="-27.3308312" lon="152.9246010">
<ele>98.487</ele>
<time>2016-03-02T02:18:19.512Z</time>
</trkpt>
<trkpt lat="-27.3308202" lon="152.9250832">
<ele>97.414</ele>
<time>2016-03-02T02:18:21.616Z</time>
</trkpt>
<trkpt lat="-27.3308239" lon="152.9256565">
<ele>96.156</ele>
<time>2016-03-02T02:18:24.255Z</time>
</trkpt>
<trkpt lat="-27.3309021" lon="152.9260599">
<ele>95.021</ele>
<time>2016-03-02T02:18:26.218Z</time>
</trkpt>
<trkpt lat="-27.3310838" lon="152.9264612">
<ele>93.687</ele>
<time>2016-03-02T02:18:28.329Z</time>
</trkpt>
<trkpt lat="-27.3312740" lon="152.9270682">
<ele>92.109</ele>
<time>2016-03-02T02:18:31.333Z</time>
</trkpt>
<trkpt lat="-27.3312678" lon="152.9275134">
<ele>90.607</ele>
<time>2016-03-02T02:18:33.371Z</time>
</trkpt>
<trkpt lat="-27.3312308" lon="152.9279791">
<ele>89.350</ele>
<time>2016-03-02T02:18:35.444Z</time>
</trkpt>
<trkpt lat="-27.3311619" lon="152.9284370">
<ele>88.588</ele>
<time>2016-03-02T02:18:37.467Z</time>
</trkpt>
<trkpt lat="-27.3309819" lon="152.9291067">
<ele>88.520</ele>
<time>2016-03-02T02:18:40.508Z</time>
</trkpt>
<trkpt lat="-27.3306417" lon="152.9296695">
<ele>89.150</ele>
<time>2016-03-02T02:18:43.463Z</time>
</trkpt>
<trkpt lat="-27.3301696" lon="152.9301081">
<ele>90.541</ele>
<time>2016-03-02T02:18:46.463Z</time>
</trkpt>
<trkpt lat="-27.3298585" lon="152.9303948">
<ele>92.269</ele>
<time>2016-03-02T02:18:48.458Z</time>
</trkpt>
<trkpt lat="-27.3294469" lon="152.9308833">
<ele>93.160</ele>
<time>2016-03-02T02:18:51.438Z</time>
</trkpt>
<trkpt lat="-27.3292415" lon="152.9312701">
<ele>92.319</ele>
<time>2016-03-02T02:18:53.481Z</time>
</trkpt>
<trkpt lat="-27.3289641" lon="152.9318204">
<ele>90.245</ele>
<time>2016-03-02T02:18:56.452Z</time>
</trkpt>
<trkpt lat="-27.3287028" lon="152.9323473">
<ele>88.044</ele>
<time>2016-03-02T02:18:59.416Z</time>
</trkpt>
<trkpt lat="-27.3284376" lon="152.9328655">
<ele>86.039</ele>
<time>2016-03-02T02:19:02.435Z</time>
</trkpt>
<trkpt lat="-27.3281984" lon="152.9333433">
<ele>84.281</ele>
<time>2016-03-02T02:19:05.237Z</time>
</trkpt>
<trkpt lat="-27.3280241" lon="152.9336821">
<ele>83.232</ele>
<time>2016-03-02T02:19:07.267Z</time>
</trkpt>
<trkpt lat="-27.3278671" lon="152.9340046">
<ele>83.010</ele>
<time>2016-03-02T02:19:09.273Z</time>
</trkpt>
<trkpt lat="-27.3278010" lon="152.9343393">
<ele>83.049</ele>
<time>2016-03-02T02:19:11.194Z</time>
</trkpt>
<trkpt lat="-27.3278772" lon="152.9350473">
<ele>82.561</ele>
<time>2016-03-02T02:19:15.229Z</time>
</trkpt>
<trkpt lat="-27.3280326" lon="152.9353913">
<ele>80.814</ele>
<time>2016-03-02T02:19:17.287Z</time>
</trkpt>
<trkpt lat="-27.3283979" lon="152.9357854">
<ele>78.070</ele>
<time>2016-03-02T02:19:20.188Z</time>
</trkpt>
<trkpt lat="-27.3287125" lon="152.9360524">
<ele>75.708</ele>
<time>2016-03-02T02:19:22.286Z</time>
</trkpt>
<trkpt lat="-27.3290330" lon="152.9363084">
<ele>74.943</ele>
<time>2016-03-02T02:19:24.310Z</time>
</trkpt>
<trkpt lat="-27.3294436" lon="152.9367959">
<ele>75.649</ele>
<time>2016-03-02T02:19:27.367Z</time>
</trkpt>
<trkpt lat="-27.3296329" lon="152.9371979">
<ele>76.292</ele>
<time>2016-03-02T02:19:29.461Z</time>
</trkpt>
<trkpt lat="-27.3297745" lon="152.9378208">
<ele>75.425</ele>
<time>2016-03-02T02:19:32.406Z</time>
</trkpt>
<trkpt lat="-27.3297622" lon="152.9384900">
<ele>73.190</ele>
<time>2016-03-02T02:19:35.431Z</time>
</trkpt>
<trkpt lat="-27.3296984" lon="152.9391207">
<ele>70.454</ele>
<time>2016-03-02T02:19:38.288Z</time>
</trkpt>
<trkpt lat="-27.3296880" lon="152.9395664">
<ele>67.091</ele>
<time>2016-03-02T02:19:40.294Z</time>
</trkpt>
<trkpt lat="-27.3296505" lon="152.9399927">
<ele>63.150</ele>
<time>2016-03-02T02:19:42.213Z</time>
</trkpt>
<trkpt lat="-27.3295834" lon="152.9406452">
<ele>58.996</ele>
<time>2016-03-02T02:19:45.131Z</time>
</trkpt>
<trkpt lat="-27.3295258" lon="152.9413229">
<ele>54.584</ele>
<time>2016-03-02T02:19:48.113Z</time>
</trkpt>
<trkpt lat="-27.3294778" lon="152.9420165">
<ele>50.170</ele>
<time>2016-03-02T02:19:51.116Z</time>
</trkpt>
<trkpt lat="-27.3294413" lon="152.9424941">
<ele>46.381</ele>
<time>2016-03-02T02:19:53.165Z</time>
</trkpt>
<trkpt lat="-27.3293927" lon="152.9431843">
<ele>43.564</ele>
<time>2016-03-02T02:19:56.126Z</time>
</trkpt>
<trkpt lat="-27.3293625" lon="152.9436481">
<ele>42.087</ele>
<time>2016-03-02T02:19:58.102Z</time>
</trkpt>
<trkpt lat="-27.3293141" lon="152.9441119">
<ele>41.745</ele>
<time>2016-03-02T02:20:00.066Z</time>
</trkpt>
<trkpt lat="-27.3292512" lon="152.9448196">
<ele>42.165</ele>
<time>2016-03-02T02:20:03.060Z</time>
</trkpt>
<trkpt lat="-27.3291837" lon="152.9455366">
<ele>43.485</ele>
<time>2016-03-02T02:20:06.135Z</time>
</trkpt>
<trkpt lat="-27.3291618" lon="152.9462050">
<ele>45.826</ele>
<time>2016-03-02T02:20:09.006Z</time>
</trkpt>
<trkpt lat="-27.3291953" lon="152.9469164">
<ele>48.353</ele>
<time>2016-03-02T02:20:12.046Z</time>
</trkpt>
<trkpt lat="-27.3292451" lon="152.9473853">
<ele>49.079</ele>
<time>2016-03-02T02:20:14.057Z</time>
</trkpt>
<trkpt lat="-27.3293758" lon="152.9480760">
<ele>47.359</ele>
<time>2016-03-02T02:20:17.068Z</time>
</trkpt>
<trkpt lat="-27.3294690" lon="152.9485302">
<ele>45.393</ele>
<time>2016-03-02T02:20:19.061Z</time>
</trkpt>
<trkpt lat="-27.3296648" lon="152.9489393">
<ele>45.091</ele>
<time>2016-03-02T02:20:21.060Z</time>
</trkpt>
<trkpt lat="-27.3299045" lon="152.9495742">
<ele>45.692</ele>
<time>2016-03-02T02:20:24.020Z</time>
</trkpt>
<trkpt lat="-27.3300704" lon="152.9499757">
<ele>45.997</ele>
<time>2016-03-02T02:20:25.909Z</time>
</trkpt>
<trkpt lat="-27.3302213" lon="152.9503724">
<ele>45.764</ele>
<time>2016-03-02T02:20:27.750Z</time>
</trkpt>
<trkpt lat="-27.3304712" lon="152.9510138">
<ele>44.783</ele>
<time>2016-03-02T02:20:30.732Z</time>
</trkpt>
<trkpt lat="-27.3307190" lon="152.9516409">
<ele>42.990</ele>
<time>2016-03-02T02:20:33.711Z</time>
</trkpt>
<trkpt lat="-27.3310091" lon="152.9522293">
<ele>40.422</ele>
<time>2016-03-02T02:20:36.803Z</time>
</trkpt>
<trkpt lat="-27.3313083" lon="152.9527207">
<ele>37.033</ele>
<time>2016-03-02T02:20:39.759Z</time>
</trkpt>
<trkpt lat="-27.3315844" lon="152.9531812">
<ele>33.116</ele>
<time>2016-03-02T02:20:42.772Z</time>
</trkpt>
<trkpt lat="-27.3318474" lon="152.9536058">
<ele>29.287</ele>
<time>2016-03-02T02:20:45.746Z</time>
</trkpt>
<trkpt lat="-27.3320133" lon="152.9538836">
<ele>26.255</ele>
<time>2016-03-02T02:20:47.757Z</time>
</trkpt>
<trkpt lat="-27.3321557" lon="152.9541486">
<ele>24.369</ele>
<time>2016-03-02T02:20:49.705Z</time>
</trkpt>
<trkpt lat="-27.3323650" lon="152.9545217">
<ele>23.106</ele>
<time>2016-03-02T02:20:52.568Z</time>
</trkpt>
<trkpt lat="-27.3326008" lon="152.9548942">
<ele>21.896</ele>
<time>2016-03-02T02:20:55.656Z</time>
</trkpt>
<trkpt lat="-27.3328055" lon="152.9552208">
<ele>20.558</ele>
<time>2016-03-02T02:20:58.548Z</time>
</trkpt>
<trkpt lat="-27.3329182" lon="152.9554217">
<ele>19.118</ele>
<time>2016-03-02T02:21:00.416Z</time>
</trkpt>
<trkpt lat="-27.3330964" lon="152.9557105">
<ele>17.691</ele>
<time>2016-03-02T02:21:03.319Z</time>
</trkpt>
<trkpt lat="-27.3332236" lon="152.9559415">
<ele>16.458</ele>
<time>2016-03-02T02:21:05.378Z</time>
</trkpt>
<trkpt lat="-27.3334771" lon="152.9563471">
<ele>15.848</ele>
<time>2016-03-02T02:21:08.513Z</time>
</trkpt>
<trkpt lat="-27.3336863" lon="152.9566493">
<ele>16.190</ele>
<time>2016-03-02T02:21:10.683Z</time>
</trkpt>
<trkpt lat="-27.3339043" lon="152.9569231">
<ele>17.180</ele>
<time>2016-03-02T02:21:12.737Z</time>
</trkpt>
<trkpt lat="-27.3342193" lon="152.9572913">
<ele>17.966</ele>
<time>2016-03-02T02:21:15.592Z</time>
</trkpt>
<trkpt lat="-27.3345411" lon="152.9576672">
<ele>18.000</ele>
<time>2016-03-02T02:21:18.570Z</time>
</trkpt>
<trkpt lat="-27.3347570" lon="152.9579112">
<ele>17.384</ele>
<time>2016-03-02T02:21:20.553Z</time>
</trkpt>
<trkpt lat="-27.3349862" lon="152.9581475">
<ele>16.550</ele>
<time>2016-03-02T02:21:22.542Z</time>
</trkpt>
<trkpt lat="-27.3353062" lon="152.9585315">
<ele>16.047</ele>
<time>2016-03-02T02:21:25.533Z</time>
</trkpt>
<trkpt lat="-27.3356254" lon="152.9589067">
<ele>16.111</ele>
<time>2016-03-02T02:21:28.540Z</time>
</trkpt>
<trkpt lat="-27.3358000" lon="152.9591697">
<ele>16.726</ele>
<time>2016-03-02T02:21:30.507Z</time>
</trkpt>
<trkpt lat="-27.3359605" lon="152.9596315">
<ele>17.756</ele>
<time>2016-03-02T02:21:33.587Z</time>
</trkpt>
<trkpt lat="-27.3360289" lon="152.9600729">
<ele>18.819</ele>
<time>2016-03-02T02:21:36.590Z</time>
</trkpt>
<trkpt lat="-27.3360652" lon="152.9603123">
<ele>19.552</ele>
<time>2016-03-02T02:21:38.524Z</time>
</trkpt>
<trkpt lat="-27.3360805" lon="152.9604635">
<ele>19.779</ele>
<time>2016-03-02T02:21:40.000Z</time>
</trkpt>
<trkpt lat="-27.3360805" lon="152.9604635">
<ele>19.526</ele>
<time>2016-03-02T02:21:45.000Z</time>
</trkpt>
<trkpt lat="-27.3360805" lon="152.9604635">
<ele>19.229</ele>
<time>2016-03-02T02:22:15.985Z</time>
</trkpt>
<trkpt lat="-27.3361087" lon="152.9606967">
<ele>19.216</ele>
<time>2016-03-02T02:22:26.308Z</time>
</trkpt>
<trkpt lat="-27.3362268" lon="152.9608687">
<ele>19.188</ele>
<time>2016-03-02T02:22:29.460Z</time>
</trkpt>
<trkpt lat="-27.3363498" lon="152.9608973">
<ele>18.713</ele>
<time>2016-03-02T02:22:31.061Z</time>
</trkpt>
<trkpt lat="-27.3366043" lon="152.9608439">
<ele>18.078</ele>
<time>2016-03-02T02:22:33.908Z</time>
</trkpt>
<trkpt lat="-27.3368164" lon="152.9608170">
<ele>17.894</ele>
<time>2016-03-02T02:22:36.045Z</time>
</trkpt>
<trkpt lat="-27.3370231" lon="152.9607928">
<ele>18.246</ele>
<time>2016-03-02T02:22:38.184Z</time>
</trkpt>
<trkpt lat="-27.3373084" lon="152.9607667">
<ele>18.779</ele>
<time>2016-03-02T02:22:41.546Z</time>
</trkpt>
<trkpt lat="-27.3375226" lon="152.9607232">
<ele>19.154</ele>
<time>2016-03-02T02:22:44.952Z</time>
</trkpt>
<trkpt lat="-27.3376374" lon="152.9607173">
<ele>19.257</ele>
<time>2016-03-02T02:22:47.300Z</time>
</trkpt>
<trkpt lat="-27.3377534" lon="152.9606941">
<ele>19.233</ele>
<time>2016-03-02T02:22:50.627Z</time>
</trkpt>
<trkpt lat="-27.3378439" lon="152.9606645">
<ele>19.321</ele>
<time>2016-03-02T02:22:53.504Z</time>
</trkpt>
<trkpt lat="-27.3379489" lon="152.9606299">
<ele>19.746</ele>
<time>2016-03-02T02:22:55.672Z</time>
</trkpt>
<trkpt lat="-27.3381652" lon="152.9606278">
<ele>20.441</ele>
<time>2016-03-02T02:22:58.686Z</time>
</trkpt>
<trkpt lat="-27.3383548" lon="152.9606178">
<ele>21.073</ele>
<time>2016-03-02T02:23:00.635Z</time>
</trkpt>
<trkpt lat="-27.3385696" lon="152.9606261">
<ele>21.493</ele>
<time>2016-03-02T02:23:02.595Z</time>
</trkpt>
<trkpt lat="-27.3388983" lon="152.9607051">
<ele>21.858</ele>
<time>2016-03-02T02:23:05.449Z</time>
</trkpt>
<trkpt lat="-27.3391475" lon="152.9607856">
<ele>22.382</ele>
<time>2016-03-02T02:23:07.343Z</time>
</trkpt>
<trkpt lat="-27.3395439" lon="152.9609260">
<ele>23.054</ele>
<time>2016-03-02T02:23:10.132Z</time>
</trkpt>
<trkpt lat="-27.3400197" lon="152.9610538">
<ele>23.603</ele>
<time>2016-03-02T02:23:13.157Z</time>
</trkpt>
<trkpt lat="-27.3403553" lon="152.9611101">
<ele>23.567</ele>
<time>2016-03-02T02:23:15.169Z</time>
</trkpt>
<trkpt lat="-27.3408472" lon="152.9611585">
<ele>22.762</ele>
<time>2016-03-02T02:23:18.087Z</time>
</trkpt>
<trkpt lat="-27.3413467" lon="152.9612009">
<ele>21.075</ele>
<time>2016-03-02T02:23:21.056Z</time>
</trkpt>
<trkpt lat="-27.3418481" lon="152.9612361">
<ele>18.645</ele>
<time>2016-03-02T02:23:24.012Z</time>
</trkpt>
<trkpt lat="-27.3421714" lon="152.9612588">
<ele>16.383</ele>
<time>2016-03-02T02:23:25.932Z</time>
</trkpt>
<trkpt lat="-27.3425002" lon="152.9612703">
<ele>15.119</ele>
<time>2016-03-02T02:23:27.887Z</time>
</trkpt>
<trkpt lat="-27.3428484" lon="152.9613276">
<ele>14.470</ele>
<time>2016-03-02T02:23:29.968Z</time>
</trkpt>
<trkpt lat="-27.3433387" lon="152.9614060">
<ele>13.879</ele>
<time>2016-03-02T02:23:32.920Z</time>
</trkpt>
<trkpt lat="-27.3436585" lon="152.9615047">
<ele>13.424</ele>
<time>2016-03-02T02:23:34.936Z</time>
</trkpt>
<trkpt lat="-27.3440822" lon="152.9617084">
<ele>13.397</ele>
<time>2016-03-02T02:23:37.798Z</time>
</trkpt>
<trkpt lat="-27.3444742" lon="152.9619761">
<ele>14.164</ele>
<time>2016-03-02T02:23:40.763Z</time>
</trkpt>
<trkpt lat="-27.3448187" lon="152.9622631">
<ele>15.867</ele>
<time>2016-03-02T02:23:43.672Z</time>
</trkpt>
<trkpt lat="-27.3451104" lon="152.9625972">
<ele>17.710</ele>
<time>2016-03-02T02:23:46.632Z</time>
</trkpt>
<trkpt lat="-27.3453550" lon="152.9629284">
<ele>18.869</ele>
<time>2016-03-02T02:23:49.585Z</time>
</trkpt>
<trkpt lat="-27.3454688" lon="152.9630937">
<ele>19.384</ele>
<time>2016-03-02T02:23:51.366Z</time>
</trkpt>
<trkpt lat="-27.3455566" lon="152.9631942">
<ele>19.351</ele>
<time>2016-03-02T02:23:53.000Z</time>
</trkpt>
<trkpt lat="-27.3455566" lon="152.9631942">
<ele>18.844</ele>
<time>2016-03-02T02:23:57.000Z</time>
</trkpt>
<trkpt lat="-27.3455566" lon="152.9631942">
<ele>18.394</ele>
<time>2016-03-02T02:25:18.159Z</time>
</trkpt>
<trkpt lat="-27.3458265" lon="152.9632876">
<ele>18.391</ele>
<time>2016-03-02T02:25:25.995Z</time>
</trkpt>
<trkpt lat="-27.3460662" lon="152.9631388">
<ele>18.607</ele>
<time>2016-03-02T02:25:28.980Z</time>
</trkpt>
<trkpt lat="-27.3462355" lon="152.9629563">
<ele>18.745</ele>
<time>2016-03-02T02:25:30.827Z</time>
</trkpt>
<trkpt lat="-27.3465112" lon="152.9626007">
<ele>19.070</ele>
<time>2016-03-02T02:25:33.986Z</time>
</trkpt>
<trkpt lat="-27.3467880" lon="152.9623381">
<ele>19.978</ele>
<time>2016-03-02T02:25:36.594Z</time>
</trkpt>
<trkpt lat="-27.3471199" lon="152.9620105">
<ele>21.155</ele>
<time>2016-03-02T02:25:39.656Z</time>
</trkpt>
<trkpt lat="-27.3473457" lon="152.9618085">
<ele>21.793</ele>
<time>2016-03-02T02:25:41.808Z</time>
</trkpt>
<trkpt lat="-27.3477968" lon="152.9612351">
<ele>21.115</ele>
<time>2016-03-02T02:25:47.186Z</time>
</trkpt>
<trkpt lat="-27.3478840" lon="152.9610613">
<ele>20.133</ele>
<time>2016-03-02T02:25:48.880Z</time>
</trkpt>
<trkpt lat="-27.3479452" lon="152.9608958">
<ele>18.504</ele>
<time>2016-03-02T02:25:50.472Z</time>
</trkpt>
<trkpt lat="-27.3479998" lon="152.9606915">
<ele>16.556</ele>
<time>2016-03-02T02:25:52.388Z</time>
</trkpt>
<trkpt lat="-27.3480360" lon="152.9604670">
<ele>14.892</ele>
<time>2016-03-02T02:25:54.445Z</time>
</trkpt>
<trkpt lat="-27.3481264" lon="152.9601362">
<ele>13.655</ele>
<time>2016-03-02T02:25:57.560Z</time>
</trkpt>
<trkpt lat="-27.3479479" lon="152.9596238">
<ele>12.335</ele>
<time>2016-03-02T02:26:01.697Z</time>
</trkpt>
<trkpt lat="-27.3478726" lon="152.9591365">
<ele>10.725</ele>
<time>2016-03-02T02:26:04.931Z</time>
</trkpt>
<trkpt lat="-27.3478213" lon="152.9587600">
<ele>9.458</ele>
<time>2016-03-02T02:26:07.474Z</time>
</trkpt>
<trkpt lat="-27.3477946" lon="152.9585710">
<ele>9.251</ele>
<time>2016-03-02T02:26:08.983Z</time>
</trkpt>
<trkpt lat="-27.3477569" lon="152.9583035">
<ele>10.171</ele>
<time>2016-03-02T02:26:11.360Z</time>
</trkpt>
<trkpt lat="-27.3477362" lon="152.9580982">
<ele>14.636</ele>
<time>2016-03-02T02:26:13.418Z</time>
</trkpt>
<trkpt lat="-27.3478615" lon="152.9572400">
<ele>29.843</ele>
<time>2016-03-02T02:26:20.584Z</time>
</trkpt>
<trkpt lat="-27.3479664" lon="152.9570120">
<ele>27.562</ele>
<time>2016-03-02T02:26:22.444Z</time>
</trkpt>
<trkpt lat="-27.3481495" lon="152.9567342">
<ele>21.855</ele>
<time>2016-03-02T02:26:24.985Z</time>
</trkpt>
<trkpt lat="-27.3483444" lon="152.9565223">
<ele>18.708</ele>
<time>2016-03-02T02:26:27.280Z</time>
</trkpt>
<trkpt lat="-27.3485093" lon="152.9563439">
<ele>18.571</ele>
<time>2016-03-02T02:26:29.225Z</time>
</trkpt>
<trkpt lat="-27.3487728" lon="152.9560553">
<ele>20.270</ele>
<time>2016-03-02T02:26:32.242Z</time>
</trkpt>
<trkpt lat="-27.3490422" lon="152.9557748">
<ele>22.753</ele>
<time>2016-03-02T02:26:35.161Z</time>
</trkpt>
<trkpt lat="-27.3491810" lon="152.9556790">
<ele>24.579</ele>
<time>2016-03-02T02:26:36.446Z</time>
</trkpt>
<trkpt lat="-27.3496089" lon="152.9554994">
<ele>24.644</ele>
<time>2016-03-02T02:26:40.039Z</time>
</trkpt>
<trkpt lat="-27.3498436" lon="152.9554054">
<ele>23.043</ele>
<time>2016-03-02T02:26:41.965Z</time>
</trkpt>
<trkpt lat="-27.3500905" lon="152.9553067">
<ele>20.755</ele>
<time>2016-03-02T02:26:43.963Z</time>
</trkpt>
<trkpt lat="-27.3503226" lon="152.9552140">
<ele>19.412</ele>
<time>2016-03-02T02:26:45.832Z</time>
</trkpt>
<trkpt lat="-27.3506873" lon="152.9550683">
<ele>19.917</ele>
<time>2016-03-02T02:26:48.756Z</time>
</trkpt>
<trkpt lat="-27.3510623" lon="152.9549185">
<ele>21.571</ele>
<time>2016-03-02T02:26:51.729Z</time>
</trkpt>
<trkpt lat="-27.3513038" lon="152.9548221">
<ele>23.520</ele>
<time>2016-03-02T02:26:53.651Z</time>
</trkpt>
<trkpt lat="-27.3515552" lon="152.9547216">
<ele>25.466</ele>
<time>2016-03-02T02:26:55.652Z</time>
</trkpt>
<trkpt lat="-27.3519352" lon="152.9545719">
<ele>26.955</ele>
<time>2016-03-02T02:26:58.634Z</time>
</trkpt>
<trkpt lat="-27.3521956" lon="152.9544731">
<ele>27.202</ele>
<time>2016-03-02T02:27:00.642Z</time>
</trkpt>
<trkpt lat="-27.3524508" lon="152.9543784">
<ele>26.103</ele>
<time>2016-03-02T02:27:02.666Z</time>
</trkpt>
<trkpt lat="-27.3527940" lon="152.9542626">
<ele>24.516</ele>
<time>2016-03-02T02:27:05.649Z</time>
</trkpt>
<trkpt lat="-27.3530824" lon="152.9542400">
<ele>23.353</ele>
<time>2016-03-02T02:27:08.415Z</time>
</trkpt>
<trkpt lat="-27.3533006" lon="152.9542658">
<ele>23.059</ele>
<time>2016-03-02T02:27:10.562Z</time>
</trkpt>
<trkpt lat="-27.3537631" lon="152.9544159">
<ele>23.881</ele>
<time>2016-03-02T02:27:14.753Z</time>
</trkpt>
<trkpt lat="-27.3540726" lon="152.9546148">
<ele>25.550</ele>
<time>2016-03-02T02:27:17.674Z</time>
</trkpt>
<trkpt lat="-27.3542575" lon="152.9547746">
<ele>27.248</ele>
<time>2016-03-02T02:27:19.580Z</time>
</trkpt>
<trkpt lat="-27.3544345" lon="152.9549619">
<ele>28.261</ele>
<time>2016-03-02T02:27:21.599Z</time>
</trkpt>
<trkpt lat="-27.3545765" lon="152.9551371">
<ele>28.556</ele>
<time>2016-03-02T02:27:23.417Z</time>
</trkpt>
<trkpt lat="-27.3546823" lon="152.9553721">
<ele>28.522</ele>
<time>2016-03-02T02:27:25.457Z</time>
</trkpt>
<trkpt lat="-27.3548124" lon="152.9557580">
<ele>28.295</ele>
<time>2016-03-02T02:27:28.473Z</time>
</trkpt>
<trkpt lat="-27.3548513" lon="152.9561972">
<ele>27.407</ele>
<time>2016-03-02T02:27:31.463Z</time>
</trkpt>
<trkpt lat="-27.3548855" lon="152.9566773">
<ele>25.152</ele>
<time>2016-03-02T02:27:34.648Z</time>
</trkpt>
<trkpt lat="-27.3548994" lon="152.9570681">
<ele>21.560</ele>
<time>2016-03-02T02:27:37.507Z</time>
</trkpt>
<trkpt lat="-27.3548371" lon="152.9573051">
<ele>17.489</ele>
<time>2016-03-02T02:27:39.838Z</time>
</trkpt>
<trkpt lat="-27.3549008" lon="152.9574182">
<ele>13.795</ele>
<time>2016-03-02T02:27:41.787Z</time>
</trkpt>
<trkpt lat="-27.3549994" lon="152.9573456">
<ele>11.138</ele>
<time>2016-03-02T02:27:43.987Z</time>
</trkpt>
<trkpt lat="-27.3553015" lon="152.9573135">
<ele>9.965</ele>
<time>2016-03-02T02:27:48.307Z</time>
</trkpt>
<trkpt lat="-27.3555296" lon="152.9572685">
<ele>10.075</ele>
<time>2016-03-02T02:27:50.471Z</time>
</trkpt>
<trkpt lat="-27.3558452" lon="152.9571656">
<ele>10.886</ele>
<time>2016-03-02T02:27:53.414Z</time>
</trkpt>
<trkpt lat="-27.3560039" lon="152.9570615">
<ele>11.854</ele>
<time>2016-03-02T02:27:55.171Z</time>
</trkpt>
<trkpt lat="-27.3562439" lon="152.9569015">
<ele>12.382</ele>
<time>2016-03-02T02:27:58.000Z</time>
</trkpt>
<trkpt lat="-27.3563928" lon="152.9567855">
<ele>12.247</ele>
<time>2016-03-02T02:28:00.000Z</time>
</trkpt>
<trkpt lat="-27.3565334" lon="152.9566760">
<ele>11.965</ele>
<time>2016-03-02T02:28:02.000Z</time>
</trkpt>
<trkpt lat="-27.3566359" lon="152.9565961">
<ele>11.994</ele>
<time>2016-03-02T02:28:04.000Z</time>
</trkpt>
<trkpt lat="-27.3566359" lon="152.9565961">
<ele>12.151</ele>
<time>2016-03-02T02:28:10.000Z</time>
</trkpt>
<trkpt lat="-27.3566359" lon="152.9565961">
<ele>12.159</ele>
<time>2016-03-02T02:28:10.100Z</time>
</trkpt>
<trkpt lat="-27.3569548" lon="152.9566193">
<ele>12.088</ele>
<time>2016-03-02T02:31:41.998Z</time>
</trkpt>
<trkpt lat="-27.3569548" lon="152.9566193">
<ele>12.072</ele>
<time>2016-03-02T02:31:44.998Z</time>
</trkpt>
</trkseg>
</trk>
<extensions>
<fpdata xmlns="http://www.motionx.com/GPX-Extensions/1/1" sfv="10" origin="MotionXGPSFull 24.1 Build 5049R64">
<bin enc="base64">
RgIAAAACAAAA9Bh3S3611UEBAAAAZ53FLZS11UHRIvWcaE3KQI4TAAA5860BByLIu77K
UEBwOCdN5CQoQAAAAAAQAAAAR29vZG5hIExvb3AgUnVuABQAAAAyIE1hciAyMDE2ICA2
OjE4IGFtAAAAAACEncUtlLXVQY4E4DuUtdVBm2ITAUUCpOyvWKBALAAAAAEAAACUE7LM
mh5jQAMcJAlNWzvAByLIu77KUEAAAAAAAAAkQAAAAAAAADhAAAAAAAAdsUAAAAAAAAAA
AAAAAADXo3A9CidWQBBTDY+VwyhAAQAAAHcQ/b0GbKO/AQAAAAEAAABtInWInkzAP3td
1Nrz1bS/AQAAAAEAAAACAAAASE4z2MDJYEAAAAAAAAAAAAEAAAAUAAAAR29vZG5hX0xv
b3BfUnVuLmdweAABAAAAECRYNpS11UEKAAAAAQAAABAAAABHb29kbmEgTG9vcCBSdW4A
AAAAAAwAAAAAAAAAAAAAAPIGAACs4D8klLXVQQAAAAAAAAAAAAAAAAAAAAD/JUS8AgAA
AAAAAAAAAAAAAQAAACcAAAAyNC4xIEJ1aWxkIDUwNDlSNjQsIE1YQUUgOC4xIGIuIDYy
NlI2NAAAAAAAqG8AAAEAAAABKQAAAC351VaRUNZWBPURRE1+tdVB9RFETX611UEAAADo
jM8cQAAAAAADVwnKtn611UFXCcq2frXVQQAAIA281HpAAAAAAAQgI0e+frXVQSAjR75+
tdVBAADAggK0fEAAAAAAAkAZd0t+tdVB1CgGx3611UEAAADlw+N+QAAAAAACF51JSn+1
1UH+8slSf7XVQQAAYK/sgYBAAAAAAAJDj0lif7XVQebrDHF/tdVBAADAQ1hagkAAAAAA
AsGPyXd/tdVB4nbHvn+11UEAAOAnFTqLQAAAAAACxv4Lw3+11UGb5QbPf7XVQQAAgAJy
uYxAAAAAAAIV/gvUf7XVQWrcx+V/tdVBAAAgze3wjkAAAAAAAvbSB+9/tdVBuI+G+X+1
1UEAALCyYiCQQAAAAAACVcBJ/X+11UEAyEYFgLXVQQAAYC0zoJBAAAAAAAJUVYgIgLXV
QU+SjROAtdVBAAAQ/YZQkUAAAAAAAqBxjCCAtdVBGM2HM4C11UEAAJC0PICSQAAAAAAC
fNGNQIC11UHf3UdlgLXVQQAAwHrdy5RAAAAAAAJSDo18gLXVQSjRy4+AtdVBAAAgqMn/
lUAAAAAAA/lNCp+AtdVB+U0Kn4C11UEAABSe9seWQAAAAAAEMgbHzIC11UEyBsfMgLXV
QQAAuCPCo5lAAAAAAAMkfUjUgLXVQSR9SNSAtdVBAAAsjtkbmkAAAAAABKW/BQyBtdVB
pb8FDIG11UEAAJC4rZedQAAAAAAC0H6HkoC11UE7cohVgbXVQQAAaG/sF6FAAAAAAAI6
O4hWgbXVQZI8B2iBtdVBAAAoeuSjoUAAAAAAAnqKR3CBtdVBDvjGdoG11UEAAMjm39eh
QAAAAAACfolKiIG11UEg0YaigbXVQQAA2CPCqaJAAAAAAAL3BE60gbXVQUTay96BtdVB
AABAzrD9o0AAAAAAAt7nDeOBtdVBnBcJk4K11UEAADBMin2pQAAAAAADP8YH7YK11UE/
xgftgrXVQQAA+iyLqalAAAAAAASvCUf8grXVQa8JR/yCtdVBAADcSIUjqkAAAAAAAkiq
h+eCtdVBZhSHAoO11UEAACCdhVWqQAAAAAACXg6JIoe11UE0hEUjh7XVQQAA0EtpW6pA
AAAAAAOeYQetiLXVQZ5hB62ItdVBAADQS2lbqkAAAAAABKt3BcmItdVBq3cFyYi11UEA
ANBLaVuqQAAAAAACTUkGyYi11UFwfAfNiLXVQUSLVMxufKpAAAAAAAL/r4d6ibXVQavP
xUiMtdVBokXa5C93uEAAAAAAAt1DCFeMtdVBqdtFto211UGiRQpEJvS9QAAAAAACf6HI
xY211UHYZgXPjrXVQdEit6yMDMFAAAAAAALuy8gdj7XVQbzmhC6PtdVB0SJT4gQuwUAA
AAAAAvpGxy+PtdVBWKzHBJC11UHRIg+tBdjCQAAAAAACPC8KFZC11UEWpEaOk7XVQdEi
w5Z+yslAAAAAAAKSHgiYk7XVQfNXRq+TtdVB0SKFCfv4yUAAAAAAAs6rDMWTtdVBuDuG
7pO11UHRIlkp7kvKQAAAAAACjJ2JI5S11UFa10YklLXVQdEi9ZxoTcpAAAAAAAAAAAA=

</bin>
</fpdata>
</extensions>
</gpx>